<?xml version="1.0" encoding="UTF-8" standalone="no" ?>
<gpx xmlns="http://www.topografix.com/GPX/1/1" xmlns:xsi="http://www.w3.org/2001/XMLSchema-instance" xsi:schemaLocation="http://www.topografix.com/GPX/1/1 http://www.topografix.com/GPX/1/1/gpx.xsd" version="1.1" creator="VisuGPX - https://www.visugpx.com">
  <metadata>
    <name>SE-E-Pont St Martin La Chevrolière Le Bignon Chateau Thébaud St Fiacre Vertou Basse Goulaine Nantes</name>
    <desc><![CDATA[SE-E-Pont St Martin La Chevrolière Le Bignon Chateau Thébaud St Fiacre Vertou Basse Goulaine Nantes]]></desc>
  </metadata>
  <trk>
    <name><![CDATA[2022-07-14 07:03 GMT+2]]></name>
    <trkseg>
      <trkpt lat="47.16786" lon="-1.62655">
        <ele>82</ele>
        <time>2022-07-14T05:03:43Z</time>
      </trkpt>
      <trkpt lat="47.16783" lon="-1.6265">
        <ele>79</ele>
        <time>2022-07-14T05:05:44Z</time>
      </trkpt>
      <trkpt lat="47.16786" lon="-1.62664">
        <ele>81</ele>
        <time>2022-07-14T05:06:37Z</time>
      </trkpt>
      <trkpt lat="47.16778" lon="-1.62678">
        <ele>80</ele>
        <time>2022-07-14T05:06:40Z</time>
      </trkpt>
      <trkpt lat="47.16769" lon="-1.6268">
        <ele>79</ele>
        <time>2022-07-14T05:06:42Z</time>
      </trkpt>
      <trkpt lat="47.16759" lon="-1.62675">
        <ele>78</ele>
        <time>2022-07-14T05:06:44Z</time>
      </trkpt>
      <trkpt lat="47.16748" lon="-1.62677">
        <ele>78</ele>
        <time>2022-07-14T05:06:46Z</time>
      </trkpt>
      <trkpt lat="47.16738" lon="-1.62683">
        <ele>78</ele>
        <time>2022-07-14T05:06:48Z</time>
      </trkpt>
      <trkpt lat="47.16729" lon="-1.6269">
        <ele>78</ele>
        <time>2022-07-14T05:06:50Z</time>
      </trkpt>
      <trkpt lat="47.1672" lon="-1.62697">
        <ele>78</ele>
        <time>2022-07-14T05:06:52Z</time>
      </trkpt>
      <trkpt lat="47.1671" lon="-1.6269">
        <ele>78</ele>
        <time>2022-07-14T05:06:54Z</time>
      </trkpt>
      <trkpt lat="47.16704" lon="-1.62674">
        <ele>76</ele>
        <time>2022-07-14T05:06:56Z</time>
      </trkpt>
      <trkpt lat="47.16699" lon="-1.62656">
        <ele>76</ele>
        <time>2022-07-14T05:06:58Z</time>
      </trkpt>
      <trkpt lat="47.16697" lon="-1.62637">
        <ele>76</ele>
        <time>2022-07-14T05:07:00Z</time>
      </trkpt>
      <trkpt lat="47.16697" lon="-1.62616">
        <ele>75</ele>
        <time>2022-07-14T05:07:02Z</time>
      </trkpt>
      <trkpt lat="47.16697" lon="-1.62597">
        <ele>75</ele>
        <time>2022-07-14T05:07:04Z</time>
      </trkpt>
      <trkpt lat="47.16698" lon="-1.62576">
        <ele>75</ele>
        <time>2022-07-14T05:07:06Z</time>
      </trkpt>
      <trkpt lat="47.16701" lon="-1.62557">
        <ele>74</ele>
        <time>2022-07-14T05:07:08Z</time>
      </trkpt>
      <trkpt lat="47.16703" lon="-1.62536">
        <ele>74</ele>
        <time>2022-07-14T05:07:10Z</time>
      </trkpt>
      <trkpt lat="47.16706" lon="-1.62517">
        <ele>74</ele>
        <time>2022-07-14T05:07:12Z</time>
      </trkpt>
      <trkpt lat="47.1671" lon="-1.62498">
        <ele>73</ele>
        <time>2022-07-14T05:07:14Z</time>
      </trkpt>
      <trkpt lat="47.16713" lon="-1.62479">
        <ele>73</ele>
        <time>2022-07-14T05:07:16Z</time>
      </trkpt>
      <trkpt lat="47.16716" lon="-1.62461">
        <ele>73</ele>
        <time>2022-07-14T05:07:18Z</time>
      </trkpt>
      <trkpt lat="47.16718" lon="-1.62443">
        <ele>74</ele>
        <time>2022-07-14T05:07:20Z</time>
      </trkpt>
      <trkpt lat="47.16722" lon="-1.62428">
        <ele>74</ele>
        <time>2022-07-14T05:07:22Z</time>
      </trkpt>
      <trkpt lat="47.16727" lon="-1.62415">
        <ele>74</ele>
        <time>2022-07-14T05:07:24Z</time>
      </trkpt>
      <trkpt lat="47.16721" lon="-1.624">
        <ele>74</ele>
        <time>2022-07-14T05:07:26Z</time>
      </trkpt>
      <trkpt lat="47.16712" lon="-1.62389">
        <ele>74</ele>
        <time>2022-07-14T05:07:28Z</time>
      </trkpt>
      <trkpt lat="47.16703" lon="-1.62376">
        <ele>75</ele>
        <time>2022-07-14T05:07:30Z</time>
      </trkpt>
      <trkpt lat="47.16693" lon="-1.62366">
        <ele>76</ele>
        <time>2022-07-14T05:07:32Z</time>
      </trkpt>
      <trkpt lat="47.16681" lon="-1.62362">
        <ele>76</ele>
        <time>2022-07-14T05:07:34Z</time>
      </trkpt>
      <trkpt lat="47.16668" lon="-1.62361">
        <ele>77</ele>
        <time>2022-07-14T05:07:36Z</time>
      </trkpt>
      <trkpt lat="47.16657" lon="-1.62367">
        <ele>77</ele>
        <time>2022-07-14T05:07:38Z</time>
      </trkpt>
      <trkpt lat="47.16645" lon="-1.62376">
        <ele>78</ele>
        <time>2022-07-14T05:07:40Z</time>
      </trkpt>
      <trkpt lat="47.16635" lon="-1.62387">
        <ele>78</ele>
        <time>2022-07-14T05:07:42Z</time>
      </trkpt>
      <trkpt lat="47.16626" lon="-1.62401">
        <ele>80</ele>
        <time>2022-07-14T05:07:44Z</time>
      </trkpt>
      <trkpt lat="47.16617" lon="-1.62416">
        <ele>80</ele>
        <time>2022-07-14T05:07:46Z</time>
      </trkpt>
      <trkpt lat="47.16609" lon="-1.62431">
        <ele>80</ele>
        <time>2022-07-14T05:07:48Z</time>
      </trkpt>
      <trkpt lat="47.16602" lon="-1.62446">
        <ele>80</ele>
        <time>2022-07-14T05:07:50Z</time>
      </trkpt>
      <trkpt lat="47.16595" lon="-1.62462">
        <ele>81</ele>
        <time>2022-07-14T05:07:52Z</time>
      </trkpt>
      <trkpt lat="47.16589" lon="-1.62477">
        <ele>81</ele>
        <time>2022-07-14T05:07:54Z</time>
      </trkpt>
      <trkpt lat="47.16583" lon="-1.62492">
        <ele>81</ele>
        <time>2022-07-14T05:07:56Z</time>
      </trkpt>
      <trkpt lat="47.16577" lon="-1.62508">
        <ele>81</ele>
        <time>2022-07-14T05:07:58Z</time>
      </trkpt>
      <trkpt lat="47.16571" lon="-1.62523">
        <ele>81</ele>
        <time>2022-07-14T05:08:00Z</time>
      </trkpt>
      <trkpt lat="47.16564" lon="-1.62538">
        <ele>81</ele>
        <time>2022-07-14T05:08:02Z</time>
      </trkpt>
      <trkpt lat="47.16555" lon="-1.6255">
        <ele>83</ele>
        <time>2022-07-14T05:08:04Z</time>
      </trkpt>
      <trkpt lat="47.16546" lon="-1.62561">
        <ele>83</ele>
        <time>2022-07-14T05:08:06Z</time>
      </trkpt>
      <trkpt lat="47.16535" lon="-1.62567">
        <ele>83</ele>
        <time>2022-07-14T05:08:08Z</time>
      </trkpt>
      <trkpt lat="47.16522" lon="-1.62566">
        <ele>83</ele>
        <time>2022-07-14T05:08:10Z</time>
      </trkpt>
      <trkpt lat="47.1651" lon="-1.62562">
        <ele>83</ele>
        <time>2022-07-14T05:08:12Z</time>
      </trkpt>
      <trkpt lat="47.16497" lon="-1.62559">
        <ele>83</ele>
        <time>2022-07-14T05:08:14Z</time>
      </trkpt>
      <trkpt lat="47.16485" lon="-1.62555">
        <ele>82</ele>
        <time>2022-07-14T05:08:16Z</time>
      </trkpt>
      <trkpt lat="47.16473" lon="-1.62552">
        <ele>83</ele>
        <time>2022-07-14T05:08:18Z</time>
      </trkpt>
      <trkpt lat="47.16461" lon="-1.62548">
        <ele>83</ele>
        <time>2022-07-14T05:08:20Z</time>
      </trkpt>
      <trkpt lat="47.16449" lon="-1.62544">
        <ele>82</ele>
        <time>2022-07-14T05:08:22Z</time>
      </trkpt>
      <trkpt lat="47.16437" lon="-1.62543">
        <ele>82</ele>
        <time>2022-07-14T05:08:24Z</time>
      </trkpt>
      <trkpt lat="47.16425" lon="-1.62551">
        <ele>81</ele>
        <time>2022-07-14T05:08:26Z</time>
      </trkpt>
      <trkpt lat="47.16415" lon="-1.62562">
        <ele>81</ele>
        <time>2022-07-14T05:08:28Z</time>
      </trkpt>
      <trkpt lat="47.16405" lon="-1.62572">
        <ele>81</ele>
        <time>2022-07-14T05:08:30Z</time>
      </trkpt>
      <trkpt lat="47.16392" lon="-1.6258">
        <ele>81</ele>
        <time>2022-07-14T05:08:32Z</time>
      </trkpt>
      <trkpt lat="47.16379" lon="-1.62585">
        <ele>81</ele>
        <time>2022-07-14T05:08:34Z</time>
      </trkpt>
      <trkpt lat="47.16365" lon="-1.62585">
        <ele>80</ele>
        <time>2022-07-14T05:08:36Z</time>
      </trkpt>
      <trkpt lat="47.16351" lon="-1.62582">
        <ele>80</ele>
        <time>2022-07-14T05:08:38Z</time>
      </trkpt>
      <trkpt lat="47.16338" lon="-1.62577">
        <ele>80</ele>
        <time>2022-07-14T05:08:40Z</time>
      </trkpt>
      <trkpt lat="47.16325" lon="-1.62573">
        <ele>79</ele>
        <time>2022-07-14T05:08:42Z</time>
      </trkpt>
      <trkpt lat="47.16311" lon="-1.62574">
        <ele>79</ele>
        <time>2022-07-14T05:08:44Z</time>
      </trkpt>
      <trkpt lat="47.163" lon="-1.62583">
        <ele>79</ele>
        <time>2022-07-14T05:08:46Z</time>
      </trkpt>
      <trkpt lat="47.16291" lon="-1.62597">
        <ele>79</ele>
        <time>2022-07-14T05:08:48Z</time>
      </trkpt>
      <trkpt lat="47.16287" lon="-1.62615">
        <ele>79</ele>
        <time>2022-07-14T05:08:50Z</time>
      </trkpt>
      <trkpt lat="47.16283" lon="-1.62633">
        <ele>78</ele>
        <time>2022-07-14T05:08:52Z</time>
      </trkpt>
      <trkpt lat="47.1628" lon="-1.62652">
        <ele>78</ele>
        <time>2022-07-14T05:08:54Z</time>
      </trkpt>
      <trkpt lat="47.16279" lon="-1.62671">
        <ele>78</ele>
        <time>2022-07-14T05:08:56Z</time>
      </trkpt>
      <trkpt lat="47.16279" lon="-1.62687">
        <ele>78</ele>
        <time>2022-07-14T05:08:58Z</time>
      </trkpt>
      <trkpt lat="47.1628" lon="-1.627">
        <ele>78</ele>
        <time>2022-07-14T05:09:00Z</time>
      </trkpt>
      <trkpt lat="47.16283" lon="-1.62714">
        <ele>79</ele>
        <time>2022-07-14T05:09:04Z</time>
      </trkpt>
      <trkpt lat="47.16284" lon="-1.62729">
        <ele>79</ele>
        <time>2022-07-14T05:09:08Z</time>
      </trkpt>
      <trkpt lat="47.16272" lon="-1.62737">
        <ele>80</ele>
        <time>2022-07-14T05:09:11Z</time>
      </trkpt>
      <trkpt lat="47.1626" lon="-1.62741">
        <ele>80</ele>
        <time>2022-07-14T05:09:13Z</time>
      </trkpt>
      <trkpt lat="47.16248" lon="-1.62747">
        <ele>80</ele>
        <time>2022-07-14T05:09:15Z</time>
      </trkpt>
      <trkpt lat="47.16234" lon="-1.62755">
        <ele>80</ele>
        <time>2022-07-14T05:09:17Z</time>
      </trkpt>
      <trkpt lat="47.1622" lon="-1.62761">
        <ele>80</ele>
        <time>2022-07-14T05:09:19Z</time>
      </trkpt>
      <trkpt lat="47.16206" lon="-1.6277">
        <ele>79</ele>
        <time>2022-07-14T05:09:21Z</time>
      </trkpt>
      <trkpt lat="47.16193" lon="-1.62781">
        <ele>79</ele>
        <time>2022-07-14T05:09:23Z</time>
      </trkpt>
      <trkpt lat="47.16179" lon="-1.62794">
        <ele>78</ele>
        <time>2022-07-14T05:09:25Z</time>
      </trkpt>
      <trkpt lat="47.16165" lon="-1.62805">
        <ele>78</ele>
        <time>2022-07-14T05:09:27Z</time>
      </trkpt>
      <trkpt lat="47.16151" lon="-1.62817">
        <ele>77</ele>
        <time>2022-07-14T05:09:29Z</time>
      </trkpt>
      <trkpt lat="47.16138" lon="-1.62829">
        <ele>76</ele>
        <time>2022-07-14T05:09:31Z</time>
      </trkpt>
      <trkpt lat="47.16124" lon="-1.62841">
        <ele>76</ele>
        <time>2022-07-14T05:09:33Z</time>
      </trkpt>
      <trkpt lat="47.16111" lon="-1.62854">
        <ele>76</ele>
        <time>2022-07-14T05:09:35Z</time>
      </trkpt>
      <trkpt lat="47.16097" lon="-1.62867">
        <ele>76</ele>
        <time>2022-07-14T05:09:37Z</time>
      </trkpt>
      <trkpt lat="47.16083" lon="-1.62879">
        <ele>76</ele>
        <time>2022-07-14T05:09:39Z</time>
      </trkpt>
      <trkpt lat="47.16068" lon="-1.62892">
        <ele>76</ele>
        <time>2022-07-14T05:09:41Z</time>
      </trkpt>
      <trkpt lat="47.16054" lon="-1.62905">
        <ele>76</ele>
        <time>2022-07-14T05:09:43Z</time>
      </trkpt>
      <trkpt lat="47.1604" lon="-1.62918">
        <ele>75</ele>
        <time>2022-07-14T05:09:45Z</time>
      </trkpt>
      <trkpt lat="47.16025" lon="-1.62931">
        <ele>75</ele>
        <time>2022-07-14T05:09:47Z</time>
      </trkpt>
      <trkpt lat="47.16011" lon="-1.62944">
        <ele>74</ele>
        <time>2022-07-14T05:09:49Z</time>
      </trkpt>
      <trkpt lat="47.15996" lon="-1.62957">
        <ele>73</ele>
        <time>2022-07-14T05:09:51Z</time>
      </trkpt>
      <trkpt lat="47.15981" lon="-1.6297">
        <ele>72</ele>
        <time>2022-07-14T05:09:53Z</time>
      </trkpt>
      <trkpt lat="47.15967" lon="-1.62983">
        <ele>72</ele>
        <time>2022-07-14T05:09:55Z</time>
      </trkpt>
      <trkpt lat="47.15952" lon="-1.62997">
        <ele>71</ele>
        <time>2022-07-14T05:09:57Z</time>
      </trkpt>
      <trkpt lat="47.15936" lon="-1.6301">
        <ele>71</ele>
        <time>2022-07-14T05:09:59Z</time>
      </trkpt>
      <trkpt lat="47.15921" lon="-1.63023">
        <ele>71</ele>
        <time>2022-07-14T05:10:01Z</time>
      </trkpt>
      <trkpt lat="47.15906" lon="-1.63036">
        <ele>71</ele>
        <time>2022-07-14T05:10:03Z</time>
      </trkpt>
      <trkpt lat="47.15892" lon="-1.63049">
        <ele>71</ele>
        <time>2022-07-14T05:10:05Z</time>
      </trkpt>
      <trkpt lat="47.15878" lon="-1.63062">
        <ele>71</ele>
        <time>2022-07-14T05:10:07Z</time>
      </trkpt>
      <trkpt lat="47.15864" lon="-1.63073">
        <ele>71</ele>
        <time>2022-07-14T05:10:09Z</time>
      </trkpt>
      <trkpt lat="47.15851" lon="-1.63085">
        <ele>71</ele>
        <time>2022-07-14T05:10:11Z</time>
      </trkpt>
      <trkpt lat="47.15839" lon="-1.63095">
        <ele>71</ele>
        <time>2022-07-14T05:10:13Z</time>
      </trkpt>
      <trkpt lat="47.15826" lon="-1.63106">
        <ele>72</ele>
        <time>2022-07-14T05:10:15Z</time>
      </trkpt>
      <trkpt lat="47.15814" lon="-1.63116">
        <ele>72</ele>
        <time>2022-07-14T05:10:17Z</time>
      </trkpt>
      <trkpt lat="47.15803" lon="-1.63126">
        <ele>72</ele>
        <time>2022-07-14T05:10:19Z</time>
      </trkpt>
      <trkpt lat="47.15791" lon="-1.63137">
        <ele>73</ele>
        <time>2022-07-14T05:10:21Z</time>
      </trkpt>
      <trkpt lat="47.15779" lon="-1.63147">
        <ele>73</ele>
        <time>2022-07-14T05:10:23Z</time>
      </trkpt>
      <trkpt lat="47.15768" lon="-1.63158">
        <ele>74</ele>
        <time>2022-07-14T05:10:25Z</time>
      </trkpt>
      <trkpt lat="47.15755" lon="-1.63169">
        <ele>74</ele>
        <time>2022-07-14T05:10:27Z</time>
      </trkpt>
      <trkpt lat="47.15743" lon="-1.6318">
        <ele>74</ele>
        <time>2022-07-14T05:10:29Z</time>
      </trkpt>
      <trkpt lat="47.1573" lon="-1.63191">
        <ele>75</ele>
        <time>2022-07-14T05:10:31Z</time>
      </trkpt>
      <trkpt lat="47.15717" lon="-1.63202">
        <ele>74</ele>
        <time>2022-07-14T05:10:33Z</time>
      </trkpt>
      <trkpt lat="47.15705" lon="-1.63213">
        <ele>74</ele>
        <time>2022-07-14T05:10:35Z</time>
      </trkpt>
      <trkpt lat="47.15692" lon="-1.63225">
        <ele>74</ele>
        <time>2022-07-14T05:10:37Z</time>
      </trkpt>
      <trkpt lat="47.15679" lon="-1.63237">
        <ele>73</ele>
        <time>2022-07-14T05:10:39Z</time>
      </trkpt>
      <trkpt lat="47.15666" lon="-1.63248">
        <ele>73</ele>
        <time>2022-07-14T05:10:41Z</time>
      </trkpt>
      <trkpt lat="47.15653" lon="-1.6326">
        <ele>73</ele>
        <time>2022-07-14T05:10:43Z</time>
      </trkpt>
      <trkpt lat="47.1564" lon="-1.63271">
        <ele>73</ele>
        <time>2022-07-14T05:10:45Z</time>
      </trkpt>
      <trkpt lat="47.15628" lon="-1.63283">
        <ele>73</ele>
        <time>2022-07-14T05:10:47Z</time>
      </trkpt>
      <trkpt lat="47.15615" lon="-1.63294">
        <ele>74</ele>
        <time>2022-07-14T05:10:49Z</time>
      </trkpt>
      <trkpt lat="47.15602" lon="-1.63305">
        <ele>74</ele>
        <time>2022-07-14T05:10:51Z</time>
      </trkpt>
      <trkpt lat="47.1559" lon="-1.63316">
        <ele>75</ele>
        <time>2022-07-14T05:10:53Z</time>
      </trkpt>
      <trkpt lat="47.15578" lon="-1.63328">
        <ele>75</ele>
        <time>2022-07-14T05:10:55Z</time>
      </trkpt>
      <trkpt lat="47.15566" lon="-1.63338">
        <ele>75</ele>
        <time>2022-07-14T05:10:57Z</time>
      </trkpt>
      <trkpt lat="47.15554" lon="-1.63349">
        <ele>76</ele>
        <time>2022-07-14T05:10:59Z</time>
      </trkpt>
      <trkpt lat="47.15543" lon="-1.63358">
        <ele>75</ele>
        <time>2022-07-14T05:11:01Z</time>
      </trkpt>
      <trkpt lat="47.15532" lon="-1.63369">
        <ele>76</ele>
        <time>2022-07-14T05:11:03Z</time>
      </trkpt>
      <trkpt lat="47.15521" lon="-1.63379">
        <ele>76</ele>
        <time>2022-07-14T05:11:05Z</time>
      </trkpt>
      <trkpt lat="47.1551" lon="-1.63389">
        <ele>76</ele>
        <time>2022-07-14T05:11:07Z</time>
      </trkpt>
      <trkpt lat="47.15499" lon="-1.63398">
        <ele>76</ele>
        <time>2022-07-14T05:11:09Z</time>
      </trkpt>
      <trkpt lat="47.15488" lon="-1.63408">
        <ele>76</ele>
        <time>2022-07-14T05:11:11Z</time>
      </trkpt>
      <trkpt lat="47.15477" lon="-1.63418">
        <ele>76</ele>
        <time>2022-07-14T05:11:13Z</time>
      </trkpt>
      <trkpt lat="47.15466" lon="-1.63427">
        <ele>76</ele>
        <time>2022-07-14T05:11:15Z</time>
      </trkpt>
      <trkpt lat="47.15455" lon="-1.63437">
        <ele>76</ele>
        <time>2022-07-14T05:11:17Z</time>
      </trkpt>
      <trkpt lat="47.15444" lon="-1.63447">
        <ele>76</ele>
        <time>2022-07-14T05:11:19Z</time>
      </trkpt>
      <trkpt lat="47.15434" lon="-1.63457">
        <ele>77</ele>
        <time>2022-07-14T05:11:21Z</time>
      </trkpt>
      <trkpt lat="47.15423" lon="-1.63467">
        <ele>77</ele>
        <time>2022-07-14T05:11:23Z</time>
      </trkpt>
      <trkpt lat="47.15412" lon="-1.63477">
        <ele>77</ele>
        <time>2022-07-14T05:11:25Z</time>
      </trkpt>
      <trkpt lat="47.15403" lon="-1.63489">
        <ele>77</ele>
        <time>2022-07-14T05:11:27Z</time>
      </trkpt>
      <trkpt lat="47.15395" lon="-1.635">
        <ele>77</ele>
        <time>2022-07-14T05:11:29Z</time>
      </trkpt>
      <trkpt lat="47.15386" lon="-1.63509">
        <ele>77</ele>
        <time>2022-07-14T05:11:31Z</time>
      </trkpt>
      <trkpt lat="47.15375" lon="-1.63513">
        <ele>77</ele>
        <time>2022-07-14T05:11:33Z</time>
      </trkpt>
      <trkpt lat="47.15364" lon="-1.63521">
        <ele>77</ele>
        <time>2022-07-14T05:11:35Z</time>
      </trkpt>
      <trkpt lat="47.15353" lon="-1.63532">
        <ele>77</ele>
        <time>2022-07-14T05:11:37Z</time>
      </trkpt>
      <trkpt lat="47.15343" lon="-1.63543">
        <ele>77</ele>
        <time>2022-07-14T05:11:39Z</time>
      </trkpt>
      <trkpt lat="47.15333" lon="-1.63552">
        <ele>77</ele>
        <time>2022-07-14T05:11:41Z</time>
      </trkpt>
      <trkpt lat="47.15321" lon="-1.6356">
        <ele>77</ele>
        <time>2022-07-14T05:11:43Z</time>
      </trkpt>
      <trkpt lat="47.15309" lon="-1.63567">
        <ele>77</ele>
        <time>2022-07-14T05:11:45Z</time>
      </trkpt>
      <trkpt lat="47.15298" lon="-1.63577">
        <ele>77</ele>
        <time>2022-07-14T05:11:47Z</time>
      </trkpt>
      <trkpt lat="47.15287" lon="-1.63586">
        <ele>77</ele>
        <time>2022-07-14T05:11:49Z</time>
      </trkpt>
      <trkpt lat="47.15276" lon="-1.63597">
        <ele>77</ele>
        <time>2022-07-14T05:11:51Z</time>
      </trkpt>
      <trkpt lat="47.15265" lon="-1.63607">
        <ele>78</ele>
        <time>2022-07-14T05:11:53Z</time>
      </trkpt>
      <trkpt lat="47.15253" lon="-1.63616">
        <ele>78</ele>
        <time>2022-07-14T05:11:55Z</time>
      </trkpt>
      <trkpt lat="47.1524" lon="-1.63624">
        <ele>78</ele>
        <time>2022-07-14T05:11:57Z</time>
      </trkpt>
      <trkpt lat="47.15228" lon="-1.63634">
        <ele>77</ele>
        <time>2022-07-14T05:11:59Z</time>
      </trkpt>
      <trkpt lat="47.15217" lon="-1.63646">
        <ele>78</ele>
        <time>2022-07-14T05:12:01Z</time>
      </trkpt>
      <trkpt lat="47.15205" lon="-1.63657">
        <ele>78</ele>
        <time>2022-07-14T05:12:03Z</time>
      </trkpt>
      <trkpt lat="47.15193" lon="-1.63668">
        <ele>78</ele>
        <time>2022-07-14T05:12:05Z</time>
      </trkpt>
      <trkpt lat="47.15181" lon="-1.63678">
        <ele>77</ele>
        <time>2022-07-14T05:12:07Z</time>
      </trkpt>
      <trkpt lat="47.15168" lon="-1.63689">
        <ele>77</ele>
        <time>2022-07-14T05:12:09Z</time>
      </trkpt>
      <trkpt lat="47.15157" lon="-1.637">
        <ele>77</ele>
        <time>2022-07-14T05:12:11Z</time>
      </trkpt>
      <trkpt lat="47.15145" lon="-1.63712">
        <ele>77</ele>
        <time>2022-07-14T05:12:13Z</time>
      </trkpt>
      <trkpt lat="47.15133" lon="-1.63723">
        <ele>77</ele>
        <time>2022-07-14T05:12:15Z</time>
      </trkpt>
      <trkpt lat="47.15122" lon="-1.63735">
        <ele>77</ele>
        <time>2022-07-14T05:12:17Z</time>
      </trkpt>
      <trkpt lat="47.1511" lon="-1.63748">
        <ele>78</ele>
        <time>2022-07-14T05:12:19Z</time>
      </trkpt>
      <trkpt lat="47.15099" lon="-1.63759">
        <ele>78</ele>
        <time>2022-07-14T05:12:21Z</time>
      </trkpt>
      <trkpt lat="47.15088" lon="-1.63772">
        <ele>78</ele>
        <time>2022-07-14T05:12:23Z</time>
      </trkpt>
      <trkpt lat="47.15077" lon="-1.63786">
        <ele>78</ele>
        <time>2022-07-14T05:12:25Z</time>
      </trkpt>
      <trkpt lat="47.15067" lon="-1.63799">
        <ele>78</ele>
        <time>2022-07-14T05:12:27Z</time>
      </trkpt>
      <trkpt lat="47.15056" lon="-1.63812">
        <ele>77</ele>
        <time>2022-07-14T05:12:29Z</time>
      </trkpt>
      <trkpt lat="47.15046" lon="-1.63826">
        <ele>78</ele>
        <time>2022-07-14T05:12:31Z</time>
      </trkpt>
      <trkpt lat="47.15036" lon="-1.63839">
        <ele>78</ele>
        <time>2022-07-14T05:12:33Z</time>
      </trkpt>
      <trkpt lat="47.15026" lon="-1.63853">
        <ele>77</ele>
        <time>2022-07-14T05:12:35Z</time>
      </trkpt>
      <trkpt lat="47.15016" lon="-1.63867">
        <ele>78</ele>
        <time>2022-07-14T05:12:37Z</time>
      </trkpt>
      <trkpt lat="47.15007" lon="-1.63881">
        <ele>78</ele>
        <time>2022-07-14T05:12:39Z</time>
      </trkpt>
      <trkpt lat="47.14998" lon="-1.63895">
        <ele>78</ele>
        <time>2022-07-14T05:12:41Z</time>
      </trkpt>
      <trkpt lat="47.14988" lon="-1.63909">
        <ele>78</ele>
        <time>2022-07-14T05:12:43Z</time>
      </trkpt>
      <trkpt lat="47.14979" lon="-1.63924">
        <ele>78</ele>
        <time>2022-07-14T05:12:45Z</time>
      </trkpt>
      <trkpt lat="47.1497" lon="-1.63938">
        <ele>78</ele>
        <time>2022-07-14T05:12:47Z</time>
      </trkpt>
      <trkpt lat="47.14962" lon="-1.63952">
        <ele>79</ele>
        <time>2022-07-14T05:12:49Z</time>
      </trkpt>
      <trkpt lat="47.14953" lon="-1.63968">
        <ele>78</ele>
        <time>2022-07-14T05:12:51Z</time>
      </trkpt>
      <trkpt lat="47.14945" lon="-1.63984">
        <ele>78</ele>
        <time>2022-07-14T05:12:53Z</time>
      </trkpt>
      <trkpt lat="47.14937" lon="-1.63999">
        <ele>77</ele>
        <time>2022-07-14T05:12:55Z</time>
      </trkpt>
      <trkpt lat="47.1493" lon="-1.64012">
        <ele>78</ele>
        <time>2022-07-14T05:12:57Z</time>
      </trkpt>
      <trkpt lat="47.14923" lon="-1.64024">
        <ele>77</ele>
        <time>2022-07-14T05:12:59Z</time>
      </trkpt>
      <trkpt lat="47.14915" lon="-1.64038">
        <ele>76</ele>
        <time>2022-07-14T05:13:02Z</time>
      </trkpt>
      <trkpt lat="47.14908" lon="-1.64049">
        <ele>77</ele>
        <time>2022-07-14T05:13:05Z</time>
      </trkpt>
      <trkpt lat="47.14898" lon="-1.64052">
        <ele>77</ele>
        <time>2022-07-14T05:13:07Z</time>
      </trkpt>
      <trkpt lat="47.14888" lon="-1.64044">
        <ele>77</ele>
        <time>2022-07-14T05:13:09Z</time>
      </trkpt>
      <trkpt lat="47.1488" lon="-1.64029">
        <ele>76</ele>
        <time>2022-07-14T05:13:11Z</time>
      </trkpt>
      <trkpt lat="47.14871" lon="-1.64013">
        <ele>76</ele>
        <time>2022-07-14T05:13:13Z</time>
      </trkpt>
      <trkpt lat="47.14862" lon="-1.63999">
        <ele>77</ele>
        <time>2022-07-14T05:13:15Z</time>
      </trkpt>
      <trkpt lat="47.1485" lon="-1.6399">
        <ele>77</ele>
        <time>2022-07-14T05:13:17Z</time>
      </trkpt>
      <trkpt lat="47.14836" lon="-1.63987">
        <ele>76</ele>
        <time>2022-07-14T05:13:19Z</time>
      </trkpt>
      <trkpt lat="47.14823" lon="-1.63993">
        <ele>76</ele>
        <time>2022-07-14T05:13:21Z</time>
      </trkpt>
      <trkpt lat="47.14812" lon="-1.64004">
        <ele>76</ele>
        <time>2022-07-14T05:13:23Z</time>
      </trkpt>
      <trkpt lat="47.148" lon="-1.64016">
        <ele>77</ele>
        <time>2022-07-14T05:13:25Z</time>
      </trkpt>
      <trkpt lat="47.14784" lon="-1.64034">
        <ele>77</ele>
        <time>2022-07-14T05:13:28Z</time>
      </trkpt>
      <trkpt lat="47.14771" lon="-1.64043">
        <ele>77</ele>
        <time>2022-07-14T05:13:30Z</time>
      </trkpt>
      <trkpt lat="47.14751" lon="-1.64054">
        <ele>77</ele>
        <time>2022-07-14T05:13:33Z</time>
      </trkpt>
      <trkpt lat="47.14737" lon="-1.64059">
        <ele>78</ele>
        <time>2022-07-14T05:13:35Z</time>
      </trkpt>
      <trkpt lat="47.14724" lon="-1.64065">
        <ele>78</ele>
        <time>2022-07-14T05:13:37Z</time>
      </trkpt>
      <trkpt lat="47.14711" lon="-1.64071">
        <ele>78</ele>
        <time>2022-07-14T05:13:39Z</time>
      </trkpt>
      <trkpt lat="47.14699" lon="-1.64077">
        <ele>79</ele>
        <time>2022-07-14T05:13:41Z</time>
      </trkpt>
      <trkpt lat="47.14686" lon="-1.64082">
        <ele>79</ele>
        <time>2022-07-14T05:13:43Z</time>
      </trkpt>
      <trkpt lat="47.14674" lon="-1.64087">
        <ele>79</ele>
        <time>2022-07-14T05:13:45Z</time>
      </trkpt>
      <trkpt lat="47.1466" lon="-1.64093">
        <ele>80</ele>
        <time>2022-07-14T05:13:47Z</time>
      </trkpt>
      <trkpt lat="47.14646" lon="-1.641">
        <ele>80</ele>
        <time>2022-07-14T05:13:49Z</time>
      </trkpt>
      <trkpt lat="47.14632" lon="-1.64107">
        <ele>79</ele>
        <time>2022-07-14T05:13:51Z</time>
      </trkpt>
      <trkpt lat="47.14612" lon="-1.64117">
        <ele>80</ele>
        <time>2022-07-14T05:13:54Z</time>
      </trkpt>
      <trkpt lat="47.14592" lon="-1.6413">
        <ele>80</ele>
        <time>2022-07-14T05:13:57Z</time>
      </trkpt>
      <trkpt lat="47.14579" lon="-1.64138">
        <ele>78</ele>
        <time>2022-07-14T05:13:59Z</time>
      </trkpt>
      <trkpt lat="47.14566" lon="-1.64146">
        <ele>77</ele>
        <time>2022-07-14T05:14:01Z</time>
      </trkpt>
      <trkpt lat="47.14553" lon="-1.64154">
        <ele>77</ele>
        <time>2022-07-14T05:14:03Z</time>
      </trkpt>
      <trkpt lat="47.1454" lon="-1.64162">
        <ele>78</ele>
        <time>2022-07-14T05:14:05Z</time>
      </trkpt>
      <trkpt lat="47.14528" lon="-1.6417">
        <ele>78</ele>
        <time>2022-07-14T05:14:07Z</time>
      </trkpt>
      <trkpt lat="47.14515" lon="-1.64179">
        <ele>79</ele>
        <time>2022-07-14T05:14:09Z</time>
      </trkpt>
      <trkpt lat="47.14501" lon="-1.64188">
        <ele>78</ele>
        <time>2022-07-14T05:14:11Z</time>
      </trkpt>
      <trkpt lat="47.14488" lon="-1.64197">
        <ele>79</ele>
        <time>2022-07-14T05:14:13Z</time>
      </trkpt>
      <trkpt lat="47.14474" lon="-1.64205">
        <ele>78</ele>
        <time>2022-07-14T05:14:15Z</time>
      </trkpt>
      <trkpt lat="47.1446" lon="-1.64212">
        <ele>78</ele>
        <time>2022-07-14T05:14:17Z</time>
      </trkpt>
      <trkpt lat="47.14445" lon="-1.64216">
        <ele>79</ele>
        <time>2022-07-14T05:14:19Z</time>
      </trkpt>
      <trkpt lat="47.14431" lon="-1.64218">
        <ele>79</ele>
        <time>2022-07-14T05:14:21Z</time>
      </trkpt>
      <trkpt lat="47.14417" lon="-1.64219">
        <ele>80</ele>
        <time>2022-07-14T05:14:23Z</time>
      </trkpt>
      <trkpt lat="47.14402" lon="-1.64222">
        <ele>80</ele>
        <time>2022-07-14T05:14:25Z</time>
      </trkpt>
      <trkpt lat="47.14388" lon="-1.64224">
        <ele>81</ele>
        <time>2022-07-14T05:14:27Z</time>
      </trkpt>
      <trkpt lat="47.14375" lon="-1.64226">
        <ele>82</ele>
        <time>2022-07-14T05:14:29Z</time>
      </trkpt>
      <trkpt lat="47.14361" lon="-1.64227">
        <ele>83</ele>
        <time>2022-07-14T05:14:31Z</time>
      </trkpt>
      <trkpt lat="47.14348" lon="-1.64229">
        <ele>83</ele>
        <time>2022-07-14T05:14:33Z</time>
      </trkpt>
      <trkpt lat="47.14333" lon="-1.64231">
        <ele>84</ele>
        <time>2022-07-14T05:14:35Z</time>
      </trkpt>
      <trkpt lat="47.14319" lon="-1.64234">
        <ele>84</ele>
        <time>2022-07-14T05:14:37Z</time>
      </trkpt>
      <trkpt lat="47.14304" lon="-1.64237">
        <ele>83</ele>
        <time>2022-07-14T05:14:39Z</time>
      </trkpt>
      <trkpt lat="47.14291" lon="-1.64241">
        <ele>83</ele>
        <time>2022-07-14T05:14:41Z</time>
      </trkpt>
      <trkpt lat="47.14278" lon="-1.64248">
        <ele>82</ele>
        <time>2022-07-14T05:14:43Z</time>
      </trkpt>
      <trkpt lat="47.14265" lon="-1.64258">
        <ele>82</ele>
        <time>2022-07-14T05:14:45Z</time>
      </trkpt>
      <trkpt lat="47.14253" lon="-1.6427">
        <ele>81</ele>
        <time>2022-07-14T05:14:47Z</time>
      </trkpt>
      <trkpt lat="47.14241" lon="-1.64282">
        <ele>82</ele>
        <time>2022-07-14T05:14:49Z</time>
      </trkpt>
      <trkpt lat="47.14228" lon="-1.64294">
        <ele>82</ele>
        <time>2022-07-14T05:14:51Z</time>
      </trkpt>
      <trkpt lat="47.14217" lon="-1.64307">
        <ele>83</ele>
        <time>2022-07-14T05:14:53Z</time>
      </trkpt>
      <trkpt lat="47.14205" lon="-1.64318">
        <ele>83</ele>
        <time>2022-07-14T05:14:55Z</time>
      </trkpt>
      <trkpt lat="47.14193" lon="-1.64333">
        <ele>82</ele>
        <time>2022-07-14T05:14:57Z</time>
      </trkpt>
      <trkpt lat="47.14181" lon="-1.64347">
        <ele>82</ele>
        <time>2022-07-14T05:14:59Z</time>
      </trkpt>
      <trkpt lat="47.14167" lon="-1.6436">
        <ele>80</ele>
        <time>2022-07-14T05:15:01Z</time>
      </trkpt>
      <trkpt lat="47.14154" lon="-1.64371">
        <ele>80</ele>
        <time>2022-07-14T05:15:03Z</time>
      </trkpt>
      <trkpt lat="47.14141" lon="-1.6438">
        <ele>80</ele>
        <time>2022-07-14T05:15:05Z</time>
      </trkpt>
      <trkpt lat="47.14127" lon="-1.64391">
        <ele>79</ele>
        <time>2022-07-14T05:15:07Z</time>
      </trkpt>
      <trkpt lat="47.14113" lon="-1.64401">
        <ele>78</ele>
        <time>2022-07-14T05:15:09Z</time>
      </trkpt>
      <trkpt lat="47.141" lon="-1.64413">
        <ele>77</ele>
        <time>2022-07-14T05:15:11Z</time>
      </trkpt>
      <trkpt lat="47.14087" lon="-1.64423">
        <ele>76</ele>
        <time>2022-07-14T05:15:13Z</time>
      </trkpt>
      <trkpt lat="47.14075" lon="-1.64432">
        <ele>76</ele>
        <time>2022-07-14T05:15:15Z</time>
      </trkpt>
      <trkpt lat="47.14062" lon="-1.64443">
        <ele>75</ele>
        <time>2022-07-14T05:15:17Z</time>
      </trkpt>
      <trkpt lat="47.14049" lon="-1.64453">
        <ele>75</ele>
        <time>2022-07-14T05:15:19Z</time>
      </trkpt>
      <trkpt lat="47.14038" lon="-1.64462">
        <ele>75</ele>
        <time>2022-07-14T05:15:21Z</time>
      </trkpt>
      <trkpt lat="47.14026" lon="-1.64471">
        <ele>74</ele>
        <time>2022-07-14T05:15:23Z</time>
      </trkpt>
      <trkpt lat="47.14013" lon="-1.6448">
        <ele>74</ele>
        <time>2022-07-14T05:15:25Z</time>
      </trkpt>
      <trkpt lat="47.14" lon="-1.64489">
        <ele>73</ele>
        <time>2022-07-14T05:15:27Z</time>
      </trkpt>
      <trkpt lat="47.13987" lon="-1.64501">
        <ele>73</ele>
        <time>2022-07-14T05:15:29Z</time>
      </trkpt>
      <trkpt lat="47.13975" lon="-1.64513">
        <ele>73</ele>
        <time>2022-07-14T05:15:31Z</time>
      </trkpt>
      <trkpt lat="47.13963" lon="-1.64527">
        <ele>73</ele>
        <time>2022-07-14T05:15:33Z</time>
      </trkpt>
      <trkpt lat="47.13951" lon="-1.6454">
        <ele>73</ele>
        <time>2022-07-14T05:15:35Z</time>
      </trkpt>
      <trkpt lat="47.13939" lon="-1.64552">
        <ele>73</ele>
        <time>2022-07-14T05:15:37Z</time>
      </trkpt>
      <trkpt lat="47.13927" lon="-1.64563">
        <ele>73</ele>
        <time>2022-07-14T05:15:39Z</time>
      </trkpt>
      <trkpt lat="47.13915" lon="-1.64574">
        <ele>74</ele>
        <time>2022-07-14T05:15:41Z</time>
      </trkpt>
      <trkpt lat="47.13903" lon="-1.64583">
        <ele>75</ele>
        <time>2022-07-14T05:15:43Z</time>
      </trkpt>
      <trkpt lat="47.13892" lon="-1.64591">
        <ele>75</ele>
        <time>2022-07-14T05:15:45Z</time>
      </trkpt>
      <trkpt lat="47.13879" lon="-1.64597">
        <ele>75</ele>
        <time>2022-07-14T05:15:47Z</time>
      </trkpt>
      <trkpt lat="47.13865" lon="-1.646">
        <ele>76</ele>
        <time>2022-07-14T05:15:49Z</time>
      </trkpt>
      <trkpt lat="47.13851" lon="-1.64603">
        <ele>76</ele>
        <time>2022-07-14T05:15:51Z</time>
      </trkpt>
      <trkpt lat="47.13837" lon="-1.64606">
        <ele>75</ele>
        <time>2022-07-14T05:15:53Z</time>
      </trkpt>
      <trkpt lat="47.13823" lon="-1.64606">
        <ele>75</ele>
        <time>2022-07-14T05:15:55Z</time>
      </trkpt>
      <trkpt lat="47.13811" lon="-1.64604">
        <ele>75</ele>
        <time>2022-07-14T05:15:57Z</time>
      </trkpt>
      <trkpt lat="47.138" lon="-1.64601">
        <ele>75</ele>
        <time>2022-07-14T05:15:59Z</time>
      </trkpt>
      <trkpt lat="47.13787" lon="-1.64598">
        <ele>76</ele>
        <time>2022-07-14T05:16:01Z</time>
      </trkpt>
      <trkpt lat="47.13775" lon="-1.64596">
        <ele>76</ele>
        <time>2022-07-14T05:16:03Z</time>
      </trkpt>
      <trkpt lat="47.1376" lon="-1.64593">
        <ele>75</ele>
        <time>2022-07-14T05:16:05Z</time>
      </trkpt>
      <trkpt lat="47.13747" lon="-1.6459">
        <ele>74</ele>
        <time>2022-07-14T05:16:07Z</time>
      </trkpt>
      <trkpt lat="47.13734" lon="-1.64587">
        <ele>74</ele>
        <time>2022-07-14T05:16:09Z</time>
      </trkpt>
      <trkpt lat="47.13721" lon="-1.64585">
        <ele>74</ele>
        <time>2022-07-14T05:16:11Z</time>
      </trkpt>
      <trkpt lat="47.13709" lon="-1.64582">
        <ele>74</ele>
        <time>2022-07-14T05:16:13Z</time>
      </trkpt>
      <trkpt lat="47.13697" lon="-1.6458">
        <ele>74</ele>
        <time>2022-07-14T05:16:15Z</time>
      </trkpt>
      <trkpt lat="47.13685" lon="-1.64576">
        <ele>75</ele>
        <time>2022-07-14T05:16:17Z</time>
      </trkpt>
      <trkpt lat="47.13673" lon="-1.64574">
        <ele>75</ele>
        <time>2022-07-14T05:16:19Z</time>
      </trkpt>
      <trkpt lat="47.1366" lon="-1.64571">
        <ele>76</ele>
        <time>2022-07-14T05:16:21Z</time>
      </trkpt>
      <trkpt lat="47.13648" lon="-1.64569">
        <ele>75</ele>
        <time>2022-07-14T05:16:23Z</time>
      </trkpt>
      <trkpt lat="47.13637" lon="-1.64565">
        <ele>74</ele>
        <time>2022-07-14T05:16:25Z</time>
      </trkpt>
      <trkpt lat="47.13626" lon="-1.64563">
        <ele>75</ele>
        <time>2022-07-14T05:16:27Z</time>
      </trkpt>
      <trkpt lat="47.13615" lon="-1.64561">
        <ele>75</ele>
        <time>2022-07-14T05:16:29Z</time>
      </trkpt>
      <trkpt lat="47.13604" lon="-1.64559">
        <ele>75</ele>
        <time>2022-07-14T05:16:31Z</time>
      </trkpt>
      <trkpt lat="47.13592" lon="-1.6456">
        <ele>76</ele>
        <time>2022-07-14T05:16:33Z</time>
      </trkpt>
      <trkpt lat="47.13581" lon="-1.64565">
        <ele>76</ele>
        <time>2022-07-14T05:16:35Z</time>
      </trkpt>
      <trkpt lat="47.13569" lon="-1.64572">
        <ele>75</ele>
        <time>2022-07-14T05:16:37Z</time>
      </trkpt>
      <trkpt lat="47.13558" lon="-1.6458">
        <ele>74</ele>
        <time>2022-07-14T05:16:39Z</time>
      </trkpt>
      <trkpt lat="47.13548" lon="-1.6459">
        <ele>75</ele>
        <time>2022-07-14T05:16:41Z</time>
      </trkpt>
      <trkpt lat="47.13538" lon="-1.64601">
        <ele>75</ele>
        <time>2022-07-14T05:16:43Z</time>
      </trkpt>
      <trkpt lat="47.13527" lon="-1.64612">
        <ele>75</ele>
        <time>2022-07-14T05:16:45Z</time>
      </trkpt>
      <trkpt lat="47.13518" lon="-1.64621">
        <ele>75</ele>
        <time>2022-07-14T05:16:47Z</time>
      </trkpt>
      <trkpt lat="47.13507" lon="-1.64631">
        <ele>76</ele>
        <time>2022-07-14T05:16:49Z</time>
      </trkpt>
      <trkpt lat="47.13497" lon="-1.64639">
        <ele>76</ele>
        <time>2022-07-14T05:16:51Z</time>
      </trkpt>
      <trkpt lat="47.13485" lon="-1.64644">
        <ele>77</ele>
        <time>2022-07-14T05:16:53Z</time>
      </trkpt>
      <trkpt lat="47.13472" lon="-1.64646">
        <ele>77</ele>
        <time>2022-07-14T05:16:55Z</time>
      </trkpt>
      <trkpt lat="47.1346" lon="-1.64647">
        <ele>76</ele>
        <time>2022-07-14T05:16:57Z</time>
      </trkpt>
      <trkpt lat="47.13447" lon="-1.64646">
        <ele>76</ele>
        <time>2022-07-14T05:16:59Z</time>
      </trkpt>
      <trkpt lat="47.13435" lon="-1.64645">
        <ele>76</ele>
        <time>2022-07-14T05:17:01Z</time>
      </trkpt>
      <trkpt lat="47.13424" lon="-1.64644">
        <ele>76</ele>
        <time>2022-07-14T05:17:03Z</time>
      </trkpt>
      <trkpt lat="47.13414" lon="-1.64644">
        <ele>77</ele>
        <time>2022-07-14T05:17:05Z</time>
      </trkpt>
      <trkpt lat="47.13403" lon="-1.64638">
        <ele>78</ele>
        <time>2022-07-14T05:17:08Z</time>
      </trkpt>
      <trkpt lat="47.13396" lon="-1.64623">
        <ele>80</ele>
        <time>2022-07-14T05:17:11Z</time>
      </trkpt>
      <trkpt lat="47.13392" lon="-1.64604">
        <ele>81</ele>
        <time>2022-07-14T05:17:13Z</time>
      </trkpt>
      <trkpt lat="47.13389" lon="-1.64582">
        <ele>81</ele>
        <time>2022-07-14T05:17:15Z</time>
      </trkpt>
      <trkpt lat="47.13385" lon="-1.64562">
        <ele>80</ele>
        <time>2022-07-14T05:17:17Z</time>
      </trkpt>
      <trkpt lat="47.1338" lon="-1.64543">
        <ele>78</ele>
        <time>2022-07-14T05:17:19Z</time>
      </trkpt>
      <trkpt lat="47.13375" lon="-1.64524">
        <ele>77</ele>
        <time>2022-07-14T05:17:21Z</time>
      </trkpt>
      <trkpt lat="47.13368" lon="-1.64505">
        <ele>76</ele>
        <time>2022-07-14T05:17:23Z</time>
      </trkpt>
      <trkpt lat="47.13361" lon="-1.64488">
        <ele>75</ele>
        <time>2022-07-14T05:17:25Z</time>
      </trkpt>
      <trkpt lat="47.13354" lon="-1.6447">
        <ele>74</ele>
        <time>2022-07-14T05:17:27Z</time>
      </trkpt>
      <trkpt lat="47.13345" lon="-1.64451">
        <ele>74</ele>
        <time>2022-07-14T05:17:29Z</time>
      </trkpt>
      <trkpt lat="47.13337" lon="-1.64432">
        <ele>73</ele>
        <time>2022-07-14T05:17:31Z</time>
      </trkpt>
      <trkpt lat="47.13327" lon="-1.64413">
        <ele>72</ele>
        <time>2022-07-14T05:17:33Z</time>
      </trkpt>
      <trkpt lat="47.13318" lon="-1.64393">
        <ele>71</ele>
        <time>2022-07-14T05:17:35Z</time>
      </trkpt>
      <trkpt lat="47.13308" lon="-1.64373">
        <ele>70</ele>
        <time>2022-07-14T05:17:37Z</time>
      </trkpt>
      <trkpt lat="47.13298" lon="-1.64353">
        <ele>70</ele>
        <time>2022-07-14T05:17:39Z</time>
      </trkpt>
      <trkpt lat="47.13289" lon="-1.64332">
        <ele>69</ele>
        <time>2022-07-14T05:17:41Z</time>
      </trkpt>
      <trkpt lat="47.13279" lon="-1.64312">
        <ele>68</ele>
        <time>2022-07-14T05:17:43Z</time>
      </trkpt>
      <trkpt lat="47.13269" lon="-1.64292">
        <ele>67</ele>
        <time>2022-07-14T05:17:45Z</time>
      </trkpt>
      <trkpt lat="47.1326" lon="-1.64273">
        <ele>67</ele>
        <time>2022-07-14T05:17:47Z</time>
      </trkpt>
      <trkpt lat="47.13251" lon="-1.64253">
        <ele>66</ele>
        <time>2022-07-14T05:17:49Z</time>
      </trkpt>
      <trkpt lat="47.13243" lon="-1.64233">
        <ele>65</ele>
        <time>2022-07-14T05:17:51Z</time>
      </trkpt>
      <trkpt lat="47.13234" lon="-1.64214">
        <ele>64</ele>
        <time>2022-07-14T05:17:53Z</time>
      </trkpt>
      <trkpt lat="47.13224" lon="-1.64195">
        <ele>64</ele>
        <time>2022-07-14T05:17:55Z</time>
      </trkpt>
      <trkpt lat="47.13215" lon="-1.64176">
        <ele>64</ele>
        <time>2022-07-14T05:17:57Z</time>
      </trkpt>
      <trkpt lat="47.13207" lon="-1.64157">
        <ele>64</ele>
        <time>2022-07-14T05:17:59Z</time>
      </trkpt>
      <trkpt lat="47.13199" lon="-1.64137">
        <ele>64</ele>
        <time>2022-07-14T05:18:01Z</time>
      </trkpt>
      <trkpt lat="47.1319" lon="-1.64118">
        <ele>64</ele>
        <time>2022-07-14T05:18:03Z</time>
      </trkpt>
      <trkpt lat="47.13181" lon="-1.64098">
        <ele>63</ele>
        <time>2022-07-14T05:18:05Z</time>
      </trkpt>
      <trkpt lat="47.13173" lon="-1.64079">
        <ele>63</ele>
        <time>2022-07-14T05:18:07Z</time>
      </trkpt>
      <trkpt lat="47.13165" lon="-1.6406">
        <ele>63</ele>
        <time>2022-07-14T05:18:09Z</time>
      </trkpt>
      <trkpt lat="47.13157" lon="-1.64041">
        <ele>63</ele>
        <time>2022-07-14T05:18:11Z</time>
      </trkpt>
      <trkpt lat="47.13148" lon="-1.64021">
        <ele>63</ele>
        <time>2022-07-14T05:18:13Z</time>
      </trkpt>
      <trkpt lat="47.13141" lon="-1.64002">
        <ele>63</ele>
        <time>2022-07-14T05:18:15Z</time>
      </trkpt>
      <trkpt lat="47.13133" lon="-1.63982">
        <ele>63</ele>
        <time>2022-07-14T05:18:17Z</time>
      </trkpt>
      <trkpt lat="47.13126" lon="-1.63962">
        <ele>63</ele>
        <time>2022-07-14T05:18:19Z</time>
      </trkpt>
      <trkpt lat="47.13118" lon="-1.63942">
        <ele>62</ele>
        <time>2022-07-14T05:18:21Z</time>
      </trkpt>
      <trkpt lat="47.13111" lon="-1.63922">
        <ele>62</ele>
        <time>2022-07-14T05:18:23Z</time>
      </trkpt>
      <trkpt lat="47.13103" lon="-1.63902">
        <ele>62</ele>
        <time>2022-07-14T05:18:25Z</time>
      </trkpt>
      <trkpt lat="47.13096" lon="-1.63883">
        <ele>62</ele>
        <time>2022-07-14T05:18:27Z</time>
      </trkpt>
      <trkpt lat="47.13088" lon="-1.63864">
        <ele>62</ele>
        <time>2022-07-14T05:18:29Z</time>
      </trkpt>
      <trkpt lat="47.13081" lon="-1.63845">
        <ele>61</ele>
        <time>2022-07-14T05:18:31Z</time>
      </trkpt>
      <trkpt lat="47.13073" lon="-1.63826">
        <ele>61</ele>
        <time>2022-07-14T05:18:33Z</time>
      </trkpt>
      <trkpt lat="47.13066" lon="-1.63807">
        <ele>61</ele>
        <time>2022-07-14T05:18:35Z</time>
      </trkpt>
      <trkpt lat="47.13057" lon="-1.63788">
        <ele>61</ele>
        <time>2022-07-14T05:18:37Z</time>
      </trkpt>
      <trkpt lat="47.13049" lon="-1.63771">
        <ele>61</ele>
        <time>2022-07-14T05:18:39Z</time>
      </trkpt>
      <trkpt lat="47.13041" lon="-1.63753">
        <ele>61</ele>
        <time>2022-07-14T05:18:41Z</time>
      </trkpt>
      <trkpt lat="47.13032" lon="-1.63735">
        <ele>61</ele>
        <time>2022-07-14T05:18:43Z</time>
      </trkpt>
      <trkpt lat="47.13023" lon="-1.63717">
        <ele>61</ele>
        <time>2022-07-14T05:18:45Z</time>
      </trkpt>
      <trkpt lat="47.13015" lon="-1.637">
        <ele>62</ele>
        <time>2022-07-14T05:18:47Z</time>
      </trkpt>
      <trkpt lat="47.13007" lon="-1.63681">
        <ele>62</ele>
        <time>2022-07-14T05:18:49Z</time>
      </trkpt>
      <trkpt lat="47.12997" lon="-1.63664">
        <ele>61</ele>
        <time>2022-07-14T05:18:51Z</time>
      </trkpt>
      <trkpt lat="47.1299" lon="-1.63645">
        <ele>61</ele>
        <time>2022-07-14T05:18:53Z</time>
      </trkpt>
      <trkpt lat="47.12984" lon="-1.63626">
        <ele>60</ele>
        <time>2022-07-14T05:18:55Z</time>
      </trkpt>
      <trkpt lat="47.12977" lon="-1.63607">
        <ele>59</ele>
        <time>2022-07-14T05:18:57Z</time>
      </trkpt>
      <trkpt lat="47.12969" lon="-1.63587">
        <ele>58</ele>
        <time>2022-07-14T05:18:59Z</time>
      </trkpt>
      <trkpt lat="47.12962" lon="-1.63568">
        <ele>58</ele>
        <time>2022-07-14T05:19:01Z</time>
      </trkpt>
      <trkpt lat="47.12955" lon="-1.6355">
        <ele>59</ele>
        <time>2022-07-14T05:19:03Z</time>
      </trkpt>
      <trkpt lat="47.12947" lon="-1.63532">
        <ele>58</ele>
        <time>2022-07-14T05:19:05Z</time>
      </trkpt>
      <trkpt lat="47.1294" lon="-1.63513">
        <ele>58</ele>
        <time>2022-07-14T05:19:07Z</time>
      </trkpt>
      <trkpt lat="47.12933" lon="-1.63493">
        <ele>58</ele>
        <time>2022-07-14T05:19:09Z</time>
      </trkpt>
      <trkpt lat="47.12926" lon="-1.63474">
        <ele>58</ele>
        <time>2022-07-14T05:19:11Z</time>
      </trkpt>
      <trkpt lat="47.12919" lon="-1.63456">
        <ele>58</ele>
        <time>2022-07-14T05:19:13Z</time>
      </trkpt>
      <trkpt lat="47.12912" lon="-1.63437">
        <ele>58</ele>
        <time>2022-07-14T05:19:15Z</time>
      </trkpt>
      <trkpt lat="47.12904" lon="-1.63418">
        <ele>58</ele>
        <time>2022-07-14T05:19:17Z</time>
      </trkpt>
      <trkpt lat="47.12897" lon="-1.63399">
        <ele>58</ele>
        <time>2022-07-14T05:19:19Z</time>
      </trkpt>
      <trkpt lat="47.12889" lon="-1.6338">
        <ele>57</ele>
        <time>2022-07-14T05:19:21Z</time>
      </trkpt>
      <trkpt lat="47.12882" lon="-1.63361">
        <ele>57</ele>
        <time>2022-07-14T05:19:23Z</time>
      </trkpt>
      <trkpt lat="47.12874" lon="-1.63342">
        <ele>56</ele>
        <time>2022-07-14T05:19:25Z</time>
      </trkpt>
      <trkpt lat="47.12865" lon="-1.63323">
        <ele>56</ele>
        <time>2022-07-14T05:19:27Z</time>
      </trkpt>
      <trkpt lat="47.12858" lon="-1.63304">
        <ele>55</ele>
        <time>2022-07-14T05:19:29Z</time>
      </trkpt>
      <trkpt lat="47.12851" lon="-1.63285">
        <ele>55</ele>
        <time>2022-07-14T05:19:31Z</time>
      </trkpt>
      <trkpt lat="47.12843" lon="-1.63266">
        <ele>56</ele>
        <time>2022-07-14T05:19:33Z</time>
      </trkpt>
      <trkpt lat="47.12835" lon="-1.63248">
        <ele>57</ele>
        <time>2022-07-14T05:19:35Z</time>
      </trkpt>
      <trkpt lat="47.12828" lon="-1.63232">
        <ele>58</ele>
        <time>2022-07-14T05:19:37Z</time>
      </trkpt>
      <trkpt lat="47.12821" lon="-1.63216">
        <ele>59</ele>
        <time>2022-07-14T05:19:39Z</time>
      </trkpt>
      <trkpt lat="47.12814" lon="-1.63198">
        <ele>60</ele>
        <time>2022-07-14T05:19:41Z</time>
      </trkpt>
      <trkpt lat="47.12808" lon="-1.63178">
        <ele>61</ele>
        <time>2022-07-14T05:19:43Z</time>
      </trkpt>
      <trkpt lat="47.128" lon="-1.63158">
        <ele>62</ele>
        <time>2022-07-14T05:19:45Z</time>
      </trkpt>
      <trkpt lat="47.12793" lon="-1.63141">
        <ele>62</ele>
        <time>2022-07-14T05:19:47Z</time>
      </trkpt>
      <trkpt lat="47.12786" lon="-1.63122">
        <ele>62</ele>
        <time>2022-07-14T05:19:49Z</time>
      </trkpt>
      <trkpt lat="47.1278" lon="-1.63103">
        <ele>62</ele>
        <time>2022-07-14T05:19:51Z</time>
      </trkpt>
      <trkpt lat="47.12773" lon="-1.63088">
        <ele>62</ele>
        <time>2022-07-14T05:19:53Z</time>
      </trkpt>
      <trkpt lat="47.12766" lon="-1.63075">
        <ele>61</ele>
        <time>2022-07-14T05:19:55Z</time>
      </trkpt>
      <trkpt lat="47.12758" lon="-1.63058">
        <ele>61</ele>
        <time>2022-07-14T05:19:57Z</time>
      </trkpt>
      <trkpt lat="47.1275" lon="-1.63041">
        <ele>62</ele>
        <time>2022-07-14T05:19:59Z</time>
      </trkpt>
      <trkpt lat="47.12743" lon="-1.63024">
        <ele>62</ele>
        <time>2022-07-14T05:20:01Z</time>
      </trkpt>
      <trkpt lat="47.12737" lon="-1.63006">
        <ele>62</ele>
        <time>2022-07-14T05:20:03Z</time>
      </trkpt>
      <trkpt lat="47.1273" lon="-1.62987">
        <ele>62</ele>
        <time>2022-07-14T05:20:05Z</time>
      </trkpt>
      <trkpt lat="47.12722" lon="-1.62969">
        <ele>62</ele>
        <time>2022-07-14T05:20:07Z</time>
      </trkpt>
      <trkpt lat="47.12715" lon="-1.62952">
        <ele>63</ele>
        <time>2022-07-14T05:20:09Z</time>
      </trkpt>
      <trkpt lat="47.12709" lon="-1.62937">
        <ele>63</ele>
        <time>2022-07-14T05:20:11Z</time>
      </trkpt>
      <trkpt lat="47.12705" lon="-1.62921">
        <ele>61</ele>
        <time>2022-07-14T05:20:13Z</time>
      </trkpt>
      <trkpt lat="47.12706" lon="-1.62904">
        <ele>62</ele>
        <time>2022-07-14T05:20:15Z</time>
      </trkpt>
      <trkpt lat="47.12698" lon="-1.62887">
        <ele>62</ele>
        <time>2022-07-14T05:20:17Z</time>
      </trkpt>
      <trkpt lat="47.12691" lon="-1.6287">
        <ele>61</ele>
        <time>2022-07-14T05:20:19Z</time>
      </trkpt>
      <trkpt lat="47.12683" lon="-1.62851">
        <ele>61</ele>
        <time>2022-07-14T05:20:21Z</time>
      </trkpt>
      <trkpt lat="47.12675" lon="-1.62835">
        <ele>62</ele>
        <time>2022-07-14T05:20:23Z</time>
      </trkpt>
      <trkpt lat="47.12665" lon="-1.62819">
        <ele>61</ele>
        <time>2022-07-14T05:20:25Z</time>
      </trkpt>
      <trkpt lat="47.12659" lon="-1.62801">
        <ele>61</ele>
        <time>2022-07-14T05:20:27Z</time>
      </trkpt>
      <trkpt lat="47.12653" lon="-1.62782">
        <ele>61</ele>
        <time>2022-07-14T05:20:29Z</time>
      </trkpt>
      <trkpt lat="47.12646" lon="-1.62764">
        <ele>61</ele>
        <time>2022-07-14T05:20:31Z</time>
      </trkpt>
      <trkpt lat="47.12638" lon="-1.62747">
        <ele>61</ele>
        <time>2022-07-14T05:20:33Z</time>
      </trkpt>
      <trkpt lat="47.12629" lon="-1.6273">
        <ele>60</ele>
        <time>2022-07-14T05:20:35Z</time>
      </trkpt>
      <trkpt lat="47.1262" lon="-1.62712">
        <ele>59</ele>
        <time>2022-07-14T05:20:37Z</time>
      </trkpt>
      <trkpt lat="47.12611" lon="-1.62695">
        <ele>59</ele>
        <time>2022-07-14T05:20:39Z</time>
      </trkpt>
      <trkpt lat="47.12602" lon="-1.62677">
        <ele>59</ele>
        <time>2022-07-14T05:20:41Z</time>
      </trkpt>
      <trkpt lat="47.12594" lon="-1.62659">
        <ele>59</ele>
        <time>2022-07-14T05:20:43Z</time>
      </trkpt>
      <trkpt lat="47.12586" lon="-1.62641">
        <ele>59</ele>
        <time>2022-07-14T05:20:45Z</time>
      </trkpt>
      <trkpt lat="47.12579" lon="-1.62622">
        <ele>59</ele>
        <time>2022-07-14T05:20:47Z</time>
      </trkpt>
      <trkpt lat="47.12574" lon="-1.62602">
        <ele>58</ele>
        <time>2022-07-14T05:20:49Z</time>
      </trkpt>
      <trkpt lat="47.12569" lon="-1.62581">
        <ele>59</ele>
        <time>2022-07-14T05:20:51Z</time>
      </trkpt>
      <trkpt lat="47.12565" lon="-1.62561">
        <ele>58</ele>
        <time>2022-07-14T05:20:53Z</time>
      </trkpt>
      <trkpt lat="47.12561" lon="-1.6254">
        <ele>58</ele>
        <time>2022-07-14T05:20:55Z</time>
      </trkpt>
      <trkpt lat="47.12557" lon="-1.62519">
        <ele>58</ele>
        <time>2022-07-14T05:20:57Z</time>
      </trkpt>
      <trkpt lat="47.12553" lon="-1.62498">
        <ele>58</ele>
        <time>2022-07-14T05:20:59Z</time>
      </trkpt>
      <trkpt lat="47.12548" lon="-1.62477">
        <ele>58</ele>
        <time>2022-07-14T05:21:01Z</time>
      </trkpt>
      <trkpt lat="47.12543" lon="-1.62455">
        <ele>58</ele>
        <time>2022-07-14T05:21:03Z</time>
      </trkpt>
      <trkpt lat="47.12538" lon="-1.62434">
        <ele>57</ele>
        <time>2022-07-14T05:21:05Z</time>
      </trkpt>
      <trkpt lat="47.12532" lon="-1.62415">
        <ele>57</ele>
        <time>2022-07-14T05:21:07Z</time>
      </trkpt>
      <trkpt lat="47.12525" lon="-1.62396">
        <ele>57</ele>
        <time>2022-07-14T05:21:09Z</time>
      </trkpt>
      <trkpt lat="47.12518" lon="-1.62377">
        <ele>57</ele>
        <time>2022-07-14T05:21:11Z</time>
      </trkpt>
      <trkpt lat="47.12511" lon="-1.62359">
        <ele>57</ele>
        <time>2022-07-14T05:21:13Z</time>
      </trkpt>
      <trkpt lat="47.12503" lon="-1.62342">
        <ele>57</ele>
        <time>2022-07-14T05:21:15Z</time>
      </trkpt>
      <trkpt lat="47.12494" lon="-1.62325">
        <ele>57</ele>
        <time>2022-07-14T05:21:17Z</time>
      </trkpt>
      <trkpt lat="47.12484" lon="-1.6231">
        <ele>56</ele>
        <time>2022-07-14T05:21:19Z</time>
      </trkpt>
      <trkpt lat="47.12474" lon="-1.62295">
        <ele>56</ele>
        <time>2022-07-14T05:21:21Z</time>
      </trkpt>
      <trkpt lat="47.12465" lon="-1.6228">
        <ele>56</ele>
        <time>2022-07-14T05:21:23Z</time>
      </trkpt>
      <trkpt lat="47.12455" lon="-1.62265">
        <ele>56</ele>
        <time>2022-07-14T05:21:25Z</time>
      </trkpt>
      <trkpt lat="47.12445" lon="-1.62251">
        <ele>57</ele>
        <time>2022-07-14T05:21:27Z</time>
      </trkpt>
      <trkpt lat="47.12435" lon="-1.62236">
        <ele>57</ele>
        <time>2022-07-14T05:21:29Z</time>
      </trkpt>
      <trkpt lat="47.12425" lon="-1.62221">
        <ele>56</ele>
        <time>2022-07-14T05:21:31Z</time>
      </trkpt>
      <trkpt lat="47.12416" lon="-1.62205">
        <ele>56</ele>
        <time>2022-07-14T05:21:33Z</time>
      </trkpt>
      <trkpt lat="47.12407" lon="-1.62189">
        <ele>56</ele>
        <time>2022-07-14T05:21:35Z</time>
      </trkpt>
      <trkpt lat="47.124" lon="-1.62172">
        <ele>56</ele>
        <time>2022-07-14T05:21:37Z</time>
      </trkpt>
      <trkpt lat="47.12394" lon="-1.62154">
        <ele>56</ele>
        <time>2022-07-14T05:21:39Z</time>
      </trkpt>
      <trkpt lat="47.12388" lon="-1.62135">
        <ele>56</ele>
        <time>2022-07-14T05:21:41Z</time>
      </trkpt>
      <trkpt lat="47.12385" lon="-1.62115">
        <ele>56</ele>
        <time>2022-07-14T05:21:43Z</time>
      </trkpt>
      <trkpt lat="47.12382" lon="-1.62094">
        <ele>56</ele>
        <time>2022-07-14T05:21:45Z</time>
      </trkpt>
      <trkpt lat="47.12381" lon="-1.62074">
        <ele>56</ele>
        <time>2022-07-14T05:21:47Z</time>
      </trkpt>
      <trkpt lat="47.12382" lon="-1.62053">
        <ele>56</ele>
        <time>2022-07-14T05:21:49Z</time>
      </trkpt>
      <trkpt lat="47.12384" lon="-1.62033">
        <ele>56</ele>
        <time>2022-07-14T05:21:51Z</time>
      </trkpt>
      <trkpt lat="47.12388" lon="-1.62011">
        <ele>57</ele>
        <time>2022-07-14T05:21:53Z</time>
      </trkpt>
      <trkpt lat="47.12393" lon="-1.61992">
        <ele>57</ele>
        <time>2022-07-14T05:21:55Z</time>
      </trkpt>
      <trkpt lat="47.12398" lon="-1.61973">
        <ele>57</ele>
        <time>2022-07-14T05:21:57Z</time>
      </trkpt>
      <trkpt lat="47.12403" lon="-1.61954">
        <ele>57</ele>
        <time>2022-07-14T05:21:59Z</time>
      </trkpt>
      <trkpt lat="47.12409" lon="-1.61934">
        <ele>58</ele>
        <time>2022-07-14T05:22:01Z</time>
      </trkpt>
      <trkpt lat="47.12413" lon="-1.61915">
        <ele>58</ele>
        <time>2022-07-14T05:22:03Z</time>
      </trkpt>
      <trkpt lat="47.12418" lon="-1.61896">
        <ele>59</ele>
        <time>2022-07-14T05:22:05Z</time>
      </trkpt>
      <trkpt lat="47.12424" lon="-1.61877">
        <ele>59</ele>
        <time>2022-07-14T05:22:07Z</time>
      </trkpt>
      <trkpt lat="47.1243" lon="-1.61859">
        <ele>59</ele>
        <time>2022-07-14T05:22:09Z</time>
      </trkpt>
      <trkpt lat="47.12434" lon="-1.6184">
        <ele>58</ele>
        <time>2022-07-14T05:22:11Z</time>
      </trkpt>
      <trkpt lat="47.12439" lon="-1.61819">
        <ele>59</ele>
        <time>2022-07-14T05:22:13Z</time>
      </trkpt>
      <trkpt lat="47.12443" lon="-1.61799">
        <ele>59</ele>
        <time>2022-07-14T05:22:15Z</time>
      </trkpt>
      <trkpt lat="47.12448" lon="-1.61779">
        <ele>59</ele>
        <time>2022-07-14T05:22:17Z</time>
      </trkpt>
      <trkpt lat="47.12453" lon="-1.6176">
        <ele>59</ele>
        <time>2022-07-14T05:22:19Z</time>
      </trkpt>
      <trkpt lat="47.12458" lon="-1.61742">
        <ele>58</ele>
        <time>2022-07-14T05:22:21Z</time>
      </trkpt>
      <trkpt lat="47.12463" lon="-1.61723">
        <ele>58</ele>
        <time>2022-07-14T05:22:23Z</time>
      </trkpt>
      <trkpt lat="47.12468" lon="-1.61704">
        <ele>59</ele>
        <time>2022-07-14T05:22:25Z</time>
      </trkpt>
      <trkpt lat="47.12472" lon="-1.61684">
        <ele>59</ele>
        <time>2022-07-14T05:22:27Z</time>
      </trkpt>
      <trkpt lat="47.12476" lon="-1.61664">
        <ele>59</ele>
        <time>2022-07-14T05:22:29Z</time>
      </trkpt>
      <trkpt lat="47.12478" lon="-1.61645">
        <ele>59</ele>
        <time>2022-07-14T05:22:31Z</time>
      </trkpt>
      <trkpt lat="47.12478" lon="-1.61624">
        <ele>60</ele>
        <time>2022-07-14T05:22:33Z</time>
      </trkpt>
      <trkpt lat="47.12478" lon="-1.61602">
        <ele>60</ele>
        <time>2022-07-14T05:22:35Z</time>
      </trkpt>
      <trkpt lat="47.12475" lon="-1.61582">
        <ele>59</ele>
        <time>2022-07-14T05:22:37Z</time>
      </trkpt>
      <trkpt lat="47.12473" lon="-1.61562">
        <ele>59</ele>
        <time>2022-07-14T05:22:39Z</time>
      </trkpt>
      <trkpt lat="47.1247" lon="-1.61541">
        <ele>59</ele>
        <time>2022-07-14T05:22:41Z</time>
      </trkpt>
      <trkpt lat="47.12468" lon="-1.6152">
        <ele>59</ele>
        <time>2022-07-14T05:22:43Z</time>
      </trkpt>
      <trkpt lat="47.12466" lon="-1.615">
        <ele>59</ele>
        <time>2022-07-14T05:22:45Z</time>
      </trkpt>
      <trkpt lat="47.12464" lon="-1.61479">
        <ele>59</ele>
        <time>2022-07-14T05:22:47Z</time>
      </trkpt>
      <trkpt lat="47.12462" lon="-1.61458">
        <ele>59</ele>
        <time>2022-07-14T05:22:49Z</time>
      </trkpt>
      <trkpt lat="47.1246" lon="-1.61437">
        <ele>60</ele>
        <time>2022-07-14T05:22:51Z</time>
      </trkpt>
      <trkpt lat="47.12458" lon="-1.61417">
        <ele>60</ele>
        <time>2022-07-14T05:22:53Z</time>
      </trkpt>
      <trkpt lat="47.12456" lon="-1.61398">
        <ele>60</ele>
        <time>2022-07-14T05:22:55Z</time>
      </trkpt>
      <trkpt lat="47.12455" lon="-1.61379">
        <ele>60</ele>
        <time>2022-07-14T05:22:57Z</time>
      </trkpt>
      <trkpt lat="47.12457" lon="-1.6136">
        <ele>60</ele>
        <time>2022-07-14T05:22:59Z</time>
      </trkpt>
      <trkpt lat="47.12461" lon="-1.61341">
        <ele>60</ele>
        <time>2022-07-14T05:23:01Z</time>
      </trkpt>
      <trkpt lat="47.12465" lon="-1.61323">
        <ele>61</ele>
        <time>2022-07-14T05:23:03Z</time>
      </trkpt>
      <trkpt lat="47.12471" lon="-1.61305">
        <ele>61</ele>
        <time>2022-07-14T05:23:05Z</time>
      </trkpt>
      <trkpt lat="47.12477" lon="-1.61287">
        <ele>61</ele>
        <time>2022-07-14T05:23:07Z</time>
      </trkpt>
      <trkpt lat="47.12483" lon="-1.6127">
        <ele>61</ele>
        <time>2022-07-14T05:23:09Z</time>
      </trkpt>
      <trkpt lat="47.12488" lon="-1.61252">
        <ele>61</ele>
        <time>2022-07-14T05:23:11Z</time>
      </trkpt>
      <trkpt lat="47.12493" lon="-1.61234">
        <ele>61</ele>
        <time>2022-07-14T05:23:13Z</time>
      </trkpt>
      <trkpt lat="47.12497" lon="-1.61214">
        <ele>60</ele>
        <time>2022-07-14T05:23:15Z</time>
      </trkpt>
      <trkpt lat="47.125" lon="-1.61195">
        <ele>60</ele>
        <time>2022-07-14T05:23:17Z</time>
      </trkpt>
      <trkpt lat="47.12502" lon="-1.61176">
        <ele>60</ele>
        <time>2022-07-14T05:23:19Z</time>
      </trkpt>
      <trkpt lat="47.12505" lon="-1.61156">
        <ele>60</ele>
        <time>2022-07-14T05:23:21Z</time>
      </trkpt>
      <trkpt lat="47.12506" lon="-1.61136">
        <ele>60</ele>
        <time>2022-07-14T05:23:23Z</time>
      </trkpt>
      <trkpt lat="47.12508" lon="-1.61117">
        <ele>60</ele>
        <time>2022-07-14T05:23:25Z</time>
      </trkpt>
      <trkpt lat="47.1251" lon="-1.61097">
        <ele>60</ele>
        <time>2022-07-14T05:23:27Z</time>
      </trkpt>
      <trkpt lat="47.12512" lon="-1.61076">
        <ele>60</ele>
        <time>2022-07-14T05:23:29Z</time>
      </trkpt>
      <trkpt lat="47.12514" lon="-1.61056">
        <ele>60</ele>
        <time>2022-07-14T05:23:31Z</time>
      </trkpt>
      <trkpt lat="47.12515" lon="-1.61036">
        <ele>60</ele>
        <time>2022-07-14T05:23:33Z</time>
      </trkpt>
      <trkpt lat="47.12517" lon="-1.61016">
        <ele>59</ele>
        <time>2022-07-14T05:23:35Z</time>
      </trkpt>
      <trkpt lat="47.12519" lon="-1.60996">
        <ele>59</ele>
        <time>2022-07-14T05:23:37Z</time>
      </trkpt>
      <trkpt lat="47.12521" lon="-1.60976">
        <ele>59</ele>
        <time>2022-07-14T05:23:39Z</time>
      </trkpt>
      <trkpt lat="47.12522" lon="-1.60956">
        <ele>59</ele>
        <time>2022-07-14T05:23:41Z</time>
      </trkpt>
      <trkpt lat="47.12524" lon="-1.60937">
        <ele>59</ele>
        <time>2022-07-14T05:23:43Z</time>
      </trkpt>
      <trkpt lat="47.12526" lon="-1.60917">
        <ele>59</ele>
        <time>2022-07-14T05:23:45Z</time>
      </trkpt>
      <trkpt lat="47.12528" lon="-1.60898">
        <ele>59</ele>
        <time>2022-07-14T05:23:47Z</time>
      </trkpt>
      <trkpt lat="47.1253" lon="-1.60878">
        <ele>59</ele>
        <time>2022-07-14T05:23:49Z</time>
      </trkpt>
      <trkpt lat="47.12531" lon="-1.60858">
        <ele>60</ele>
        <time>2022-07-14T05:23:51Z</time>
      </trkpt>
      <trkpt lat="47.12533" lon="-1.60839">
        <ele>60</ele>
        <time>2022-07-14T05:23:53Z</time>
      </trkpt>
      <trkpt lat="47.12536" lon="-1.60819">
        <ele>60</ele>
        <time>2022-07-14T05:23:55Z</time>
      </trkpt>
      <trkpt lat="47.12537" lon="-1.60798">
        <ele>60</ele>
        <time>2022-07-14T05:23:57Z</time>
      </trkpt>
      <trkpt lat="47.1254" lon="-1.60778">
        <ele>59</ele>
        <time>2022-07-14T05:23:59Z</time>
      </trkpt>
      <trkpt lat="47.12541" lon="-1.60758">
        <ele>59</ele>
        <time>2022-07-14T05:24:01Z</time>
      </trkpt>
      <trkpt lat="47.12542" lon="-1.60738">
        <ele>59</ele>
        <time>2022-07-14T05:24:03Z</time>
      </trkpt>
      <trkpt lat="47.12542" lon="-1.60717">
        <ele>59</ele>
        <time>2022-07-14T05:24:05Z</time>
      </trkpt>
      <trkpt lat="47.12542" lon="-1.60697">
        <ele>59</ele>
        <time>2022-07-14T05:24:07Z</time>
      </trkpt>
      <trkpt lat="47.12542" lon="-1.60677">
        <ele>59</ele>
        <time>2022-07-14T05:24:09Z</time>
      </trkpt>
      <trkpt lat="47.12542" lon="-1.60657">
        <ele>59</ele>
        <time>2022-07-14T05:24:11Z</time>
      </trkpt>
      <trkpt lat="47.12542" lon="-1.60637">
        <ele>59</ele>
        <time>2022-07-14T05:24:13Z</time>
      </trkpt>
      <trkpt lat="47.12541" lon="-1.60616">
        <ele>59</ele>
        <time>2022-07-14T05:24:15Z</time>
      </trkpt>
      <trkpt lat="47.12541" lon="-1.60597">
        <ele>59</ele>
        <time>2022-07-14T05:24:17Z</time>
      </trkpt>
      <trkpt lat="47.1254" lon="-1.60577">
        <ele>59</ele>
        <time>2022-07-14T05:24:19Z</time>
      </trkpt>
      <trkpt lat="47.1254" lon="-1.60557">
        <ele>59</ele>
        <time>2022-07-14T05:24:21Z</time>
      </trkpt>
      <trkpt lat="47.12539" lon="-1.60536">
        <ele>59</ele>
        <time>2022-07-14T05:24:23Z</time>
      </trkpt>
      <trkpt lat="47.12538" lon="-1.60516">
        <ele>59</ele>
        <time>2022-07-14T05:24:25Z</time>
      </trkpt>
      <trkpt lat="47.12536" lon="-1.60496">
        <ele>59</ele>
        <time>2022-07-14T05:24:27Z</time>
      </trkpt>
      <trkpt lat="47.12533" lon="-1.60475">
        <ele>59</ele>
        <time>2022-07-14T05:24:29Z</time>
      </trkpt>
      <trkpt lat="47.1253" lon="-1.60455">
        <ele>59</ele>
        <time>2022-07-14T05:24:31Z</time>
      </trkpt>
      <trkpt lat="47.12526" lon="-1.60435">
        <ele>59</ele>
        <time>2022-07-14T05:24:33Z</time>
      </trkpt>
      <trkpt lat="47.12522" lon="-1.60414">
        <ele>58</ele>
        <time>2022-07-14T05:24:35Z</time>
      </trkpt>
      <trkpt lat="47.12518" lon="-1.60393">
        <ele>58</ele>
        <time>2022-07-14T05:24:37Z</time>
      </trkpt>
      <trkpt lat="47.12514" lon="-1.60372">
        <ele>58</ele>
        <time>2022-07-14T05:24:39Z</time>
      </trkpt>
      <trkpt lat="47.1251" lon="-1.60352">
        <ele>58</ele>
        <time>2022-07-14T05:24:41Z</time>
      </trkpt>
      <trkpt lat="47.12505" lon="-1.6033">
        <ele>58</ele>
        <time>2022-07-14T05:24:43Z</time>
      </trkpt>
      <trkpt lat="47.12501" lon="-1.60309">
        <ele>57</ele>
        <time>2022-07-14T05:24:45Z</time>
      </trkpt>
      <trkpt lat="47.12497" lon="-1.60288">
        <ele>57</ele>
        <time>2022-07-14T05:24:47Z</time>
      </trkpt>
      <trkpt lat="47.12493" lon="-1.60267">
        <ele>57</ele>
        <time>2022-07-14T05:24:49Z</time>
      </trkpt>
      <trkpt lat="47.12489" lon="-1.60245">
        <ele>57</ele>
        <time>2022-07-14T05:24:51Z</time>
      </trkpt>
      <trkpt lat="47.12485" lon="-1.60225">
        <ele>57</ele>
        <time>2022-07-14T05:24:53Z</time>
      </trkpt>
      <trkpt lat="47.12482" lon="-1.60205">
        <ele>58</ele>
        <time>2022-07-14T05:24:55Z</time>
      </trkpt>
      <trkpt lat="47.1248" lon="-1.60184">
        <ele>58</ele>
        <time>2022-07-14T05:24:57Z</time>
      </trkpt>
      <trkpt lat="47.12478" lon="-1.60164">
        <ele>58</ele>
        <time>2022-07-14T05:24:59Z</time>
      </trkpt>
      <trkpt lat="47.12477" lon="-1.60144">
        <ele>58</ele>
        <time>2022-07-14T05:25:01Z</time>
      </trkpt>
      <trkpt lat="47.12476" lon="-1.60123">
        <ele>58</ele>
        <time>2022-07-14T05:25:03Z</time>
      </trkpt>
      <trkpt lat="47.12475" lon="-1.60103">
        <ele>58</ele>
        <time>2022-07-14T05:25:05Z</time>
      </trkpt>
      <trkpt lat="47.12474" lon="-1.60083">
        <ele>58</ele>
        <time>2022-07-14T05:25:07Z</time>
      </trkpt>
      <trkpt lat="47.12474" lon="-1.60064">
        <ele>57</ele>
        <time>2022-07-14T05:25:09Z</time>
      </trkpt>
      <trkpt lat="47.12473" lon="-1.60044">
        <ele>56</ele>
        <time>2022-07-14T05:25:11Z</time>
      </trkpt>
      <trkpt lat="47.12472" lon="-1.60025">
        <ele>56</ele>
        <time>2022-07-14T05:25:13Z</time>
      </trkpt>
      <trkpt lat="47.12471" lon="-1.60006">
        <ele>56</ele>
        <time>2022-07-14T05:25:15Z</time>
      </trkpt>
      <trkpt lat="47.1247" lon="-1.59987">
        <ele>56</ele>
        <time>2022-07-14T05:25:17Z</time>
      </trkpt>
      <trkpt lat="47.12469" lon="-1.59968">
        <ele>57</ele>
        <time>2022-07-14T05:25:19Z</time>
      </trkpt>
      <trkpt lat="47.12468" lon="-1.59951">
        <ele>57</ele>
        <time>2022-07-14T05:25:21Z</time>
      </trkpt>
      <trkpt lat="47.12467" lon="-1.59931">
        <ele>58</ele>
        <time>2022-07-14T05:25:23Z</time>
      </trkpt>
      <trkpt lat="47.12466" lon="-1.5991">
        <ele>58</ele>
        <time>2022-07-14T05:25:25Z</time>
      </trkpt>
      <trkpt lat="47.12466" lon="-1.5989">
        <ele>59</ele>
        <time>2022-07-14T05:25:27Z</time>
      </trkpt>
      <trkpt lat="47.12465" lon="-1.5987">
        <ele>59</ele>
        <time>2022-07-14T05:25:29Z</time>
      </trkpt>
      <trkpt lat="47.12464" lon="-1.5985">
        <ele>59</ele>
        <time>2022-07-14T05:25:31Z</time>
      </trkpt>
      <trkpt lat="47.12463" lon="-1.59829">
        <ele>60</ele>
        <time>2022-07-14T05:25:33Z</time>
      </trkpt>
      <trkpt lat="47.12462" lon="-1.59809">
        <ele>59</ele>
        <time>2022-07-14T05:25:35Z</time>
      </trkpt>
      <trkpt lat="47.12462" lon="-1.59788">
        <ele>59</ele>
        <time>2022-07-14T05:25:37Z</time>
      </trkpt>
      <trkpt lat="47.1246" lon="-1.59768">
        <ele>59</ele>
        <time>2022-07-14T05:25:39Z</time>
      </trkpt>
      <trkpt lat="47.12459" lon="-1.59748">
        <ele>59</ele>
        <time>2022-07-14T05:25:41Z</time>
      </trkpt>
      <trkpt lat="47.12458" lon="-1.59727">
        <ele>59</ele>
        <time>2022-07-14T05:25:43Z</time>
      </trkpt>
      <trkpt lat="47.12457" lon="-1.59708">
        <ele>59</ele>
        <time>2022-07-14T05:25:45Z</time>
      </trkpt>
      <trkpt lat="47.12456" lon="-1.59687">
        <ele>59</ele>
        <time>2022-07-14T05:25:47Z</time>
      </trkpt>
      <trkpt lat="47.12454" lon="-1.59667">
        <ele>59</ele>
        <time>2022-07-14T05:25:49Z</time>
      </trkpt>
      <trkpt lat="47.12453" lon="-1.59647">
        <ele>59</ele>
        <time>2022-07-14T05:25:51Z</time>
      </trkpt>
      <trkpt lat="47.12452" lon="-1.59627">
        <ele>58</ele>
        <time>2022-07-14T05:25:53Z</time>
      </trkpt>
      <trkpt lat="47.12451" lon="-1.59606">
        <ele>58</ele>
        <time>2022-07-14T05:25:55Z</time>
      </trkpt>
      <trkpt lat="47.1245" lon="-1.59585">
        <ele>58</ele>
        <time>2022-07-14T05:25:57Z</time>
      </trkpt>
      <trkpt lat="47.12449" lon="-1.59566">
        <ele>58</ele>
        <time>2022-07-14T05:25:59Z</time>
      </trkpt>
      <trkpt lat="47.12449" lon="-1.59545">
        <ele>58</ele>
        <time>2022-07-14T05:26:01Z</time>
      </trkpt>
      <trkpt lat="47.12448" lon="-1.59525">
        <ele>58</ele>
        <time>2022-07-14T05:26:03Z</time>
      </trkpt>
      <trkpt lat="47.12447" lon="-1.59505">
        <ele>58</ele>
        <time>2022-07-14T05:26:05Z</time>
      </trkpt>
      <trkpt lat="47.12446" lon="-1.59485">
        <ele>58</ele>
        <time>2022-07-14T05:26:07Z</time>
      </trkpt>
      <trkpt lat="47.12445" lon="-1.59465">
        <ele>59</ele>
        <time>2022-07-14T05:26:09Z</time>
      </trkpt>
      <trkpt lat="47.12444" lon="-1.59444">
        <ele>59</ele>
        <time>2022-07-14T05:26:11Z</time>
      </trkpt>
      <trkpt lat="47.12443" lon="-1.59424">
        <ele>59</ele>
        <time>2022-07-14T05:26:13Z</time>
      </trkpt>
      <trkpt lat="47.12441" lon="-1.59403">
        <ele>58</ele>
        <time>2022-07-14T05:26:15Z</time>
      </trkpt>
      <trkpt lat="47.1244" lon="-1.59382">
        <ele>57</ele>
        <time>2022-07-14T05:26:17Z</time>
      </trkpt>
      <trkpt lat="47.12439" lon="-1.59362">
        <ele>57</ele>
        <time>2022-07-14T05:26:19Z</time>
      </trkpt>
      <trkpt lat="47.12438" lon="-1.59341">
        <ele>57</ele>
        <time>2022-07-14T05:26:21Z</time>
      </trkpt>
      <trkpt lat="47.12437" lon="-1.59321">
        <ele>56</ele>
        <time>2022-07-14T05:26:23Z</time>
      </trkpt>
      <trkpt lat="47.12436" lon="-1.593">
        <ele>57</ele>
        <time>2022-07-14T05:26:25Z</time>
      </trkpt>
      <trkpt lat="47.12435" lon="-1.5928">
        <ele>57</ele>
        <time>2022-07-14T05:26:27Z</time>
      </trkpt>
      <trkpt lat="47.12434" lon="-1.59259">
        <ele>57</ele>
        <time>2022-07-14T05:26:29Z</time>
      </trkpt>
      <trkpt lat="47.12433" lon="-1.59239">
        <ele>57</ele>
        <time>2022-07-14T05:26:31Z</time>
      </trkpt>
      <trkpt lat="47.1243" lon="-1.59218">
        <ele>56</ele>
        <time>2022-07-14T05:26:33Z</time>
      </trkpt>
      <trkpt lat="47.12426" lon="-1.59198">
        <ele>56</ele>
        <time>2022-07-14T05:26:35Z</time>
      </trkpt>
      <trkpt lat="47.12427" lon="-1.59177">
        <ele>55</ele>
        <time>2022-07-14T05:26:37Z</time>
      </trkpt>
      <trkpt lat="47.12428" lon="-1.59156">
        <ele>55</ele>
        <time>2022-07-14T05:26:39Z</time>
      </trkpt>
      <trkpt lat="47.12429" lon="-1.59136">
        <ele>55</ele>
        <time>2022-07-14T05:26:41Z</time>
      </trkpt>
      <trkpt lat="47.12429" lon="-1.59115">
        <ele>55</ele>
        <time>2022-07-14T05:26:43Z</time>
      </trkpt>
      <trkpt lat="47.12428" lon="-1.59094">
        <ele>56</ele>
        <time>2022-07-14T05:26:45Z</time>
      </trkpt>
      <trkpt lat="47.12427" lon="-1.59072">
        <ele>56</ele>
        <time>2022-07-14T05:26:47Z</time>
      </trkpt>
      <trkpt lat="47.12427" lon="-1.59053">
        <ele>57</ele>
        <time>2022-07-14T05:26:49Z</time>
      </trkpt>
      <trkpt lat="47.12426" lon="-1.59034">
        <ele>57</ele>
        <time>2022-07-14T05:26:51Z</time>
      </trkpt>
      <trkpt lat="47.12425" lon="-1.59015">
        <ele>57</ele>
        <time>2022-07-14T05:26:53Z</time>
      </trkpt>
      <trkpt lat="47.12423" lon="-1.58997">
        <ele>58</ele>
        <time>2022-07-14T05:26:55Z</time>
      </trkpt>
      <trkpt lat="47.12423" lon="-1.58979">
        <ele>58</ele>
        <time>2022-07-14T05:26:57Z</time>
      </trkpt>
      <trkpt lat="47.12422" lon="-1.58962">
        <ele>59</ele>
        <time>2022-07-14T05:26:59Z</time>
      </trkpt>
      <trkpt lat="47.12421" lon="-1.58944">
        <ele>59</ele>
        <time>2022-07-14T05:27:01Z</time>
      </trkpt>
      <trkpt lat="47.1242" lon="-1.58928">
        <ele>60</ele>
        <time>2022-07-14T05:27:03Z</time>
      </trkpt>
      <trkpt lat="47.12418" lon="-1.5891">
        <ele>61</ele>
        <time>2022-07-14T05:27:05Z</time>
      </trkpt>
      <trkpt lat="47.12416" lon="-1.58893">
        <ele>61</ele>
        <time>2022-07-14T05:27:07Z</time>
      </trkpt>
      <trkpt lat="47.12415" lon="-1.58876">
        <ele>61</ele>
        <time>2022-07-14T05:27:09Z</time>
      </trkpt>
      <trkpt lat="47.12413" lon="-1.58857">
        <ele>61</ele>
        <time>2022-07-14T05:27:11Z</time>
      </trkpt>
      <trkpt lat="47.12411" lon="-1.58839">
        <ele>61</ele>
        <time>2022-07-14T05:27:13Z</time>
      </trkpt>
      <trkpt lat="47.12409" lon="-1.58822">
        <ele>61</ele>
        <time>2022-07-14T05:27:15Z</time>
      </trkpt>
      <trkpt lat="47.12406" lon="-1.58804">
        <ele>61</ele>
        <time>2022-07-14T05:27:17Z</time>
      </trkpt>
      <trkpt lat="47.12403" lon="-1.58786">
        <ele>61</ele>
        <time>2022-07-14T05:27:19Z</time>
      </trkpt>
      <trkpt lat="47.124" lon="-1.58767">
        <ele>61</ele>
        <time>2022-07-14T05:27:21Z</time>
      </trkpt>
      <trkpt lat="47.12397" lon="-1.58749">
        <ele>61</ele>
        <time>2022-07-14T05:27:23Z</time>
      </trkpt>
      <trkpt lat="47.12393" lon="-1.58731">
        <ele>61</ele>
        <time>2022-07-14T05:27:25Z</time>
      </trkpt>
      <trkpt lat="47.12389" lon="-1.58712">
        <ele>61</ele>
        <time>2022-07-14T05:27:27Z</time>
      </trkpt>
      <trkpt lat="47.12385" lon="-1.58693">
        <ele>61</ele>
        <time>2022-07-14T05:27:29Z</time>
      </trkpt>
      <trkpt lat="47.1238" lon="-1.58674">
        <ele>61</ele>
        <time>2022-07-14T05:27:31Z</time>
      </trkpt>
      <trkpt lat="47.12376" lon="-1.58655">
        <ele>61</ele>
        <time>2022-07-14T05:27:33Z</time>
      </trkpt>
      <trkpt lat="47.12373" lon="-1.58635">
        <ele>61</ele>
        <time>2022-07-14T05:27:35Z</time>
      </trkpt>
      <trkpt lat="47.12368" lon="-1.58616">
        <ele>61</ele>
        <time>2022-07-14T05:27:37Z</time>
      </trkpt>
      <trkpt lat="47.12364" lon="-1.58596">
        <ele>60</ele>
        <time>2022-07-14T05:27:39Z</time>
      </trkpt>
      <trkpt lat="47.12359" lon="-1.58575">
        <ele>60</ele>
        <time>2022-07-14T05:27:41Z</time>
      </trkpt>
      <trkpt lat="47.12355" lon="-1.58556">
        <ele>60</ele>
        <time>2022-07-14T05:27:43Z</time>
      </trkpt>
      <trkpt lat="47.12351" lon="-1.58536">
        <ele>60</ele>
        <time>2022-07-14T05:27:45Z</time>
      </trkpt>
      <trkpt lat="47.12346" lon="-1.58517">
        <ele>60</ele>
        <time>2022-07-14T05:27:47Z</time>
      </trkpt>
      <trkpt lat="47.12342" lon="-1.58498">
        <ele>60</ele>
        <time>2022-07-14T05:27:49Z</time>
      </trkpt>
      <trkpt lat="47.12338" lon="-1.58479">
        <ele>60</ele>
        <time>2022-07-14T05:27:51Z</time>
      </trkpt>
      <trkpt lat="47.12332" lon="-1.58461">
        <ele>60</ele>
        <time>2022-07-14T05:27:53Z</time>
      </trkpt>
      <trkpt lat="47.12324" lon="-1.58446">
        <ele>61</ele>
        <time>2022-07-14T05:27:55Z</time>
      </trkpt>
      <trkpt lat="47.12317" lon="-1.5843">
        <ele>61</ele>
        <time>2022-07-14T05:27:57Z</time>
      </trkpt>
      <trkpt lat="47.12309" lon="-1.58414">
        <ele>62</ele>
        <time>2022-07-14T05:27:59Z</time>
      </trkpt>
      <trkpt lat="47.12303" lon="-1.58397">
        <ele>62</ele>
        <time>2022-07-14T05:28:01Z</time>
      </trkpt>
      <trkpt lat="47.12299" lon="-1.58376">
        <ele>61</ele>
        <time>2022-07-14T05:28:03Z</time>
      </trkpt>
      <trkpt lat="47.12295" lon="-1.58347">
        <ele>61</ele>
        <time>2022-07-14T05:28:06Z</time>
      </trkpt>
      <trkpt lat="47.12277" lon="-1.58326">
        <ele>62</ele>
        <time>2022-07-14T05:28:09Z</time>
      </trkpt>
      <trkpt lat="47.12264" lon="-1.58314">
        <ele>61</ele>
        <time>2022-07-14T05:28:11Z</time>
      </trkpt>
      <trkpt lat="47.1225" lon="-1.58303">
        <ele>60</ele>
        <time>2022-07-14T05:28:13Z</time>
      </trkpt>
      <trkpt lat="47.12238" lon="-1.58291">
        <ele>59</ele>
        <time>2022-07-14T05:28:15Z</time>
      </trkpt>
      <trkpt lat="47.1222" lon="-1.58274">
        <ele>58</ele>
        <time>2022-07-14T05:28:18Z</time>
      </trkpt>
      <trkpt lat="47.12209" lon="-1.58262">
        <ele>58</ele>
        <time>2022-07-14T05:28:20Z</time>
      </trkpt>
      <trkpt lat="47.12191" lon="-1.58245">
        <ele>59</ele>
        <time>2022-07-14T05:28:23Z</time>
      </trkpt>
      <trkpt lat="47.1218" lon="-1.58234">
        <ele>60</ele>
        <time>2022-07-14T05:28:25Z</time>
      </trkpt>
      <trkpt lat="47.12163" lon="-1.58218">
        <ele>60</ele>
        <time>2022-07-14T05:28:28Z</time>
      </trkpt>
      <trkpt lat="47.12152" lon="-1.58206">
        <ele>61</ele>
        <time>2022-07-14T05:28:30Z</time>
      </trkpt>
      <trkpt lat="47.12142" lon="-1.58195">
        <ele>62</ele>
        <time>2022-07-14T05:28:32Z</time>
      </trkpt>
      <trkpt lat="47.12131" lon="-1.58185">
        <ele>62</ele>
        <time>2022-07-14T05:28:34Z</time>
      </trkpt>
      <trkpt lat="47.12121" lon="-1.58175">
        <ele>62</ele>
        <time>2022-07-14T05:28:36Z</time>
      </trkpt>
      <trkpt lat="47.12111" lon="-1.58166">
        <ele>63</ele>
        <time>2022-07-14T05:28:38Z</time>
      </trkpt>
      <trkpt lat="47.121" lon="-1.58159">
        <ele>63</ele>
        <time>2022-07-14T05:28:40Z</time>
      </trkpt>
      <trkpt lat="47.12089" lon="-1.58151">
        <ele>64</ele>
        <time>2022-07-14T05:28:42Z</time>
      </trkpt>
      <trkpt lat="47.12076" lon="-1.58144">
        <ele>63</ele>
        <time>2022-07-14T05:28:44Z</time>
      </trkpt>
      <trkpt lat="47.12064" lon="-1.58137">
        <ele>63</ele>
        <time>2022-07-14T05:28:46Z</time>
      </trkpt>
      <trkpt lat="47.12052" lon="-1.58129">
        <ele>63</ele>
        <time>2022-07-14T05:28:48Z</time>
      </trkpt>
      <trkpt lat="47.1204" lon="-1.58122">
        <ele>63</ele>
        <time>2022-07-14T05:28:50Z</time>
      </trkpt>
      <trkpt lat="47.12028" lon="-1.58115">
        <ele>62</ele>
        <time>2022-07-14T05:28:52Z</time>
      </trkpt>
      <trkpt lat="47.12016" lon="-1.58109">
        <ele>62</ele>
        <time>2022-07-14T05:28:54Z</time>
      </trkpt>
      <trkpt lat="47.12003" lon="-1.58105">
        <ele>62</ele>
        <time>2022-07-14T05:28:56Z</time>
      </trkpt>
      <trkpt lat="47.1199" lon="-1.58102">
        <ele>63</ele>
        <time>2022-07-14T05:28:58Z</time>
      </trkpt>
      <trkpt lat="47.11977" lon="-1.58098">
        <ele>63</ele>
        <time>2022-07-14T05:29:00Z</time>
      </trkpt>
      <trkpt lat="47.11963" lon="-1.58094">
        <ele>63</ele>
        <time>2022-07-14T05:29:02Z</time>
      </trkpt>
      <trkpt lat="47.1195" lon="-1.58091">
        <ele>64</ele>
        <time>2022-07-14T05:29:04Z</time>
      </trkpt>
      <trkpt lat="47.11936" lon="-1.58088">
        <ele>64</ele>
        <time>2022-07-14T05:29:06Z</time>
      </trkpt>
      <trkpt lat="47.11921" lon="-1.58084">
        <ele>64</ele>
        <time>2022-07-14T05:29:08Z</time>
      </trkpt>
      <trkpt lat="47.11906" lon="-1.58081">
        <ele>64</ele>
        <time>2022-07-14T05:29:10Z</time>
      </trkpt>
      <trkpt lat="47.11892" lon="-1.58078">
        <ele>64</ele>
        <time>2022-07-14T05:29:12Z</time>
      </trkpt>
      <trkpt lat="47.11877" lon="-1.58074">
        <ele>64</ele>
        <time>2022-07-14T05:29:14Z</time>
      </trkpt>
      <trkpt lat="47.11862" lon="-1.5807">
        <ele>64</ele>
        <time>2022-07-14T05:29:16Z</time>
      </trkpt>
      <trkpt lat="47.11846" lon="-1.58066">
        <ele>64</ele>
        <time>2022-07-14T05:29:18Z</time>
      </trkpt>
      <trkpt lat="47.11831" lon="-1.58063">
        <ele>63</ele>
        <time>2022-07-14T05:29:20Z</time>
      </trkpt>
      <trkpt lat="47.11815" lon="-1.58059">
        <ele>63</ele>
        <time>2022-07-14T05:29:22Z</time>
      </trkpt>
      <trkpt lat="47.11799" lon="-1.58055">
        <ele>63</ele>
        <time>2022-07-14T05:29:24Z</time>
      </trkpt>
      <trkpt lat="47.11784" lon="-1.58051">
        <ele>63</ele>
        <time>2022-07-14T05:29:26Z</time>
      </trkpt>
      <trkpt lat="47.11769" lon="-1.58047">
        <ele>63</ele>
        <time>2022-07-14T05:29:28Z</time>
      </trkpt>
      <trkpt lat="47.11754" lon="-1.58044">
        <ele>63</ele>
        <time>2022-07-14T05:29:30Z</time>
      </trkpt>
      <trkpt lat="47.11738" lon="-1.58042">
        <ele>63</ele>
        <time>2022-07-14T05:29:32Z</time>
      </trkpt>
      <trkpt lat="47.11722" lon="-1.5804">
        <ele>63</ele>
        <time>2022-07-14T05:29:34Z</time>
      </trkpt>
      <trkpt lat="47.11706" lon="-1.58039">
        <ele>63</ele>
        <time>2022-07-14T05:29:36Z</time>
      </trkpt>
      <trkpt lat="47.11691" lon="-1.58038">
        <ele>63</ele>
        <time>2022-07-14T05:29:38Z</time>
      </trkpt>
      <trkpt lat="47.11675" lon="-1.58037">
        <ele>62</ele>
        <time>2022-07-14T05:29:40Z</time>
      </trkpt>
      <trkpt lat="47.11661" lon="-1.58039">
        <ele>62</ele>
        <time>2022-07-14T05:29:42Z</time>
      </trkpt>
      <trkpt lat="47.11648" lon="-1.58045">
        <ele>61</ele>
        <time>2022-07-14T05:29:44Z</time>
      </trkpt>
      <trkpt lat="47.11635" lon="-1.58044">
        <ele>61</ele>
        <time>2022-07-14T05:29:46Z</time>
      </trkpt>
      <trkpt lat="47.11622" lon="-1.58036">
        <ele>60</ele>
        <time>2022-07-14T05:29:48Z</time>
      </trkpt>
      <trkpt lat="47.1161" lon="-1.58028">
        <ele>60</ele>
        <time>2022-07-14T05:29:50Z</time>
      </trkpt>
      <trkpt lat="47.11602" lon="-1.58018">
        <ele>60</ele>
        <time>2022-07-14T05:29:52Z</time>
      </trkpt>
      <trkpt lat="47.11591" lon="-1.58017">
        <ele>60</ele>
        <time>2022-07-14T05:29:54Z</time>
      </trkpt>
      <trkpt lat="47.11578" lon="-1.58015">
        <ele>60</ele>
        <time>2022-07-14T05:29:56Z</time>
      </trkpt>
      <trkpt lat="47.11564" lon="-1.58013">
        <ele>60</ele>
        <time>2022-07-14T05:29:58Z</time>
      </trkpt>
      <trkpt lat="47.1155" lon="-1.58012">
        <ele>60</ele>
        <time>2022-07-14T05:30:00Z</time>
      </trkpt>
      <trkpt lat="47.11536" lon="-1.58012">
        <ele>61</ele>
        <time>2022-07-14T05:30:02Z</time>
      </trkpt>
      <trkpt lat="47.11522" lon="-1.58013">
        <ele>61</ele>
        <time>2022-07-14T05:30:04Z</time>
      </trkpt>
      <trkpt lat="47.11507" lon="-1.58013">
        <ele>61</ele>
        <time>2022-07-14T05:30:06Z</time>
      </trkpt>
      <trkpt lat="47.11494" lon="-1.58014">
        <ele>62</ele>
        <time>2022-07-14T05:30:08Z</time>
      </trkpt>
      <trkpt lat="47.11482" lon="-1.58017">
        <ele>62</ele>
        <time>2022-07-14T05:30:10Z</time>
      </trkpt>
      <trkpt lat="47.11472" lon="-1.5802">
        <ele>62</ele>
        <time>2022-07-14T05:30:12Z</time>
      </trkpt>
      <trkpt lat="47.11461" lon="-1.58022">
        <ele>62</ele>
        <time>2022-07-14T05:30:14Z</time>
      </trkpt>
      <trkpt lat="47.11452" lon="-1.58026">
        <ele>61</ele>
        <time>2022-07-14T05:30:16Z</time>
      </trkpt>
      <trkpt lat="47.11442" lon="-1.58031">
        <ele>62</ele>
        <time>2022-07-14T05:30:18Z</time>
      </trkpt>
      <trkpt lat="47.11433" lon="-1.58036">
        <ele>62</ele>
        <time>2022-07-14T05:30:20Z</time>
      </trkpt>
      <trkpt lat="47.11423" lon="-1.58041">
        <ele>62</ele>
        <time>2022-07-14T05:30:22Z</time>
      </trkpt>
      <trkpt lat="47.1141" lon="-1.58049">
        <ele>62</ele>
        <time>2022-07-14T05:30:24Z</time>
      </trkpt>
      <trkpt lat="47.11395" lon="-1.5806">
        <ele>61</ele>
        <time>2022-07-14T05:30:26Z</time>
      </trkpt>
      <trkpt lat="47.1138" lon="-1.58069">
        <ele>61</ele>
        <time>2022-07-14T05:30:28Z</time>
      </trkpt>
      <trkpt lat="47.11364" lon="-1.58079">
        <ele>60</ele>
        <time>2022-07-14T05:30:30Z</time>
      </trkpt>
      <trkpt lat="47.11349" lon="-1.58089">
        <ele>60</ele>
        <time>2022-07-14T05:30:32Z</time>
      </trkpt>
      <trkpt lat="47.11333" lon="-1.58099">
        <ele>60</ele>
        <time>2022-07-14T05:30:34Z</time>
      </trkpt>
      <trkpt lat="47.11317" lon="-1.58108">
        <ele>60</ele>
        <time>2022-07-14T05:30:36Z</time>
      </trkpt>
      <trkpt lat="47.11301" lon="-1.58118">
        <ele>60</ele>
        <time>2022-07-14T05:30:38Z</time>
      </trkpt>
      <trkpt lat="47.11286" lon="-1.58129">
        <ele>59</ele>
        <time>2022-07-14T05:30:40Z</time>
      </trkpt>
      <trkpt lat="47.11271" lon="-1.58141">
        <ele>59</ele>
        <time>2022-07-14T05:30:42Z</time>
      </trkpt>
      <trkpt lat="47.11257" lon="-1.58153">
        <ele>59</ele>
        <time>2022-07-14T05:30:44Z</time>
      </trkpt>
      <trkpt lat="47.11243" lon="-1.58167">
        <ele>59</ele>
        <time>2022-07-14T05:30:46Z</time>
      </trkpt>
      <trkpt lat="47.1123" lon="-1.58182">
        <ele>59</ele>
        <time>2022-07-14T05:30:48Z</time>
      </trkpt>
      <trkpt lat="47.11218" lon="-1.58197">
        <ele>59</ele>
        <time>2022-07-14T05:30:50Z</time>
      </trkpt>
      <trkpt lat="47.11206" lon="-1.58213">
        <ele>59</ele>
        <time>2022-07-14T05:30:52Z</time>
      </trkpt>
      <trkpt lat="47.11194" lon="-1.58228">
        <ele>59</ele>
        <time>2022-07-14T05:30:54Z</time>
      </trkpt>
      <trkpt lat="47.11182" lon="-1.58244">
        <ele>59</ele>
        <time>2022-07-14T05:30:56Z</time>
      </trkpt>
      <trkpt lat="47.11169" lon="-1.58257">
        <ele>59</ele>
        <time>2022-07-14T05:30:58Z</time>
      </trkpt>
      <trkpt lat="47.11156" lon="-1.58272">
        <ele>60</ele>
        <time>2022-07-14T05:31:00Z</time>
      </trkpt>
      <trkpt lat="47.11144" lon="-1.58285">
        <ele>60</ele>
        <time>2022-07-14T05:31:02Z</time>
      </trkpt>
      <trkpt lat="47.11131" lon="-1.58298">
        <ele>59</ele>
        <time>2022-07-14T05:31:04Z</time>
      </trkpt>
      <trkpt lat="47.11118" lon="-1.58312">
        <ele>59</ele>
        <time>2022-07-14T05:31:06Z</time>
      </trkpt>
      <trkpt lat="47.11107" lon="-1.58326">
        <ele>60</ele>
        <time>2022-07-14T05:31:08Z</time>
      </trkpt>
      <trkpt lat="47.11097" lon="-1.58343">
        <ele>60</ele>
        <time>2022-07-14T05:31:10Z</time>
      </trkpt>
      <trkpt lat="47.11087" lon="-1.58361">
        <ele>60</ele>
        <time>2022-07-14T05:31:12Z</time>
      </trkpt>
      <trkpt lat="47.11079" lon="-1.58379">
        <ele>60</ele>
        <time>2022-07-14T05:31:14Z</time>
      </trkpt>
      <trkpt lat="47.11071" lon="-1.58397">
        <ele>60</ele>
        <time>2022-07-14T05:31:16Z</time>
      </trkpt>
      <trkpt lat="47.11063" lon="-1.58415">
        <ele>60</ele>
        <time>2022-07-14T05:31:18Z</time>
      </trkpt>
      <trkpt lat="47.11054" lon="-1.58432">
        <ele>60</ele>
        <time>2022-07-14T05:31:20Z</time>
      </trkpt>
      <trkpt lat="47.11046" lon="-1.58448">
        <ele>60</ele>
        <time>2022-07-14T05:31:22Z</time>
      </trkpt>
      <trkpt lat="47.11038" lon="-1.58465">
        <ele>61</ele>
        <time>2022-07-14T05:31:24Z</time>
      </trkpt>
      <trkpt lat="47.11028" lon="-1.5848">
        <ele>61</ele>
        <time>2022-07-14T05:31:26Z</time>
      </trkpt>
      <trkpt lat="47.11019" lon="-1.58495">
        <ele>61</ele>
        <time>2022-07-14T05:31:28Z</time>
      </trkpt>
      <trkpt lat="47.1101" lon="-1.58509">
        <ele>61</ele>
        <time>2022-07-14T05:31:30Z</time>
      </trkpt>
      <trkpt lat="47.11" lon="-1.58523">
        <ele>62</ele>
        <time>2022-07-14T05:31:32Z</time>
      </trkpt>
      <trkpt lat="47.10991" lon="-1.58538">
        <ele>62</ele>
        <time>2022-07-14T05:31:34Z</time>
      </trkpt>
      <trkpt lat="47.10982" lon="-1.58554">
        <ele>62</ele>
        <time>2022-07-14T05:31:36Z</time>
      </trkpt>
      <trkpt lat="47.10973" lon="-1.58569">
        <ele>63</ele>
        <time>2022-07-14T05:31:38Z</time>
      </trkpt>
      <trkpt lat="47.10964" lon="-1.58583">
        <ele>63</ele>
        <time>2022-07-14T05:31:40Z</time>
      </trkpt>
      <trkpt lat="47.10955" lon="-1.58598">
        <ele>63</ele>
        <time>2022-07-14T05:31:42Z</time>
      </trkpt>
      <trkpt lat="47.10945" lon="-1.58611">
        <ele>64</ele>
        <time>2022-07-14T05:31:44Z</time>
      </trkpt>
      <trkpt lat="47.10935" lon="-1.58624">
        <ele>64</ele>
        <time>2022-07-14T05:31:46Z</time>
      </trkpt>
      <trkpt lat="47.10925" lon="-1.58636">
        <ele>65</ele>
        <time>2022-07-14T05:31:48Z</time>
      </trkpt>
      <trkpt lat="47.10916" lon="-1.5865">
        <ele>65</ele>
        <time>2022-07-14T05:31:50Z</time>
      </trkpt>
      <trkpt lat="47.10908" lon="-1.58663">
        <ele>65</ele>
        <time>2022-07-14T05:31:52Z</time>
      </trkpt>
      <trkpt lat="47.10899" lon="-1.58676">
        <ele>65</ele>
        <time>2022-07-14T05:31:54Z</time>
      </trkpt>
      <trkpt lat="47.1089" lon="-1.5869">
        <ele>65</ele>
        <time>2022-07-14T05:31:56Z</time>
      </trkpt>
      <trkpt lat="47.10881" lon="-1.58704">
        <ele>66</ele>
        <time>2022-07-14T05:31:58Z</time>
      </trkpt>
      <trkpt lat="47.10871" lon="-1.58716">
        <ele>66</ele>
        <time>2022-07-14T05:32:00Z</time>
      </trkpt>
      <trkpt lat="47.10861" lon="-1.58726">
        <ele>66</ele>
        <time>2022-07-14T05:32:02Z</time>
      </trkpt>
      <trkpt lat="47.10854" lon="-1.58739">
        <ele>67</ele>
        <time>2022-07-14T05:32:04Z</time>
      </trkpt>
      <trkpt lat="47.10847" lon="-1.58753">
        <ele>67</ele>
        <time>2022-07-14T05:32:06Z</time>
      </trkpt>
      <trkpt lat="47.10838" lon="-1.58766">
        <ele>67</ele>
        <time>2022-07-14T05:32:08Z</time>
      </trkpt>
      <trkpt lat="47.10829" lon="-1.5878">
        <ele>67</ele>
        <time>2022-07-14T05:32:10Z</time>
      </trkpt>
      <trkpt lat="47.10821" lon="-1.58793">
        <ele>67</ele>
        <time>2022-07-14T05:32:12Z</time>
      </trkpt>
      <trkpt lat="47.10812" lon="-1.58807">
        <ele>68</ele>
        <time>2022-07-14T05:32:14Z</time>
      </trkpt>
      <trkpt lat="47.10803" lon="-1.58821">
        <ele>68</ele>
        <time>2022-07-14T05:32:16Z</time>
      </trkpt>
      <trkpt lat="47.10794" lon="-1.58834">
        <ele>68</ele>
        <time>2022-07-14T05:32:18Z</time>
      </trkpt>
      <trkpt lat="47.10785" lon="-1.58847">
        <ele>67</ele>
        <time>2022-07-14T05:32:20Z</time>
      </trkpt>
      <trkpt lat="47.10777" lon="-1.58861">
        <ele>68</ele>
        <time>2022-07-14T05:32:22Z</time>
      </trkpt>
      <trkpt lat="47.10768" lon="-1.58873">
        <ele>68</ele>
        <time>2022-07-14T05:32:24Z</time>
      </trkpt>
      <trkpt lat="47.10759" lon="-1.58885">
        <ele>68</ele>
        <time>2022-07-14T05:32:26Z</time>
      </trkpt>
      <trkpt lat="47.10752" lon="-1.589">
        <ele>68</ele>
        <time>2022-07-14T05:32:28Z</time>
      </trkpt>
      <trkpt lat="47.10745" lon="-1.58917">
        <ele>68</ele>
        <time>2022-07-14T05:32:30Z</time>
      </trkpt>
      <trkpt lat="47.10738" lon="-1.58933">
        <ele>68</ele>
        <time>2022-07-14T05:32:32Z</time>
      </trkpt>
      <trkpt lat="47.10733" lon="-1.58949">
        <ele>69</ele>
        <time>2022-07-14T05:32:34Z</time>
      </trkpt>
      <trkpt lat="47.10727" lon="-1.58966">
        <ele>69</ele>
        <time>2022-07-14T05:32:36Z</time>
      </trkpt>
      <trkpt lat="47.10721" lon="-1.58982">
        <ele>69</ele>
        <time>2022-07-14T05:32:38Z</time>
      </trkpt>
      <trkpt lat="47.10714" lon="-1.58998">
        <ele>69</ele>
        <time>2022-07-14T05:32:40Z</time>
      </trkpt>
      <trkpt lat="47.10706" lon="-1.59012">
        <ele>68</ele>
        <time>2022-07-14T05:32:42Z</time>
      </trkpt>
      <trkpt lat="47.10698" lon="-1.59026">
        <ele>69</ele>
        <time>2022-07-14T05:32:44Z</time>
      </trkpt>
      <trkpt lat="47.10691" lon="-1.5904">
        <ele>68</ele>
        <time>2022-07-14T05:32:46Z</time>
      </trkpt>
      <trkpt lat="47.10687" lon="-1.59058">
        <ele>68</ele>
        <time>2022-07-14T05:32:48Z</time>
      </trkpt>
      <trkpt lat="47.10683" lon="-1.59077">
        <ele>67</ele>
        <time>2022-07-14T05:32:50Z</time>
      </trkpt>
      <trkpt lat="47.10677" lon="-1.59096">
        <ele>67</ele>
        <time>2022-07-14T05:32:52Z</time>
      </trkpt>
      <trkpt lat="47.10672" lon="-1.59113">
        <ele>67</ele>
        <time>2022-07-14T05:32:54Z</time>
      </trkpt>
      <trkpt lat="47.10665" lon="-1.59132">
        <ele>67</ele>
        <time>2022-07-14T05:32:56Z</time>
      </trkpt>
      <trkpt lat="47.10658" lon="-1.59151">
        <ele>67</ele>
        <time>2022-07-14T05:32:58Z</time>
      </trkpt>
      <trkpt lat="47.10651" lon="-1.5917">
        <ele>67</ele>
        <time>2022-07-14T05:33:00Z</time>
      </trkpt>
      <trkpt lat="47.10642" lon="-1.59188">
        <ele>67</ele>
        <time>2022-07-14T05:33:02Z</time>
      </trkpt>
      <trkpt lat="47.10632" lon="-1.59206">
        <ele>66</ele>
        <time>2022-07-14T05:33:04Z</time>
      </trkpt>
      <trkpt lat="47.10622" lon="-1.59223">
        <ele>66</ele>
        <time>2022-07-14T05:33:06Z</time>
      </trkpt>
      <trkpt lat="47.10612" lon="-1.5924">
        <ele>66</ele>
        <time>2022-07-14T05:33:08Z</time>
      </trkpt>
      <trkpt lat="47.10601" lon="-1.59256">
        <ele>65</ele>
        <time>2022-07-14T05:33:10Z</time>
      </trkpt>
      <trkpt lat="47.10591" lon="-1.59273">
        <ele>65</ele>
        <time>2022-07-14T05:33:12Z</time>
      </trkpt>
      <trkpt lat="47.10581" lon="-1.5929">
        <ele>64</ele>
        <time>2022-07-14T05:33:14Z</time>
      </trkpt>
      <trkpt lat="47.10571" lon="-1.59308">
        <ele>63</ele>
        <time>2022-07-14T05:33:16Z</time>
      </trkpt>
      <trkpt lat="47.10561" lon="-1.59326">
        <ele>63</ele>
        <time>2022-07-14T05:33:18Z</time>
      </trkpt>
      <trkpt lat="47.10551" lon="-1.59344">
        <ele>63</ele>
        <time>2022-07-14T05:33:20Z</time>
      </trkpt>
      <trkpt lat="47.10541" lon="-1.59362">
        <ele>63</ele>
        <time>2022-07-14T05:33:22Z</time>
      </trkpt>
      <trkpt lat="47.10531" lon="-1.59379">
        <ele>62</ele>
        <time>2022-07-14T05:33:24Z</time>
      </trkpt>
      <trkpt lat="47.10521" lon="-1.59396">
        <ele>62</ele>
        <time>2022-07-14T05:33:26Z</time>
      </trkpt>
      <trkpt lat="47.10511" lon="-1.59413">
        <ele>61</ele>
        <time>2022-07-14T05:33:28Z</time>
      </trkpt>
      <trkpt lat="47.10501" lon="-1.5943">
        <ele>61</ele>
        <time>2022-07-14T05:33:30Z</time>
      </trkpt>
      <trkpt lat="47.10491" lon="-1.59447">
        <ele>61</ele>
        <time>2022-07-14T05:33:32Z</time>
      </trkpt>
      <trkpt lat="47.10481" lon="-1.59463">
        <ele>61</ele>
        <time>2022-07-14T05:33:34Z</time>
      </trkpt>
      <trkpt lat="47.10471" lon="-1.5948">
        <ele>60</ele>
        <time>2022-07-14T05:33:36Z</time>
      </trkpt>
      <trkpt lat="47.10461" lon="-1.59497">
        <ele>61</ele>
        <time>2022-07-14T05:33:38Z</time>
      </trkpt>
      <trkpt lat="47.10451" lon="-1.59514">
        <ele>60</ele>
        <time>2022-07-14T05:33:40Z</time>
      </trkpt>
      <trkpt lat="47.10442" lon="-1.59531">
        <ele>60</ele>
        <time>2022-07-14T05:33:42Z</time>
      </trkpt>
      <trkpt lat="47.10432" lon="-1.59547">
        <ele>60</ele>
        <time>2022-07-14T05:33:44Z</time>
      </trkpt>
      <trkpt lat="47.10422" lon="-1.59565">
        <ele>61</ele>
        <time>2022-07-14T05:33:46Z</time>
      </trkpt>
      <trkpt lat="47.10412" lon="-1.59581">
        <ele>60</ele>
        <time>2022-07-14T05:33:48Z</time>
      </trkpt>
      <trkpt lat="47.10401" lon="-1.59598">
        <ele>60</ele>
        <time>2022-07-14T05:33:50Z</time>
      </trkpt>
      <trkpt lat="47.10392" lon="-1.59615">
        <ele>60</ele>
        <time>2022-07-14T05:33:52Z</time>
      </trkpt>
      <trkpt lat="47.10382" lon="-1.59631">
        <ele>60</ele>
        <time>2022-07-14T05:33:54Z</time>
      </trkpt>
      <trkpt lat="47.10372" lon="-1.59647">
        <ele>60</ele>
        <time>2022-07-14T05:33:56Z</time>
      </trkpt>
      <trkpt lat="47.10362" lon="-1.59663">
        <ele>60</ele>
        <time>2022-07-14T05:33:58Z</time>
      </trkpt>
      <trkpt lat="47.10353" lon="-1.5968">
        <ele>60</ele>
        <time>2022-07-14T05:34:00Z</time>
      </trkpt>
      <trkpt lat="47.10343" lon="-1.59696">
        <ele>60</ele>
        <time>2022-07-14T05:34:02Z</time>
      </trkpt>
      <trkpt lat="47.10333" lon="-1.59713">
        <ele>60</ele>
        <time>2022-07-14T05:34:04Z</time>
      </trkpt>
      <trkpt lat="47.10323" lon="-1.59729">
        <ele>60</ele>
        <time>2022-07-14T05:34:06Z</time>
      </trkpt>
      <trkpt lat="47.10312" lon="-1.59745">
        <ele>60</ele>
        <time>2022-07-14T05:34:08Z</time>
      </trkpt>
      <trkpt lat="47.10303" lon="-1.59761">
        <ele>60</ele>
        <time>2022-07-14T05:34:10Z</time>
      </trkpt>
      <trkpt lat="47.10293" lon="-1.59778">
        <ele>60</ele>
        <time>2022-07-14T05:34:12Z</time>
      </trkpt>
      <trkpt lat="47.10284" lon="-1.59795">
        <ele>60</ele>
        <time>2022-07-14T05:34:14Z</time>
      </trkpt>
      <trkpt lat="47.10274" lon="-1.59811">
        <ele>61</ele>
        <time>2022-07-14T05:34:16Z</time>
      </trkpt>
      <trkpt lat="47.10265" lon="-1.59827">
        <ele>60</ele>
        <time>2022-07-14T05:34:18Z</time>
      </trkpt>
      <trkpt lat="47.10254" lon="-1.59843">
        <ele>60</ele>
        <time>2022-07-14T05:34:20Z</time>
      </trkpt>
      <trkpt lat="47.10245" lon="-1.59858">
        <ele>60</ele>
        <time>2022-07-14T05:34:22Z</time>
      </trkpt>
      <trkpt lat="47.10235" lon="-1.59874">
        <ele>60</ele>
        <time>2022-07-14T05:34:24Z</time>
      </trkpt>
      <trkpt lat="47.10226" lon="-1.5989">
        <ele>60</ele>
        <time>2022-07-14T05:34:26Z</time>
      </trkpt>
      <trkpt lat="47.10216" lon="-1.59906">
        <ele>60</ele>
        <time>2022-07-14T05:34:28Z</time>
      </trkpt>
      <trkpt lat="47.10207" lon="-1.59921">
        <ele>59</ele>
        <time>2022-07-14T05:34:30Z</time>
      </trkpt>
      <trkpt lat="47.10197" lon="-1.59937">
        <ele>59</ele>
        <time>2022-07-14T05:34:32Z</time>
      </trkpt>
      <trkpt lat="47.10188" lon="-1.59952">
        <ele>59</ele>
        <time>2022-07-14T05:34:34Z</time>
      </trkpt>
      <trkpt lat="47.10178" lon="-1.59968">
        <ele>59</ele>
        <time>2022-07-14T05:34:36Z</time>
      </trkpt>
      <trkpt lat="47.10168" lon="-1.59984">
        <ele>59</ele>
        <time>2022-07-14T05:34:38Z</time>
      </trkpt>
      <trkpt lat="47.10158" lon="-1.6">
        <ele>59</ele>
        <time>2022-07-14T05:34:40Z</time>
      </trkpt>
      <trkpt lat="47.10149" lon="-1.60017">
        <ele>59</ele>
        <time>2022-07-14T05:34:42Z</time>
      </trkpt>
      <trkpt lat="47.1014" lon="-1.60033">
        <ele>59</ele>
        <time>2022-07-14T05:34:44Z</time>
      </trkpt>
      <trkpt lat="47.10131" lon="-1.60048">
        <ele>59</ele>
        <time>2022-07-14T05:34:46Z</time>
      </trkpt>
      <trkpt lat="47.10122" lon="-1.60063">
        <ele>60</ele>
        <time>2022-07-14T05:34:48Z</time>
      </trkpt>
      <trkpt lat="47.10114" lon="-1.60077">
        <ele>60</ele>
        <time>2022-07-14T05:34:50Z</time>
      </trkpt>
      <trkpt lat="47.10106" lon="-1.60088">
        <ele>61</ele>
        <time>2022-07-14T05:34:52Z</time>
      </trkpt>
      <trkpt lat="47.10107" lon="-1.60105">
        <ele>61</ele>
        <time>2022-07-14T05:34:55Z</time>
      </trkpt>
      <trkpt lat="47.10112" lon="-1.60119">
        <ele>60</ele>
        <time>2022-07-14T05:34:57Z</time>
      </trkpt>
      <trkpt lat="47.10108" lon="-1.60139">
        <ele>60</ele>
        <time>2022-07-14T05:34:59Z</time>
      </trkpt>
      <trkpt lat="47.10101" lon="-1.60157">
        <ele>60</ele>
        <time>2022-07-14T05:35:01Z</time>
      </trkpt>
      <trkpt lat="47.10092" lon="-1.60174">
        <ele>60</ele>
        <time>2022-07-14T05:35:03Z</time>
      </trkpt>
      <trkpt lat="47.10088" lon="-1.60194">
        <ele>60</ele>
        <time>2022-07-14T05:35:05Z</time>
      </trkpt>
      <trkpt lat="47.10085" lon="-1.60216">
        <ele>60</ele>
        <time>2022-07-14T05:35:07Z</time>
      </trkpt>
      <trkpt lat="47.10083" lon="-1.60236">
        <ele>60</ele>
        <time>2022-07-14T05:35:09Z</time>
      </trkpt>
      <trkpt lat="47.10081" lon="-1.60257">
        <ele>60</ele>
        <time>2022-07-14T05:35:11Z</time>
      </trkpt>
      <trkpt lat="47.10079" lon="-1.60278">
        <ele>60</ele>
        <time>2022-07-14T05:35:13Z</time>
      </trkpt>
      <trkpt lat="47.10077" lon="-1.60298">
        <ele>60</ele>
        <time>2022-07-14T05:35:15Z</time>
      </trkpt>
      <trkpt lat="47.10075" lon="-1.60319">
        <ele>60</ele>
        <time>2022-07-14T05:35:17Z</time>
      </trkpt>
      <trkpt lat="47.10073" lon="-1.6034">
        <ele>60</ele>
        <time>2022-07-14T05:35:19Z</time>
      </trkpt>
      <trkpt lat="47.10071" lon="-1.60361">
        <ele>60</ele>
        <time>2022-07-14T05:35:21Z</time>
      </trkpt>
      <trkpt lat="47.10069" lon="-1.60381">
        <ele>60</ele>
        <time>2022-07-14T05:35:23Z</time>
      </trkpt>
      <trkpt lat="47.10067" lon="-1.60401">
        <ele>60</ele>
        <time>2022-07-14T05:35:25Z</time>
      </trkpt>
      <trkpt lat="47.10064" lon="-1.60422">
        <ele>60</ele>
        <time>2022-07-14T05:35:27Z</time>
      </trkpt>
      <trkpt lat="47.10061" lon="-1.60442">
        <ele>60</ele>
        <time>2022-07-14T05:35:29Z</time>
      </trkpt>
      <trkpt lat="47.10058" lon="-1.60461">
        <ele>61</ele>
        <time>2022-07-14T05:35:31Z</time>
      </trkpt>
      <trkpt lat="47.10055" lon="-1.60479">
        <ele>61</ele>
        <time>2022-07-14T05:35:33Z</time>
      </trkpt>
      <trkpt lat="47.1005" lon="-1.60499">
        <ele>61</ele>
        <time>2022-07-14T05:35:35Z</time>
      </trkpt>
      <trkpt lat="47.10046" lon="-1.60518">
        <ele>61</ele>
        <time>2022-07-14T05:35:37Z</time>
      </trkpt>
      <trkpt lat="47.1004" lon="-1.60537">
        <ele>61</ele>
        <time>2022-07-14T05:35:39Z</time>
      </trkpt>
      <trkpt lat="47.10035" lon="-1.60555">
        <ele>61</ele>
        <time>2022-07-14T05:35:41Z</time>
      </trkpt>
      <trkpt lat="47.10029" lon="-1.60574">
        <ele>61</ele>
        <time>2022-07-14T05:35:43Z</time>
      </trkpt>
      <trkpt lat="47.10024" lon="-1.60592">
        <ele>61</ele>
        <time>2022-07-14T05:35:45Z</time>
      </trkpt>
      <trkpt lat="47.10018" lon="-1.6061">
        <ele>61</ele>
        <time>2022-07-14T05:35:47Z</time>
      </trkpt>
      <trkpt lat="47.10013" lon="-1.60628">
        <ele>61</ele>
        <time>2022-07-14T05:35:49Z</time>
      </trkpt>
      <trkpt lat="47.10008" lon="-1.60647">
        <ele>61</ele>
        <time>2022-07-14T05:35:51Z</time>
      </trkpt>
      <trkpt lat="47.10002" lon="-1.60665">
        <ele>61</ele>
        <time>2022-07-14T05:35:53Z</time>
      </trkpt>
      <trkpt lat="47.09997" lon="-1.60684">
        <ele>61</ele>
        <time>2022-07-14T05:35:55Z</time>
      </trkpt>
      <trkpt lat="47.09991" lon="-1.60702">
        <ele>61</ele>
        <time>2022-07-14T05:35:57Z</time>
      </trkpt>
      <trkpt lat="47.09986" lon="-1.6072">
        <ele>60</ele>
        <time>2022-07-14T05:35:59Z</time>
      </trkpt>
      <trkpt lat="47.0998" lon="-1.60739">
        <ele>60</ele>
        <time>2022-07-14T05:36:01Z</time>
      </trkpt>
      <trkpt lat="47.09974" lon="-1.60758">
        <ele>60</ele>
        <time>2022-07-14T05:36:03Z</time>
      </trkpt>
      <trkpt lat="47.09968" lon="-1.60778">
        <ele>60</ele>
        <time>2022-07-14T05:36:05Z</time>
      </trkpt>
      <trkpt lat="47.09962" lon="-1.60796">
        <ele>60</ele>
        <time>2022-07-14T05:36:07Z</time>
      </trkpt>
      <trkpt lat="47.09956" lon="-1.60816">
        <ele>59</ele>
        <time>2022-07-14T05:36:09Z</time>
      </trkpt>
      <trkpt lat="47.0995" lon="-1.60835">
        <ele>60</ele>
        <time>2022-07-14T05:36:11Z</time>
      </trkpt>
      <trkpt lat="47.09944" lon="-1.60853">
        <ele>60</ele>
        <time>2022-07-14T05:36:13Z</time>
      </trkpt>
      <trkpt lat="47.09937" lon="-1.60871">
        <ele>60</ele>
        <time>2022-07-14T05:36:15Z</time>
      </trkpt>
      <trkpt lat="47.09929" lon="-1.6089">
        <ele>59</ele>
        <time>2022-07-14T05:36:17Z</time>
      </trkpt>
      <trkpt lat="47.09922" lon="-1.60908">
        <ele>59</ele>
        <time>2022-07-14T05:36:19Z</time>
      </trkpt>
      <trkpt lat="47.09915" lon="-1.60926">
        <ele>59</ele>
        <time>2022-07-14T05:36:21Z</time>
      </trkpt>
      <trkpt lat="47.09908" lon="-1.60944">
        <ele>59</ele>
        <time>2022-07-14T05:36:23Z</time>
      </trkpt>
      <trkpt lat="47.099" lon="-1.60962">
        <ele>58</ele>
        <time>2022-07-14T05:36:25Z</time>
      </trkpt>
      <trkpt lat="47.09893" lon="-1.60981">
        <ele>58</ele>
        <time>2022-07-14T05:36:27Z</time>
      </trkpt>
      <trkpt lat="47.09886" lon="-1.61">
        <ele>57</ele>
        <time>2022-07-14T05:36:29Z</time>
      </trkpt>
      <trkpt lat="47.09878" lon="-1.61018">
        <ele>57</ele>
        <time>2022-07-14T05:36:31Z</time>
      </trkpt>
      <trkpt lat="47.09871" lon="-1.61037">
        <ele>56</ele>
        <time>2022-07-14T05:36:33Z</time>
      </trkpt>
      <trkpt lat="47.09863" lon="-1.61056">
        <ele>56</ele>
        <time>2022-07-14T05:36:35Z</time>
      </trkpt>
      <trkpt lat="47.09853" lon="-1.61073">
        <ele>56</ele>
        <time>2022-07-14T05:36:37Z</time>
      </trkpt>
      <trkpt lat="47.09841" lon="-1.61086">
        <ele>56</ele>
        <time>2022-07-14T05:36:39Z</time>
      </trkpt>
      <trkpt lat="47.09827" lon="-1.61097">
        <ele>55</ele>
        <time>2022-07-14T05:36:41Z</time>
      </trkpt>
      <trkpt lat="47.09813" lon="-1.61106">
        <ele>55</ele>
        <time>2022-07-14T05:36:43Z</time>
      </trkpt>
      <trkpt lat="47.09798" lon="-1.61111">
        <ele>54</ele>
        <time>2022-07-14T05:36:45Z</time>
      </trkpt>
      <trkpt lat="47.09783" lon="-1.61114">
        <ele>54</ele>
        <time>2022-07-14T05:36:47Z</time>
      </trkpt>
      <trkpt lat="47.09768" lon="-1.61115">
        <ele>54</ele>
        <time>2022-07-14T05:36:49Z</time>
      </trkpt>
      <trkpt lat="47.09754" lon="-1.61116">
        <ele>54</ele>
        <time>2022-07-14T05:36:51Z</time>
      </trkpt>
      <trkpt lat="47.09739" lon="-1.61118">
        <ele>54</ele>
        <time>2022-07-14T05:36:53Z</time>
      </trkpt>
      <trkpt lat="47.09725" lon="-1.61119">
        <ele>55</ele>
        <time>2022-07-14T05:36:55Z</time>
      </trkpt>
      <trkpt lat="47.0971" lon="-1.61121">
        <ele>55</ele>
        <time>2022-07-14T05:36:57Z</time>
      </trkpt>
      <trkpt lat="47.09696" lon="-1.61123">
        <ele>55</ele>
        <time>2022-07-14T05:36:59Z</time>
      </trkpt>
      <trkpt lat="47.09681" lon="-1.61125">
        <ele>55</ele>
        <time>2022-07-14T05:37:01Z</time>
      </trkpt>
      <trkpt lat="47.09668" lon="-1.61126">
        <ele>55</ele>
        <time>2022-07-14T05:37:03Z</time>
      </trkpt>
      <trkpt lat="47.09654" lon="-1.61129">
        <ele>55</ele>
        <time>2022-07-14T05:37:05Z</time>
      </trkpt>
      <trkpt lat="47.09641" lon="-1.6113">
        <ele>56</ele>
        <time>2022-07-14T05:37:07Z</time>
      </trkpt>
      <trkpt lat="47.09627" lon="-1.61132">
        <ele>56</ele>
        <time>2022-07-14T05:37:09Z</time>
      </trkpt>
      <trkpt lat="47.09614" lon="-1.61133">
        <ele>56</ele>
        <time>2022-07-14T05:37:11Z</time>
      </trkpt>
      <trkpt lat="47.096" lon="-1.61135">
        <ele>55</ele>
        <time>2022-07-14T05:37:13Z</time>
      </trkpt>
      <trkpt lat="47.09587" lon="-1.61137">
        <ele>56</ele>
        <time>2022-07-14T05:37:15Z</time>
      </trkpt>
      <trkpt lat="47.09574" lon="-1.61139">
        <ele>56</ele>
        <time>2022-07-14T05:37:17Z</time>
      </trkpt>
      <trkpt lat="47.09562" lon="-1.6114">
        <ele>56</ele>
        <time>2022-07-14T05:37:19Z</time>
      </trkpt>
      <trkpt lat="47.09549" lon="-1.61142">
        <ele>57</ele>
        <time>2022-07-14T05:37:21Z</time>
      </trkpt>
      <trkpt lat="47.09537" lon="-1.61144">
        <ele>57</ele>
        <time>2022-07-14T05:37:23Z</time>
      </trkpt>
      <trkpt lat="47.09524" lon="-1.61147">
        <ele>57</ele>
        <time>2022-07-14T05:37:25Z</time>
      </trkpt>
      <trkpt lat="47.09511" lon="-1.61151">
        <ele>57</ele>
        <time>2022-07-14T05:37:27Z</time>
      </trkpt>
      <trkpt lat="47.09499" lon="-1.61158">
        <ele>58</ele>
        <time>2022-07-14T05:37:29Z</time>
      </trkpt>
      <trkpt lat="47.09487" lon="-1.61166">
        <ele>58</ele>
        <time>2022-07-14T05:37:31Z</time>
      </trkpt>
      <trkpt lat="47.09476" lon="-1.61177">
        <ele>58</ele>
        <time>2022-07-14T05:37:33Z</time>
      </trkpt>
      <trkpt lat="47.09466" lon="-1.61189">
        <ele>59</ele>
        <time>2022-07-14T05:37:35Z</time>
      </trkpt>
      <trkpt lat="47.09455" lon="-1.61201">
        <ele>59</ele>
        <time>2022-07-14T05:37:37Z</time>
      </trkpt>
      <trkpt lat="47.09445" lon="-1.61212">
        <ele>59</ele>
        <time>2022-07-14T05:37:39Z</time>
      </trkpt>
      <trkpt lat="47.09435" lon="-1.61224">
        <ele>59</ele>
        <time>2022-07-14T05:37:41Z</time>
      </trkpt>
      <trkpt lat="47.09425" lon="-1.61234">
        <ele>59</ele>
        <time>2022-07-14T05:37:43Z</time>
      </trkpt>
      <trkpt lat="47.09412" lon="-1.61239">
        <ele>60</ele>
        <time>2022-07-14T05:37:45Z</time>
      </trkpt>
      <trkpt lat="47.094" lon="-1.61234">
        <ele>60</ele>
        <time>2022-07-14T05:37:47Z</time>
      </trkpt>
      <trkpt lat="47.09388" lon="-1.61228">
        <ele>60</ele>
        <time>2022-07-14T05:37:49Z</time>
      </trkpt>
      <trkpt lat="47.09376" lon="-1.61223">
        <ele>61</ele>
        <time>2022-07-14T05:37:51Z</time>
      </trkpt>
      <trkpt lat="47.09364" lon="-1.61217">
        <ele>61</ele>
        <time>2022-07-14T05:37:53Z</time>
      </trkpt>
      <trkpt lat="47.09351" lon="-1.61212">
        <ele>61</ele>
        <time>2022-07-14T05:37:55Z</time>
      </trkpt>
      <trkpt lat="47.09339" lon="-1.6121">
        <ele>62</ele>
        <time>2022-07-14T05:37:57Z</time>
      </trkpt>
      <trkpt lat="47.09327" lon="-1.61207">
        <ele>62</ele>
        <time>2022-07-14T05:37:59Z</time>
      </trkpt>
      <trkpt lat="47.09316" lon="-1.61204">
        <ele>63</ele>
        <time>2022-07-14T05:38:01Z</time>
      </trkpt>
      <trkpt lat="47.09304" lon="-1.612">
        <ele>63</ele>
        <time>2022-07-14T05:38:03Z</time>
      </trkpt>
      <trkpt lat="47.09292" lon="-1.61196">
        <ele>63</ele>
        <time>2022-07-14T05:38:05Z</time>
      </trkpt>
      <trkpt lat="47.09281" lon="-1.61193">
        <ele>63</ele>
        <time>2022-07-14T05:38:07Z</time>
      </trkpt>
      <trkpt lat="47.09269" lon="-1.61189">
        <ele>63</ele>
        <time>2022-07-14T05:38:09Z</time>
      </trkpt>
      <trkpt lat="47.0926" lon="-1.61186">
        <ele>63</ele>
        <time>2022-07-14T05:38:11Z</time>
      </trkpt>
      <trkpt lat="47.09248" lon="-1.61182">
        <ele>64</ele>
        <time>2022-07-14T05:38:14Z</time>
      </trkpt>
      <trkpt lat="47.09236" lon="-1.61177">
        <ele>65</ele>
        <time>2022-07-14T05:38:18Z</time>
      </trkpt>
      <trkpt lat="47.09227" lon="-1.61169">
        <ele>64</ele>
        <time>2022-07-14T05:38:20Z</time>
      </trkpt>
      <trkpt lat="47.09219" lon="-1.61162">
        <ele>64</ele>
        <time>2022-07-14T05:38:22Z</time>
      </trkpt>
      <trkpt lat="47.09213" lon="-1.61149">
        <ele>64</ele>
        <time>2022-07-14T05:38:24Z</time>
      </trkpt>
      <trkpt lat="47.09211" lon="-1.61129">
        <ele>64</ele>
        <time>2022-07-14T05:38:26Z</time>
      </trkpt>
      <trkpt lat="47.09211" lon="-1.61109">
        <ele>64</ele>
        <time>2022-07-14T05:38:28Z</time>
      </trkpt>
      <trkpt lat="47.09209" lon="-1.6109">
        <ele>63</ele>
        <time>2022-07-14T05:38:30Z</time>
      </trkpt>
      <trkpt lat="47.09208" lon="-1.6107">
        <ele>62</ele>
        <time>2022-07-14T05:38:32Z</time>
      </trkpt>
      <trkpt lat="47.09206" lon="-1.61051">
        <ele>61</ele>
        <time>2022-07-14T05:38:34Z</time>
      </trkpt>
      <trkpt lat="47.09205" lon="-1.61032">
        <ele>61</ele>
        <time>2022-07-14T05:38:36Z</time>
      </trkpt>
      <trkpt lat="47.09203" lon="-1.61013">
        <ele>61</ele>
        <time>2022-07-14T05:38:38Z</time>
      </trkpt>
      <trkpt lat="47.09202" lon="-1.60993">
        <ele>61</ele>
        <time>2022-07-14T05:38:40Z</time>
      </trkpt>
      <trkpt lat="47.09201" lon="-1.60973">
        <ele>60</ele>
        <time>2022-07-14T05:38:42Z</time>
      </trkpt>
      <trkpt lat="47.09199" lon="-1.60953">
        <ele>60</ele>
        <time>2022-07-14T05:38:44Z</time>
      </trkpt>
      <trkpt lat="47.09197" lon="-1.60934">
        <ele>60</ele>
        <time>2022-07-14T05:38:46Z</time>
      </trkpt>
      <trkpt lat="47.09194" lon="-1.60915">
        <ele>60</ele>
        <time>2022-07-14T05:38:48Z</time>
      </trkpt>
      <trkpt lat="47.0919" lon="-1.60896">
        <ele>60</ele>
        <time>2022-07-14T05:38:50Z</time>
      </trkpt>
      <trkpt lat="47.09186" lon="-1.60878">
        <ele>60</ele>
        <time>2022-07-14T05:38:52Z</time>
      </trkpt>
      <trkpt lat="47.09182" lon="-1.6086">
        <ele>60</ele>
        <time>2022-07-14T05:38:54Z</time>
      </trkpt>
      <trkpt lat="47.09178" lon="-1.60841">
        <ele>60</ele>
        <time>2022-07-14T05:38:56Z</time>
      </trkpt>
      <trkpt lat="47.09174" lon="-1.60823">
        <ele>60</ele>
        <time>2022-07-14T05:38:58Z</time>
      </trkpt>
      <trkpt lat="47.09169" lon="-1.60804">
        <ele>59</ele>
        <time>2022-07-14T05:39:00Z</time>
      </trkpt>
      <trkpt lat="47.09165" lon="-1.60786">
        <ele>60</ele>
        <time>2022-07-14T05:39:02Z</time>
      </trkpt>
      <trkpt lat="47.09161" lon="-1.60766">
        <ele>59</ele>
        <time>2022-07-14T05:39:04Z</time>
      </trkpt>
      <trkpt lat="47.09157" lon="-1.60747">
        <ele>59</ele>
        <time>2022-07-14T05:39:06Z</time>
      </trkpt>
      <trkpt lat="47.09153" lon="-1.60729">
        <ele>59</ele>
        <time>2022-07-14T05:39:08Z</time>
      </trkpt>
      <trkpt lat="47.09148" lon="-1.6071">
        <ele>59</ele>
        <time>2022-07-14T05:39:10Z</time>
      </trkpt>
      <trkpt lat="47.09144" lon="-1.60692">
        <ele>59</ele>
        <time>2022-07-14T05:39:12Z</time>
      </trkpt>
      <trkpt lat="47.0914" lon="-1.60673">
        <ele>59</ele>
        <time>2022-07-14T05:39:14Z</time>
      </trkpt>
      <trkpt lat="47.09135" lon="-1.60655">
        <ele>59</ele>
        <time>2022-07-14T05:39:16Z</time>
      </trkpt>
      <trkpt lat="47.0913" lon="-1.60637">
        <ele>59</ele>
        <time>2022-07-14T05:39:18Z</time>
      </trkpt>
      <trkpt lat="47.09125" lon="-1.60618">
        <ele>59</ele>
        <time>2022-07-14T05:39:20Z</time>
      </trkpt>
      <trkpt lat="47.09119" lon="-1.606">
        <ele>59</ele>
        <time>2022-07-14T05:39:22Z</time>
      </trkpt>
      <trkpt lat="47.09113" lon="-1.60583">
        <ele>59</ele>
        <time>2022-07-14T05:39:24Z</time>
      </trkpt>
      <trkpt lat="47.09106" lon="-1.60566">
        <ele>59</ele>
        <time>2022-07-14T05:39:26Z</time>
      </trkpt>
      <trkpt lat="47.091" lon="-1.60549">
        <ele>59</ele>
        <time>2022-07-14T05:39:28Z</time>
      </trkpt>
      <trkpt lat="47.09092" lon="-1.60532">
        <ele>58</ele>
        <time>2022-07-14T05:39:30Z</time>
      </trkpt>
      <trkpt lat="47.09085" lon="-1.60515">
        <ele>58</ele>
        <time>2022-07-14T05:39:32Z</time>
      </trkpt>
      <trkpt lat="47.09078" lon="-1.60498">
        <ele>58</ele>
        <time>2022-07-14T05:39:34Z</time>
      </trkpt>
      <trkpt lat="47.0907" lon="-1.60482">
        <ele>58</ele>
        <time>2022-07-14T05:39:36Z</time>
      </trkpt>
      <trkpt lat="47.09063" lon="-1.60466">
        <ele>58</ele>
        <time>2022-07-14T05:39:38Z</time>
      </trkpt>
      <trkpt lat="47.09054" lon="-1.60451">
        <ele>59</ele>
        <time>2022-07-14T05:39:40Z</time>
      </trkpt>
      <trkpt lat="47.09046" lon="-1.60436">
        <ele>60</ele>
        <time>2022-07-14T05:39:42Z</time>
      </trkpt>
      <trkpt lat="47.09038" lon="-1.6042">
        <ele>60</ele>
        <time>2022-07-14T05:39:44Z</time>
      </trkpt>
      <trkpt lat="47.0903" lon="-1.60404">
        <ele>61</ele>
        <time>2022-07-14T05:39:46Z</time>
      </trkpt>
      <trkpt lat="47.09022" lon="-1.60388">
        <ele>61</ele>
        <time>2022-07-14T05:39:48Z</time>
      </trkpt>
      <trkpt lat="47.09014" lon="-1.60372">
        <ele>61</ele>
        <time>2022-07-14T05:39:50Z</time>
      </trkpt>
      <trkpt lat="47.09007" lon="-1.60356">
        <ele>62</ele>
        <time>2022-07-14T05:39:52Z</time>
      </trkpt>
      <trkpt lat="47.08999" lon="-1.6034">
        <ele>62</ele>
        <time>2022-07-14T05:39:54Z</time>
      </trkpt>
      <trkpt lat="47.0899" lon="-1.60324">
        <ele>62</ele>
        <time>2022-07-14T05:39:56Z</time>
      </trkpt>
      <trkpt lat="47.08983" lon="-1.60309">
        <ele>62</ele>
        <time>2022-07-14T05:39:58Z</time>
      </trkpt>
      <trkpt lat="47.08975" lon="-1.60294">
        <ele>62</ele>
        <time>2022-07-14T05:40:00Z</time>
      </trkpt>
      <trkpt lat="47.08967" lon="-1.60278">
        <ele>61</ele>
        <time>2022-07-14T05:40:02Z</time>
      </trkpt>
      <trkpt lat="47.08958" lon="-1.60263">
        <ele>61</ele>
        <time>2022-07-14T05:40:04Z</time>
      </trkpt>
      <trkpt lat="47.0895" lon="-1.60247">
        <ele>61</ele>
        <time>2022-07-14T05:40:06Z</time>
      </trkpt>
      <trkpt lat="47.08942" lon="-1.60231">
        <ele>61</ele>
        <time>2022-07-14T05:40:08Z</time>
      </trkpt>
      <trkpt lat="47.08934" lon="-1.60215">
        <ele>61</ele>
        <time>2022-07-14T05:40:10Z</time>
      </trkpt>
      <trkpt lat="47.08926" lon="-1.60199">
        <ele>61</ele>
        <time>2022-07-14T05:40:12Z</time>
      </trkpt>
      <trkpt lat="47.08918" lon="-1.60183">
        <ele>60</ele>
        <time>2022-07-14T05:40:14Z</time>
      </trkpt>
      <trkpt lat="47.0891" lon="-1.60167">
        <ele>60</ele>
        <time>2022-07-14T05:40:16Z</time>
      </trkpt>
      <trkpt lat="47.08902" lon="-1.60151">
        <ele>60</ele>
        <time>2022-07-14T05:40:18Z</time>
      </trkpt>
      <trkpt lat="47.08894" lon="-1.60135">
        <ele>60</ele>
        <time>2022-07-14T05:40:20Z</time>
      </trkpt>
      <trkpt lat="47.08886" lon="-1.60118">
        <ele>59</ele>
        <time>2022-07-14T05:40:22Z</time>
      </trkpt>
      <trkpt lat="47.08878" lon="-1.60102">
        <ele>59</ele>
        <time>2022-07-14T05:40:24Z</time>
      </trkpt>
      <trkpt lat="47.0887" lon="-1.60086">
        <ele>59</ele>
        <time>2022-07-14T05:40:26Z</time>
      </trkpt>
      <trkpt lat="47.08862" lon="-1.6007">
        <ele>59</ele>
        <time>2022-07-14T05:40:28Z</time>
      </trkpt>
      <trkpt lat="47.08854" lon="-1.60054">
        <ele>59</ele>
        <time>2022-07-14T05:40:30Z</time>
      </trkpt>
      <trkpt lat="47.08846" lon="-1.60038">
        <ele>59</ele>
        <time>2022-07-14T05:40:32Z</time>
      </trkpt>
      <trkpt lat="47.08838" lon="-1.60022">
        <ele>59</ele>
        <time>2022-07-14T05:40:34Z</time>
      </trkpt>
      <trkpt lat="47.08829" lon="-1.60006">
        <ele>59</ele>
        <time>2022-07-14T05:40:36Z</time>
      </trkpt>
      <trkpt lat="47.0882" lon="-1.5999">
        <ele>59</ele>
        <time>2022-07-14T05:40:38Z</time>
      </trkpt>
      <trkpt lat="47.08811" lon="-1.59974">
        <ele>59</ele>
        <time>2022-07-14T05:40:40Z</time>
      </trkpt>
      <trkpt lat="47.08803" lon="-1.59958">
        <ele>58</ele>
        <time>2022-07-14T05:40:42Z</time>
      </trkpt>
      <trkpt lat="47.08794" lon="-1.59942">
        <ele>58</ele>
        <time>2022-07-14T05:40:44Z</time>
      </trkpt>
      <trkpt lat="47.08786" lon="-1.59925">
        <ele>58</ele>
        <time>2022-07-14T05:40:46Z</time>
      </trkpt>
      <trkpt lat="47.08777" lon="-1.59908">
        <ele>57</ele>
        <time>2022-07-14T05:40:48Z</time>
      </trkpt>
      <trkpt lat="47.08769" lon="-1.59891">
        <ele>58</ele>
        <time>2022-07-14T05:40:50Z</time>
      </trkpt>
      <trkpt lat="47.0876" lon="-1.59874">
        <ele>57</ele>
        <time>2022-07-14T05:40:52Z</time>
      </trkpt>
      <trkpt lat="47.08751" lon="-1.59857">
        <ele>57</ele>
        <time>2022-07-14T05:40:54Z</time>
      </trkpt>
      <trkpt lat="47.08742" lon="-1.59839">
        <ele>57</ele>
        <time>2022-07-14T05:40:56Z</time>
      </trkpt>
      <trkpt lat="47.08733" lon="-1.59821">
        <ele>57</ele>
        <time>2022-07-14T05:40:58Z</time>
      </trkpt>
      <trkpt lat="47.08723" lon="-1.59804">
        <ele>57</ele>
        <time>2022-07-14T05:41:00Z</time>
      </trkpt>
      <trkpt lat="47.08714" lon="-1.59787">
        <ele>57</ele>
        <time>2022-07-14T05:41:02Z</time>
      </trkpt>
      <trkpt lat="47.08705" lon="-1.59768">
        <ele>57</ele>
        <time>2022-07-14T05:41:04Z</time>
      </trkpt>
      <trkpt lat="47.08697" lon="-1.59749">
        <ele>57</ele>
        <time>2022-07-14T05:41:06Z</time>
      </trkpt>
      <trkpt lat="47.08689" lon="-1.59729">
        <ele>56</ele>
        <time>2022-07-14T05:41:08Z</time>
      </trkpt>
      <trkpt lat="47.08681" lon="-1.5971">
        <ele>56</ele>
        <time>2022-07-14T05:41:10Z</time>
      </trkpt>
      <trkpt lat="47.08673" lon="-1.5969">
        <ele>56</ele>
        <time>2022-07-14T05:41:12Z</time>
      </trkpt>
      <trkpt lat="47.08665" lon="-1.59671">
        <ele>56</ele>
        <time>2022-07-14T05:41:14Z</time>
      </trkpt>
      <trkpt lat="47.08657" lon="-1.59652">
        <ele>56</ele>
        <time>2022-07-14T05:41:16Z</time>
      </trkpt>
      <trkpt lat="47.08649" lon="-1.59632">
        <ele>56</ele>
        <time>2022-07-14T05:41:18Z</time>
      </trkpt>
      <trkpt lat="47.08642" lon="-1.59613">
        <ele>57</ele>
        <time>2022-07-14T05:41:20Z</time>
      </trkpt>
      <trkpt lat="47.08635" lon="-1.59595">
        <ele>56</ele>
        <time>2022-07-14T05:41:22Z</time>
      </trkpt>
      <trkpt lat="47.08627" lon="-1.59578">
        <ele>56</ele>
        <time>2022-07-14T05:41:24Z</time>
      </trkpt>
      <trkpt lat="47.0862" lon="-1.59559">
        <ele>56</ele>
        <time>2022-07-14T05:41:26Z</time>
      </trkpt>
      <trkpt lat="47.08613" lon="-1.59541">
        <ele>56</ele>
        <time>2022-07-14T05:41:28Z</time>
      </trkpt>
      <trkpt lat="47.08605" lon="-1.59523">
        <ele>56</ele>
        <time>2022-07-14T05:41:30Z</time>
      </trkpt>
      <trkpt lat="47.08598" lon="-1.59505">
        <ele>55</ele>
        <time>2022-07-14T05:41:32Z</time>
      </trkpt>
      <trkpt lat="47.08591" lon="-1.59487">
        <ele>55</ele>
        <time>2022-07-14T05:41:34Z</time>
      </trkpt>
      <trkpt lat="47.08584" lon="-1.59468">
        <ele>55</ele>
        <time>2022-07-14T05:41:36Z</time>
      </trkpt>
      <trkpt lat="47.08576" lon="-1.5945">
        <ele>55</ele>
        <time>2022-07-14T05:41:38Z</time>
      </trkpt>
      <trkpt lat="47.08569" lon="-1.59431">
        <ele>55</ele>
        <time>2022-07-14T05:41:40Z</time>
      </trkpt>
      <trkpt lat="47.08561" lon="-1.59412">
        <ele>55</ele>
        <time>2022-07-14T05:41:42Z</time>
      </trkpt>
      <trkpt lat="47.08554" lon="-1.59393">
        <ele>54</ele>
        <time>2022-07-14T05:41:44Z</time>
      </trkpt>
      <trkpt lat="47.08546" lon="-1.59374">
        <ele>54</ele>
        <time>2022-07-14T05:41:46Z</time>
      </trkpt>
      <trkpt lat="47.08539" lon="-1.59356">
        <ele>54</ele>
        <time>2022-07-14T05:41:48Z</time>
      </trkpt>
      <trkpt lat="47.08532" lon="-1.59337">
        <ele>54</ele>
        <time>2022-07-14T05:41:50Z</time>
      </trkpt>
      <trkpt lat="47.08524" lon="-1.59319">
        <ele>53</ele>
        <time>2022-07-14T05:41:52Z</time>
      </trkpt>
      <trkpt lat="47.08517" lon="-1.593">
        <ele>53</ele>
        <time>2022-07-14T05:41:54Z</time>
      </trkpt>
      <trkpt lat="47.08509" lon="-1.59282">
        <ele>53</ele>
        <time>2022-07-14T05:41:56Z</time>
      </trkpt>
      <trkpt lat="47.08502" lon="-1.59264">
        <ele>53</ele>
        <time>2022-07-14T05:41:58Z</time>
      </trkpt>
      <trkpt lat="47.08495" lon="-1.59247">
        <ele>53</ele>
        <time>2022-07-14T05:42:00Z</time>
      </trkpt>
      <trkpt lat="47.08488" lon="-1.5923">
        <ele>54</ele>
        <time>2022-07-14T05:42:02Z</time>
      </trkpt>
      <trkpt lat="47.08481" lon="-1.59213">
        <ele>54</ele>
        <time>2022-07-14T05:42:04Z</time>
      </trkpt>
      <trkpt lat="47.08474" lon="-1.59196">
        <ele>55</ele>
        <time>2022-07-14T05:42:06Z</time>
      </trkpt>
      <trkpt lat="47.08468" lon="-1.5918">
        <ele>55</ele>
        <time>2022-07-14T05:42:08Z</time>
      </trkpt>
      <trkpt lat="47.0846" lon="-1.59163">
        <ele>55</ele>
        <time>2022-07-14T05:42:10Z</time>
      </trkpt>
      <trkpt lat="47.08453" lon="-1.59146">
        <ele>55</ele>
        <time>2022-07-14T05:42:12Z</time>
      </trkpt>
      <trkpt lat="47.08446" lon="-1.59128">
        <ele>56</ele>
        <time>2022-07-14T05:42:14Z</time>
      </trkpt>
      <trkpt lat="47.08439" lon="-1.59111">
        <ele>56</ele>
        <time>2022-07-14T05:42:16Z</time>
      </trkpt>
      <trkpt lat="47.08432" lon="-1.59094">
        <ele>56</ele>
        <time>2022-07-14T05:42:18Z</time>
      </trkpt>
      <trkpt lat="47.08425" lon="-1.59077">
        <ele>56</ele>
        <time>2022-07-14T05:42:20Z</time>
      </trkpt>
      <trkpt lat="47.08418" lon="-1.5906">
        <ele>56</ele>
        <time>2022-07-14T05:42:22Z</time>
      </trkpt>
      <trkpt lat="47.08411" lon="-1.59043">
        <ele>56</ele>
        <time>2022-07-14T05:42:24Z</time>
      </trkpt>
      <trkpt lat="47.08404" lon="-1.59025">
        <ele>56</ele>
        <time>2022-07-14T05:42:26Z</time>
      </trkpt>
      <trkpt lat="47.08393" lon="-1.58999">
        <ele>56</ele>
        <time>2022-07-14T05:42:29Z</time>
      </trkpt>
      <trkpt lat="47.08386" lon="-1.58981">
        <ele>56</ele>
        <time>2022-07-14T05:42:31Z</time>
      </trkpt>
      <trkpt lat="47.08379" lon="-1.58962">
        <ele>55</ele>
        <time>2022-07-14T05:42:33Z</time>
      </trkpt>
      <trkpt lat="47.08368" lon="-1.58934">
        <ele>55</ele>
        <time>2022-07-14T05:42:36Z</time>
      </trkpt>
      <trkpt lat="47.08356" lon="-1.58906">
        <ele>55</ele>
        <time>2022-07-14T05:42:39Z</time>
      </trkpt>
      <trkpt lat="47.08349" lon="-1.58887">
        <ele>55</ele>
        <time>2022-07-14T05:42:41Z</time>
      </trkpt>
      <trkpt lat="47.08341" lon="-1.58869">
        <ele>55</ele>
        <time>2022-07-14T05:42:43Z</time>
      </trkpt>
      <trkpt lat="47.08335" lon="-1.5885">
        <ele>55</ele>
        <time>2022-07-14T05:42:45Z</time>
      </trkpt>
      <trkpt lat="47.08328" lon="-1.58834">
        <ele>55</ele>
        <time>2022-07-14T05:42:47Z</time>
      </trkpt>
      <trkpt lat="47.0832" lon="-1.58816">
        <ele>56</ele>
        <time>2022-07-14T05:42:49Z</time>
      </trkpt>
      <trkpt lat="47.08313" lon="-1.58799">
        <ele>56</ele>
        <time>2022-07-14T05:42:51Z</time>
      </trkpt>
      <trkpt lat="47.08303" lon="-1.58774">
        <ele>56</ele>
        <time>2022-07-14T05:42:54Z</time>
      </trkpt>
      <trkpt lat="47.08297" lon="-1.58758">
        <ele>56</ele>
        <time>2022-07-14T05:42:56Z</time>
      </trkpt>
      <trkpt lat="47.0829" lon="-1.58742">
        <ele>56</ele>
        <time>2022-07-14T05:42:58Z</time>
      </trkpt>
      <trkpt lat="47.08283" lon="-1.58724">
        <ele>56</ele>
        <time>2022-07-14T05:43:00Z</time>
      </trkpt>
      <trkpt lat="47.08273" lon="-1.58698">
        <ele>56</ele>
        <time>2022-07-14T05:43:03Z</time>
      </trkpt>
      <trkpt lat="47.08266" lon="-1.58681">
        <ele>56</ele>
        <time>2022-07-14T05:43:05Z</time>
      </trkpt>
      <trkpt lat="47.08258" lon="-1.58664">
        <ele>55</ele>
        <time>2022-07-14T05:43:07Z</time>
      </trkpt>
      <trkpt lat="47.08251" lon="-1.58646">
        <ele>56</ele>
        <time>2022-07-14T05:43:09Z</time>
      </trkpt>
      <trkpt lat="47.08244" lon="-1.58628">
        <ele>56</ele>
        <time>2022-07-14T05:43:11Z</time>
      </trkpt>
      <trkpt lat="47.08237" lon="-1.58609">
        <ele>56</ele>
        <time>2022-07-14T05:43:13Z</time>
      </trkpt>
      <trkpt lat="47.08231" lon="-1.58592">
        <ele>56</ele>
        <time>2022-07-14T05:43:15Z</time>
      </trkpt>
      <trkpt lat="47.08224" lon="-1.58574">
        <ele>56</ele>
        <time>2022-07-14T05:43:17Z</time>
      </trkpt>
      <trkpt lat="47.08216" lon="-1.58556">
        <ele>56</ele>
        <time>2022-07-14T05:43:19Z</time>
      </trkpt>
      <trkpt lat="47.08208" lon="-1.58539">
        <ele>56</ele>
        <time>2022-07-14T05:43:21Z</time>
      </trkpt>
      <trkpt lat="47.08201" lon="-1.58521">
        <ele>56</ele>
        <time>2022-07-14T05:43:23Z</time>
      </trkpt>
      <trkpt lat="47.08194" lon="-1.58502">
        <ele>56</ele>
        <time>2022-07-14T05:43:25Z</time>
      </trkpt>
      <trkpt lat="47.08187" lon="-1.58484">
        <ele>56</ele>
        <time>2022-07-14T05:43:27Z</time>
      </trkpt>
      <trkpt lat="47.08181" lon="-1.58467">
        <ele>57</ele>
        <time>2022-07-14T05:43:29Z</time>
      </trkpt>
      <trkpt lat="47.08174" lon="-1.58452">
        <ele>58</ele>
        <time>2022-07-14T05:43:31Z</time>
      </trkpt>
      <trkpt lat="47.08167" lon="-1.58435">
        <ele>58</ele>
        <time>2022-07-14T05:43:33Z</time>
      </trkpt>
      <trkpt lat="47.0816" lon="-1.58418">
        <ele>58</ele>
        <time>2022-07-14T05:43:35Z</time>
      </trkpt>
      <trkpt lat="47.08154" lon="-1.58401">
        <ele>59</ele>
        <time>2022-07-14T05:43:37Z</time>
      </trkpt>
      <trkpt lat="47.08148" lon="-1.58384">
        <ele>59</ele>
        <time>2022-07-14T05:43:39Z</time>
      </trkpt>
      <trkpt lat="47.08145" lon="-1.58367">
        <ele>60</ele>
        <time>2022-07-14T05:43:41Z</time>
      </trkpt>
      <trkpt lat="47.08142" lon="-1.58348">
        <ele>59</ele>
        <time>2022-07-14T05:43:43Z</time>
      </trkpt>
      <trkpt lat="47.08139" lon="-1.5833">
        <ele>59</ele>
        <time>2022-07-14T05:43:45Z</time>
      </trkpt>
      <trkpt lat="47.08137" lon="-1.58311">
        <ele>59</ele>
        <time>2022-07-14T05:43:47Z</time>
      </trkpt>
      <trkpt lat="47.08134" lon="-1.58292">
        <ele>59</ele>
        <time>2022-07-14T05:43:49Z</time>
      </trkpt>
      <trkpt lat="47.08132" lon="-1.58273">
        <ele>58</ele>
        <time>2022-07-14T05:43:51Z</time>
      </trkpt>
      <trkpt lat="47.08128" lon="-1.58254">
        <ele>58</ele>
        <time>2022-07-14T05:43:53Z</time>
      </trkpt>
      <trkpt lat="47.08124" lon="-1.58235">
        <ele>58</ele>
        <time>2022-07-14T05:43:55Z</time>
      </trkpt>
      <trkpt lat="47.08118" lon="-1.58216">
        <ele>58</ele>
        <time>2022-07-14T05:43:57Z</time>
      </trkpt>
      <trkpt lat="47.08111" lon="-1.58199">
        <ele>58</ele>
        <time>2022-07-14T05:43:59Z</time>
      </trkpt>
      <trkpt lat="47.08103" lon="-1.58183">
        <ele>58</ele>
        <time>2022-07-14T05:44:01Z</time>
      </trkpt>
      <trkpt lat="47.08095" lon="-1.58167">
        <ele>58</ele>
        <time>2022-07-14T05:44:03Z</time>
      </trkpt>
      <trkpt lat="47.08086" lon="-1.58151">
        <ele>58</ele>
        <time>2022-07-14T05:44:05Z</time>
      </trkpt>
      <trkpt lat="47.08077" lon="-1.58135">
        <ele>58</ele>
        <time>2022-07-14T05:44:07Z</time>
      </trkpt>
      <trkpt lat="47.08068" lon="-1.58119">
        <ele>58</ele>
        <time>2022-07-14T05:44:09Z</time>
      </trkpt>
      <trkpt lat="47.0806" lon="-1.58103">
        <ele>59</ele>
        <time>2022-07-14T05:44:11Z</time>
      </trkpt>
      <trkpt lat="47.08051" lon="-1.58087">
        <ele>59</ele>
        <time>2022-07-14T05:44:13Z</time>
      </trkpt>
      <trkpt lat="47.08043" lon="-1.58071">
        <ele>59</ele>
        <time>2022-07-14T05:44:15Z</time>
      </trkpt>
      <trkpt lat="47.08035" lon="-1.58057">
        <ele>59</ele>
        <time>2022-07-14T05:44:17Z</time>
      </trkpt>
      <trkpt lat="47.08027" lon="-1.58042">
        <ele>59</ele>
        <time>2022-07-14T05:44:19Z</time>
      </trkpt>
      <trkpt lat="47.08019" lon="-1.58026">
        <ele>59</ele>
        <time>2022-07-14T05:44:21Z</time>
      </trkpt>
      <trkpt lat="47.08011" lon="-1.58011">
        <ele>60</ele>
        <time>2022-07-14T05:44:23Z</time>
      </trkpt>
      <trkpt lat="47.08004" lon="-1.57994">
        <ele>60</ele>
        <time>2022-07-14T05:44:25Z</time>
      </trkpt>
      <trkpt lat="47.07997" lon="-1.57977">
        <ele>59</ele>
        <time>2022-07-14T05:44:27Z</time>
      </trkpt>
      <trkpt lat="47.0799" lon="-1.5796">
        <ele>59</ele>
        <time>2022-07-14T05:44:29Z</time>
      </trkpt>
      <trkpt lat="47.07983" lon="-1.57943">
        <ele>59</ele>
        <time>2022-07-14T05:44:31Z</time>
      </trkpt>
      <trkpt lat="47.07976" lon="-1.57926">
        <ele>59</ele>
        <time>2022-07-14T05:44:33Z</time>
      </trkpt>
      <trkpt lat="47.0797" lon="-1.57909">
        <ele>59</ele>
        <time>2022-07-14T05:44:35Z</time>
      </trkpt>
      <trkpt lat="47.07963" lon="-1.57891">
        <ele>58</ele>
        <time>2022-07-14T05:44:37Z</time>
      </trkpt>
      <trkpt lat="47.07956" lon="-1.57874">
        <ele>58</ele>
        <time>2022-07-14T05:44:39Z</time>
      </trkpt>
      <trkpt lat="47.07949" lon="-1.57857">
        <ele>58</ele>
        <time>2022-07-14T05:44:41Z</time>
      </trkpt>
      <trkpt lat="47.07942" lon="-1.57839">
        <ele>57</ele>
        <time>2022-07-14T05:44:43Z</time>
      </trkpt>
      <trkpt lat="47.07935" lon="-1.57822">
        <ele>57</ele>
        <time>2022-07-14T05:44:45Z</time>
      </trkpt>
      <trkpt lat="47.07928" lon="-1.57805">
        <ele>58</ele>
        <time>2022-07-14T05:44:47Z</time>
      </trkpt>
      <trkpt lat="47.07921" lon="-1.57788">
        <ele>58</ele>
        <time>2022-07-14T05:44:49Z</time>
      </trkpt>
      <trkpt lat="47.07914" lon="-1.57771">
        <ele>58</ele>
        <time>2022-07-14T05:44:51Z</time>
      </trkpt>
      <trkpt lat="47.07907" lon="-1.57754">
        <ele>58</ele>
        <time>2022-07-14T05:44:53Z</time>
      </trkpt>
      <trkpt lat="47.079" lon="-1.57737">
        <ele>58</ele>
        <time>2022-07-14T05:44:55Z</time>
      </trkpt>
      <trkpt lat="47.07893" lon="-1.5772">
        <ele>58</ele>
        <time>2022-07-14T05:44:57Z</time>
      </trkpt>
      <trkpt lat="47.07886" lon="-1.57702">
        <ele>58</ele>
        <time>2022-07-14T05:44:59Z</time>
      </trkpt>
      <trkpt lat="47.07879" lon="-1.57684">
        <ele>57</ele>
        <time>2022-07-14T05:45:01Z</time>
      </trkpt>
      <trkpt lat="47.07872" lon="-1.57666">
        <ele>57</ele>
        <time>2022-07-14T05:45:03Z</time>
      </trkpt>
      <trkpt lat="47.07865" lon="-1.57647">
        <ele>56</ele>
        <time>2022-07-14T05:45:05Z</time>
      </trkpt>
      <trkpt lat="47.07859" lon="-1.57629">
        <ele>56</ele>
        <time>2022-07-14T05:45:07Z</time>
      </trkpt>
      <trkpt lat="47.07852" lon="-1.57611">
        <ele>56</ele>
        <time>2022-07-14T05:45:09Z</time>
      </trkpt>
      <trkpt lat="47.07847" lon="-1.57592">
        <ele>56</ele>
        <time>2022-07-14T05:45:11Z</time>
      </trkpt>
      <trkpt lat="47.07842" lon="-1.57573">
        <ele>56</ele>
        <time>2022-07-14T05:45:13Z</time>
      </trkpt>
      <trkpt lat="47.07837" lon="-1.57555">
        <ele>57</ele>
        <time>2022-07-14T05:45:15Z</time>
      </trkpt>
      <trkpt lat="47.07832" lon="-1.57536">
        <ele>57</ele>
        <time>2022-07-14T05:45:17Z</time>
      </trkpt>
      <trkpt lat="47.07827" lon="-1.57518">
        <ele>56</ele>
        <time>2022-07-14T05:45:19Z</time>
      </trkpt>
      <trkpt lat="47.07822" lon="-1.57499">
        <ele>56</ele>
        <time>2022-07-14T05:45:21Z</time>
      </trkpt>
      <trkpt lat="47.07816" lon="-1.57482">
        <ele>56</ele>
        <time>2022-07-14T05:45:23Z</time>
      </trkpt>
      <trkpt lat="47.07811" lon="-1.57463">
        <ele>56</ele>
        <time>2022-07-14T05:45:25Z</time>
      </trkpt>
      <trkpt lat="47.07806" lon="-1.57445">
        <ele>56</ele>
        <time>2022-07-14T05:45:27Z</time>
      </trkpt>
      <trkpt lat="47.078" lon="-1.57427">
        <ele>55</ele>
        <time>2022-07-14T05:45:29Z</time>
      </trkpt>
      <trkpt lat="47.07795" lon="-1.57409">
        <ele>55</ele>
        <time>2022-07-14T05:45:31Z</time>
      </trkpt>
      <trkpt lat="47.0779" lon="-1.57392">
        <ele>54</ele>
        <time>2022-07-14T05:45:33Z</time>
      </trkpt>
      <trkpt lat="47.07785" lon="-1.57377">
        <ele>55</ele>
        <time>2022-07-14T05:45:35Z</time>
      </trkpt>
      <trkpt lat="47.0778" lon="-1.57364">
        <ele>55</ele>
        <time>2022-07-14T05:45:37Z</time>
      </trkpt>
      <trkpt lat="47.07781" lon="-1.5735">
        <ele>55</ele>
        <time>2022-07-14T05:45:39Z</time>
      </trkpt>
      <trkpt lat="47.0779" lon="-1.57337">
        <ele>55</ele>
        <time>2022-07-14T05:45:41Z</time>
      </trkpt>
      <trkpt lat="47.078" lon="-1.57325">
        <ele>55</ele>
        <time>2022-07-14T05:45:43Z</time>
      </trkpt>
      <trkpt lat="47.0781" lon="-1.57313">
        <ele>55</ele>
        <time>2022-07-14T05:45:45Z</time>
      </trkpt>
      <trkpt lat="47.07821" lon="-1.57302">
        <ele>55</ele>
        <time>2022-07-14T05:45:47Z</time>
      </trkpt>
      <trkpt lat="47.0783" lon="-1.5729">
        <ele>56</ele>
        <time>2022-07-14T05:45:49Z</time>
      </trkpt>
      <trkpt lat="47.07839" lon="-1.57279">
        <ele>56</ele>
        <time>2022-07-14T05:45:51Z</time>
      </trkpt>
      <trkpt lat="47.07848" lon="-1.57267">
        <ele>57</ele>
        <time>2022-07-14T05:45:53Z</time>
      </trkpt>
      <trkpt lat="47.07856" lon="-1.57254">
        <ele>58</ele>
        <time>2022-07-14T05:45:55Z</time>
      </trkpt>
      <trkpt lat="47.07862" lon="-1.5724">
        <ele>59</ele>
        <time>2022-07-14T05:45:57Z</time>
      </trkpt>
      <trkpt lat="47.07867" lon="-1.57225">
        <ele>59</ele>
        <time>2022-07-14T05:45:59Z</time>
      </trkpt>
      <trkpt lat="47.07871" lon="-1.5721">
        <ele>60</ele>
        <time>2022-07-14T05:46:01Z</time>
      </trkpt>
      <trkpt lat="47.07874" lon="-1.57194">
        <ele>61</ele>
        <time>2022-07-14T05:46:03Z</time>
      </trkpt>
      <trkpt lat="47.07877" lon="-1.57178">
        <ele>61</ele>
        <time>2022-07-14T05:46:05Z</time>
      </trkpt>
      <trkpt lat="47.0788" lon="-1.57161">
        <ele>61</ele>
        <time>2022-07-14T05:46:07Z</time>
      </trkpt>
      <trkpt lat="47.07883" lon="-1.57145">
        <ele>62</ele>
        <time>2022-07-14T05:46:09Z</time>
      </trkpt>
      <trkpt lat="47.07886" lon="-1.57129">
        <ele>62</ele>
        <time>2022-07-14T05:46:11Z</time>
      </trkpt>
      <trkpt lat="47.07888" lon="-1.57113">
        <ele>63</ele>
        <time>2022-07-14T05:46:13Z</time>
      </trkpt>
      <trkpt lat="47.07891" lon="-1.57098">
        <ele>64</ele>
        <time>2022-07-14T05:46:15Z</time>
      </trkpt>
      <trkpt lat="47.07894" lon="-1.57082">
        <ele>64</ele>
        <time>2022-07-14T05:46:17Z</time>
      </trkpt>
      <trkpt lat="47.07897" lon="-1.57065">
        <ele>65</ele>
        <time>2022-07-14T05:46:19Z</time>
      </trkpt>
      <trkpt lat="47.079" lon="-1.5705">
        <ele>65</ele>
        <time>2022-07-14T05:46:21Z</time>
      </trkpt>
      <trkpt lat="47.07902" lon="-1.57034">
        <ele>66</ele>
        <time>2022-07-14T05:46:23Z</time>
      </trkpt>
      <trkpt lat="47.07905" lon="-1.57018">
        <ele>66</ele>
        <time>2022-07-14T05:46:25Z</time>
      </trkpt>
      <trkpt lat="47.07908" lon="-1.57002">
        <ele>67</ele>
        <time>2022-07-14T05:46:27Z</time>
      </trkpt>
      <trkpt lat="47.07911" lon="-1.56986">
        <ele>68</ele>
        <time>2022-07-14T05:46:29Z</time>
      </trkpt>
      <trkpt lat="47.07914" lon="-1.5697">
        <ele>68</ele>
        <time>2022-07-14T05:46:31Z</time>
      </trkpt>
      <trkpt lat="47.07917" lon="-1.56955">
        <ele>69</ele>
        <time>2022-07-14T05:46:33Z</time>
      </trkpt>
      <trkpt lat="47.0792" lon="-1.56939">
        <ele>70</ele>
        <time>2022-07-14T05:46:35Z</time>
      </trkpt>
      <trkpt lat="47.07923" lon="-1.56924">
        <ele>71</ele>
        <time>2022-07-14T05:46:37Z</time>
      </trkpt>
      <trkpt lat="47.07926" lon="-1.56908">
        <ele>71</ele>
        <time>2022-07-14T05:46:39Z</time>
      </trkpt>
      <trkpt lat="47.07928" lon="-1.56892">
        <ele>71</ele>
        <time>2022-07-14T05:46:41Z</time>
      </trkpt>
      <trkpt lat="47.07931" lon="-1.56876">
        <ele>71</ele>
        <time>2022-07-14T05:46:43Z</time>
      </trkpt>
      <trkpt lat="47.07933" lon="-1.5686">
        <ele>71</ele>
        <time>2022-07-14T05:46:45Z</time>
      </trkpt>
      <trkpt lat="47.07935" lon="-1.56844">
        <ele>71</ele>
        <time>2022-07-14T05:46:47Z</time>
      </trkpt>
      <trkpt lat="47.07936" lon="-1.56828">
        <ele>69</ele>
        <time>2022-07-14T05:46:49Z</time>
      </trkpt>
      <trkpt lat="47.07936" lon="-1.56812">
        <ele>69</ele>
        <time>2022-07-14T05:46:51Z</time>
      </trkpt>
      <trkpt lat="47.07935" lon="-1.56796">
        <ele>69</ele>
        <time>2022-07-14T05:46:53Z</time>
      </trkpt>
      <trkpt lat="47.07934" lon="-1.5678">
        <ele>69</ele>
        <time>2022-07-14T05:46:55Z</time>
      </trkpt>
      <trkpt lat="47.07931" lon="-1.56765">
        <ele>70</ele>
        <time>2022-07-14T05:46:57Z</time>
      </trkpt>
      <trkpt lat="47.07926" lon="-1.56751">
        <ele>69</ele>
        <time>2022-07-14T05:46:59Z</time>
      </trkpt>
      <trkpt lat="47.07918" lon="-1.56739">
        <ele>70</ele>
        <time>2022-07-14T05:47:01Z</time>
      </trkpt>
      <trkpt lat="47.07915" lon="-1.56724">
        <ele>71</ele>
        <time>2022-07-14T05:47:03Z</time>
      </trkpt>
      <trkpt lat="47.07917" lon="-1.56708">
        <ele>72</ele>
        <time>2022-07-14T05:47:05Z</time>
      </trkpt>
      <trkpt lat="47.07923" lon="-1.56694">
        <ele>72</ele>
        <time>2022-07-14T05:47:07Z</time>
      </trkpt>
      <trkpt lat="47.07927" lon="-1.5668">
        <ele>71</ele>
        <time>2022-07-14T05:47:09Z</time>
      </trkpt>
      <trkpt lat="47.07929" lon="-1.56664">
        <ele>71</ele>
        <time>2022-07-14T05:47:11Z</time>
      </trkpt>
      <trkpt lat="47.0793" lon="-1.56647">
        <ele>72</ele>
        <time>2022-07-14T05:47:13Z</time>
      </trkpt>
      <trkpt lat="47.07931" lon="-1.56631">
        <ele>72</ele>
        <time>2022-07-14T05:47:15Z</time>
      </trkpt>
      <trkpt lat="47.07932" lon="-1.56615">
        <ele>72</ele>
        <time>2022-07-14T05:47:17Z</time>
      </trkpt>
      <trkpt lat="47.07933" lon="-1.56599">
        <ele>72</ele>
        <time>2022-07-14T05:47:19Z</time>
      </trkpt>
      <trkpt lat="47.07933" lon="-1.56582">
        <ele>72</ele>
        <time>2022-07-14T05:47:21Z</time>
      </trkpt>
      <trkpt lat="47.07933" lon="-1.56567">
        <ele>71</ele>
        <time>2022-07-14T05:47:23Z</time>
      </trkpt>
      <trkpt lat="47.07934" lon="-1.5655">
        <ele>71</ele>
        <time>2022-07-14T05:47:25Z</time>
      </trkpt>
      <trkpt lat="47.07935" lon="-1.56533">
        <ele>71</ele>
        <time>2022-07-14T05:47:27Z</time>
      </trkpt>
      <trkpt lat="47.07935" lon="-1.56515">
        <ele>70</ele>
        <time>2022-07-14T05:47:29Z</time>
      </trkpt>
      <trkpt lat="47.07935" lon="-1.56497">
        <ele>70</ele>
        <time>2022-07-14T05:47:31Z</time>
      </trkpt>
      <trkpt lat="47.07935" lon="-1.56477">
        <ele>69</ele>
        <time>2022-07-14T05:47:33Z</time>
      </trkpt>
      <trkpt lat="47.07934" lon="-1.56458">
        <ele>69</ele>
        <time>2022-07-14T05:47:35Z</time>
      </trkpt>
      <trkpt lat="47.07928" lon="-1.56442">
        <ele>68</ele>
        <time>2022-07-14T05:47:37Z</time>
      </trkpt>
      <trkpt lat="47.07923" lon="-1.56425">
        <ele>67</ele>
        <time>2022-07-14T05:47:39Z</time>
      </trkpt>
      <trkpt lat="47.07922" lon="-1.56405">
        <ele>67</ele>
        <time>2022-07-14T05:47:41Z</time>
      </trkpt>
      <trkpt lat="47.07926" lon="-1.56385">
        <ele>67</ele>
        <time>2022-07-14T05:47:43Z</time>
      </trkpt>
      <trkpt lat="47.0793" lon="-1.56365">
        <ele>67</ele>
        <time>2022-07-14T05:47:45Z</time>
      </trkpt>
      <trkpt lat="47.07934" lon="-1.56344">
        <ele>67</ele>
        <time>2022-07-14T05:47:47Z</time>
      </trkpt>
      <trkpt lat="47.07944" lon="-1.56328">
        <ele>67</ele>
        <time>2022-07-14T05:47:49Z</time>
      </trkpt>
      <trkpt lat="47.07956" lon="-1.56317">
        <ele>67</ele>
        <time>2022-07-14T05:47:51Z</time>
      </trkpt>
      <trkpt lat="47.07969" lon="-1.5631">
        <ele>66</ele>
        <time>2022-07-14T05:47:53Z</time>
      </trkpt>
      <trkpt lat="47.07984" lon="-1.56306">
        <ele>66</ele>
        <time>2022-07-14T05:47:55Z</time>
      </trkpt>
      <trkpt lat="47.07999" lon="-1.56303">
        <ele>66</ele>
        <time>2022-07-14T05:47:57Z</time>
      </trkpt>
      <trkpt lat="47.08013" lon="-1.56299">
        <ele>66</ele>
        <time>2022-07-14T05:47:59Z</time>
      </trkpt>
      <trkpt lat="47.08027" lon="-1.56294">
        <ele>66</ele>
        <time>2022-07-14T05:48:01Z</time>
      </trkpt>
      <trkpt lat="47.0804" lon="-1.5629">
        <ele>66</ele>
        <time>2022-07-14T05:48:03Z</time>
      </trkpt>
      <trkpt lat="47.08053" lon="-1.56284">
        <ele>66</ele>
        <time>2022-07-14T05:48:05Z</time>
      </trkpt>
      <trkpt lat="47.08065" lon="-1.56276">
        <ele>67</ele>
        <time>2022-07-14T05:48:07Z</time>
      </trkpt>
      <trkpt lat="47.08076" lon="-1.56267">
        <ele>67</ele>
        <time>2022-07-14T05:48:09Z</time>
      </trkpt>
      <trkpt lat="47.08085" lon="-1.56257">
        <ele>67</ele>
        <time>2022-07-14T05:48:11Z</time>
      </trkpt>
      <trkpt lat="47.08093" lon="-1.56246">
        <ele>67</ele>
        <time>2022-07-14T05:48:13Z</time>
      </trkpt>
      <trkpt lat="47.08101" lon="-1.56233">
        <ele>67</ele>
        <time>2022-07-14T05:48:15Z</time>
      </trkpt>
      <trkpt lat="47.08108" lon="-1.5622">
        <ele>67</ele>
        <time>2022-07-14T05:48:17Z</time>
      </trkpt>
      <trkpt lat="47.08113" lon="-1.56205">
        <ele>68</ele>
        <time>2022-07-14T05:48:19Z</time>
      </trkpt>
      <trkpt lat="47.08119" lon="-1.56189">
        <ele>68</ele>
        <time>2022-07-14T05:48:21Z</time>
      </trkpt>
      <trkpt lat="47.08124" lon="-1.56173">
        <ele>68</ele>
        <time>2022-07-14T05:48:23Z</time>
      </trkpt>
      <trkpt lat="47.0813" lon="-1.56158">
        <ele>68</ele>
        <time>2022-07-14T05:48:25Z</time>
      </trkpt>
      <trkpt lat="47.08135" lon="-1.56143">
        <ele>69</ele>
        <time>2022-07-14T05:48:27Z</time>
      </trkpt>
      <trkpt lat="47.08139" lon="-1.56129">
        <ele>69</ele>
        <time>2022-07-14T05:48:29Z</time>
      </trkpt>
      <trkpt lat="47.08144" lon="-1.56114">
        <ele>70</ele>
        <time>2022-07-14T05:48:31Z</time>
      </trkpt>
      <trkpt lat="47.0815" lon="-1.561">
        <ele>70</ele>
        <time>2022-07-14T05:48:33Z</time>
      </trkpt>
      <trkpt lat="47.08154" lon="-1.56084">
        <ele>71</ele>
        <time>2022-07-14T05:48:35Z</time>
      </trkpt>
      <trkpt lat="47.08159" lon="-1.56069">
        <ele>71</ele>
        <time>2022-07-14T05:48:37Z</time>
      </trkpt>
      <trkpt lat="47.08164" lon="-1.56053">
        <ele>70</ele>
        <time>2022-07-14T05:48:39Z</time>
      </trkpt>
      <trkpt lat="47.08169" lon="-1.56037">
        <ele>70</ele>
        <time>2022-07-14T05:48:41Z</time>
      </trkpt>
      <trkpt lat="47.08174" lon="-1.56021">
        <ele>70</ele>
        <time>2022-07-14T05:48:43Z</time>
      </trkpt>
      <trkpt lat="47.08179" lon="-1.56005">
        <ele>70</ele>
        <time>2022-07-14T05:48:45Z</time>
      </trkpt>
      <trkpt lat="47.08184" lon="-1.55989">
        <ele>71</ele>
        <time>2022-07-14T05:48:47Z</time>
      </trkpt>
      <trkpt lat="47.0819" lon="-1.55974">
        <ele>71</ele>
        <time>2022-07-14T05:48:49Z</time>
      </trkpt>
      <trkpt lat="47.08195" lon="-1.55957">
        <ele>72</ele>
        <time>2022-07-14T05:48:51Z</time>
      </trkpt>
      <trkpt lat="47.082" lon="-1.55941">
        <ele>73</ele>
        <time>2022-07-14T05:48:53Z</time>
      </trkpt>
      <trkpt lat="47.08206" lon="-1.55924">
        <ele>73</ele>
        <time>2022-07-14T05:48:55Z</time>
      </trkpt>
      <trkpt lat="47.08212" lon="-1.55908">
        <ele>73</ele>
        <time>2022-07-14T05:48:57Z</time>
      </trkpt>
      <trkpt lat="47.08217" lon="-1.55891">
        <ele>74</ele>
        <time>2022-07-14T05:48:59Z</time>
      </trkpt>
      <trkpt lat="47.08223" lon="-1.55874">
        <ele>74</ele>
        <time>2022-07-14T05:49:01Z</time>
      </trkpt>
      <trkpt lat="47.08228" lon="-1.55857">
        <ele>73</ele>
        <time>2022-07-14T05:49:03Z</time>
      </trkpt>
      <trkpt lat="47.08233" lon="-1.55839">
        <ele>73</ele>
        <time>2022-07-14T05:49:05Z</time>
      </trkpt>
      <trkpt lat="47.08239" lon="-1.55822">
        <ele>73</ele>
        <time>2022-07-14T05:49:07Z</time>
      </trkpt>
      <trkpt lat="47.08245" lon="-1.55804">
        <ele>74</ele>
        <time>2022-07-14T05:49:09Z</time>
      </trkpt>
      <trkpt lat="47.08251" lon="-1.55787">
        <ele>74</ele>
        <time>2022-07-14T05:49:11Z</time>
      </trkpt>
      <trkpt lat="47.08257" lon="-1.5577">
        <ele>74</ele>
        <time>2022-07-14T05:49:13Z</time>
      </trkpt>
      <trkpt lat="47.08263" lon="-1.55752">
        <ele>75</ele>
        <time>2022-07-14T05:49:15Z</time>
      </trkpt>
      <trkpt lat="47.08268" lon="-1.55734">
        <ele>75</ele>
        <time>2022-07-14T05:49:17Z</time>
      </trkpt>
      <trkpt lat="47.08274" lon="-1.55716">
        <ele>75</ele>
        <time>2022-07-14T05:49:19Z</time>
      </trkpt>
      <trkpt lat="47.08279" lon="-1.55699">
        <ele>75</ele>
        <time>2022-07-14T05:49:21Z</time>
      </trkpt>
      <trkpt lat="47.08285" lon="-1.55683">
        <ele>76</ele>
        <time>2022-07-14T05:49:23Z</time>
      </trkpt>
      <trkpt lat="47.08291" lon="-1.55665">
        <ele>76</ele>
        <time>2022-07-14T05:49:25Z</time>
      </trkpt>
      <trkpt lat="47.08296" lon="-1.55648">
        <ele>75</ele>
        <time>2022-07-14T05:49:27Z</time>
      </trkpt>
      <trkpt lat="47.08302" lon="-1.5563">
        <ele>75</ele>
        <time>2022-07-14T05:49:29Z</time>
      </trkpt>
      <trkpt lat="47.08307" lon="-1.55613">
        <ele>75</ele>
        <time>2022-07-14T05:49:31Z</time>
      </trkpt>
      <trkpt lat="47.08313" lon="-1.55596">
        <ele>75</ele>
        <time>2022-07-14T05:49:33Z</time>
      </trkpt>
      <trkpt lat="47.08318" lon="-1.55578">
        <ele>74</ele>
        <time>2022-07-14T05:49:35Z</time>
      </trkpt>
      <trkpt lat="47.08324" lon="-1.5556">
        <ele>74</ele>
        <time>2022-07-14T05:49:37Z</time>
      </trkpt>
      <trkpt lat="47.08329" lon="-1.55542">
        <ele>73</ele>
        <time>2022-07-14T05:49:39Z</time>
      </trkpt>
      <trkpt lat="47.08335" lon="-1.55524">
        <ele>72</ele>
        <time>2022-07-14T05:49:41Z</time>
      </trkpt>
      <trkpt lat="47.08341" lon="-1.55506">
        <ele>72</ele>
        <time>2022-07-14T05:49:43Z</time>
      </trkpt>
      <trkpt lat="47.08347" lon="-1.55488">
        <ele>71</ele>
        <time>2022-07-14T05:49:45Z</time>
      </trkpt>
      <trkpt lat="47.08353" lon="-1.55471">
        <ele>72</ele>
        <time>2022-07-14T05:49:47Z</time>
      </trkpt>
      <trkpt lat="47.08359" lon="-1.55451">
        <ele>71</ele>
        <time>2022-07-14T05:49:49Z</time>
      </trkpt>
      <trkpt lat="47.08365" lon="-1.55434">
        <ele>71</ele>
        <time>2022-07-14T05:49:51Z</time>
      </trkpt>
      <trkpt lat="47.0837" lon="-1.55416">
        <ele>71</ele>
        <time>2022-07-14T05:49:53Z</time>
      </trkpt>
      <trkpt lat="47.08376" lon="-1.55399">
        <ele>70</ele>
        <time>2022-07-14T05:49:55Z</time>
      </trkpt>
      <trkpt lat="47.08382" lon="-1.5538">
        <ele>70</ele>
        <time>2022-07-14T05:49:57Z</time>
      </trkpt>
      <trkpt lat="47.08387" lon="-1.55362">
        <ele>70</ele>
        <time>2022-07-14T05:49:59Z</time>
      </trkpt>
      <trkpt lat="47.08392" lon="-1.55345">
        <ele>70</ele>
        <time>2022-07-14T05:50:01Z</time>
      </trkpt>
      <trkpt lat="47.08396" lon="-1.55327">
        <ele>70</ele>
        <time>2022-07-14T05:50:03Z</time>
      </trkpt>
      <trkpt lat="47.08399" lon="-1.55308">
        <ele>70</ele>
        <time>2022-07-14T05:50:05Z</time>
      </trkpt>
      <trkpt lat="47.08402" lon="-1.55288">
        <ele>70</ele>
        <time>2022-07-14T05:50:07Z</time>
      </trkpt>
      <trkpt lat="47.08405" lon="-1.55269">
        <ele>69</ele>
        <time>2022-07-14T05:50:09Z</time>
      </trkpt>
      <trkpt lat="47.08408" lon="-1.5525">
        <ele>68</ele>
        <time>2022-07-14T05:50:11Z</time>
      </trkpt>
      <trkpt lat="47.08412" lon="-1.55232">
        <ele>69</ele>
        <time>2022-07-14T05:50:13Z</time>
      </trkpt>
      <trkpt lat="47.08415" lon="-1.55213">
        <ele>68</ele>
        <time>2022-07-14T05:50:15Z</time>
      </trkpt>
      <trkpt lat="47.08418" lon="-1.55194">
        <ele>68</ele>
        <time>2022-07-14T05:50:17Z</time>
      </trkpt>
      <trkpt lat="47.08422" lon="-1.55175">
        <ele>68</ele>
        <time>2022-07-14T05:50:19Z</time>
      </trkpt>
      <trkpt lat="47.08425" lon="-1.55155">
        <ele>67</ele>
        <time>2022-07-14T05:50:21Z</time>
      </trkpt>
      <trkpt lat="47.08428" lon="-1.55136">
        <ele>67</ele>
        <time>2022-07-14T05:50:23Z</time>
      </trkpt>
      <trkpt lat="47.08432" lon="-1.55116">
        <ele>67</ele>
        <time>2022-07-14T05:50:25Z</time>
      </trkpt>
      <trkpt lat="47.08435" lon="-1.55097">
        <ele>67</ele>
        <time>2022-07-14T05:50:27Z</time>
      </trkpt>
      <trkpt lat="47.08439" lon="-1.55078">
        <ele>67</ele>
        <time>2022-07-14T05:50:29Z</time>
      </trkpt>
      <trkpt lat="47.08442" lon="-1.55058">
        <ele>67</ele>
        <time>2022-07-14T05:50:31Z</time>
      </trkpt>
      <trkpt lat="47.08446" lon="-1.55038">
        <ele>67</ele>
        <time>2022-07-14T05:50:33Z</time>
      </trkpt>
      <trkpt lat="47.08449" lon="-1.55018">
        <ele>67</ele>
        <time>2022-07-14T05:50:35Z</time>
      </trkpt>
      <trkpt lat="47.08452" lon="-1.54998">
        <ele>67</ele>
        <time>2022-07-14T05:50:37Z</time>
      </trkpt>
      <trkpt lat="47.08455" lon="-1.54979">
        <ele>67</ele>
        <time>2022-07-14T05:50:39Z</time>
      </trkpt>
      <trkpt lat="47.08458" lon="-1.54961">
        <ele>67</ele>
        <time>2022-07-14T05:50:41Z</time>
      </trkpt>
      <trkpt lat="47.0846" lon="-1.54945">
        <ele>68</ele>
        <time>2022-07-14T05:50:43Z</time>
      </trkpt>
      <trkpt lat="47.08463" lon="-1.54929">
        <ele>69</ele>
        <time>2022-07-14T05:50:45Z</time>
      </trkpt>
      <trkpt lat="47.08466" lon="-1.54911">
        <ele>70</ele>
        <time>2022-07-14T05:50:47Z</time>
      </trkpt>
      <trkpt lat="47.08469" lon="-1.54892">
        <ele>70</ele>
        <time>2022-07-14T05:50:49Z</time>
      </trkpt>
      <trkpt lat="47.08472" lon="-1.54874">
        <ele>71</ele>
        <time>2022-07-14T05:50:51Z</time>
      </trkpt>
      <trkpt lat="47.08475" lon="-1.54856">
        <ele>71</ele>
        <time>2022-07-14T05:50:53Z</time>
      </trkpt>
      <trkpt lat="47.08478" lon="-1.54837">
        <ele>70</ele>
        <time>2022-07-14T05:50:55Z</time>
      </trkpt>
      <trkpt lat="47.08481" lon="-1.54818">
        <ele>70</ele>
        <time>2022-07-14T05:50:57Z</time>
      </trkpt>
      <trkpt lat="47.08484" lon="-1.54801">
        <ele>71</ele>
        <time>2022-07-14T05:50:59Z</time>
      </trkpt>
      <trkpt lat="47.08486" lon="-1.54783">
        <ele>72</ele>
        <time>2022-07-14T05:51:01Z</time>
      </trkpt>
      <trkpt lat="47.08489" lon="-1.54764">
        <ele>72</ele>
        <time>2022-07-14T05:51:03Z</time>
      </trkpt>
      <trkpt lat="47.08492" lon="-1.54746">
        <ele>72</ele>
        <time>2022-07-14T05:51:05Z</time>
      </trkpt>
      <trkpt lat="47.08495" lon="-1.54728">
        <ele>72</ele>
        <time>2022-07-14T05:51:07Z</time>
      </trkpt>
      <trkpt lat="47.08498" lon="-1.54711">
        <ele>71</ele>
        <time>2022-07-14T05:51:09Z</time>
      </trkpt>
      <trkpt lat="47.08501" lon="-1.54694">
        <ele>72</ele>
        <time>2022-07-14T05:51:11Z</time>
      </trkpt>
      <trkpt lat="47.08504" lon="-1.54677">
        <ele>72</ele>
        <time>2022-07-14T05:51:13Z</time>
      </trkpt>
      <trkpt lat="47.08506" lon="-1.54659">
        <ele>72</ele>
        <time>2022-07-14T05:51:15Z</time>
      </trkpt>
      <trkpt lat="47.08509" lon="-1.54641">
        <ele>73</ele>
        <time>2022-07-14T05:51:17Z</time>
      </trkpt>
      <trkpt lat="47.08512" lon="-1.54623">
        <ele>73</ele>
        <time>2022-07-14T05:51:19Z</time>
      </trkpt>
      <trkpt lat="47.08515" lon="-1.54606">
        <ele>72</ele>
        <time>2022-07-14T05:51:21Z</time>
      </trkpt>
      <trkpt lat="47.08518" lon="-1.54589">
        <ele>73</ele>
        <time>2022-07-14T05:51:23Z</time>
      </trkpt>
      <trkpt lat="47.0852" lon="-1.54571">
        <ele>73</ele>
        <time>2022-07-14T05:51:25Z</time>
      </trkpt>
      <trkpt lat="47.08523" lon="-1.54553">
        <ele>73</ele>
        <time>2022-07-14T05:51:27Z</time>
      </trkpt>
      <trkpt lat="47.08526" lon="-1.54533">
        <ele>73</ele>
        <time>2022-07-14T05:51:29Z</time>
      </trkpt>
      <trkpt lat="47.08529" lon="-1.54515">
        <ele>74</ele>
        <time>2022-07-14T05:51:31Z</time>
      </trkpt>
      <trkpt lat="47.08532" lon="-1.54496">
        <ele>74</ele>
        <time>2022-07-14T05:51:33Z</time>
      </trkpt>
      <trkpt lat="47.08536" lon="-1.54477">
        <ele>74</ele>
        <time>2022-07-14T05:51:35Z</time>
      </trkpt>
      <trkpt lat="47.08541" lon="-1.54458">
        <ele>74</ele>
        <time>2022-07-14T05:51:37Z</time>
      </trkpt>
      <trkpt lat="47.08547" lon="-1.5444">
        <ele>73</ele>
        <time>2022-07-14T05:51:39Z</time>
      </trkpt>
      <trkpt lat="47.08553" lon="-1.54422">
        <ele>74</ele>
        <time>2022-07-14T05:51:41Z</time>
      </trkpt>
      <trkpt lat="47.08559" lon="-1.54406">
        <ele>74</ele>
        <time>2022-07-14T05:51:43Z</time>
      </trkpt>
      <trkpt lat="47.08564" lon="-1.54387">
        <ele>73</ele>
        <time>2022-07-14T05:51:45Z</time>
      </trkpt>
      <trkpt lat="47.08571" lon="-1.54368">
        <ele>72</ele>
        <time>2022-07-14T05:51:47Z</time>
      </trkpt>
      <trkpt lat="47.08577" lon="-1.54352">
        <ele>72</ele>
        <time>2022-07-14T05:51:49Z</time>
      </trkpt>
      <trkpt lat="47.08583" lon="-1.54336">
        <ele>72</ele>
        <time>2022-07-14T05:51:51Z</time>
      </trkpt>
      <trkpt lat="47.08589" lon="-1.54319">
        <ele>71</ele>
        <time>2022-07-14T05:51:53Z</time>
      </trkpt>
      <trkpt lat="47.08595" lon="-1.54302">
        <ele>71</ele>
        <time>2022-07-14T05:51:55Z</time>
      </trkpt>
      <trkpt lat="47.086" lon="-1.54285">
        <ele>71</ele>
        <time>2022-07-14T05:51:57Z</time>
      </trkpt>
      <trkpt lat="47.08606" lon="-1.54267">
        <ele>70</ele>
        <time>2022-07-14T05:51:59Z</time>
      </trkpt>
      <trkpt lat="47.08612" lon="-1.5425">
        <ele>70</ele>
        <time>2022-07-14T05:52:01Z</time>
      </trkpt>
      <trkpt lat="47.08617" lon="-1.54233">
        <ele>70</ele>
        <time>2022-07-14T05:52:03Z</time>
      </trkpt>
      <trkpt lat="47.08623" lon="-1.54216">
        <ele>70</ele>
        <time>2022-07-14T05:52:05Z</time>
      </trkpt>
      <trkpt lat="47.08628" lon="-1.54198">
        <ele>69</ele>
        <time>2022-07-14T05:52:07Z</time>
      </trkpt>
      <trkpt lat="47.08632" lon="-1.54181">
        <ele>69</ele>
        <time>2022-07-14T05:52:09Z</time>
      </trkpt>
      <trkpt lat="47.08633" lon="-1.54164">
        <ele>68</ele>
        <time>2022-07-14T05:52:11Z</time>
      </trkpt>
      <trkpt lat="47.08634" lon="-1.54145">
        <ele>68</ele>
        <time>2022-07-14T05:52:13Z</time>
      </trkpt>
      <trkpt lat="47.08632" lon="-1.54126">
        <ele>68</ele>
        <time>2022-07-14T05:52:15Z</time>
      </trkpt>
      <trkpt lat="47.0863" lon="-1.54107">
        <ele>68</ele>
        <time>2022-07-14T05:52:17Z</time>
      </trkpt>
      <trkpt lat="47.08628" lon="-1.54087">
        <ele>68</ele>
        <time>2022-07-14T05:52:19Z</time>
      </trkpt>
      <trkpt lat="47.08626" lon="-1.54069">
        <ele>69</ele>
        <time>2022-07-14T05:52:21Z</time>
      </trkpt>
      <trkpt lat="47.08624" lon="-1.5405">
        <ele>69</ele>
        <time>2022-07-14T05:52:23Z</time>
      </trkpt>
      <trkpt lat="47.08622" lon="-1.54031">
        <ele>70</ele>
        <time>2022-07-14T05:52:25Z</time>
      </trkpt>
      <trkpt lat="47.08621" lon="-1.54012">
        <ele>70</ele>
        <time>2022-07-14T05:52:27Z</time>
      </trkpt>
      <trkpt lat="47.08618" lon="-1.53992">
        <ele>69</ele>
        <time>2022-07-14T05:52:29Z</time>
      </trkpt>
      <trkpt lat="47.08615" lon="-1.53972">
        <ele>68</ele>
        <time>2022-07-14T05:52:31Z</time>
      </trkpt>
      <trkpt lat="47.08615" lon="-1.53953">
        <ele>67</ele>
        <time>2022-07-14T05:52:33Z</time>
      </trkpt>
      <trkpt lat="47.08615" lon="-1.53934">
        <ele>66</ele>
        <time>2022-07-14T05:52:35Z</time>
      </trkpt>
      <trkpt lat="47.08617" lon="-1.53916">
        <ele>66</ele>
        <time>2022-07-14T05:52:37Z</time>
      </trkpt>
      <trkpt lat="47.0862" lon="-1.53898">
        <ele>66</ele>
        <time>2022-07-14T05:52:39Z</time>
      </trkpt>
      <trkpt lat="47.08623" lon="-1.5388">
        <ele>66</ele>
        <time>2022-07-14T05:52:41Z</time>
      </trkpt>
      <trkpt lat="47.08628" lon="-1.53863">
        <ele>67</ele>
        <time>2022-07-14T05:52:43Z</time>
      </trkpt>
      <trkpt lat="47.08633" lon="-1.53846">
        <ele>68</ele>
        <time>2022-07-14T05:52:45Z</time>
      </trkpt>
      <trkpt lat="47.08638" lon="-1.5383">
        <ele>69</ele>
        <time>2022-07-14T05:52:47Z</time>
      </trkpt>
      <trkpt lat="47.08643" lon="-1.53812">
        <ele>69</ele>
        <time>2022-07-14T05:52:49Z</time>
      </trkpt>
      <trkpt lat="47.08649" lon="-1.53795">
        <ele>69</ele>
        <time>2022-07-14T05:52:51Z</time>
      </trkpt>
      <trkpt lat="47.08654" lon="-1.53778">
        <ele>70</ele>
        <time>2022-07-14T05:52:53Z</time>
      </trkpt>
      <trkpt lat="47.08659" lon="-1.53761">
        <ele>69</ele>
        <time>2022-07-14T05:52:55Z</time>
      </trkpt>
      <trkpt lat="47.08664" lon="-1.53744">
        <ele>70</ele>
        <time>2022-07-14T05:52:57Z</time>
      </trkpt>
      <trkpt lat="47.0867" lon="-1.53728">
        <ele>70</ele>
        <time>2022-07-14T05:52:59Z</time>
      </trkpt>
      <trkpt lat="47.08675" lon="-1.53713">
        <ele>70</ele>
        <time>2022-07-14T05:53:01Z</time>
      </trkpt>
      <trkpt lat="47.0868" lon="-1.53696">
        <ele>70</ele>
        <time>2022-07-14T05:53:03Z</time>
      </trkpt>
      <trkpt lat="47.08686" lon="-1.53679">
        <ele>71</ele>
        <time>2022-07-14T05:53:05Z</time>
      </trkpt>
      <trkpt lat="47.08691" lon="-1.53661">
        <ele>71</ele>
        <time>2022-07-14T05:53:07Z</time>
      </trkpt>
      <trkpt lat="47.08696" lon="-1.53645">
        <ele>71</ele>
        <time>2022-07-14T05:53:09Z</time>
      </trkpt>
      <trkpt lat="47.08701" lon="-1.53629">
        <ele>71</ele>
        <time>2022-07-14T05:53:11Z</time>
      </trkpt>
      <trkpt lat="47.08706" lon="-1.53612">
        <ele>70</ele>
        <time>2022-07-14T05:53:13Z</time>
      </trkpt>
      <trkpt lat="47.08712" lon="-1.53595">
        <ele>70</ele>
        <time>2022-07-14T05:53:15Z</time>
      </trkpt>
      <trkpt lat="47.08717" lon="-1.53579">
        <ele>69</ele>
        <time>2022-07-14T05:53:17Z</time>
      </trkpt>
      <trkpt lat="47.08722" lon="-1.53563">
        <ele>68</ele>
        <time>2022-07-14T05:53:19Z</time>
      </trkpt>
      <trkpt lat="47.08727" lon="-1.53547">
        <ele>68</ele>
        <time>2022-07-14T05:53:21Z</time>
      </trkpt>
      <trkpt lat="47.08733" lon="-1.53531">
        <ele>68</ele>
        <time>2022-07-14T05:53:23Z</time>
      </trkpt>
      <trkpt lat="47.08737" lon="-1.53515">
        <ele>67</ele>
        <time>2022-07-14T05:53:25Z</time>
      </trkpt>
      <trkpt lat="47.08743" lon="-1.53498">
        <ele>67</ele>
        <time>2022-07-14T05:53:27Z</time>
      </trkpt>
      <trkpt lat="47.08748" lon="-1.53481">
        <ele>67</ele>
        <time>2022-07-14T05:53:29Z</time>
      </trkpt>
      <trkpt lat="47.08752" lon="-1.53464">
        <ele>68</ele>
        <time>2022-07-14T05:53:31Z</time>
      </trkpt>
      <trkpt lat="47.08757" lon="-1.53448">
        <ele>68</ele>
        <time>2022-07-14T05:53:33Z</time>
      </trkpt>
      <trkpt lat="47.08763" lon="-1.53432">
        <ele>68</ele>
        <time>2022-07-14T05:53:35Z</time>
      </trkpt>
      <trkpt lat="47.08768" lon="-1.53416">
        <ele>68</ele>
        <time>2022-07-14T05:53:37Z</time>
      </trkpt>
      <trkpt lat="47.08773" lon="-1.534">
        <ele>68</ele>
        <time>2022-07-14T05:53:39Z</time>
      </trkpt>
      <trkpt lat="47.08778" lon="-1.53384">
        <ele>68</ele>
        <time>2022-07-14T05:53:41Z</time>
      </trkpt>
      <trkpt lat="47.08783" lon="-1.53367">
        <ele>69</ele>
        <time>2022-07-14T05:53:43Z</time>
      </trkpt>
      <trkpt lat="47.08788" lon="-1.5335">
        <ele>68</ele>
        <time>2022-07-14T05:53:45Z</time>
      </trkpt>
      <trkpt lat="47.08794" lon="-1.53334">
        <ele>69</ele>
        <time>2022-07-14T05:53:47Z</time>
      </trkpt>
      <trkpt lat="47.088" lon="-1.53318">
        <ele>69</ele>
        <time>2022-07-14T05:53:49Z</time>
      </trkpt>
      <trkpt lat="47.08806" lon="-1.53303">
        <ele>69</ele>
        <time>2022-07-14T05:53:51Z</time>
      </trkpt>
      <trkpt lat="47.08813" lon="-1.53287">
        <ele>69</ele>
        <time>2022-07-14T05:53:53Z</time>
      </trkpt>
      <trkpt lat="47.0882" lon="-1.53272">
        <ele>68</ele>
        <time>2022-07-14T05:53:55Z</time>
      </trkpt>
      <trkpt lat="47.08827" lon="-1.53257">
        <ele>69</ele>
        <time>2022-07-14T05:53:57Z</time>
      </trkpt>
      <trkpt lat="47.08834" lon="-1.53241">
        <ele>68</ele>
        <time>2022-07-14T05:53:59Z</time>
      </trkpt>
      <trkpt lat="47.08841" lon="-1.53225">
        <ele>68</ele>
        <time>2022-07-14T05:54:01Z</time>
      </trkpt>
      <trkpt lat="47.08848" lon="-1.5321">
        <ele>69</ele>
        <time>2022-07-14T05:54:03Z</time>
      </trkpt>
      <trkpt lat="47.08854" lon="-1.53195">
        <ele>69</ele>
        <time>2022-07-14T05:54:05Z</time>
      </trkpt>
      <trkpt lat="47.08863" lon="-1.5318">
        <ele>69</ele>
        <time>2022-07-14T05:54:07Z</time>
      </trkpt>
      <trkpt lat="47.08871" lon="-1.53166">
        <ele>69</ele>
        <time>2022-07-14T05:54:09Z</time>
      </trkpt>
      <trkpt lat="47.08881" lon="-1.53155">
        <ele>69</ele>
        <time>2022-07-14T05:54:11Z</time>
      </trkpt>
      <trkpt lat="47.08891" lon="-1.53143">
        <ele>69</ele>
        <time>2022-07-14T05:54:13Z</time>
      </trkpt>
      <trkpt lat="47.08901" lon="-1.53133">
        <ele>68</ele>
        <time>2022-07-14T05:54:15Z</time>
      </trkpt>
      <trkpt lat="47.08912" lon="-1.53123">
        <ele>68</ele>
        <time>2022-07-14T05:54:17Z</time>
      </trkpt>
      <trkpt lat="47.08923" lon="-1.53115">
        <ele>69</ele>
        <time>2022-07-14T05:54:19Z</time>
      </trkpt>
      <trkpt lat="47.08934" lon="-1.53108">
        <ele>69</ele>
        <time>2022-07-14T05:54:21Z</time>
      </trkpt>
      <trkpt lat="47.08946" lon="-1.53103">
        <ele>69</ele>
        <time>2022-07-14T05:54:23Z</time>
      </trkpt>
      <trkpt lat="47.08959" lon="-1.53098">
        <ele>69</ele>
        <time>2022-07-14T05:54:25Z</time>
      </trkpt>
      <trkpt lat="47.08972" lon="-1.53094">
        <ele>69</ele>
        <time>2022-07-14T05:54:27Z</time>
      </trkpt>
      <trkpt lat="47.08985" lon="-1.53091">
        <ele>68</ele>
        <time>2022-07-14T05:54:29Z</time>
      </trkpt>
      <trkpt lat="47.08998" lon="-1.53087">
        <ele>68</ele>
        <time>2022-07-14T05:54:31Z</time>
      </trkpt>
      <trkpt lat="47.09011" lon="-1.53084">
        <ele>68</ele>
        <time>2022-07-14T05:54:33Z</time>
      </trkpt>
      <trkpt lat="47.09024" lon="-1.53081">
        <ele>68</ele>
        <time>2022-07-14T05:54:35Z</time>
      </trkpt>
      <trkpt lat="47.09037" lon="-1.53078">
        <ele>68</ele>
        <time>2022-07-14T05:54:37Z</time>
      </trkpt>
      <trkpt lat="47.09049" lon="-1.53074">
        <ele>68</ele>
        <time>2022-07-14T05:54:39Z</time>
      </trkpt>
      <trkpt lat="47.09062" lon="-1.53069">
        <ele>68</ele>
        <time>2022-07-14T05:54:41Z</time>
      </trkpt>
      <trkpt lat="47.09073" lon="-1.53061">
        <ele>68</ele>
        <time>2022-07-14T05:54:43Z</time>
      </trkpt>
      <trkpt lat="47.09084" lon="-1.53052">
        <ele>68</ele>
        <time>2022-07-14T05:54:45Z</time>
      </trkpt>
      <trkpt lat="47.09095" lon="-1.53041">
        <ele>68</ele>
        <time>2022-07-14T05:54:47Z</time>
      </trkpt>
      <trkpt lat="47.09104" lon="-1.53028">
        <ele>67</ele>
        <time>2022-07-14T05:54:49Z</time>
      </trkpt>
      <trkpt lat="47.09112" lon="-1.53013">
        <ele>67</ele>
        <time>2022-07-14T05:54:51Z</time>
      </trkpt>
      <trkpt lat="47.09116" lon="-1.52996">
        <ele>67</ele>
        <time>2022-07-14T05:54:53Z</time>
      </trkpt>
      <trkpt lat="47.09119" lon="-1.52979">
        <ele>67</ele>
        <time>2022-07-14T05:54:55Z</time>
      </trkpt>
      <trkpt lat="47.09125" lon="-1.52963">
        <ele>66</ele>
        <time>2022-07-14T05:54:57Z</time>
      </trkpt>
      <trkpt lat="47.09132" lon="-1.52947">
        <ele>66</ele>
        <time>2022-07-14T05:54:59Z</time>
      </trkpt>
      <trkpt lat="47.09137" lon="-1.5293">
        <ele>66</ele>
        <time>2022-07-14T05:55:01Z</time>
      </trkpt>
      <trkpt lat="47.09138" lon="-1.52911">
        <ele>66</ele>
        <time>2022-07-14T05:55:03Z</time>
      </trkpt>
      <trkpt lat="47.09138" lon="-1.52892">
        <ele>65</ele>
        <time>2022-07-14T05:55:05Z</time>
      </trkpt>
      <trkpt lat="47.09138" lon="-1.52873">
        <ele>66</ele>
        <time>2022-07-14T05:55:07Z</time>
      </trkpt>
      <trkpt lat="47.09138" lon="-1.52853">
        <ele>66</ele>
        <time>2022-07-14T05:55:09Z</time>
      </trkpt>
      <trkpt lat="47.09137" lon="-1.52834">
        <ele>66</ele>
        <time>2022-07-14T05:55:11Z</time>
      </trkpt>
      <trkpt lat="47.09137" lon="-1.52815">
        <ele>66</ele>
        <time>2022-07-14T05:55:13Z</time>
      </trkpt>
      <trkpt lat="47.09136" lon="-1.52796">
        <ele>66</ele>
        <time>2022-07-14T05:55:15Z</time>
      </trkpt>
      <trkpt lat="47.09136" lon="-1.52777">
        <ele>66</ele>
        <time>2022-07-14T05:55:17Z</time>
      </trkpt>
      <trkpt lat="47.09135" lon="-1.52758">
        <ele>66</ele>
        <time>2022-07-14T05:55:19Z</time>
      </trkpt>
      <trkpt lat="47.09133" lon="-1.5274">
        <ele>66</ele>
        <time>2022-07-14T05:55:21Z</time>
      </trkpt>
      <trkpt lat="47.0913" lon="-1.52722">
        <ele>66</ele>
        <time>2022-07-14T05:55:23Z</time>
      </trkpt>
      <trkpt lat="47.09123" lon="-1.52706">
        <ele>67</ele>
        <time>2022-07-14T05:55:25Z</time>
      </trkpt>
      <trkpt lat="47.09115" lon="-1.52691">
        <ele>68</ele>
        <time>2022-07-14T05:55:27Z</time>
      </trkpt>
      <trkpt lat="47.09106" lon="-1.52677">
        <ele>69</ele>
        <time>2022-07-14T05:55:29Z</time>
      </trkpt>
      <trkpt lat="47.09099" lon="-1.52662">
        <ele>69</ele>
        <time>2022-07-14T05:55:31Z</time>
      </trkpt>
      <trkpt lat="47.09097" lon="-1.52644">
        <ele>69</ele>
        <time>2022-07-14T05:55:33Z</time>
      </trkpt>
      <trkpt lat="47.09101" lon="-1.52625">
        <ele>68</ele>
        <time>2022-07-14T05:55:35Z</time>
      </trkpt>
      <trkpt lat="47.09106" lon="-1.52607">
        <ele>68</ele>
        <time>2022-07-14T05:55:37Z</time>
      </trkpt>
      <trkpt lat="47.0911" lon="-1.52587">
        <ele>67</ele>
        <time>2022-07-14T05:55:39Z</time>
      </trkpt>
      <trkpt lat="47.09113" lon="-1.52566">
        <ele>66</ele>
        <time>2022-07-14T05:55:41Z</time>
      </trkpt>
      <trkpt lat="47.09115" lon="-1.52544">
        <ele>66</ele>
        <time>2022-07-14T05:55:43Z</time>
      </trkpt>
      <trkpt lat="47.09117" lon="-1.52521">
        <ele>66</ele>
        <time>2022-07-14T05:55:45Z</time>
      </trkpt>
      <trkpt lat="47.09119" lon="-1.52499">
        <ele>66</ele>
        <time>2022-07-14T05:55:47Z</time>
      </trkpt>
      <trkpt lat="47.09121" lon="-1.52477">
        <ele>66</ele>
        <time>2022-07-14T05:55:49Z</time>
      </trkpt>
      <trkpt lat="47.09123" lon="-1.52455">
        <ele>66</ele>
        <time>2022-07-14T05:55:51Z</time>
      </trkpt>
      <trkpt lat="47.09124" lon="-1.52432">
        <ele>66</ele>
        <time>2022-07-14T05:55:53Z</time>
      </trkpt>
      <trkpt lat="47.09126" lon="-1.52409">
        <ele>65</ele>
        <time>2022-07-14T05:55:55Z</time>
      </trkpt>
      <trkpt lat="47.09127" lon="-1.52386">
        <ele>65</ele>
        <time>2022-07-14T05:55:57Z</time>
      </trkpt>
      <trkpt lat="47.09128" lon="-1.52365">
        <ele>65</ele>
        <time>2022-07-14T05:55:59Z</time>
      </trkpt>
      <trkpt lat="47.0913" lon="-1.52344">
        <ele>65</ele>
        <time>2022-07-14T05:56:01Z</time>
      </trkpt>
      <trkpt lat="47.09132" lon="-1.52323">
        <ele>65</ele>
        <time>2022-07-14T05:56:03Z</time>
      </trkpt>
      <trkpt lat="47.09133" lon="-1.52303">
        <ele>66</ele>
        <time>2022-07-14T05:56:05Z</time>
      </trkpt>
      <trkpt lat="47.09135" lon="-1.52283">
        <ele>66</ele>
        <time>2022-07-14T05:56:07Z</time>
      </trkpt>
      <trkpt lat="47.09137" lon="-1.52263">
        <ele>65</ele>
        <time>2022-07-14T05:56:09Z</time>
      </trkpt>
      <trkpt lat="47.09141" lon="-1.52244">
        <ele>65</ele>
        <time>2022-07-14T05:56:11Z</time>
      </trkpt>
      <trkpt lat="47.09146" lon="-1.52225">
        <ele>65</ele>
        <time>2022-07-14T05:56:13Z</time>
      </trkpt>
      <trkpt lat="47.09152" lon="-1.52206">
        <ele>65</ele>
        <time>2022-07-14T05:56:15Z</time>
      </trkpt>
      <trkpt lat="47.09159" lon="-1.52187">
        <ele>64</ele>
        <time>2022-07-14T05:56:17Z</time>
      </trkpt>
      <trkpt lat="47.09167" lon="-1.52168">
        <ele>63</ele>
        <time>2022-07-14T05:56:19Z</time>
      </trkpt>
      <trkpt lat="47.09175" lon="-1.5215">
        <ele>63</ele>
        <time>2022-07-14T05:56:21Z</time>
      </trkpt>
      <trkpt lat="47.09183" lon="-1.52131">
        <ele>62</ele>
        <time>2022-07-14T05:56:23Z</time>
      </trkpt>
      <trkpt lat="47.09191" lon="-1.52112">
        <ele>62</ele>
        <time>2022-07-14T05:56:25Z</time>
      </trkpt>
      <trkpt lat="47.09199" lon="-1.52093">
        <ele>62</ele>
        <time>2022-07-14T05:56:27Z</time>
      </trkpt>
      <trkpt lat="47.09208" lon="-1.52074">
        <ele>61</ele>
        <time>2022-07-14T05:56:29Z</time>
      </trkpt>
      <trkpt lat="47.09216" lon="-1.52055">
        <ele>61</ele>
        <time>2022-07-14T05:56:31Z</time>
      </trkpt>
      <trkpt lat="47.09224" lon="-1.52036">
        <ele>61</ele>
        <time>2022-07-14T05:56:33Z</time>
      </trkpt>
      <trkpt lat="47.09232" lon="-1.52016">
        <ele>60</ele>
        <time>2022-07-14T05:56:35Z</time>
      </trkpt>
      <trkpt lat="47.09241" lon="-1.51997">
        <ele>60</ele>
        <time>2022-07-14T05:56:37Z</time>
      </trkpt>
      <trkpt lat="47.09249" lon="-1.51979">
        <ele>60</ele>
        <time>2022-07-14T05:56:39Z</time>
      </trkpt>
      <trkpt lat="47.09257" lon="-1.51963">
        <ele>61</ele>
        <time>2022-07-14T05:56:41Z</time>
      </trkpt>
      <trkpt lat="47.09264" lon="-1.51945">
        <ele>61</ele>
        <time>2022-07-14T05:56:43Z</time>
      </trkpt>
      <trkpt lat="47.09271" lon="-1.51928">
        <ele>61</ele>
        <time>2022-07-14T05:56:45Z</time>
      </trkpt>
      <trkpt lat="47.09278" lon="-1.51911">
        <ele>61</ele>
        <time>2022-07-14T05:56:47Z</time>
      </trkpt>
      <trkpt lat="47.09284" lon="-1.51895">
        <ele>62</ele>
        <time>2022-07-14T05:56:49Z</time>
      </trkpt>
      <trkpt lat="47.09292" lon="-1.51879">
        <ele>61</ele>
        <time>2022-07-14T05:56:51Z</time>
      </trkpt>
      <trkpt lat="47.09299" lon="-1.51862">
        <ele>61</ele>
        <time>2022-07-14T05:56:53Z</time>
      </trkpt>
      <trkpt lat="47.09306" lon="-1.51845">
        <ele>60</ele>
        <time>2022-07-14T05:56:55Z</time>
      </trkpt>
      <trkpt lat="47.09314" lon="-1.51827">
        <ele>60</ele>
        <time>2022-07-14T05:56:57Z</time>
      </trkpt>
      <trkpt lat="47.09322" lon="-1.51809">
        <ele>59</ele>
        <time>2022-07-14T05:56:59Z</time>
      </trkpt>
      <trkpt lat="47.0933" lon="-1.51791">
        <ele>59</ele>
        <time>2022-07-14T05:57:01Z</time>
      </trkpt>
      <trkpt lat="47.09338" lon="-1.51772">
        <ele>59</ele>
        <time>2022-07-14T05:57:03Z</time>
      </trkpt>
      <trkpt lat="47.09346" lon="-1.51752">
        <ele>58</ele>
        <time>2022-07-14T05:57:05Z</time>
      </trkpt>
      <trkpt lat="47.09354" lon="-1.51733">
        <ele>57</ele>
        <time>2022-07-14T05:57:07Z</time>
      </trkpt>
      <trkpt lat="47.09363" lon="-1.51713">
        <ele>57</ele>
        <time>2022-07-14T05:57:09Z</time>
      </trkpt>
      <trkpt lat="47.09371" lon="-1.51694">
        <ele>56</ele>
        <time>2022-07-14T05:57:11Z</time>
      </trkpt>
      <trkpt lat="47.0938" lon="-1.51675">
        <ele>56</ele>
        <time>2022-07-14T05:57:13Z</time>
      </trkpt>
      <trkpt lat="47.09389" lon="-1.51656">
        <ele>56</ele>
        <time>2022-07-14T05:57:15Z</time>
      </trkpt>
      <trkpt lat="47.09397" lon="-1.51636">
        <ele>56</ele>
        <time>2022-07-14T05:57:17Z</time>
      </trkpt>
      <trkpt lat="47.09406" lon="-1.51617">
        <ele>56</ele>
        <time>2022-07-14T05:57:19Z</time>
      </trkpt>
      <trkpt lat="47.09414" lon="-1.51598">
        <ele>56</ele>
        <time>2022-07-14T05:57:21Z</time>
      </trkpt>
      <trkpt lat="47.09422" lon="-1.51579">
        <ele>57</ele>
        <time>2022-07-14T05:57:23Z</time>
      </trkpt>
      <trkpt lat="47.0943" lon="-1.51561">
        <ele>57</ele>
        <time>2022-07-14T05:57:25Z</time>
      </trkpt>
      <trkpt lat="47.09438" lon="-1.51542">
        <ele>57</ele>
        <time>2022-07-14T05:57:27Z</time>
      </trkpt>
      <trkpt lat="47.09446" lon="-1.51523">
        <ele>57</ele>
        <time>2022-07-14T05:57:29Z</time>
      </trkpt>
      <trkpt lat="47.09453" lon="-1.51506">
        <ele>58</ele>
        <time>2022-07-14T05:57:31Z</time>
      </trkpt>
      <trkpt lat="47.0946" lon="-1.5149">
        <ele>59</ele>
        <time>2022-07-14T05:57:33Z</time>
      </trkpt>
      <trkpt lat="47.09467" lon="-1.51474">
        <ele>60</ele>
        <time>2022-07-14T05:57:35Z</time>
      </trkpt>
      <trkpt lat="47.09474" lon="-1.51458">
        <ele>60</ele>
        <time>2022-07-14T05:57:37Z</time>
      </trkpt>
      <trkpt lat="47.09481" lon="-1.51441">
        <ele>61</ele>
        <time>2022-07-14T05:57:39Z</time>
      </trkpt>
      <trkpt lat="47.09488" lon="-1.51425">
        <ele>61</ele>
        <time>2022-07-14T05:57:41Z</time>
      </trkpt>
      <trkpt lat="47.09494" lon="-1.51407">
        <ele>61</ele>
        <time>2022-07-14T05:57:43Z</time>
      </trkpt>
      <trkpt lat="47.095" lon="-1.51391">
        <ele>61</ele>
        <time>2022-07-14T05:57:45Z</time>
      </trkpt>
      <trkpt lat="47.09504" lon="-1.51374">
        <ele>62</ele>
        <time>2022-07-14T05:57:47Z</time>
      </trkpt>
      <trkpt lat="47.09507" lon="-1.51354">
        <ele>62</ele>
        <time>2022-07-14T05:57:49Z</time>
      </trkpt>
      <trkpt lat="47.09508" lon="-1.51336">
        <ele>63</ele>
        <time>2022-07-14T05:57:51Z</time>
      </trkpt>
      <trkpt lat="47.09507" lon="-1.51317">
        <ele>63</ele>
        <time>2022-07-14T05:57:53Z</time>
      </trkpt>
      <trkpt lat="47.09503" lon="-1.51298">
        <ele>63</ele>
        <time>2022-07-14T05:57:55Z</time>
      </trkpt>
      <trkpt lat="47.09497" lon="-1.5128">
        <ele>63</ele>
        <time>2022-07-14T05:57:57Z</time>
      </trkpt>
      <trkpt lat="47.09492" lon="-1.51261">
        <ele>62</ele>
        <time>2022-07-14T05:57:59Z</time>
      </trkpt>
      <trkpt lat="47.09486" lon="-1.51242">
        <ele>62</ele>
        <time>2022-07-14T05:58:01Z</time>
      </trkpt>
      <trkpt lat="47.09481" lon="-1.51223">
        <ele>61</ele>
        <time>2022-07-14T05:58:03Z</time>
      </trkpt>
      <trkpt lat="47.09476" lon="-1.51204">
        <ele>61</ele>
        <time>2022-07-14T05:58:05Z</time>
      </trkpt>
      <trkpt lat="47.0947" lon="-1.51184">
        <ele>60</ele>
        <time>2022-07-14T05:58:07Z</time>
      </trkpt>
      <trkpt lat="47.09465" lon="-1.51164">
        <ele>59</ele>
        <time>2022-07-14T05:58:09Z</time>
      </trkpt>
      <trkpt lat="47.09459" lon="-1.51145">
        <ele>59</ele>
        <time>2022-07-14T05:58:11Z</time>
      </trkpt>
      <trkpt lat="47.09454" lon="-1.51126">
        <ele>60</ele>
        <time>2022-07-14T05:58:13Z</time>
      </trkpt>
      <trkpt lat="47.09446" lon="-1.51098">
        <ele>60</ele>
        <time>2022-07-14T05:58:16Z</time>
      </trkpt>
      <trkpt lat="47.09441" lon="-1.51079">
        <ele>60</ele>
        <time>2022-07-14T05:58:18Z</time>
      </trkpt>
      <trkpt lat="47.09436" lon="-1.5106">
        <ele>60</ele>
        <time>2022-07-14T05:58:20Z</time>
      </trkpt>
      <trkpt lat="47.09428" lon="-1.51032">
        <ele>59</ele>
        <time>2022-07-14T05:58:23Z</time>
      </trkpt>
      <trkpt lat="47.09423" lon="-1.51014">
        <ele>60</ele>
        <time>2022-07-14T05:58:25Z</time>
      </trkpt>
      <trkpt lat="47.09417" lon="-1.50995">
        <ele>60</ele>
        <time>2022-07-14T05:58:27Z</time>
      </trkpt>
      <trkpt lat="47.0941" lon="-1.50969">
        <ele>60</ele>
        <time>2022-07-14T05:58:30Z</time>
      </trkpt>
      <trkpt lat="47.09405" lon="-1.50952">
        <ele>61</ele>
        <time>2022-07-14T05:58:32Z</time>
      </trkpt>
      <trkpt lat="47.09398" lon="-1.50924">
        <ele>61</ele>
        <time>2022-07-14T05:58:35Z</time>
      </trkpt>
      <trkpt lat="47.09394" lon="-1.50905">
        <ele>61</ele>
        <time>2022-07-14T05:58:37Z</time>
      </trkpt>
      <trkpt lat="47.09392" lon="-1.50887">
        <ele>60</ele>
        <time>2022-07-14T05:58:39Z</time>
      </trkpt>
      <trkpt lat="47.09391" lon="-1.50868">
        <ele>60</ele>
        <time>2022-07-14T05:58:41Z</time>
      </trkpt>
      <trkpt lat="47.09391" lon="-1.50851">
        <ele>61</ele>
        <time>2022-07-14T05:58:43Z</time>
      </trkpt>
      <trkpt lat="47.09392" lon="-1.50833">
        <ele>61</ele>
        <time>2022-07-14T05:58:45Z</time>
      </trkpt>
      <trkpt lat="47.09394" lon="-1.50816">
        <ele>61</ele>
        <time>2022-07-14T05:58:47Z</time>
      </trkpt>
      <trkpt lat="47.09397" lon="-1.508">
        <ele>61</ele>
        <time>2022-07-14T05:58:49Z</time>
      </trkpt>
      <trkpt lat="47.094" lon="-1.50784">
        <ele>61</ele>
        <time>2022-07-14T05:58:51Z</time>
      </trkpt>
      <trkpt lat="47.09403" lon="-1.50768">
        <ele>61</ele>
        <time>2022-07-14T05:58:53Z</time>
      </trkpt>
      <trkpt lat="47.09405" lon="-1.50753">
        <ele>62</ele>
        <time>2022-07-14T05:58:55Z</time>
      </trkpt>
      <trkpt lat="47.09407" lon="-1.50737">
        <ele>62</ele>
        <time>2022-07-14T05:58:57Z</time>
      </trkpt>
      <trkpt lat="47.0941" lon="-1.50723">
        <ele>63</ele>
        <time>2022-07-14T05:58:59Z</time>
      </trkpt>
      <trkpt lat="47.09412" lon="-1.50708">
        <ele>64</ele>
        <time>2022-07-14T05:59:01Z</time>
      </trkpt>
      <trkpt lat="47.09415" lon="-1.50694">
        <ele>64</ele>
        <time>2022-07-14T05:59:03Z</time>
      </trkpt>
      <trkpt lat="47.09417" lon="-1.5068">
        <ele>64</ele>
        <time>2022-07-14T05:59:05Z</time>
      </trkpt>
      <trkpt lat="47.09419" lon="-1.50665">
        <ele>66</ele>
        <time>2022-07-14T05:59:07Z</time>
      </trkpt>
      <trkpt lat="47.09422" lon="-1.50651">
        <ele>67</ele>
        <time>2022-07-14T05:59:09Z</time>
      </trkpt>
      <trkpt lat="47.09424" lon="-1.50637">
        <ele>68</ele>
        <time>2022-07-14T05:59:11Z</time>
      </trkpt>
      <trkpt lat="47.09426" lon="-1.50622">
        <ele>68</ele>
        <time>2022-07-14T05:59:13Z</time>
      </trkpt>
      <trkpt lat="47.09428" lon="-1.50605">
        <ele>68</ele>
        <time>2022-07-14T05:59:15Z</time>
      </trkpt>
      <trkpt lat="47.09431" lon="-1.50589">
        <ele>68</ele>
        <time>2022-07-14T05:59:17Z</time>
      </trkpt>
      <trkpt lat="47.09433" lon="-1.50574">
        <ele>68</ele>
        <time>2022-07-14T05:59:19Z</time>
      </trkpt>
      <trkpt lat="47.09436" lon="-1.50559">
        <ele>67</ele>
        <time>2022-07-14T05:59:21Z</time>
      </trkpt>
      <trkpt lat="47.09438" lon="-1.50545">
        <ele>67</ele>
        <time>2022-07-14T05:59:23Z</time>
      </trkpt>
      <trkpt lat="47.09441" lon="-1.5053">
        <ele>67</ele>
        <time>2022-07-14T05:59:25Z</time>
      </trkpt>
      <trkpt lat="47.09443" lon="-1.50515">
        <ele>66</ele>
        <time>2022-07-14T05:59:27Z</time>
      </trkpt>
      <trkpt lat="47.09446" lon="-1.50499">
        <ele>66</ele>
        <time>2022-07-14T05:59:29Z</time>
      </trkpt>
      <trkpt lat="47.09449" lon="-1.50482">
        <ele>65</ele>
        <time>2022-07-14T05:59:31Z</time>
      </trkpt>
      <trkpt lat="47.09452" lon="-1.50464">
        <ele>65</ele>
        <time>2022-07-14T05:59:33Z</time>
      </trkpt>
      <trkpt lat="47.09455" lon="-1.50445">
        <ele>65</ele>
        <time>2022-07-14T05:59:35Z</time>
      </trkpt>
      <trkpt lat="47.09459" lon="-1.50424">
        <ele>63</ele>
        <time>2022-07-14T05:59:37Z</time>
      </trkpt>
      <trkpt lat="47.09463" lon="-1.50403">
        <ele>62</ele>
        <time>2022-07-14T05:59:39Z</time>
      </trkpt>
      <trkpt lat="47.09467" lon="-1.50381">
        <ele>62</ele>
        <time>2022-07-14T05:59:41Z</time>
      </trkpt>
      <trkpt lat="47.09471" lon="-1.50357">
        <ele>62</ele>
        <time>2022-07-14T05:59:43Z</time>
      </trkpt>
      <trkpt lat="47.09475" lon="-1.50334">
        <ele>61</ele>
        <time>2022-07-14T05:59:45Z</time>
      </trkpt>
      <trkpt lat="47.09479" lon="-1.5031">
        <ele>61</ele>
        <time>2022-07-14T05:59:47Z</time>
      </trkpt>
      <trkpt lat="47.09483" lon="-1.50288">
        <ele>62</ele>
        <time>2022-07-14T05:59:49Z</time>
      </trkpt>
      <trkpt lat="47.09486" lon="-1.50267">
        <ele>62</ele>
        <time>2022-07-14T05:59:51Z</time>
      </trkpt>
      <trkpt lat="47.09489" lon="-1.50247">
        <ele>62</ele>
        <time>2022-07-14T05:59:53Z</time>
      </trkpt>
      <trkpt lat="47.0949" lon="-1.50227">
        <ele>63</ele>
        <time>2022-07-14T05:59:55Z</time>
      </trkpt>
      <trkpt lat="47.09491" lon="-1.50209">
        <ele>63</ele>
        <time>2022-07-14T05:59:57Z</time>
      </trkpt>
      <trkpt lat="47.09496" lon="-1.50192">
        <ele>63</ele>
        <time>2022-07-14T05:59:59Z</time>
      </trkpt>
      <trkpt lat="47.09501" lon="-1.50175">
        <ele>63</ele>
        <time>2022-07-14T06:00:01Z</time>
      </trkpt>
      <trkpt lat="47.09505" lon="-1.50158">
        <ele>63</ele>
        <time>2022-07-14T06:00:03Z</time>
      </trkpt>
      <trkpt lat="47.09508" lon="-1.50141">
        <ele>63</ele>
        <time>2022-07-14T06:00:05Z</time>
      </trkpt>
      <trkpt lat="47.0951" lon="-1.50125">
        <ele>64</ele>
        <time>2022-07-14T06:00:07Z</time>
      </trkpt>
      <trkpt lat="47.09513" lon="-1.50109">
        <ele>64</ele>
        <time>2022-07-14T06:00:09Z</time>
      </trkpt>
      <trkpt lat="47.09515" lon="-1.50093">
        <ele>64</ele>
        <time>2022-07-14T06:00:11Z</time>
      </trkpt>
      <trkpt lat="47.09518" lon="-1.50078">
        <ele>64</ele>
        <time>2022-07-14T06:00:13Z</time>
      </trkpt>
      <trkpt lat="47.0952" lon="-1.50063">
        <ele>64</ele>
        <time>2022-07-14T06:00:15Z</time>
      </trkpt>
      <trkpt lat="47.09523" lon="-1.50049">
        <ele>64</ele>
        <time>2022-07-14T06:00:17Z</time>
      </trkpt>
      <trkpt lat="47.09525" lon="-1.50034">
        <ele>64</ele>
        <time>2022-07-14T06:00:19Z</time>
      </trkpt>
      <trkpt lat="47.09527" lon="-1.50019">
        <ele>65</ele>
        <time>2022-07-14T06:00:21Z</time>
      </trkpt>
      <trkpt lat="47.0953" lon="-1.50004">
        <ele>65</ele>
        <time>2022-07-14T06:00:23Z</time>
      </trkpt>
      <trkpt lat="47.09532" lon="-1.49989">
        <ele>65</ele>
        <time>2022-07-14T06:00:25Z</time>
      </trkpt>
      <trkpt lat="47.09535" lon="-1.49974">
        <ele>65</ele>
        <time>2022-07-14T06:00:27Z</time>
      </trkpt>
      <trkpt lat="47.09538" lon="-1.49959">
        <ele>65</ele>
        <time>2022-07-14T06:00:29Z</time>
      </trkpt>
      <trkpt lat="47.0954" lon="-1.49944">
        <ele>66</ele>
        <time>2022-07-14T06:00:31Z</time>
      </trkpt>
      <trkpt lat="47.09543" lon="-1.49929">
        <ele>66</ele>
        <time>2022-07-14T06:00:33Z</time>
      </trkpt>
      <trkpt lat="47.09546" lon="-1.49915">
        <ele>66</ele>
        <time>2022-07-14T06:00:35Z</time>
      </trkpt>
      <trkpt lat="47.0955" lon="-1.499">
        <ele>66</ele>
        <time>2022-07-14T06:00:37Z</time>
      </trkpt>
      <trkpt lat="47.09554" lon="-1.49885">
        <ele>66</ele>
        <time>2022-07-14T06:00:39Z</time>
      </trkpt>
      <trkpt lat="47.09558" lon="-1.4987">
        <ele>66</ele>
        <time>2022-07-14T06:00:41Z</time>
      </trkpt>
      <trkpt lat="47.09562" lon="-1.49855">
        <ele>67</ele>
        <time>2022-07-14T06:00:43Z</time>
      </trkpt>
      <trkpt lat="47.09566" lon="-1.49841">
        <ele>67</ele>
        <time>2022-07-14T06:00:45Z</time>
      </trkpt>
      <trkpt lat="47.09571" lon="-1.49827">
        <ele>67</ele>
        <time>2022-07-14T06:00:47Z</time>
      </trkpt>
      <trkpt lat="47.09576" lon="-1.49812">
        <ele>67</ele>
        <time>2022-07-14T06:00:49Z</time>
      </trkpt>
      <trkpt lat="47.09581" lon="-1.49798">
        <ele>68</ele>
        <time>2022-07-14T06:00:51Z</time>
      </trkpt>
      <trkpt lat="47.09586" lon="-1.49783">
        <ele>67</ele>
        <time>2022-07-14T06:00:53Z</time>
      </trkpt>
      <trkpt lat="47.09591" lon="-1.49768">
        <ele>68</ele>
        <time>2022-07-14T06:00:55Z</time>
      </trkpt>
      <trkpt lat="47.09596" lon="-1.49754">
        <ele>68</ele>
        <time>2022-07-14T06:00:57Z</time>
      </trkpt>
      <trkpt lat="47.09601" lon="-1.49739">
        <ele>68</ele>
        <time>2022-07-14T06:00:59Z</time>
      </trkpt>
      <trkpt lat="47.09606" lon="-1.49724">
        <ele>68</ele>
        <time>2022-07-14T06:01:01Z</time>
      </trkpt>
      <trkpt lat="47.09611" lon="-1.4971">
        <ele>68</ele>
        <time>2022-07-14T06:01:03Z</time>
      </trkpt>
      <trkpt lat="47.09616" lon="-1.49695">
        <ele>68</ele>
        <time>2022-07-14T06:01:05Z</time>
      </trkpt>
      <trkpt lat="47.09622" lon="-1.49681">
        <ele>68</ele>
        <time>2022-07-14T06:01:07Z</time>
      </trkpt>
      <trkpt lat="47.09627" lon="-1.49665">
        <ele>68</ele>
        <time>2022-07-14T06:01:09Z</time>
      </trkpt>
      <trkpt lat="47.09632" lon="-1.4965">
        <ele>68</ele>
        <time>2022-07-14T06:01:11Z</time>
      </trkpt>
      <trkpt lat="47.09637" lon="-1.49635">
        <ele>68</ele>
        <time>2022-07-14T06:01:13Z</time>
      </trkpt>
      <trkpt lat="47.09643" lon="-1.49619">
        <ele>68</ele>
        <time>2022-07-14T06:01:15Z</time>
      </trkpt>
      <trkpt lat="47.09649" lon="-1.49604">
        <ele>68</ele>
        <time>2022-07-14T06:01:17Z</time>
      </trkpt>
      <trkpt lat="47.09654" lon="-1.49589">
        <ele>69</ele>
        <time>2022-07-14T06:01:19Z</time>
      </trkpt>
      <trkpt lat="47.0966" lon="-1.49573">
        <ele>69</ele>
        <time>2022-07-14T06:01:21Z</time>
      </trkpt>
      <trkpt lat="47.09664" lon="-1.49556">
        <ele>68</ele>
        <time>2022-07-14T06:01:23Z</time>
      </trkpt>
      <trkpt lat="47.0967" lon="-1.4954">
        <ele>68</ele>
        <time>2022-07-14T06:01:25Z</time>
      </trkpt>
      <trkpt lat="47.09675" lon="-1.49525">
        <ele>68</ele>
        <time>2022-07-14T06:01:27Z</time>
      </trkpt>
      <trkpt lat="47.09678" lon="-1.49509">
        <ele>68</ele>
        <time>2022-07-14T06:01:29Z</time>
      </trkpt>
      <trkpt lat="47.0968" lon="-1.49493">
        <ele>68</ele>
        <time>2022-07-14T06:01:31Z</time>
      </trkpt>
      <trkpt lat="47.09681" lon="-1.49477">
        <ele>68</ele>
        <time>2022-07-14T06:01:33Z</time>
      </trkpt>
      <trkpt lat="47.09684" lon="-1.4946">
        <ele>68</ele>
        <time>2022-07-14T06:01:35Z</time>
      </trkpt>
      <trkpt lat="47.09689" lon="-1.49442">
        <ele>69</ele>
        <time>2022-07-14T06:01:37Z</time>
      </trkpt>
      <trkpt lat="47.09691" lon="-1.49425">
        <ele>69</ele>
        <time>2022-07-14T06:01:39Z</time>
      </trkpt>
      <trkpt lat="47.09694" lon="-1.49407">
        <ele>69</ele>
        <time>2022-07-14T06:01:41Z</time>
      </trkpt>
      <trkpt lat="47.09696" lon="-1.49389">
        <ele>69</ele>
        <time>2022-07-14T06:01:43Z</time>
      </trkpt>
      <trkpt lat="47.09698" lon="-1.49371">
        <ele>70</ele>
        <time>2022-07-14T06:01:45Z</time>
      </trkpt>
      <trkpt lat="47.09701" lon="-1.49355">
        <ele>71</ele>
        <time>2022-07-14T06:01:47Z</time>
      </trkpt>
      <trkpt lat="47.09703" lon="-1.49338">
        <ele>71</ele>
        <time>2022-07-14T06:01:49Z</time>
      </trkpt>
      <trkpt lat="47.09705" lon="-1.49322">
        <ele>71</ele>
        <time>2022-07-14T06:01:51Z</time>
      </trkpt>
      <trkpt lat="47.09707" lon="-1.49305">
        <ele>71</ele>
        <time>2022-07-14T06:01:53Z</time>
      </trkpt>
      <trkpt lat="47.09709" lon="-1.49288">
        <ele>71</ele>
        <time>2022-07-14T06:01:55Z</time>
      </trkpt>
      <trkpt lat="47.09713" lon="-1.49272">
        <ele>71</ele>
        <time>2022-07-14T06:01:57Z</time>
      </trkpt>
      <trkpt lat="47.09717" lon="-1.49257">
        <ele>71</ele>
        <time>2022-07-14T06:01:59Z</time>
      </trkpt>
      <trkpt lat="47.09723" lon="-1.49242">
        <ele>71</ele>
        <time>2022-07-14T06:02:01Z</time>
      </trkpt>
      <trkpt lat="47.09727" lon="-1.49226">
        <ele>72</ele>
        <time>2022-07-14T06:02:03Z</time>
      </trkpt>
      <trkpt lat="47.09732" lon="-1.49209">
        <ele>71</ele>
        <time>2022-07-14T06:02:05Z</time>
      </trkpt>
      <trkpt lat="47.09737" lon="-1.49192">
        <ele>71</ele>
        <time>2022-07-14T06:02:07Z</time>
      </trkpt>
      <trkpt lat="47.09742" lon="-1.49175">
        <ele>70</ele>
        <time>2022-07-14T06:02:09Z</time>
      </trkpt>
      <trkpt lat="47.09747" lon="-1.49157">
        <ele>70</ele>
        <time>2022-07-14T06:02:11Z</time>
      </trkpt>
      <trkpt lat="47.09753" lon="-1.49139">
        <ele>69</ele>
        <time>2022-07-14T06:02:13Z</time>
      </trkpt>
      <trkpt lat="47.09759" lon="-1.49121">
        <ele>69</ele>
        <time>2022-07-14T06:02:15Z</time>
      </trkpt>
      <trkpt lat="47.09764" lon="-1.49103">
        <ele>68</ele>
        <time>2022-07-14T06:02:17Z</time>
      </trkpt>
      <trkpt lat="47.09769" lon="-1.49085">
        <ele>68</ele>
        <time>2022-07-14T06:02:19Z</time>
      </trkpt>
      <trkpt lat="47.09775" lon="-1.49068">
        <ele>68</ele>
        <time>2022-07-14T06:02:21Z</time>
      </trkpt>
      <trkpt lat="47.09779" lon="-1.49049">
        <ele>68</ele>
        <time>2022-07-14T06:02:23Z</time>
      </trkpt>
      <trkpt lat="47.09781" lon="-1.4903">
        <ele>68</ele>
        <time>2022-07-14T06:02:25Z</time>
      </trkpt>
      <trkpt lat="47.09782" lon="-1.49011">
        <ele>69</ele>
        <time>2022-07-14T06:02:27Z</time>
      </trkpt>
      <trkpt lat="47.09785" lon="-1.48993">
        <ele>69</ele>
        <time>2022-07-14T06:02:29Z</time>
      </trkpt>
      <trkpt lat="47.09789" lon="-1.48975">
        <ele>69</ele>
        <time>2022-07-14T06:02:31Z</time>
      </trkpt>
      <trkpt lat="47.09793" lon="-1.48958">
        <ele>69</ele>
        <time>2022-07-14T06:02:33Z</time>
      </trkpt>
      <trkpt lat="47.09796" lon="-1.48941">
        <ele>69</ele>
        <time>2022-07-14T06:02:35Z</time>
      </trkpt>
      <trkpt lat="47.098" lon="-1.48924">
        <ele>70</ele>
        <time>2022-07-14T06:02:37Z</time>
      </trkpt>
      <trkpt lat="47.09803" lon="-1.48907">
        <ele>70</ele>
        <time>2022-07-14T06:02:39Z</time>
      </trkpt>
      <trkpt lat="47.09799" lon="-1.48889">
        <ele>70</ele>
        <time>2022-07-14T06:02:41Z</time>
      </trkpt>
      <trkpt lat="47.09792" lon="-1.48872">
        <ele>69</ele>
        <time>2022-07-14T06:02:43Z</time>
      </trkpt>
      <trkpt lat="47.09785" lon="-1.48854">
        <ele>69</ele>
        <time>2022-07-14T06:02:45Z</time>
      </trkpt>
      <trkpt lat="47.09779" lon="-1.48837">
        <ele>68</ele>
        <time>2022-07-14T06:02:47Z</time>
      </trkpt>
      <trkpt lat="47.09774" lon="-1.48819">
        <ele>68</ele>
        <time>2022-07-14T06:02:49Z</time>
      </trkpt>
      <trkpt lat="47.09769" lon="-1.48801">
        <ele>68</ele>
        <time>2022-07-14T06:02:51Z</time>
      </trkpt>
      <trkpt lat="47.09767" lon="-1.48783">
        <ele>67</ele>
        <time>2022-07-14T06:02:53Z</time>
      </trkpt>
      <trkpt lat="47.09767" lon="-1.48767">
        <ele>67</ele>
        <time>2022-07-14T06:02:55Z</time>
      </trkpt>
      <trkpt lat="47.09771" lon="-1.48753">
        <ele>67</ele>
        <time>2022-07-14T06:02:57Z</time>
      </trkpt>
      <trkpt lat="47.09779" lon="-1.4874">
        <ele>67</ele>
        <time>2022-07-14T06:02:59Z</time>
      </trkpt>
      <trkpt lat="47.09788" lon="-1.48727">
        <ele>67</ele>
        <time>2022-07-14T06:03:01Z</time>
      </trkpt>
      <trkpt lat="47.09796" lon="-1.48713">
        <ele>67</ele>
        <time>2022-07-14T06:03:03Z</time>
      </trkpt>
      <trkpt lat="47.09803" lon="-1.48699">
        <ele>67</ele>
        <time>2022-07-14T06:03:05Z</time>
      </trkpt>
      <trkpt lat="47.09811" lon="-1.48686">
        <ele>66</ele>
        <time>2022-07-14T06:03:07Z</time>
      </trkpt>
      <trkpt lat="47.09819" lon="-1.48672">
        <ele>66</ele>
        <time>2022-07-14T06:03:09Z</time>
      </trkpt>
      <trkpt lat="47.09827" lon="-1.48658">
        <ele>65</ele>
        <time>2022-07-14T06:03:11Z</time>
      </trkpt>
      <trkpt lat="47.09835" lon="-1.48644">
        <ele>65</ele>
        <time>2022-07-14T06:03:13Z</time>
      </trkpt>
      <trkpt lat="47.09843" lon="-1.48629">
        <ele>65</ele>
        <time>2022-07-14T06:03:15Z</time>
      </trkpt>
      <trkpt lat="47.0985" lon="-1.48615">
        <ele>65</ele>
        <time>2022-07-14T06:03:17Z</time>
      </trkpt>
      <trkpt lat="47.09857" lon="-1.486">
        <ele>64</ele>
        <time>2022-07-14T06:03:19Z</time>
      </trkpt>
      <trkpt lat="47.09862" lon="-1.48583">
        <ele>64</ele>
        <time>2022-07-14T06:03:21Z</time>
      </trkpt>
      <trkpt lat="47.09866" lon="-1.48565">
        <ele>64</ele>
        <time>2022-07-14T06:03:23Z</time>
      </trkpt>
      <trkpt lat="47.09867" lon="-1.48546">
        <ele>65</ele>
        <time>2022-07-14T06:03:25Z</time>
      </trkpt>
      <trkpt lat="47.09868" lon="-1.48528">
        <ele>65</ele>
        <time>2022-07-14T06:03:27Z</time>
      </trkpt>
      <trkpt lat="47.09869" lon="-1.48511">
        <ele>65</ele>
        <time>2022-07-14T06:03:29Z</time>
      </trkpt>
      <trkpt lat="47.09869" lon="-1.48493">
        <ele>66</ele>
        <time>2022-07-14T06:03:31Z</time>
      </trkpt>
      <trkpt lat="47.09867" lon="-1.48475">
        <ele>66</ele>
        <time>2022-07-14T06:03:33Z</time>
      </trkpt>
      <trkpt lat="47.09864" lon="-1.48457">
        <ele>66</ele>
        <time>2022-07-14T06:03:35Z</time>
      </trkpt>
      <trkpt lat="47.09862" lon="-1.48439">
        <ele>66</ele>
        <time>2022-07-14T06:03:37Z</time>
      </trkpt>
      <trkpt lat="47.09859" lon="-1.48421">
        <ele>66</ele>
        <time>2022-07-14T06:03:39Z</time>
      </trkpt>
      <trkpt lat="47.09857" lon="-1.48402">
        <ele>66</ele>
        <time>2022-07-14T06:03:41Z</time>
      </trkpt>
      <trkpt lat="47.09856" lon="-1.48384">
        <ele>66</ele>
        <time>2022-07-14T06:03:43Z</time>
      </trkpt>
      <trkpt lat="47.09855" lon="-1.48366">
        <ele>66</ele>
        <time>2022-07-14T06:03:45Z</time>
      </trkpt>
      <trkpt lat="47.09853" lon="-1.48348">
        <ele>65</ele>
        <time>2022-07-14T06:03:47Z</time>
      </trkpt>
      <trkpt lat="47.09851" lon="-1.4833">
        <ele>65</ele>
        <time>2022-07-14T06:03:49Z</time>
      </trkpt>
      <trkpt lat="47.0985" lon="-1.48312">
        <ele>65</ele>
        <time>2022-07-14T06:03:51Z</time>
      </trkpt>
      <trkpt lat="47.09849" lon="-1.48294">
        <ele>66</ele>
        <time>2022-07-14T06:03:53Z</time>
      </trkpt>
      <trkpt lat="47.09847" lon="-1.48276">
        <ele>66</ele>
        <time>2022-07-14T06:03:55Z</time>
      </trkpt>
      <trkpt lat="47.09844" lon="-1.48258">
        <ele>66</ele>
        <time>2022-07-14T06:03:57Z</time>
      </trkpt>
      <trkpt lat="47.09842" lon="-1.4824">
        <ele>66</ele>
        <time>2022-07-14T06:03:59Z</time>
      </trkpt>
      <trkpt lat="47.09841" lon="-1.48223">
        <ele>66</ele>
        <time>2022-07-14T06:04:01Z</time>
      </trkpt>
      <trkpt lat="47.0984" lon="-1.48205">
        <ele>66</ele>
        <time>2022-07-14T06:04:03Z</time>
      </trkpt>
      <trkpt lat="47.0984" lon="-1.48187">
        <ele>66</ele>
        <time>2022-07-14T06:04:05Z</time>
      </trkpt>
      <trkpt lat="47.09841" lon="-1.48168">
        <ele>65</ele>
        <time>2022-07-14T06:04:07Z</time>
      </trkpt>
      <trkpt lat="47.09842" lon="-1.48149">
        <ele>66</ele>
        <time>2022-07-14T06:04:09Z</time>
      </trkpt>
      <trkpt lat="47.09843" lon="-1.48131">
        <ele>66</ele>
        <time>2022-07-14T06:04:11Z</time>
      </trkpt>
      <trkpt lat="47.09844" lon="-1.48113">
        <ele>66</ele>
        <time>2022-07-14T06:04:13Z</time>
      </trkpt>
      <trkpt lat="47.09844" lon="-1.48095">
        <ele>66</ele>
        <time>2022-07-14T06:04:15Z</time>
      </trkpt>
      <trkpt lat="47.09843" lon="-1.48077">
        <ele>67</ele>
        <time>2022-07-14T06:04:17Z</time>
      </trkpt>
      <trkpt lat="47.09841" lon="-1.48058">
        <ele>67</ele>
        <time>2022-07-14T06:04:19Z</time>
      </trkpt>
      <trkpt lat="47.09839" lon="-1.48039">
        <ele>67</ele>
        <time>2022-07-14T06:04:21Z</time>
      </trkpt>
      <trkpt lat="47.09838" lon="-1.4802">
        <ele>67</ele>
        <time>2022-07-14T06:04:23Z</time>
      </trkpt>
      <trkpt lat="47.09836" lon="-1.48001">
        <ele>67</ele>
        <time>2022-07-14T06:04:25Z</time>
      </trkpt>
      <trkpt lat="47.09835" lon="-1.47982">
        <ele>67</ele>
        <time>2022-07-14T06:04:27Z</time>
      </trkpt>
      <trkpt lat="47.09833" lon="-1.47964">
        <ele>67</ele>
        <time>2022-07-14T06:04:29Z</time>
      </trkpt>
      <trkpt lat="47.09832" lon="-1.47944">
        <ele>68</ele>
        <time>2022-07-14T06:04:31Z</time>
      </trkpt>
      <trkpt lat="47.09831" lon="-1.47925">
        <ele>67</ele>
        <time>2022-07-14T06:04:33Z</time>
      </trkpt>
      <trkpt lat="47.0983" lon="-1.47907">
        <ele>67</ele>
        <time>2022-07-14T06:04:35Z</time>
      </trkpt>
      <trkpt lat="47.09828" lon="-1.47889">
        <ele>67</ele>
        <time>2022-07-14T06:04:37Z</time>
      </trkpt>
      <trkpt lat="47.09827" lon="-1.47871">
        <ele>67</ele>
        <time>2022-07-14T06:04:39Z</time>
      </trkpt>
      <trkpt lat="47.09826" lon="-1.47854">
        <ele>67</ele>
        <time>2022-07-14T06:04:41Z</time>
      </trkpt>
      <trkpt lat="47.09824" lon="-1.47837">
        <ele>67</ele>
        <time>2022-07-14T06:04:43Z</time>
      </trkpt>
      <trkpt lat="47.09822" lon="-1.47819">
        <ele>67</ele>
        <time>2022-07-14T06:04:45Z</time>
      </trkpt>
      <trkpt lat="47.09821" lon="-1.47802">
        <ele>68</ele>
        <time>2022-07-14T06:04:47Z</time>
      </trkpt>
      <trkpt lat="47.0982" lon="-1.47785">
        <ele>67</ele>
        <time>2022-07-14T06:04:49Z</time>
      </trkpt>
      <trkpt lat="47.09819" lon="-1.47768">
        <ele>68</ele>
        <time>2022-07-14T06:04:51Z</time>
      </trkpt>
      <trkpt lat="47.09818" lon="-1.47751">
        <ele>68</ele>
        <time>2022-07-14T06:04:53Z</time>
      </trkpt>
      <trkpt lat="47.09817" lon="-1.47733">
        <ele>68</ele>
        <time>2022-07-14T06:04:55Z</time>
      </trkpt>
      <trkpt lat="47.09817" lon="-1.47715">
        <ele>68</ele>
        <time>2022-07-14T06:04:57Z</time>
      </trkpt>
      <trkpt lat="47.09817" lon="-1.47698">
        <ele>68</ele>
        <time>2022-07-14T06:04:59Z</time>
      </trkpt>
      <trkpt lat="47.09818" lon="-1.4768">
        <ele>68</ele>
        <time>2022-07-14T06:05:01Z</time>
      </trkpt>
      <trkpt lat="47.09819" lon="-1.47663">
        <ele>68</ele>
        <time>2022-07-14T06:05:03Z</time>
      </trkpt>
      <trkpt lat="47.09821" lon="-1.47646">
        <ele>69</ele>
        <time>2022-07-14T06:05:05Z</time>
      </trkpt>
      <trkpt lat="47.09824" lon="-1.4763">
        <ele>69</ele>
        <time>2022-07-14T06:05:07Z</time>
      </trkpt>
      <trkpt lat="47.09827" lon="-1.47615">
        <ele>69</ele>
        <time>2022-07-14T06:05:09Z</time>
      </trkpt>
      <trkpt lat="47.09831" lon="-1.47601">
        <ele>70</ele>
        <time>2022-07-14T06:05:11Z</time>
      </trkpt>
      <trkpt lat="47.09835" lon="-1.47587">
        <ele>70</ele>
        <time>2022-07-14T06:05:13Z</time>
      </trkpt>
      <trkpt lat="47.09839" lon="-1.47573">
        <ele>71</ele>
        <time>2022-07-14T06:05:15Z</time>
      </trkpt>
      <trkpt lat="47.09844" lon="-1.4756">
        <ele>71</ele>
        <time>2022-07-14T06:05:17Z</time>
      </trkpt>
      <trkpt lat="47.09849" lon="-1.47546">
        <ele>71</ele>
        <time>2022-07-14T06:05:19Z</time>
      </trkpt>
      <trkpt lat="47.09854" lon="-1.47534">
        <ele>72</ele>
        <time>2022-07-14T06:05:21Z</time>
      </trkpt>
      <trkpt lat="47.0986" lon="-1.47522">
        <ele>72</ele>
        <time>2022-07-14T06:05:23Z</time>
      </trkpt>
      <trkpt lat="47.09866" lon="-1.4751">
        <ele>73</ele>
        <time>2022-07-14T06:05:25Z</time>
      </trkpt>
      <trkpt lat="47.09872" lon="-1.47499">
        <ele>73</ele>
        <time>2022-07-14T06:05:27Z</time>
      </trkpt>
      <trkpt lat="47.09878" lon="-1.47488">
        <ele>73</ele>
        <time>2022-07-14T06:05:29Z</time>
      </trkpt>
      <trkpt lat="47.09884" lon="-1.47478">
        <ele>73</ele>
        <time>2022-07-14T06:05:31Z</time>
      </trkpt>
      <trkpt lat="47.09889" lon="-1.47467">
        <ele>74</ele>
        <time>2022-07-14T06:05:33Z</time>
      </trkpt>
      <trkpt lat="47.09894" lon="-1.47456">
        <ele>74</ele>
        <time>2022-07-14T06:05:35Z</time>
      </trkpt>
      <trkpt lat="47.099" lon="-1.47445">
        <ele>75</ele>
        <time>2022-07-14T06:05:37Z</time>
      </trkpt>
      <trkpt lat="47.09906" lon="-1.47433">
        <ele>75</ele>
        <time>2022-07-14T06:05:39Z</time>
      </trkpt>
      <trkpt lat="47.09912" lon="-1.47423">
        <ele>75</ele>
        <time>2022-07-14T06:05:41Z</time>
      </trkpt>
      <trkpt lat="47.09918" lon="-1.47411">
        <ele>76</ele>
        <time>2022-07-14T06:05:43Z</time>
      </trkpt>
      <trkpt lat="47.09924" lon="-1.474">
        <ele>76</ele>
        <time>2022-07-14T06:05:45Z</time>
      </trkpt>
      <trkpt lat="47.0993" lon="-1.47389">
        <ele>76</ele>
        <time>2022-07-14T06:05:47Z</time>
      </trkpt>
      <trkpt lat="47.09935" lon="-1.47378">
        <ele>77</ele>
        <time>2022-07-14T06:05:49Z</time>
      </trkpt>
      <trkpt lat="47.09941" lon="-1.47368">
        <ele>77</ele>
        <time>2022-07-14T06:05:51Z</time>
      </trkpt>
      <trkpt lat="47.09948" lon="-1.47357">
        <ele>77</ele>
        <time>2022-07-14T06:05:53Z</time>
      </trkpt>
      <trkpt lat="47.09954" lon="-1.47345">
        <ele>78</ele>
        <time>2022-07-14T06:05:55Z</time>
      </trkpt>
      <trkpt lat="47.0996" lon="-1.47334">
        <ele>78</ele>
        <time>2022-07-14T06:05:57Z</time>
      </trkpt>
      <trkpt lat="47.09966" lon="-1.47323">
        <ele>78</ele>
        <time>2022-07-14T06:05:59Z</time>
      </trkpt>
      <trkpt lat="47.09972" lon="-1.47311">
        <ele>78</ele>
        <time>2022-07-14T06:06:01Z</time>
      </trkpt>
      <trkpt lat="47.09978" lon="-1.473">
        <ele>79</ele>
        <time>2022-07-14T06:06:03Z</time>
      </trkpt>
      <trkpt lat="47.09984" lon="-1.4729">
        <ele>79</ele>
        <time>2022-07-14T06:06:05Z</time>
      </trkpt>
      <trkpt lat="47.0999" lon="-1.47279">
        <ele>79</ele>
        <time>2022-07-14T06:06:07Z</time>
      </trkpt>
      <trkpt lat="47.09996" lon="-1.47267">
        <ele>80</ele>
        <time>2022-07-14T06:06:09Z</time>
      </trkpt>
      <trkpt lat="47.10002" lon="-1.47256">
        <ele>80</ele>
        <time>2022-07-14T06:06:11Z</time>
      </trkpt>
      <trkpt lat="47.10009" lon="-1.47244">
        <ele>80</ele>
        <time>2022-07-14T06:06:13Z</time>
      </trkpt>
      <trkpt lat="47.10015" lon="-1.47232">
        <ele>80</ele>
        <time>2022-07-14T06:06:15Z</time>
      </trkpt>
      <trkpt lat="47.10022" lon="-1.47219">
        <ele>80</ele>
        <time>2022-07-14T06:06:17Z</time>
      </trkpt>
      <trkpt lat="47.10028" lon="-1.47205">
        <ele>79</ele>
        <time>2022-07-14T06:06:19Z</time>
      </trkpt>
      <trkpt lat="47.10036" lon="-1.47192">
        <ele>79</ele>
        <time>2022-07-14T06:06:21Z</time>
      </trkpt>
      <trkpt lat="47.10043" lon="-1.47178">
        <ele>79</ele>
        <time>2022-07-14T06:06:23Z</time>
      </trkpt>
      <trkpt lat="47.1005" lon="-1.47163">
        <ele>79</ele>
        <time>2022-07-14T06:06:25Z</time>
      </trkpt>
      <trkpt lat="47.10057" lon="-1.47149">
        <ele>78</ele>
        <time>2022-07-14T06:06:27Z</time>
      </trkpt>
      <trkpt lat="47.10064" lon="-1.47133">
        <ele>78</ele>
        <time>2022-07-14T06:06:29Z</time>
      </trkpt>
      <trkpt lat="47.1007" lon="-1.47116">
        <ele>77</ele>
        <time>2022-07-14T06:06:31Z</time>
      </trkpt>
      <trkpt lat="47.10076" lon="-1.47099">
        <ele>77</ele>
        <time>2022-07-14T06:06:33Z</time>
      </trkpt>
      <trkpt lat="47.10082" lon="-1.47082">
        <ele>77</ele>
        <time>2022-07-14T06:06:35Z</time>
      </trkpt>
      <trkpt lat="47.10087" lon="-1.47065">
        <ele>77</ele>
        <time>2022-07-14T06:06:37Z</time>
      </trkpt>
      <trkpt lat="47.10091" lon="-1.47047">
        <ele>77</ele>
        <time>2022-07-14T06:06:39Z</time>
      </trkpt>
      <trkpt lat="47.10096" lon="-1.4703">
        <ele>76</ele>
        <time>2022-07-14T06:06:41Z</time>
      </trkpt>
      <trkpt lat="47.101" lon="-1.47013">
        <ele>76</ele>
        <time>2022-07-14T06:06:43Z</time>
      </trkpt>
      <trkpt lat="47.10105" lon="-1.46997">
        <ele>76</ele>
        <time>2022-07-14T06:06:45Z</time>
      </trkpt>
      <trkpt lat="47.10109" lon="-1.46981">
        <ele>77</ele>
        <time>2022-07-14T06:06:47Z</time>
      </trkpt>
      <trkpt lat="47.10113" lon="-1.46966">
        <ele>77</ele>
        <time>2022-07-14T06:06:49Z</time>
      </trkpt>
      <trkpt lat="47.10116" lon="-1.46952">
        <ele>77</ele>
        <time>2022-07-14T06:06:51Z</time>
      </trkpt>
      <trkpt lat="47.1012" lon="-1.46939">
        <ele>78</ele>
        <time>2022-07-14T06:06:53Z</time>
      </trkpt>
      <trkpt lat="47.10123" lon="-1.46925">
        <ele>78</ele>
        <time>2022-07-14T06:06:55Z</time>
      </trkpt>
      <trkpt lat="47.10127" lon="-1.46912">
        <ele>78</ele>
        <time>2022-07-14T06:06:57Z</time>
      </trkpt>
      <trkpt lat="47.10131" lon="-1.46897">
        <ele>79</ele>
        <time>2022-07-14T06:06:59Z</time>
      </trkpt>
      <trkpt lat="47.10134" lon="-1.46883">
        <ele>79</ele>
        <time>2022-07-14T06:07:01Z</time>
      </trkpt>
      <trkpt lat="47.10138" lon="-1.46868">
        <ele>80</ele>
        <time>2022-07-14T06:07:03Z</time>
      </trkpt>
      <trkpt lat="47.10142" lon="-1.46854">
        <ele>80</ele>
        <time>2022-07-14T06:07:05Z</time>
      </trkpt>
      <trkpt lat="47.10145" lon="-1.4684">
        <ele>80</ele>
        <time>2022-07-14T06:07:07Z</time>
      </trkpt>
      <trkpt lat="47.10149" lon="-1.46826">
        <ele>80</ele>
        <time>2022-07-14T06:07:09Z</time>
      </trkpt>
      <trkpt lat="47.10152" lon="-1.46812">
        <ele>80</ele>
        <time>2022-07-14T06:07:11Z</time>
      </trkpt>
      <trkpt lat="47.10155" lon="-1.46799">
        <ele>81</ele>
        <time>2022-07-14T06:07:13Z</time>
      </trkpt>
      <trkpt lat="47.10158" lon="-1.46785">
        <ele>81</ele>
        <time>2022-07-14T06:07:15Z</time>
      </trkpt>
      <trkpt lat="47.10161" lon="-1.46771">
        <ele>81</ele>
        <time>2022-07-14T06:07:17Z</time>
      </trkpt>
      <trkpt lat="47.10164" lon="-1.46757">
        <ele>81</ele>
        <time>2022-07-14T06:07:19Z</time>
      </trkpt>
      <trkpt lat="47.10166" lon="-1.46742">
        <ele>82</ele>
        <time>2022-07-14T06:07:21Z</time>
      </trkpt>
      <trkpt lat="47.10168" lon="-1.46728">
        <ele>82</ele>
        <time>2022-07-14T06:07:23Z</time>
      </trkpt>
      <trkpt lat="47.1017" lon="-1.46713">
        <ele>83</ele>
        <time>2022-07-14T06:07:25Z</time>
      </trkpt>
      <trkpt lat="47.10172" lon="-1.46699">
        <ele>83</ele>
        <time>2022-07-14T06:07:27Z</time>
      </trkpt>
      <trkpt lat="47.10173" lon="-1.46685">
        <ele>83</ele>
        <time>2022-07-14T06:07:29Z</time>
      </trkpt>
      <trkpt lat="47.10175" lon="-1.46671">
        <ele>84</ele>
        <time>2022-07-14T06:07:31Z</time>
      </trkpt>
      <trkpt lat="47.10177" lon="-1.46658">
        <ele>84</ele>
        <time>2022-07-14T06:07:33Z</time>
      </trkpt>
      <trkpt lat="47.10179" lon="-1.46644">
        <ele>85</ele>
        <time>2022-07-14T06:07:35Z</time>
      </trkpt>
      <trkpt lat="47.10181" lon="-1.46631">
        <ele>85</ele>
        <time>2022-07-14T06:07:37Z</time>
      </trkpt>
      <trkpt lat="47.10183" lon="-1.46618">
        <ele>85</ele>
        <time>2022-07-14T06:07:39Z</time>
      </trkpt>
      <trkpt lat="47.10185" lon="-1.46604">
        <ele>85</ele>
        <time>2022-07-14T06:07:41Z</time>
      </trkpt>
      <trkpt lat="47.10187" lon="-1.46589">
        <ele>86</ele>
        <time>2022-07-14T06:07:43Z</time>
      </trkpt>
      <trkpt lat="47.10189" lon="-1.46576">
        <ele>86</ele>
        <time>2022-07-14T06:07:45Z</time>
      </trkpt>
      <trkpt lat="47.1019" lon="-1.46561">
        <ele>87</ele>
        <time>2022-07-14T06:07:47Z</time>
      </trkpt>
      <trkpt lat="47.10192" lon="-1.46548">
        <ele>87</ele>
        <time>2022-07-14T06:07:49Z</time>
      </trkpt>
      <trkpt lat="47.10192" lon="-1.46534">
        <ele>87</ele>
        <time>2022-07-14T06:07:51Z</time>
      </trkpt>
      <trkpt lat="47.10194" lon="-1.4652">
        <ele>87</ele>
        <time>2022-07-14T06:07:53Z</time>
      </trkpt>
      <trkpt lat="47.10194" lon="-1.46506">
        <ele>88</ele>
        <time>2022-07-14T06:07:55Z</time>
      </trkpt>
      <trkpt lat="47.10195" lon="-1.46493">
        <ele>88</ele>
        <time>2022-07-14T06:07:57Z</time>
      </trkpt>
      <trkpt lat="47.10196" lon="-1.46478">
        <ele>88</ele>
        <time>2022-07-14T06:07:59Z</time>
      </trkpt>
      <trkpt lat="47.10197" lon="-1.46465">
        <ele>89</ele>
        <time>2022-07-14T06:08:01Z</time>
      </trkpt>
      <trkpt lat="47.10197" lon="-1.46451">
        <ele>90</ele>
        <time>2022-07-14T06:08:03Z</time>
      </trkpt>
      <trkpt lat="47.10198" lon="-1.46437">
        <ele>91</ele>
        <time>2022-07-14T06:08:05Z</time>
      </trkpt>
      <trkpt lat="47.10199" lon="-1.46423">
        <ele>91</ele>
        <time>2022-07-14T06:08:07Z</time>
      </trkpt>
      <trkpt lat="47.102" lon="-1.46408">
        <ele>91</ele>
        <time>2022-07-14T06:08:09Z</time>
      </trkpt>
      <trkpt lat="47.10201" lon="-1.46394">
        <ele>91</ele>
        <time>2022-07-14T06:08:11Z</time>
      </trkpt>
      <trkpt lat="47.10204" lon="-1.4638">
        <ele>92</ele>
        <time>2022-07-14T06:08:13Z</time>
      </trkpt>
      <trkpt lat="47.10207" lon="-1.46366">
        <ele>92</ele>
        <time>2022-07-14T06:08:15Z</time>
      </trkpt>
      <trkpt lat="47.10211" lon="-1.46353">
        <ele>92</ele>
        <time>2022-07-14T06:08:17Z</time>
      </trkpt>
      <trkpt lat="47.10216" lon="-1.4634">
        <ele>92</ele>
        <time>2022-07-14T06:08:19Z</time>
      </trkpt>
      <trkpt lat="47.10222" lon="-1.46328">
        <ele>93</ele>
        <time>2022-07-14T06:08:21Z</time>
      </trkpt>
      <trkpt lat="47.10229" lon="-1.46318">
        <ele>93</ele>
        <time>2022-07-14T06:08:23Z</time>
      </trkpt>
      <trkpt lat="47.10236" lon="-1.46307">
        <ele>93</ele>
        <time>2022-07-14T06:08:25Z</time>
      </trkpt>
      <trkpt lat="47.10242" lon="-1.46297">
        <ele>93</ele>
        <time>2022-07-14T06:08:27Z</time>
      </trkpt>
      <trkpt lat="47.10249" lon="-1.46287">
        <ele>93</ele>
        <time>2022-07-14T06:08:29Z</time>
      </trkpt>
      <trkpt lat="47.10256" lon="-1.46278">
        <ele>94</ele>
        <time>2022-07-14T06:08:31Z</time>
      </trkpt>
      <trkpt lat="47.10262" lon="-1.46268">
        <ele>94</ele>
        <time>2022-07-14T06:08:33Z</time>
      </trkpt>
      <trkpt lat="47.10269" lon="-1.46258">
        <ele>94</ele>
        <time>2022-07-14T06:08:35Z</time>
      </trkpt>
      <trkpt lat="47.10275" lon="-1.46248">
        <ele>95</ele>
        <time>2022-07-14T06:08:37Z</time>
      </trkpt>
      <trkpt lat="47.10282" lon="-1.46238">
        <ele>95</ele>
        <time>2022-07-14T06:08:39Z</time>
      </trkpt>
      <trkpt lat="47.10289" lon="-1.46224">
        <ele>96</ele>
        <time>2022-07-14T06:08:42Z</time>
      </trkpt>
      <trkpt lat="47.10288" lon="-1.46208">
        <ele>96</ele>
        <time>2022-07-14T06:08:47Z</time>
      </trkpt>
      <trkpt lat="47.1028" lon="-1.46191">
        <ele>97</ele>
        <time>2022-07-14T06:08:50Z</time>
      </trkpt>
      <trkpt lat="47.10272" lon="-1.46179">
        <ele>97</ele>
        <time>2022-07-14T06:08:52Z</time>
      </trkpt>
      <trkpt lat="47.10264" lon="-1.46166">
        <ele>97</ele>
        <time>2022-07-14T06:08:54Z</time>
      </trkpt>
      <trkpt lat="47.10257" lon="-1.46154">
        <ele>98</ele>
        <time>2022-07-14T06:08:56Z</time>
      </trkpt>
      <trkpt lat="47.10249" lon="-1.4614">
        <ele>98</ele>
        <time>2022-07-14T06:08:58Z</time>
      </trkpt>
      <trkpt lat="47.10242" lon="-1.46127">
        <ele>98</ele>
        <time>2022-07-14T06:09:00Z</time>
      </trkpt>
      <trkpt lat="47.10234" lon="-1.46113">
        <ele>99</ele>
        <time>2022-07-14T06:09:02Z</time>
      </trkpt>
      <trkpt lat="47.10226" lon="-1.461">
        <ele>99</ele>
        <time>2022-07-14T06:09:04Z</time>
      </trkpt>
      <trkpt lat="47.10219" lon="-1.46086">
        <ele>99</ele>
        <time>2022-07-14T06:09:06Z</time>
      </trkpt>
      <trkpt lat="47.10211" lon="-1.46072">
        <ele>100</ele>
        <time>2022-07-14T06:09:08Z</time>
      </trkpt>
      <trkpt lat="47.10204" lon="-1.46058">
        <ele>100</ele>
        <time>2022-07-14T06:09:10Z</time>
      </trkpt>
      <trkpt lat="47.10196" lon="-1.46045">
        <ele>100</ele>
        <time>2022-07-14T06:09:12Z</time>
      </trkpt>
      <trkpt lat="47.10188" lon="-1.46031">
        <ele>100</ele>
        <time>2022-07-14T06:09:14Z</time>
      </trkpt>
      <trkpt lat="47.1018" lon="-1.46017">
        <ele>100</ele>
        <time>2022-07-14T06:09:16Z</time>
      </trkpt>
      <trkpt lat="47.10172" lon="-1.46003">
        <ele>100</ele>
        <time>2022-07-14T06:09:18Z</time>
      </trkpt>
      <trkpt lat="47.10164" lon="-1.45989">
        <ele>100</ele>
        <time>2022-07-14T06:09:20Z</time>
      </trkpt>
      <trkpt lat="47.10156" lon="-1.45974">
        <ele>101</ele>
        <time>2022-07-14T06:09:22Z</time>
      </trkpt>
      <trkpt lat="47.10148" lon="-1.4596">
        <ele>100</ele>
        <time>2022-07-14T06:09:24Z</time>
      </trkpt>
      <trkpt lat="47.10141" lon="-1.45946">
        <ele>100</ele>
        <time>2022-07-14T06:09:26Z</time>
      </trkpt>
      <trkpt lat="47.10133" lon="-1.45931">
        <ele>101</ele>
        <time>2022-07-14T06:09:28Z</time>
      </trkpt>
      <trkpt lat="47.10125" lon="-1.45918">
        <ele>101</ele>
        <time>2022-07-14T06:09:30Z</time>
      </trkpt>
      <trkpt lat="47.10117" lon="-1.45903">
        <ele>101</ele>
        <time>2022-07-14T06:09:32Z</time>
      </trkpt>
      <trkpt lat="47.1011" lon="-1.45889">
        <ele>101</ele>
        <time>2022-07-14T06:09:34Z</time>
      </trkpt>
      <trkpt lat="47.10101" lon="-1.45875">
        <ele>101</ele>
        <time>2022-07-14T06:09:36Z</time>
      </trkpt>
      <trkpt lat="47.10094" lon="-1.4586">
        <ele>100</ele>
        <time>2022-07-14T06:09:38Z</time>
      </trkpt>
      <trkpt lat="47.10086" lon="-1.45845">
        <ele>100</ele>
        <time>2022-07-14T06:09:40Z</time>
      </trkpt>
      <trkpt lat="47.10078" lon="-1.45829">
        <ele>100</ele>
        <time>2022-07-14T06:09:42Z</time>
      </trkpt>
      <trkpt lat="47.1007" lon="-1.45814">
        <ele>100</ele>
        <time>2022-07-14T06:09:44Z</time>
      </trkpt>
      <trkpt lat="47.10062" lon="-1.45798">
        <ele>100</ele>
        <time>2022-07-14T06:09:46Z</time>
      </trkpt>
      <trkpt lat="47.10054" lon="-1.45783">
        <ele>100</ele>
        <time>2022-07-14T06:09:48Z</time>
      </trkpt>
      <trkpt lat="47.10046" lon="-1.45767">
        <ele>100</ele>
        <time>2022-07-14T06:09:50Z</time>
      </trkpt>
      <trkpt lat="47.10038" lon="-1.45751">
        <ele>100</ele>
        <time>2022-07-14T06:09:52Z</time>
      </trkpt>
      <trkpt lat="47.1003" lon="-1.45735">
        <ele>100</ele>
        <time>2022-07-14T06:09:54Z</time>
      </trkpt>
      <trkpt lat="47.10022" lon="-1.45719">
        <ele>100</ele>
        <time>2022-07-14T06:09:56Z</time>
      </trkpt>
      <trkpt lat="47.10013" lon="-1.45703">
        <ele>99</ele>
        <time>2022-07-14T06:09:58Z</time>
      </trkpt>
      <trkpt lat="47.10005" lon="-1.45687">
        <ele>99</ele>
        <time>2022-07-14T06:10:00Z</time>
      </trkpt>
      <trkpt lat="47.09997" lon="-1.45671">
        <ele>99</ele>
        <time>2022-07-14T06:10:02Z</time>
      </trkpt>
      <trkpt lat="47.09989" lon="-1.45655">
        <ele>99</ele>
        <time>2022-07-14T06:10:04Z</time>
      </trkpt>
      <trkpt lat="47.09981" lon="-1.4564">
        <ele>100</ele>
        <time>2022-07-14T06:10:06Z</time>
      </trkpt>
      <trkpt lat="47.09972" lon="-1.45624">
        <ele>100</ele>
        <time>2022-07-14T06:10:08Z</time>
      </trkpt>
      <trkpt lat="47.09964" lon="-1.45609">
        <ele>100</ele>
        <time>2022-07-14T06:10:10Z</time>
      </trkpt>
      <trkpt lat="47.09956" lon="-1.45593">
        <ele>100</ele>
        <time>2022-07-14T06:10:12Z</time>
      </trkpt>
      <trkpt lat="47.09948" lon="-1.45579">
        <ele>100</ele>
        <time>2022-07-14T06:10:14Z</time>
      </trkpt>
      <trkpt lat="47.09941" lon="-1.45563">
        <ele>100</ele>
        <time>2022-07-14T06:10:16Z</time>
      </trkpt>
      <trkpt lat="47.09933" lon="-1.45547">
        <ele>100</ele>
        <time>2022-07-14T06:10:18Z</time>
      </trkpt>
      <trkpt lat="47.09925" lon="-1.4553">
        <ele>100</ele>
        <time>2022-07-14T06:10:20Z</time>
      </trkpt>
      <trkpt lat="47.09917" lon="-1.45513">
        <ele>100</ele>
        <time>2022-07-14T06:10:22Z</time>
      </trkpt>
      <trkpt lat="47.0991" lon="-1.45496">
        <ele>99</ele>
        <time>2022-07-14T06:10:24Z</time>
      </trkpt>
      <trkpt lat="47.09902" lon="-1.45478">
        <ele>99</ele>
        <time>2022-07-14T06:10:26Z</time>
      </trkpt>
      <trkpt lat="47.09894" lon="-1.4546">
        <ele>98</ele>
        <time>2022-07-14T06:10:28Z</time>
      </trkpt>
      <trkpt lat="47.09886" lon="-1.45442">
        <ele>98</ele>
        <time>2022-07-14T06:10:30Z</time>
      </trkpt>
      <trkpt lat="47.09879" lon="-1.45425">
        <ele>98</ele>
        <time>2022-07-14T06:10:32Z</time>
      </trkpt>
      <trkpt lat="47.0987" lon="-1.45407">
        <ele>98</ele>
        <time>2022-07-14T06:10:34Z</time>
      </trkpt>
      <trkpt lat="47.09862" lon="-1.45389">
        <ele>98</ele>
        <time>2022-07-14T06:10:36Z</time>
      </trkpt>
      <trkpt lat="47.09855" lon="-1.45371">
        <ele>98</ele>
        <time>2022-07-14T06:10:38Z</time>
      </trkpt>
      <trkpt lat="47.09847" lon="-1.45353">
        <ele>98</ele>
        <time>2022-07-14T06:10:40Z</time>
      </trkpt>
      <trkpt lat="47.0984" lon="-1.45334">
        <ele>98</ele>
        <time>2022-07-14T06:10:42Z</time>
      </trkpt>
      <trkpt lat="47.09831" lon="-1.45316">
        <ele>97</ele>
        <time>2022-07-14T06:10:44Z</time>
      </trkpt>
      <trkpt lat="47.09823" lon="-1.45297">
        <ele>97</ele>
        <time>2022-07-14T06:10:46Z</time>
      </trkpt>
      <trkpt lat="47.09815" lon="-1.45279">
        <ele>97</ele>
        <time>2022-07-14T06:10:48Z</time>
      </trkpt>
      <trkpt lat="47.09807" lon="-1.4526">
        <ele>96</ele>
        <time>2022-07-14T06:10:50Z</time>
      </trkpt>
      <trkpt lat="47.09799" lon="-1.45242">
        <ele>96</ele>
        <time>2022-07-14T06:10:52Z</time>
      </trkpt>
      <trkpt lat="47.09791" lon="-1.45224">
        <ele>96</ele>
        <time>2022-07-14T06:10:54Z</time>
      </trkpt>
      <trkpt lat="47.09783" lon="-1.45206">
        <ele>96</ele>
        <time>2022-07-14T06:10:56Z</time>
      </trkpt>
      <trkpt lat="47.09775" lon="-1.45188">
        <ele>96</ele>
        <time>2022-07-14T06:10:58Z</time>
      </trkpt>
      <trkpt lat="47.09767" lon="-1.4517">
        <ele>96</ele>
        <time>2022-07-14T06:11:00Z</time>
      </trkpt>
      <trkpt lat="47.09759" lon="-1.45152">
        <ele>95</ele>
        <time>2022-07-14T06:11:02Z</time>
      </trkpt>
      <trkpt lat="47.09751" lon="-1.45135">
        <ele>96</ele>
        <time>2022-07-14T06:11:04Z</time>
      </trkpt>
      <trkpt lat="47.09742" lon="-1.45118">
        <ele>96</ele>
        <time>2022-07-14T06:11:06Z</time>
      </trkpt>
      <trkpt lat="47.09734" lon="-1.45101">
        <ele>95</ele>
        <time>2022-07-14T06:11:08Z</time>
      </trkpt>
      <trkpt lat="47.09726" lon="-1.45083">
        <ele>96</ele>
        <time>2022-07-14T06:11:10Z</time>
      </trkpt>
      <trkpt lat="47.09718" lon="-1.45066">
        <ele>95</ele>
        <time>2022-07-14T06:11:12Z</time>
      </trkpt>
      <trkpt lat="47.09711" lon="-1.4505">
        <ele>95</ele>
        <time>2022-07-14T06:11:14Z</time>
      </trkpt>
      <trkpt lat="47.09703" lon="-1.45033">
        <ele>95</ele>
        <time>2022-07-14T06:11:16Z</time>
      </trkpt>
      <trkpt lat="47.09695" lon="-1.45017">
        <ele>95</ele>
        <time>2022-07-14T06:11:18Z</time>
      </trkpt>
      <trkpt lat="47.09687" lon="-1.45">
        <ele>95</ele>
        <time>2022-07-14T06:11:20Z</time>
      </trkpt>
      <trkpt lat="47.09677" lon="-1.44985">
        <ele>95</ele>
        <time>2022-07-14T06:11:22Z</time>
      </trkpt>
      <trkpt lat="47.09668" lon="-1.44972">
        <ele>95</ele>
        <time>2022-07-14T06:11:24Z</time>
      </trkpt>
      <trkpt lat="47.09656" lon="-1.44963">
        <ele>96</ele>
        <time>2022-07-14T06:11:26Z</time>
      </trkpt>
      <trkpt lat="47.09642" lon="-1.44959">
        <ele>96</ele>
        <time>2022-07-14T06:11:28Z</time>
      </trkpt>
      <trkpt lat="47.09632" lon="-1.44948">
        <ele>97</ele>
        <time>2022-07-14T06:11:30Z</time>
      </trkpt>
      <trkpt lat="47.09627" lon="-1.4493">
        <ele>97</ele>
        <time>2022-07-14T06:11:32Z</time>
      </trkpt>
      <trkpt lat="47.09629" lon="-1.44912">
        <ele>96</ele>
        <time>2022-07-14T06:11:34Z</time>
      </trkpt>
      <trkpt lat="47.09636" lon="-1.44895">
        <ele>96</ele>
        <time>2022-07-14T06:11:36Z</time>
      </trkpt>
      <trkpt lat="47.09648" lon="-1.44884">
        <ele>96</ele>
        <time>2022-07-14T06:11:38Z</time>
      </trkpt>
      <trkpt lat="47.09661" lon="-1.44876">
        <ele>96</ele>
        <time>2022-07-14T06:11:40Z</time>
      </trkpt>
      <trkpt lat="47.09671" lon="-1.44862">
        <ele>95</ele>
        <time>2022-07-14T06:11:42Z</time>
      </trkpt>
      <trkpt lat="47.09679" lon="-1.44844">
        <ele>95</ele>
        <time>2022-07-14T06:11:44Z</time>
      </trkpt>
      <trkpt lat="47.09686" lon="-1.44824">
        <ele>95</ele>
        <time>2022-07-14T06:11:46Z</time>
      </trkpt>
      <trkpt lat="47.09687" lon="-1.44803">
        <ele>95</ele>
        <time>2022-07-14T06:11:48Z</time>
      </trkpt>
      <trkpt lat="47.09684" lon="-1.44784">
        <ele>95</ele>
        <time>2022-07-14T06:11:50Z</time>
      </trkpt>
      <trkpt lat="47.09678" lon="-1.44767">
        <ele>95</ele>
        <time>2022-07-14T06:11:52Z</time>
      </trkpt>
      <trkpt lat="47.09669" lon="-1.44754">
        <ele>94</ele>
        <time>2022-07-14T06:11:54Z</time>
      </trkpt>
      <trkpt lat="47.09661" lon="-1.4474">
        <ele>95</ele>
        <time>2022-07-14T06:11:56Z</time>
      </trkpt>
      <trkpt lat="47.09654" lon="-1.44725">
        <ele>95</ele>
        <time>2022-07-14T06:11:58Z</time>
      </trkpt>
      <trkpt lat="47.09649" lon="-1.44709">
        <ele>95</ele>
        <time>2022-07-14T06:12:00Z</time>
      </trkpt>
      <trkpt lat="47.09647" lon="-1.44691">
        <ele>96</ele>
        <time>2022-07-14T06:12:02Z</time>
      </trkpt>
      <trkpt lat="47.09647" lon="-1.44673">
        <ele>96</ele>
        <time>2022-07-14T06:12:04Z</time>
      </trkpt>
      <trkpt lat="47.0965" lon="-1.44656">
        <ele>96</ele>
        <time>2022-07-14T06:12:06Z</time>
      </trkpt>
      <trkpt lat="47.09655" lon="-1.4464">
        <ele>96</ele>
        <time>2022-07-14T06:12:08Z</time>
      </trkpt>
      <trkpt lat="47.09662" lon="-1.44626">
        <ele>96</ele>
        <time>2022-07-14T06:12:10Z</time>
      </trkpt>
      <trkpt lat="47.09671" lon="-1.44614">
        <ele>96</ele>
        <time>2022-07-14T06:12:12Z</time>
      </trkpt>
      <trkpt lat="47.09682" lon="-1.44604">
        <ele>96</ele>
        <time>2022-07-14T06:12:14Z</time>
      </trkpt>
      <trkpt lat="47.09694" lon="-1.44595">
        <ele>96</ele>
        <time>2022-07-14T06:12:16Z</time>
      </trkpt>
      <trkpt lat="47.09706" lon="-1.44586">
        <ele>96</ele>
        <time>2022-07-14T06:12:18Z</time>
      </trkpt>
      <trkpt lat="47.09717" lon="-1.44579">
        <ele>96</ele>
        <time>2022-07-14T06:12:20Z</time>
      </trkpt>
      <trkpt lat="47.09729" lon="-1.44572">
        <ele>96</ele>
        <time>2022-07-14T06:12:22Z</time>
      </trkpt>
      <trkpt lat="47.09742" lon="-1.44566">
        <ele>95</ele>
        <time>2022-07-14T06:12:24Z</time>
      </trkpt>
      <trkpt lat="47.09755" lon="-1.44559">
        <ele>95</ele>
        <time>2022-07-14T06:12:26Z</time>
      </trkpt>
      <trkpt lat="47.09768" lon="-1.44553">
        <ele>95</ele>
        <time>2022-07-14T06:12:28Z</time>
      </trkpt>
      <trkpt lat="47.09782" lon="-1.44547">
        <ele>95</ele>
        <time>2022-07-14T06:12:30Z</time>
      </trkpt>
      <trkpt lat="47.09796" lon="-1.44541">
        <ele>95</ele>
        <time>2022-07-14T06:12:32Z</time>
      </trkpt>
      <trkpt lat="47.09811" lon="-1.44536">
        <ele>95</ele>
        <time>2022-07-14T06:12:34Z</time>
      </trkpt>
      <trkpt lat="47.09825" lon="-1.4453">
        <ele>94</ele>
        <time>2022-07-14T06:12:36Z</time>
      </trkpt>
      <trkpt lat="47.0984" lon="-1.44524">
        <ele>94</ele>
        <time>2022-07-14T06:12:38Z</time>
      </trkpt>
      <trkpt lat="47.09855" lon="-1.44519">
        <ele>93</ele>
        <time>2022-07-14T06:12:40Z</time>
      </trkpt>
      <trkpt lat="47.09871" lon="-1.44513">
        <ele>92</ele>
        <time>2022-07-14T06:12:42Z</time>
      </trkpt>
      <trkpt lat="47.09886" lon="-1.44507">
        <ele>92</ele>
        <time>2022-07-14T06:12:44Z</time>
      </trkpt>
      <trkpt lat="47.09902" lon="-1.44501">
        <ele>91</ele>
        <time>2022-07-14T06:12:46Z</time>
      </trkpt>
      <trkpt lat="47.09918" lon="-1.44495">
        <ele>90</ele>
        <time>2022-07-14T06:12:48Z</time>
      </trkpt>
      <trkpt lat="47.09935" lon="-1.44489">
        <ele>89</ele>
        <time>2022-07-14T06:12:50Z</time>
      </trkpt>
      <trkpt lat="47.09952" lon="-1.44482">
        <ele>88</ele>
        <time>2022-07-14T06:12:52Z</time>
      </trkpt>
      <trkpt lat="47.09961" lon="-1.44479">
        <ele>88</ele>
        <time>2022-07-14T06:12:53Z</time>
      </trkpt>
      <trkpt lat="47.09978" lon="-1.44472">
        <ele>87</ele>
        <time>2022-07-14T06:12:55Z</time>
      </trkpt>
      <trkpt lat="47.09995" lon="-1.44465">
        <ele>86</ele>
        <time>2022-07-14T06:12:57Z</time>
      </trkpt>
      <trkpt lat="47.10012" lon="-1.4446">
        <ele>85</ele>
        <time>2022-07-14T06:12:59Z</time>
      </trkpt>
      <trkpt lat="47.10029" lon="-1.44453">
        <ele>85</ele>
        <time>2022-07-14T06:13:01Z</time>
      </trkpt>
      <trkpt lat="47.10045" lon="-1.44447">
        <ele>84</ele>
        <time>2022-07-14T06:13:03Z</time>
      </trkpt>
      <trkpt lat="47.10061" lon="-1.4444">
        <ele>83</ele>
        <time>2022-07-14T06:13:05Z</time>
      </trkpt>
      <trkpt lat="47.10078" lon="-1.44434">
        <ele>82</ele>
        <time>2022-07-14T06:13:07Z</time>
      </trkpt>
      <trkpt lat="47.10094" lon="-1.44428">
        <ele>82</ele>
        <time>2022-07-14T06:13:09Z</time>
      </trkpt>
      <trkpt lat="47.10111" lon="-1.44421">
        <ele>81</ele>
        <time>2022-07-14T06:13:11Z</time>
      </trkpt>
      <trkpt lat="47.10126" lon="-1.44412">
        <ele>80</ele>
        <time>2022-07-14T06:13:13Z</time>
      </trkpt>
      <trkpt lat="47.10141" lon="-1.44399">
        <ele>80</ele>
        <time>2022-07-14T06:13:15Z</time>
      </trkpt>
      <trkpt lat="47.10154" lon="-1.44386">
        <ele>80</ele>
        <time>2022-07-14T06:13:17Z</time>
      </trkpt>
      <trkpt lat="47.10167" lon="-1.44371">
        <ele>80</ele>
        <time>2022-07-14T06:13:19Z</time>
      </trkpt>
      <trkpt lat="47.1018" lon="-1.44356">
        <ele>80</ele>
        <time>2022-07-14T06:13:21Z</time>
      </trkpt>
      <trkpt lat="47.10192" lon="-1.44343">
        <ele>81</ele>
        <time>2022-07-14T06:13:23Z</time>
      </trkpt>
      <trkpt lat="47.10204" lon="-1.44328">
        <ele>81</ele>
        <time>2022-07-14T06:13:25Z</time>
      </trkpt>
      <trkpt lat="47.10215" lon="-1.44314">
        <ele>81</ele>
        <time>2022-07-14T06:13:27Z</time>
      </trkpt>
      <trkpt lat="47.10227" lon="-1.44301">
        <ele>81</ele>
        <time>2022-07-14T06:13:29Z</time>
      </trkpt>
      <trkpt lat="47.10238" lon="-1.44288">
        <ele>81</ele>
        <time>2022-07-14T06:13:31Z</time>
      </trkpt>
      <trkpt lat="47.1025" lon="-1.44274">
        <ele>81</ele>
        <time>2022-07-14T06:13:33Z</time>
      </trkpt>
      <trkpt lat="47.10261" lon="-1.44261">
        <ele>81</ele>
        <time>2022-07-14T06:13:35Z</time>
      </trkpt>
      <trkpt lat="47.10273" lon="-1.44249">
        <ele>81</ele>
        <time>2022-07-14T06:13:37Z</time>
      </trkpt>
      <trkpt lat="47.10284" lon="-1.44238">
        <ele>81</ele>
        <time>2022-07-14T06:13:39Z</time>
      </trkpt>
      <trkpt lat="47.10297" lon="-1.44229">
        <ele>80</ele>
        <time>2022-07-14T06:13:41Z</time>
      </trkpt>
      <trkpt lat="47.10311" lon="-1.44222">
        <ele>80</ele>
        <time>2022-07-14T06:13:43Z</time>
      </trkpt>
      <trkpt lat="47.10324" lon="-1.44215">
        <ele>80</ele>
        <time>2022-07-14T06:13:45Z</time>
      </trkpt>
      <trkpt lat="47.10338" lon="-1.44209">
        <ele>80</ele>
        <time>2022-07-14T06:13:47Z</time>
      </trkpt>
      <trkpt lat="47.10351" lon="-1.44202">
        <ele>80</ele>
        <time>2022-07-14T06:13:49Z</time>
      </trkpt>
      <trkpt lat="47.10365" lon="-1.44196">
        <ele>80</ele>
        <time>2022-07-14T06:13:51Z</time>
      </trkpt>
      <trkpt lat="47.10377" lon="-1.4419">
        <ele>80</ele>
        <time>2022-07-14T06:13:53Z</time>
      </trkpt>
      <trkpt lat="47.1039" lon="-1.44183">
        <ele>80</ele>
        <time>2022-07-14T06:13:55Z</time>
      </trkpt>
      <trkpt lat="47.10402" lon="-1.44177">
        <ele>79</ele>
        <time>2022-07-14T06:13:57Z</time>
      </trkpt>
      <trkpt lat="47.10415" lon="-1.44171">
        <ele>79</ele>
        <time>2022-07-14T06:13:59Z</time>
      </trkpt>
      <trkpt lat="47.10428" lon="-1.44165">
        <ele>79</ele>
        <time>2022-07-14T06:14:01Z</time>
      </trkpt>
      <trkpt lat="47.1044" lon="-1.4416">
        <ele>79</ele>
        <time>2022-07-14T06:14:03Z</time>
      </trkpt>
      <trkpt lat="47.10452" lon="-1.44154">
        <ele>80</ele>
        <time>2022-07-14T06:14:05Z</time>
      </trkpt>
      <trkpt lat="47.10464" lon="-1.44149">
        <ele>82</ele>
        <time>2022-07-14T06:14:07Z</time>
      </trkpt>
      <trkpt lat="47.10476" lon="-1.44143">
        <ele>82</ele>
        <time>2022-07-14T06:14:09Z</time>
      </trkpt>
      <trkpt lat="47.10487" lon="-1.44137">
        <ele>83</ele>
        <time>2022-07-14T06:14:11Z</time>
      </trkpt>
      <trkpt lat="47.10497" lon="-1.4413">
        <ele>82</ele>
        <time>2022-07-14T06:14:13Z</time>
      </trkpt>
      <trkpt lat="47.10508" lon="-1.44123">
        <ele>82</ele>
        <time>2022-07-14T06:14:15Z</time>
      </trkpt>
      <trkpt lat="47.10518" lon="-1.44115">
        <ele>82</ele>
        <time>2022-07-14T06:14:17Z</time>
      </trkpt>
      <trkpt lat="47.10529" lon="-1.44108">
        <ele>81</ele>
        <time>2022-07-14T06:14:19Z</time>
      </trkpt>
      <trkpt lat="47.10539" lon="-1.44099">
        <ele>81</ele>
        <time>2022-07-14T06:14:21Z</time>
      </trkpt>
      <trkpt lat="47.1055" lon="-1.4409">
        <ele>81</ele>
        <time>2022-07-14T06:14:23Z</time>
      </trkpt>
      <trkpt lat="47.10561" lon="-1.44081">
        <ele>80</ele>
        <time>2022-07-14T06:14:25Z</time>
      </trkpt>
      <trkpt lat="47.1057" lon="-1.44072">
        <ele>81</ele>
        <time>2022-07-14T06:14:27Z</time>
      </trkpt>
      <trkpt lat="47.1058" lon="-1.44061">
        <ele>81</ele>
        <time>2022-07-14T06:14:29Z</time>
      </trkpt>
      <trkpt lat="47.1059" lon="-1.44051">
        <ele>81</ele>
        <time>2022-07-14T06:14:31Z</time>
      </trkpt>
      <trkpt lat="47.106" lon="-1.44042">
        <ele>81</ele>
        <time>2022-07-14T06:14:33Z</time>
      </trkpt>
      <trkpt lat="47.10611" lon="-1.44035">
        <ele>82</ele>
        <time>2022-07-14T06:14:35Z</time>
      </trkpt>
      <trkpt lat="47.10622" lon="-1.44028">
        <ele>82</ele>
        <time>2022-07-14T06:14:37Z</time>
      </trkpt>
      <trkpt lat="47.10632" lon="-1.44022">
        <ele>82</ele>
        <time>2022-07-14T06:14:39Z</time>
      </trkpt>
      <trkpt lat="47.10642" lon="-1.44015">
        <ele>82</ele>
        <time>2022-07-14T06:14:41Z</time>
      </trkpt>
      <trkpt lat="47.10652" lon="-1.44009">
        <ele>83</ele>
        <time>2022-07-14T06:14:43Z</time>
      </trkpt>
      <trkpt lat="47.10661" lon="-1.44003">
        <ele>83</ele>
        <time>2022-07-14T06:14:45Z</time>
      </trkpt>
      <trkpt lat="47.10671" lon="-1.43997">
        <ele>83</ele>
        <time>2022-07-14T06:14:47Z</time>
      </trkpt>
      <trkpt lat="47.10681" lon="-1.43992">
        <ele>83</ele>
        <time>2022-07-14T06:14:49Z</time>
      </trkpt>
      <trkpt lat="47.10691" lon="-1.43987">
        <ele>83</ele>
        <time>2022-07-14T06:14:51Z</time>
      </trkpt>
      <trkpt lat="47.107" lon="-1.43981">
        <ele>83</ele>
        <time>2022-07-14T06:14:53Z</time>
      </trkpt>
      <trkpt lat="47.10714" lon="-1.43971">
        <ele>83</ele>
        <time>2022-07-14T06:14:56Z</time>
      </trkpt>
      <trkpt lat="47.10723" lon="-1.43963">
        <ele>83</ele>
        <time>2022-07-14T06:14:58Z</time>
      </trkpt>
      <trkpt lat="47.10732" lon="-1.43954">
        <ele>84</ele>
        <time>2022-07-14T06:15:00Z</time>
      </trkpt>
      <trkpt lat="47.1074" lon="-1.43945">
        <ele>84</ele>
        <time>2022-07-14T06:15:02Z</time>
      </trkpt>
      <trkpt lat="47.10748" lon="-1.43936">
        <ele>84</ele>
        <time>2022-07-14T06:15:04Z</time>
      </trkpt>
      <trkpt lat="47.10757" lon="-1.43928">
        <ele>84</ele>
        <time>2022-07-14T06:15:06Z</time>
      </trkpt>
      <trkpt lat="47.10766" lon="-1.43921">
        <ele>85</ele>
        <time>2022-07-14T06:15:08Z</time>
      </trkpt>
      <trkpt lat="47.10775" lon="-1.43915">
        <ele>85</ele>
        <time>2022-07-14T06:15:10Z</time>
      </trkpt>
      <trkpt lat="47.10784" lon="-1.43907">
        <ele>86</ele>
        <time>2022-07-14T06:15:12Z</time>
      </trkpt>
      <trkpt lat="47.10792" lon="-1.43899">
        <ele>86</ele>
        <time>2022-07-14T06:15:14Z</time>
      </trkpt>
      <trkpt lat="47.10801" lon="-1.43891">
        <ele>86</ele>
        <time>2022-07-14T06:15:16Z</time>
      </trkpt>
      <trkpt lat="47.10809" lon="-1.43884">
        <ele>86</ele>
        <time>2022-07-14T06:15:18Z</time>
      </trkpt>
      <trkpt lat="47.10817" lon="-1.43877">
        <ele>86</ele>
        <time>2022-07-14T06:15:20Z</time>
      </trkpt>
      <trkpt lat="47.10826" lon="-1.43871">
        <ele>87</ele>
        <time>2022-07-14T06:15:22Z</time>
      </trkpt>
      <trkpt lat="47.10834" lon="-1.43863">
        <ele>86</ele>
        <time>2022-07-14T06:15:24Z</time>
      </trkpt>
      <trkpt lat="47.10843" lon="-1.43854">
        <ele>86</ele>
        <time>2022-07-14T06:15:26Z</time>
      </trkpt>
      <trkpt lat="47.10851" lon="-1.43845">
        <ele>86</ele>
        <time>2022-07-14T06:15:28Z</time>
      </trkpt>
      <trkpt lat="47.1086" lon="-1.43837">
        <ele>87</ele>
        <time>2022-07-14T06:15:30Z</time>
      </trkpt>
      <trkpt lat="47.10869" lon="-1.43829">
        <ele>87</ele>
        <time>2022-07-14T06:15:32Z</time>
      </trkpt>
      <trkpt lat="47.10878" lon="-1.43822">
        <ele>87</ele>
        <time>2022-07-14T06:15:34Z</time>
      </trkpt>
      <trkpt lat="47.10887" lon="-1.43814">
        <ele>88</ele>
        <time>2022-07-14T06:15:36Z</time>
      </trkpt>
      <trkpt lat="47.10895" lon="-1.43805">
        <ele>88</ele>
        <time>2022-07-14T06:15:38Z</time>
      </trkpt>
      <trkpt lat="47.10904" lon="-1.43797">
        <ele>88</ele>
        <time>2022-07-14T06:15:40Z</time>
      </trkpt>
      <trkpt lat="47.10912" lon="-1.43788">
        <ele>89</ele>
        <time>2022-07-14T06:15:42Z</time>
      </trkpt>
      <trkpt lat="47.1092" lon="-1.4378">
        <ele>88</ele>
        <time>2022-07-14T06:15:44Z</time>
      </trkpt>
      <trkpt lat="47.10929" lon="-1.4377">
        <ele>89</ele>
        <time>2022-07-14T06:15:46Z</time>
      </trkpt>
      <trkpt lat="47.10937" lon="-1.43761">
        <ele>88</ele>
        <time>2022-07-14T06:15:48Z</time>
      </trkpt>
      <trkpt lat="47.10945" lon="-1.43753">
        <ele>88</ele>
        <time>2022-07-14T06:15:50Z</time>
      </trkpt>
      <trkpt lat="47.10954" lon="-1.43744">
        <ele>89</ele>
        <time>2022-07-14T06:15:52Z</time>
      </trkpt>
      <trkpt lat="47.10962" lon="-1.43736">
        <ele>89</ele>
        <time>2022-07-14T06:15:54Z</time>
      </trkpt>
      <trkpt lat="47.1097" lon="-1.43727">
        <ele>88</ele>
        <time>2022-07-14T06:15:56Z</time>
      </trkpt>
      <trkpt lat="47.10979" lon="-1.43719">
        <ele>89</ele>
        <time>2022-07-14T06:15:58Z</time>
      </trkpt>
      <trkpt lat="47.10987" lon="-1.43711">
        <ele>89</ele>
        <time>2022-07-14T06:16:00Z</time>
      </trkpt>
      <trkpt lat="47.10995" lon="-1.43702">
        <ele>88</ele>
        <time>2022-07-14T06:16:02Z</time>
      </trkpt>
      <trkpt lat="47.11003" lon="-1.43693">
        <ele>88</ele>
        <time>2022-07-14T06:16:04Z</time>
      </trkpt>
      <trkpt lat="47.11011" lon="-1.43683">
        <ele>89</ele>
        <time>2022-07-14T06:16:06Z</time>
      </trkpt>
      <trkpt lat="47.11019" lon="-1.43673">
        <ele>89</ele>
        <time>2022-07-14T06:16:08Z</time>
      </trkpt>
      <trkpt lat="47.11028" lon="-1.43662">
        <ele>89</ele>
        <time>2022-07-14T06:16:10Z</time>
      </trkpt>
      <trkpt lat="47.11036" lon="-1.43653">
        <ele>90</ele>
        <time>2022-07-14T06:16:12Z</time>
      </trkpt>
      <trkpt lat="47.11044" lon="-1.43642">
        <ele>90</ele>
        <time>2022-07-14T06:16:14Z</time>
      </trkpt>
      <trkpt lat="47.1105" lon="-1.43632">
        <ele>91</ele>
        <time>2022-07-14T06:16:16Z</time>
      </trkpt>
      <trkpt lat="47.11057" lon="-1.43623">
        <ele>91</ele>
        <time>2022-07-14T06:16:18Z</time>
      </trkpt>
      <trkpt lat="47.11065" lon="-1.43614">
        <ele>92</ele>
        <time>2022-07-14T06:16:20Z</time>
      </trkpt>
      <trkpt lat="47.11073" lon="-1.43605">
        <ele>92</ele>
        <time>2022-07-14T06:16:22Z</time>
      </trkpt>
      <trkpt lat="47.11081" lon="-1.43596">
        <ele>93</ele>
        <time>2022-07-14T06:16:24Z</time>
      </trkpt>
      <trkpt lat="47.11089" lon="-1.43588">
        <ele>94</ele>
        <time>2022-07-14T06:16:26Z</time>
      </trkpt>
      <trkpt lat="47.11098" lon="-1.43581">
        <ele>94</ele>
        <time>2022-07-14T06:16:28Z</time>
      </trkpt>
      <trkpt lat="47.11106" lon="-1.43571">
        <ele>94</ele>
        <time>2022-07-14T06:16:30Z</time>
      </trkpt>
      <trkpt lat="47.11113" lon="-1.43561">
        <ele>94</ele>
        <time>2022-07-14T06:16:32Z</time>
      </trkpt>
      <trkpt lat="47.11119" lon="-1.4355">
        <ele>94</ele>
        <time>2022-07-14T06:16:34Z</time>
      </trkpt>
      <trkpt lat="47.11126" lon="-1.43539">
        <ele>93</ele>
        <time>2022-07-14T06:16:36Z</time>
      </trkpt>
      <trkpt lat="47.11133" lon="-1.43527">
        <ele>93</ele>
        <time>2022-07-14T06:16:38Z</time>
      </trkpt>
      <trkpt lat="47.1114" lon="-1.43515">
        <ele>94</ele>
        <time>2022-07-14T06:16:40Z</time>
      </trkpt>
      <trkpt lat="47.11147" lon="-1.43503">
        <ele>94</ele>
        <time>2022-07-14T06:16:42Z</time>
      </trkpt>
      <trkpt lat="47.11154" lon="-1.43491">
        <ele>94</ele>
        <time>2022-07-14T06:16:44Z</time>
      </trkpt>
      <trkpt lat="47.11161" lon="-1.43479">
        <ele>94</ele>
        <time>2022-07-14T06:16:46Z</time>
      </trkpt>
      <trkpt lat="47.11168" lon="-1.43467">
        <ele>94</ele>
        <time>2022-07-14T06:16:48Z</time>
      </trkpt>
      <trkpt lat="47.11175" lon="-1.43455">
        <ele>94</ele>
        <time>2022-07-14T06:16:50Z</time>
      </trkpt>
      <trkpt lat="47.11181" lon="-1.43443">
        <ele>94</ele>
        <time>2022-07-14T06:16:52Z</time>
      </trkpt>
      <trkpt lat="47.11188" lon="-1.43431">
        <ele>94</ele>
        <time>2022-07-14T06:16:54Z</time>
      </trkpt>
      <trkpt lat="47.11195" lon="-1.43419">
        <ele>95</ele>
        <time>2022-07-14T06:16:56Z</time>
      </trkpt>
      <trkpt lat="47.11203" lon="-1.43406">
        <ele>94</ele>
        <time>2022-07-14T06:16:58Z</time>
      </trkpt>
      <trkpt lat="47.1121" lon="-1.43393">
        <ele>94</ele>
        <time>2022-07-14T06:17:00Z</time>
      </trkpt>
      <trkpt lat="47.11217" lon="-1.4338">
        <ele>95</ele>
        <time>2022-07-14T06:17:02Z</time>
      </trkpt>
      <trkpt lat="47.11225" lon="-1.43367">
        <ele>94</ele>
        <time>2022-07-14T06:17:04Z</time>
      </trkpt>
      <trkpt lat="47.11232" lon="-1.43354">
        <ele>94</ele>
        <time>2022-07-14T06:17:06Z</time>
      </trkpt>
      <trkpt lat="47.11241" lon="-1.4334">
        <ele>94</ele>
        <time>2022-07-14T06:17:08Z</time>
      </trkpt>
      <trkpt lat="47.11248" lon="-1.43328">
        <ele>94</ele>
        <time>2022-07-14T06:17:10Z</time>
      </trkpt>
      <trkpt lat="47.11257" lon="-1.43315">
        <ele>94</ele>
        <time>2022-07-14T06:17:12Z</time>
      </trkpt>
      <trkpt lat="47.11266" lon="-1.43303">
        <ele>94</ele>
        <time>2022-07-14T06:17:14Z</time>
      </trkpt>
      <trkpt lat="47.11276" lon="-1.43292">
        <ele>93</ele>
        <time>2022-07-14T06:17:16Z</time>
      </trkpt>
      <trkpt lat="47.11285" lon="-1.43281">
        <ele>92</ele>
        <time>2022-07-14T06:17:18Z</time>
      </trkpt>
      <trkpt lat="47.11295" lon="-1.4327">
        <ele>92</ele>
        <time>2022-07-14T06:17:20Z</time>
      </trkpt>
      <trkpt lat="47.11304" lon="-1.43258">
        <ele>92</ele>
        <time>2022-07-14T06:17:22Z</time>
      </trkpt>
      <trkpt lat="47.11314" lon="-1.43247">
        <ele>92</ele>
        <time>2022-07-14T06:17:24Z</time>
      </trkpt>
      <trkpt lat="47.11324" lon="-1.43236">
        <ele>91</ele>
        <time>2022-07-14T06:17:26Z</time>
      </trkpt>
      <trkpt lat="47.11334" lon="-1.43224">
        <ele>90</ele>
        <time>2022-07-14T06:17:28Z</time>
      </trkpt>
      <trkpt lat="47.11344" lon="-1.43212">
        <ele>90</ele>
        <time>2022-07-14T06:17:30Z</time>
      </trkpt>
      <trkpt lat="47.11354" lon="-1.432">
        <ele>90</ele>
        <time>2022-07-14T06:17:32Z</time>
      </trkpt>
      <trkpt lat="47.11364" lon="-1.43187">
        <ele>90</ele>
        <time>2022-07-14T06:17:34Z</time>
      </trkpt>
      <trkpt lat="47.11374" lon="-1.43175">
        <ele>90</ele>
        <time>2022-07-14T06:17:36Z</time>
      </trkpt>
      <trkpt lat="47.11383" lon="-1.43163">
        <ele>90</ele>
        <time>2022-07-14T06:17:38Z</time>
      </trkpt>
      <trkpt lat="47.11393" lon="-1.43151">
        <ele>89</ele>
        <time>2022-07-14T06:17:40Z</time>
      </trkpt>
      <trkpt lat="47.11403" lon="-1.43138">
        <ele>89</ele>
        <time>2022-07-14T06:17:42Z</time>
      </trkpt>
      <trkpt lat="47.11413" lon="-1.43125">
        <ele>89</ele>
        <time>2022-07-14T06:17:44Z</time>
      </trkpt>
      <trkpt lat="47.11423" lon="-1.43112">
        <ele>89</ele>
        <time>2022-07-14T06:17:46Z</time>
      </trkpt>
      <trkpt lat="47.11433" lon="-1.43099">
        <ele>89</ele>
        <time>2022-07-14T06:17:48Z</time>
      </trkpt>
      <trkpt lat="47.11444" lon="-1.43088">
        <ele>88</ele>
        <time>2022-07-14T06:17:50Z</time>
      </trkpt>
      <trkpt lat="47.11456" lon="-1.43077">
        <ele>89</ele>
        <time>2022-07-14T06:17:52Z</time>
      </trkpt>
      <trkpt lat="47.11467" lon="-1.43065">
        <ele>88</ele>
        <time>2022-07-14T06:17:54Z</time>
      </trkpt>
      <trkpt lat="47.11479" lon="-1.43054">
        <ele>88</ele>
        <time>2022-07-14T06:17:56Z</time>
      </trkpt>
      <trkpt lat="47.11492" lon="-1.43042">
        <ele>88</ele>
        <time>2022-07-14T06:17:58Z</time>
      </trkpt>
      <trkpt lat="47.11505" lon="-1.4303">
        <ele>87</ele>
        <time>2022-07-14T06:18:00Z</time>
      </trkpt>
      <trkpt lat="47.11518" lon="-1.43019">
        <ele>86</ele>
        <time>2022-07-14T06:18:02Z</time>
      </trkpt>
      <trkpt lat="47.1153" lon="-1.43007">
        <ele>86</ele>
        <time>2022-07-14T06:18:04Z</time>
      </trkpt>
      <trkpt lat="47.11544" lon="-1.42995">
        <ele>84</ele>
        <time>2022-07-14T06:18:06Z</time>
      </trkpt>
      <trkpt lat="47.11556" lon="-1.42983">
        <ele>84</ele>
        <time>2022-07-14T06:18:08Z</time>
      </trkpt>
      <trkpt lat="47.11569" lon="-1.42971">
        <ele>84</ele>
        <time>2022-07-14T06:18:10Z</time>
      </trkpt>
      <trkpt lat="47.11582" lon="-1.42959">
        <ele>84</ele>
        <time>2022-07-14T06:18:12Z</time>
      </trkpt>
      <trkpt lat="47.11596" lon="-1.42946">
        <ele>82</ele>
        <time>2022-07-14T06:18:14Z</time>
      </trkpt>
      <trkpt lat="47.11609" lon="-1.42931">
        <ele>81</ele>
        <time>2022-07-14T06:18:16Z</time>
      </trkpt>
      <trkpt lat="47.11621" lon="-1.42915">
        <ele>80</ele>
        <time>2022-07-14T06:18:18Z</time>
      </trkpt>
      <trkpt lat="47.11632" lon="-1.42897">
        <ele>80</ele>
        <time>2022-07-14T06:18:20Z</time>
      </trkpt>
      <trkpt lat="47.11641" lon="-1.42878">
        <ele>81</ele>
        <time>2022-07-14T06:18:22Z</time>
      </trkpt>
      <trkpt lat="47.11649" lon="-1.42859">
        <ele>81</ele>
        <time>2022-07-14T06:18:24Z</time>
      </trkpt>
      <trkpt lat="47.11657" lon="-1.42841">
        <ele>80</ele>
        <time>2022-07-14T06:18:26Z</time>
      </trkpt>
      <trkpt lat="47.11664" lon="-1.42823">
        <ele>81</ele>
        <time>2022-07-14T06:18:28Z</time>
      </trkpt>
      <trkpt lat="47.11671" lon="-1.42806">
        <ele>82</ele>
        <time>2022-07-14T06:18:30Z</time>
      </trkpt>
      <trkpt lat="47.11677" lon="-1.4279">
        <ele>82</ele>
        <time>2022-07-14T06:18:32Z</time>
      </trkpt>
      <trkpt lat="47.11681" lon="-1.42775">
        <ele>82</ele>
        <time>2022-07-14T06:18:34Z</time>
      </trkpt>
      <trkpt lat="47.11684" lon="-1.42761">
        <ele>82</ele>
        <time>2022-07-14T06:18:36Z</time>
      </trkpt>
      <trkpt lat="47.11688" lon="-1.42742">
        <ele>82</ele>
        <time>2022-07-14T06:18:39Z</time>
      </trkpt>
      <trkpt lat="47.11692" lon="-1.42726">
        <ele>82</ele>
        <time>2022-07-14T06:18:42Z</time>
      </trkpt>
      <trkpt lat="47.11699" lon="-1.42712">
        <ele>83</ele>
        <time>2022-07-14T06:18:45Z</time>
      </trkpt>
      <trkpt lat="47.11706" lon="-1.427">
        <ele>84</ele>
        <time>2022-07-14T06:18:48Z</time>
      </trkpt>
      <trkpt lat="47.11717" lon="-1.4269">
        <ele>85</ele>
        <time>2022-07-14T06:18:51Z</time>
      </trkpt>
      <trkpt lat="47.11728" lon="-1.42683">
        <ele>86</ele>
        <time>2022-07-14T06:18:54Z</time>
      </trkpt>
      <trkpt lat="47.1174" lon="-1.42676">
        <ele>86</ele>
        <time>2022-07-14T06:18:57Z</time>
      </trkpt>
      <trkpt lat="47.11751" lon="-1.42669">
        <ele>86</ele>
        <time>2022-07-14T06:19:00Z</time>
      </trkpt>
      <trkpt lat="47.11761" lon="-1.42662">
        <ele>86</ele>
        <time>2022-07-14T06:19:03Z</time>
      </trkpt>
      <trkpt lat="47.11773" lon="-1.42654">
        <ele>87</ele>
        <time>2022-07-14T06:19:06Z</time>
      </trkpt>
      <trkpt lat="47.11784" lon="-1.42648">
        <ele>87</ele>
        <time>2022-07-14T06:19:09Z</time>
      </trkpt>
      <trkpt lat="47.11795" lon="-1.42641">
        <ele>87</ele>
        <time>2022-07-14T06:19:12Z</time>
      </trkpt>
      <trkpt lat="47.11806" lon="-1.42635">
        <ele>88</ele>
        <time>2022-07-14T06:19:15Z</time>
      </trkpt>
      <trkpt lat="47.11816" lon="-1.42628">
        <ele>89</ele>
        <time>2022-07-14T06:19:18Z</time>
      </trkpt>
      <trkpt lat="47.11828" lon="-1.42621">
        <ele>89</ele>
        <time>2022-07-14T06:19:21Z</time>
      </trkpt>
      <trkpt lat="47.11839" lon="-1.42615">
        <ele>90</ele>
        <time>2022-07-14T06:19:24Z</time>
      </trkpt>
      <trkpt lat="47.1185" lon="-1.42607">
        <ele>91</ele>
        <time>2022-07-14T06:19:27Z</time>
      </trkpt>
      <trkpt lat="47.11861" lon="-1.42599">
        <ele>92</ele>
        <time>2022-07-14T06:19:30Z</time>
      </trkpt>
      <trkpt lat="47.11872" lon="-1.42591">
        <ele>94</ele>
        <time>2022-07-14T06:19:33Z</time>
      </trkpt>
      <trkpt lat="47.11882" lon="-1.42581">
        <ele>95</ele>
        <time>2022-07-14T06:19:36Z</time>
      </trkpt>
      <trkpt lat="47.11892" lon="-1.42571">
        <ele>96</ele>
        <time>2022-07-14T06:19:39Z</time>
      </trkpt>
      <trkpt lat="47.11902" lon="-1.42562">
        <ele>97</ele>
        <time>2022-07-14T06:19:42Z</time>
      </trkpt>
      <trkpt lat="47.11911" lon="-1.42552">
        <ele>98</ele>
        <time>2022-07-14T06:19:45Z</time>
      </trkpt>
      <trkpt lat="47.11921" lon="-1.42543">
        <ele>99</ele>
        <time>2022-07-14T06:19:48Z</time>
      </trkpt>
      <trkpt lat="47.11931" lon="-1.42533">
        <ele>99</ele>
        <time>2022-07-14T06:19:51Z</time>
      </trkpt>
      <trkpt lat="47.11942" lon="-1.42522">
        <ele>99</ele>
        <time>2022-07-14T06:19:54Z</time>
      </trkpt>
      <trkpt lat="47.11952" lon="-1.42511">
        <ele>99</ele>
        <time>2022-07-14T06:19:57Z</time>
      </trkpt>
      <trkpt lat="47.11963" lon="-1.42501">
        <ele>99</ele>
        <time>2022-07-14T06:20:00Z</time>
      </trkpt>
      <trkpt lat="47.11973" lon="-1.4249">
        <ele>100</ele>
        <time>2022-07-14T06:20:03Z</time>
      </trkpt>
      <trkpt lat="47.11984" lon="-1.4248">
        <ele>100</ele>
        <time>2022-07-14T06:20:06Z</time>
      </trkpt>
      <trkpt lat="47.11995" lon="-1.4247">
        <ele>100</ele>
        <time>2022-07-14T06:20:09Z</time>
      </trkpt>
      <trkpt lat="47.12003" lon="-1.42462">
        <ele>100</ele>
        <time>2022-07-14T06:20:11Z</time>
      </trkpt>
      <trkpt lat="47.1201" lon="-1.42455">
        <ele>101</ele>
        <time>2022-07-14T06:20:13Z</time>
      </trkpt>
      <trkpt lat="47.12018" lon="-1.42447">
        <ele>101</ele>
        <time>2022-07-14T06:20:15Z</time>
      </trkpt>
      <trkpt lat="47.12026" lon="-1.42439">
        <ele>101</ele>
        <time>2022-07-14T06:20:17Z</time>
      </trkpt>
      <trkpt lat="47.12034" lon="-1.42432">
        <ele>101</ele>
        <time>2022-07-14T06:20:19Z</time>
      </trkpt>
      <trkpt lat="47.12044" lon="-1.4242">
        <ele>101</ele>
        <time>2022-07-14T06:20:22Z</time>
      </trkpt>
      <trkpt lat="47.1205" lon="-1.4241">
        <ele>101</ele>
        <time>2022-07-14T06:20:24Z</time>
      </trkpt>
      <trkpt lat="47.12056" lon="-1.42398">
        <ele>101</ele>
        <time>2022-07-14T06:20:26Z</time>
      </trkpt>
      <trkpt lat="47.12063" lon="-1.42386">
        <ele>100</ele>
        <time>2022-07-14T06:20:28Z</time>
      </trkpt>
      <trkpt lat="47.12069" lon="-1.42372">
        <ele>100</ele>
        <time>2022-07-14T06:20:30Z</time>
      </trkpt>
      <trkpt lat="47.12073" lon="-1.42357">
        <ele>100</ele>
        <time>2022-07-14T06:20:32Z</time>
      </trkpt>
      <trkpt lat="47.12078" lon="-1.42342">
        <ele>100</ele>
        <time>2022-07-14T06:20:34Z</time>
      </trkpt>
      <trkpt lat="47.12082" lon="-1.42326">
        <ele>100</ele>
        <time>2022-07-14T06:20:36Z</time>
      </trkpt>
      <trkpt lat="47.12087" lon="-1.42311">
        <ele>99</ele>
        <time>2022-07-14T06:20:38Z</time>
      </trkpt>
      <trkpt lat="47.12091" lon="-1.42296">
        <ele>99</ele>
        <time>2022-07-14T06:20:40Z</time>
      </trkpt>
      <trkpt lat="47.12096" lon="-1.4228">
        <ele>99</ele>
        <time>2022-07-14T06:20:42Z</time>
      </trkpt>
      <trkpt lat="47.12101" lon="-1.42264">
        <ele>99</ele>
        <time>2022-07-14T06:20:44Z</time>
      </trkpt>
      <trkpt lat="47.12106" lon="-1.42248">
        <ele>99</ele>
        <time>2022-07-14T06:20:46Z</time>
      </trkpt>
      <trkpt lat="47.12111" lon="-1.42233">
        <ele>99</ele>
        <time>2022-07-14T06:20:48Z</time>
      </trkpt>
      <trkpt lat="47.12115" lon="-1.42216">
        <ele>99</ele>
        <time>2022-07-14T06:20:50Z</time>
      </trkpt>
      <trkpt lat="47.12121" lon="-1.42201">
        <ele>99</ele>
        <time>2022-07-14T06:20:52Z</time>
      </trkpt>
      <trkpt lat="47.12128" lon="-1.42188">
        <ele>99</ele>
        <time>2022-07-14T06:20:54Z</time>
      </trkpt>
      <trkpt lat="47.12137" lon="-1.42177">
        <ele>99</ele>
        <time>2022-07-14T06:20:56Z</time>
      </trkpt>
      <trkpt lat="47.12146" lon="-1.42168">
        <ele>100</ele>
        <time>2022-07-14T06:20:58Z</time>
      </trkpt>
      <trkpt lat="47.12156" lon="-1.4216">
        <ele>99</ele>
        <time>2022-07-14T06:21:00Z</time>
      </trkpt>
      <trkpt lat="47.12167" lon="-1.42154">
        <ele>99</ele>
        <time>2022-07-14T06:21:02Z</time>
      </trkpt>
      <trkpt lat="47.12178" lon="-1.42147">
        <ele>99</ele>
        <time>2022-07-14T06:21:04Z</time>
      </trkpt>
      <trkpt lat="47.12188" lon="-1.42141">
        <ele>99</ele>
        <time>2022-07-14T06:21:06Z</time>
      </trkpt>
      <trkpt lat="47.12199" lon="-1.42135">
        <ele>99</ele>
        <time>2022-07-14T06:21:08Z</time>
      </trkpt>
      <trkpt lat="47.1221" lon="-1.4213">
        <ele>99</ele>
        <time>2022-07-14T06:21:10Z</time>
      </trkpt>
      <trkpt lat="47.1222" lon="-1.42124">
        <ele>99</ele>
        <time>2022-07-14T06:21:12Z</time>
      </trkpt>
      <trkpt lat="47.1223" lon="-1.42114">
        <ele>99</ele>
        <time>2022-07-14T06:21:14Z</time>
      </trkpt>
      <trkpt lat="47.12239" lon="-1.42106">
        <ele>99</ele>
        <time>2022-07-14T06:21:16Z</time>
      </trkpt>
      <trkpt lat="47.1225" lon="-1.42097">
        <ele>99</ele>
        <time>2022-07-14T06:21:18Z</time>
      </trkpt>
      <trkpt lat="47.12259" lon="-1.42088">
        <ele>100</ele>
        <time>2022-07-14T06:21:20Z</time>
      </trkpt>
      <trkpt lat="47.12269" lon="-1.4208">
        <ele>100</ele>
        <time>2022-07-14T06:21:22Z</time>
      </trkpt>
      <trkpt lat="47.12279" lon="-1.42072">
        <ele>100</ele>
        <time>2022-07-14T06:21:24Z</time>
      </trkpt>
      <trkpt lat="47.12289" lon="-1.42063">
        <ele>100</ele>
        <time>2022-07-14T06:21:26Z</time>
      </trkpt>
      <trkpt lat="47.12299" lon="-1.42056">
        <ele>100</ele>
        <time>2022-07-14T06:21:28Z</time>
      </trkpt>
      <trkpt lat="47.12309" lon="-1.42048">
        <ele>100</ele>
        <time>2022-07-14T06:21:30Z</time>
      </trkpt>
      <trkpt lat="47.12319" lon="-1.42042">
        <ele>100</ele>
        <time>2022-07-14T06:21:32Z</time>
      </trkpt>
      <trkpt lat="47.12329" lon="-1.42039">
        <ele>100</ele>
        <time>2022-07-14T06:21:34Z</time>
      </trkpt>
      <trkpt lat="47.12338" lon="-1.42047">
        <ele>100</ele>
        <time>2022-07-14T06:21:36Z</time>
      </trkpt>
      <trkpt lat="47.12351" lon="-1.42045">
        <ele>100</ele>
        <time>2022-07-14T06:21:39Z</time>
      </trkpt>
      <trkpt lat="47.12361" lon="-1.42037">
        <ele>100</ele>
        <time>2022-07-14T06:21:41Z</time>
      </trkpt>
      <trkpt lat="47.1237" lon="-1.42029">
        <ele>100</ele>
        <time>2022-07-14T06:21:43Z</time>
      </trkpt>
      <trkpt lat="47.1238" lon="-1.4202">
        <ele>100</ele>
        <time>2022-07-14T06:21:45Z</time>
      </trkpt>
      <trkpt lat="47.12389" lon="-1.42012">
        <ele>100</ele>
        <time>2022-07-14T06:21:47Z</time>
      </trkpt>
      <trkpt lat="47.12398" lon="-1.42002">
        <ele>100</ele>
        <time>2022-07-14T06:21:49Z</time>
      </trkpt>
      <trkpt lat="47.12406" lon="-1.41992">
        <ele>100</ele>
        <time>2022-07-14T06:21:51Z</time>
      </trkpt>
      <trkpt lat="47.12414" lon="-1.41978">
        <ele>101</ele>
        <time>2022-07-14T06:21:53Z</time>
      </trkpt>
      <trkpt lat="47.12422" lon="-1.41964">
        <ele>101</ele>
        <time>2022-07-14T06:21:55Z</time>
      </trkpt>
      <trkpt lat="47.12431" lon="-1.41949">
        <ele>101</ele>
        <time>2022-07-14T06:21:57Z</time>
      </trkpt>
      <trkpt lat="47.12441" lon="-1.41935">
        <ele>101</ele>
        <time>2022-07-14T06:21:59Z</time>
      </trkpt>
      <trkpt lat="47.12451" lon="-1.41922">
        <ele>101</ele>
        <time>2022-07-14T06:22:01Z</time>
      </trkpt>
      <trkpt lat="47.12461" lon="-1.41911">
        <ele>101</ele>
        <time>2022-07-14T06:22:03Z</time>
      </trkpt>
      <trkpt lat="47.12471" lon="-1.419">
        <ele>100</ele>
        <time>2022-07-14T06:22:05Z</time>
      </trkpt>
      <trkpt lat="47.1248" lon="-1.4189">
        <ele>100</ele>
        <time>2022-07-14T06:22:07Z</time>
      </trkpt>
      <trkpt lat="47.12491" lon="-1.41882">
        <ele>101</ele>
        <time>2022-07-14T06:22:09Z</time>
      </trkpt>
      <trkpt lat="47.12502" lon="-1.41873">
        <ele>100</ele>
        <time>2022-07-14T06:22:11Z</time>
      </trkpt>
      <trkpt lat="47.12514" lon="-1.41865">
        <ele>99</ele>
        <time>2022-07-14T06:22:13Z</time>
      </trkpt>
      <trkpt lat="47.12528" lon="-1.41859">
        <ele>98</ele>
        <time>2022-07-14T06:22:15Z</time>
      </trkpt>
      <trkpt lat="47.12541" lon="-1.41853">
        <ele>97</ele>
        <time>2022-07-14T06:22:17Z</time>
      </trkpt>
      <trkpt lat="47.12555" lon="-1.41846">
        <ele>97</ele>
        <time>2022-07-14T06:22:19Z</time>
      </trkpt>
      <trkpt lat="47.12566" lon="-1.41835">
        <ele>96</ele>
        <time>2022-07-14T06:22:21Z</time>
      </trkpt>
      <trkpt lat="47.12573" lon="-1.41815">
        <ele>96</ele>
        <time>2022-07-14T06:22:23Z</time>
      </trkpt>
      <trkpt lat="47.12577" lon="-1.41793">
        <ele>94</ele>
        <time>2022-07-14T06:22:25Z</time>
      </trkpt>
      <trkpt lat="47.12582" lon="-1.41771">
        <ele>93</ele>
        <time>2022-07-14T06:22:27Z</time>
      </trkpt>
      <trkpt lat="47.12589" lon="-1.41749">
        <ele>91</ele>
        <time>2022-07-14T06:22:29Z</time>
      </trkpt>
      <trkpt lat="47.12601" lon="-1.41733">
        <ele>90</ele>
        <time>2022-07-14T06:22:31Z</time>
      </trkpt>
      <trkpt lat="47.12615" lon="-1.41724">
        <ele>90</ele>
        <time>2022-07-14T06:22:33Z</time>
      </trkpt>
      <trkpt lat="47.12632" lon="-1.41719">
        <ele>90</ele>
        <time>2022-07-14T06:22:35Z</time>
      </trkpt>
      <trkpt lat="47.12641" lon="-1.41716">
        <ele>90</ele>
        <time>2022-07-14T06:22:36Z</time>
      </trkpt>
      <trkpt lat="47.12657" lon="-1.41708">
        <ele>90</ele>
        <time>2022-07-14T06:22:38Z</time>
      </trkpt>
      <trkpt lat="47.12673" lon="-1.41695">
        <ele>88</ele>
        <time>2022-07-14T06:22:40Z</time>
      </trkpt>
      <trkpt lat="47.12681" lon="-1.41688">
        <ele>88</ele>
        <time>2022-07-14T06:22:41Z</time>
      </trkpt>
      <trkpt lat="47.12689" lon="-1.41682">
        <ele>88</ele>
        <time>2022-07-14T06:22:42Z</time>
      </trkpt>
      <trkpt lat="47.12697" lon="-1.41676">
        <ele>88</ele>
        <time>2022-07-14T06:22:43Z</time>
      </trkpt>
      <trkpt lat="47.12706" lon="-1.41672">
        <ele>87</ele>
        <time>2022-07-14T06:22:44Z</time>
      </trkpt>
      <trkpt lat="47.12715" lon="-1.41669">
        <ele>87</ele>
        <time>2022-07-14T06:22:45Z</time>
      </trkpt>
      <trkpt lat="47.12724" lon="-1.41667">
        <ele>86</ele>
        <time>2022-07-14T06:22:46Z</time>
      </trkpt>
      <trkpt lat="47.12734" lon="-1.41667">
        <ele>87</ele>
        <time>2022-07-14T06:22:47Z</time>
      </trkpt>
      <trkpt lat="47.12743" lon="-1.41667">
        <ele>86</ele>
        <time>2022-07-14T06:22:48Z</time>
      </trkpt>
      <trkpt lat="47.12753" lon="-1.41666">
        <ele>85</ele>
        <time>2022-07-14T06:22:49Z</time>
      </trkpt>
      <trkpt lat="47.12762" lon="-1.41662">
        <ele>84</ele>
        <time>2022-07-14T06:22:50Z</time>
      </trkpt>
      <trkpt lat="47.1277" lon="-1.41655">
        <ele>83</ele>
        <time>2022-07-14T06:22:51Z</time>
      </trkpt>
      <trkpt lat="47.12776" lon="-1.41644">
        <ele>83</ele>
        <time>2022-07-14T06:22:52Z</time>
      </trkpt>
      <trkpt lat="47.12779" lon="-1.4163">
        <ele>82</ele>
        <time>2022-07-14T06:22:53Z</time>
      </trkpt>
      <trkpt lat="47.12778" lon="-1.41615">
        <ele>80</ele>
        <time>2022-07-14T06:22:54Z</time>
      </trkpt>
      <trkpt lat="47.12775" lon="-1.41602">
        <ele>79</ele>
        <time>2022-07-14T06:22:55Z</time>
      </trkpt>
      <trkpt lat="47.12767" lon="-1.41592">
        <ele>77</ele>
        <time>2022-07-14T06:22:56Z</time>
      </trkpt>
      <trkpt lat="47.12757" lon="-1.41587">
        <ele>76</ele>
        <time>2022-07-14T06:22:57Z</time>
      </trkpt>
      <trkpt lat="47.12747" lon="-1.41585">
        <ele>76</ele>
        <time>2022-07-14T06:22:58Z</time>
      </trkpt>
      <trkpt lat="47.12737" lon="-1.41588">
        <ele>76</ele>
        <time>2022-07-14T06:22:59Z</time>
      </trkpt>
      <trkpt lat="47.12726" lon="-1.41591">
        <ele>75</ele>
        <time>2022-07-14T06:23:00Z</time>
      </trkpt>
      <trkpt lat="47.12716" lon="-1.41591">
        <ele>75</ele>
        <time>2022-07-14T06:23:01Z</time>
      </trkpt>
      <trkpt lat="47.12704" lon="-1.41587">
        <ele>74</ele>
        <time>2022-07-14T06:23:02Z</time>
      </trkpt>
      <trkpt lat="47.12694" lon="-1.41582">
        <ele>74</ele>
        <time>2022-07-14T06:23:03Z</time>
      </trkpt>
      <trkpt lat="47.12683" lon="-1.41576">
        <ele>73</ele>
        <time>2022-07-14T06:23:04Z</time>
      </trkpt>
      <trkpt lat="47.12672" lon="-1.41572">
        <ele>73</ele>
        <time>2022-07-14T06:23:05Z</time>
      </trkpt>
      <trkpt lat="47.1266" lon="-1.41575">
        <ele>73</ele>
        <time>2022-07-14T06:23:06Z</time>
      </trkpt>
      <trkpt lat="47.12649" lon="-1.41581">
        <ele>73</ele>
        <time>2022-07-14T06:23:07Z</time>
      </trkpt>
      <trkpt lat="47.12639" lon="-1.41587">
        <ele>72</ele>
        <time>2022-07-14T06:23:08Z</time>
      </trkpt>
      <trkpt lat="47.12629" lon="-1.41588">
        <ele>71</ele>
        <time>2022-07-14T06:23:09Z</time>
      </trkpt>
      <trkpt lat="47.12618" lon="-1.41583">
        <ele>71</ele>
        <time>2022-07-14T06:23:10Z</time>
      </trkpt>
      <trkpt lat="47.12607" lon="-1.41572">
        <ele>71</ele>
        <time>2022-07-14T06:23:11Z</time>
      </trkpt>
      <trkpt lat="47.12599" lon="-1.41559">
        <ele>71</ele>
        <time>2022-07-14T06:23:12Z</time>
      </trkpt>
      <trkpt lat="47.12592" lon="-1.41546">
        <ele>69</ele>
        <time>2022-07-14T06:23:13Z</time>
      </trkpt>
      <trkpt lat="47.12585" lon="-1.41533">
        <ele>67</ele>
        <time>2022-07-14T06:23:14Z</time>
      </trkpt>
      <trkpt lat="47.12578" lon="-1.41519">
        <ele>65</ele>
        <time>2022-07-14T06:23:15Z</time>
      </trkpt>
      <trkpt lat="47.12571" lon="-1.41507">
        <ele>63</ele>
        <time>2022-07-14T06:23:16Z</time>
      </trkpt>
      <trkpt lat="47.12564" lon="-1.41494">
        <ele>62</ele>
        <time>2022-07-14T06:23:17Z</time>
      </trkpt>
      <trkpt lat="47.12557" lon="-1.41483">
        <ele>61</ele>
        <time>2022-07-14T06:23:18Z</time>
      </trkpt>
      <trkpt lat="47.12551" lon="-1.41472">
        <ele>60</ele>
        <time>2022-07-14T06:23:19Z</time>
      </trkpt>
      <trkpt lat="47.12545" lon="-1.41461">
        <ele>60</ele>
        <time>2022-07-14T06:23:20Z</time>
      </trkpt>
      <trkpt lat="47.12534" lon="-1.41442">
        <ele>59</ele>
        <time>2022-07-14T06:23:22Z</time>
      </trkpt>
      <trkpt lat="47.12527" lon="-1.41424">
        <ele>58</ele>
        <time>2022-07-14T06:23:24Z</time>
      </trkpt>
      <trkpt lat="47.12531" lon="-1.41407">
        <ele>58</ele>
        <time>2022-07-14T06:23:26Z</time>
      </trkpt>
      <trkpt lat="47.12539" lon="-1.41395">
        <ele>58</ele>
        <time>2022-07-14T06:23:28Z</time>
      </trkpt>
      <trkpt lat="47.12545" lon="-1.41383">
        <ele>58</ele>
        <time>2022-07-14T06:23:30Z</time>
      </trkpt>
      <trkpt lat="47.12552" lon="-1.41373">
        <ele>58</ele>
        <time>2022-07-14T06:23:32Z</time>
      </trkpt>
      <trkpt lat="47.12561" lon="-1.41359">
        <ele>59</ele>
        <time>2022-07-14T06:23:35Z</time>
      </trkpt>
      <trkpt lat="47.12569" lon="-1.41345">
        <ele>60</ele>
        <time>2022-07-14T06:23:38Z</time>
      </trkpt>
      <trkpt lat="47.12577" lon="-1.41332">
        <ele>60</ele>
        <time>2022-07-14T06:23:41Z</time>
      </trkpt>
      <trkpt lat="47.12585" lon="-1.41319">
        <ele>60</ele>
        <time>2022-07-14T06:23:44Z</time>
      </trkpt>
      <trkpt lat="47.12592" lon="-1.41306">
        <ele>61</ele>
        <time>2022-07-14T06:23:47Z</time>
      </trkpt>
      <trkpt lat="47.12599" lon="-1.41294">
        <ele>62</ele>
        <time>2022-07-14T06:23:50Z</time>
      </trkpt>
      <trkpt lat="47.12606" lon="-1.41281">
        <ele>63</ele>
        <time>2022-07-14T06:23:53Z</time>
      </trkpt>
      <trkpt lat="47.12616" lon="-1.41274">
        <ele>64</ele>
        <time>2022-07-14T06:23:56Z</time>
      </trkpt>
      <trkpt lat="47.12627" lon="-1.41268">
        <ele>64</ele>
        <time>2022-07-14T06:23:59Z</time>
      </trkpt>
      <trkpt lat="47.12637" lon="-1.41265">
        <ele>66</ele>
        <time>2022-07-14T06:24:02Z</time>
      </trkpt>
      <trkpt lat="47.12647" lon="-1.41258">
        <ele>66</ele>
        <time>2022-07-14T06:24:05Z</time>
      </trkpt>
      <trkpt lat="47.12658" lon="-1.41252">
        <ele>67</ele>
        <time>2022-07-14T06:24:08Z</time>
      </trkpt>
      <trkpt lat="47.12669" lon="-1.41248">
        <ele>67</ele>
        <time>2022-07-14T06:24:11Z</time>
      </trkpt>
      <trkpt lat="47.12681" lon="-1.41242">
        <ele>69</ele>
        <time>2022-07-14T06:24:14Z</time>
      </trkpt>
      <trkpt lat="47.12691" lon="-1.41236">
        <ele>71</ele>
        <time>2022-07-14T06:24:17Z</time>
      </trkpt>
      <trkpt lat="47.12701" lon="-1.41228">
        <ele>73</ele>
        <time>2022-07-14T06:24:20Z</time>
      </trkpt>
      <trkpt lat="47.12711" lon="-1.4122">
        <ele>74</ele>
        <time>2022-07-14T06:24:23Z</time>
      </trkpt>
      <trkpt lat="47.12721" lon="-1.41212">
        <ele>74</ele>
        <time>2022-07-14T06:24:26Z</time>
      </trkpt>
      <trkpt lat="47.12732" lon="-1.41204">
        <ele>75</ele>
        <time>2022-07-14T06:24:29Z</time>
      </trkpt>
      <trkpt lat="47.12742" lon="-1.41193">
        <ele>77</ele>
        <time>2022-07-14T06:24:32Z</time>
      </trkpt>
      <trkpt lat="47.1275" lon="-1.41182">
        <ele>77</ele>
        <time>2022-07-14T06:24:35Z</time>
      </trkpt>
      <trkpt lat="47.12757" lon="-1.41173">
        <ele>78</ele>
        <time>2022-07-14T06:24:38Z</time>
      </trkpt>
      <trkpt lat="47.12764" lon="-1.41161">
        <ele>79</ele>
        <time>2022-07-14T06:24:41Z</time>
      </trkpt>
      <trkpt lat="47.12771" lon="-1.41149">
        <ele>79</ele>
        <time>2022-07-14T06:24:44Z</time>
      </trkpt>
      <trkpt lat="47.12777" lon="-1.41136">
        <ele>80</ele>
        <time>2022-07-14T06:24:47Z</time>
      </trkpt>
      <trkpt lat="47.12785" lon="-1.41122">
        <ele>80</ele>
        <time>2022-07-14T06:24:50Z</time>
      </trkpt>
      <trkpt lat="47.12792" lon="-1.41106">
        <ele>83</ele>
        <time>2022-07-14T06:24:53Z</time>
      </trkpt>
      <trkpt lat="47.12799" lon="-1.41092">
        <ele>84</ele>
        <time>2022-07-14T06:24:56Z</time>
      </trkpt>
      <trkpt lat="47.12806" lon="-1.41078">
        <ele>84</ele>
        <time>2022-07-14T06:24:59Z</time>
      </trkpt>
      <trkpt lat="47.1281" lon="-1.4106">
        <ele>85</ele>
        <time>2022-07-14T06:25:02Z</time>
      </trkpt>
      <trkpt lat="47.1281" lon="-1.41045">
        <ele>86</ele>
        <time>2022-07-14T06:25:04Z</time>
      </trkpt>
      <trkpt lat="47.12808" lon="-1.41032">
        <ele>86</ele>
        <time>2022-07-14T06:25:06Z</time>
      </trkpt>
      <trkpt lat="47.12803" lon="-1.41013">
        <ele>85</ele>
        <time>2022-07-14T06:25:09Z</time>
      </trkpt>
      <trkpt lat="47.12797" lon="-1.40997">
        <ele>85</ele>
        <time>2022-07-14T06:25:12Z</time>
      </trkpt>
      <trkpt lat="47.12789" lon="-1.40982">
        <ele>86</ele>
        <time>2022-07-14T06:25:15Z</time>
      </trkpt>
      <trkpt lat="47.12783" lon="-1.40967">
        <ele>87</ele>
        <time>2022-07-14T06:25:18Z</time>
      </trkpt>
      <trkpt lat="47.12776" lon="-1.40951">
        <ele>88</ele>
        <time>2022-07-14T06:25:21Z</time>
      </trkpt>
      <trkpt lat="47.12769" lon="-1.40936">
        <ele>88</ele>
        <time>2022-07-14T06:25:24Z</time>
      </trkpt>
      <trkpt lat="47.1276" lon="-1.40925">
        <ele>88</ele>
        <time>2022-07-14T06:25:27Z</time>
      </trkpt>
      <trkpt lat="47.1275" lon="-1.40916">
        <ele>90</ele>
        <time>2022-07-14T06:25:30Z</time>
      </trkpt>
      <trkpt lat="47.12737" lon="-1.40912">
        <ele>90</ele>
        <time>2022-07-14T06:25:33Z</time>
      </trkpt>
      <trkpt lat="47.12724" lon="-1.4091">
        <ele>92</ele>
        <time>2022-07-14T06:25:36Z</time>
      </trkpt>
      <trkpt lat="47.12711" lon="-1.40907">
        <ele>93</ele>
        <time>2022-07-14T06:25:39Z</time>
      </trkpt>
      <trkpt lat="47.12699" lon="-1.40904">
        <ele>95</ele>
        <time>2022-07-14T06:25:42Z</time>
      </trkpt>
      <trkpt lat="47.12686" lon="-1.40902">
        <ele>96</ele>
        <time>2022-07-14T06:25:45Z</time>
      </trkpt>
      <trkpt lat="47.12673" lon="-1.40899">
        <ele>97</ele>
        <time>2022-07-14T06:25:48Z</time>
      </trkpt>
      <trkpt lat="47.1266" lon="-1.40897">
        <ele>98</ele>
        <time>2022-07-14T06:25:51Z</time>
      </trkpt>
      <trkpt lat="47.12647" lon="-1.40894">
        <ele>98</ele>
        <time>2022-07-14T06:25:54Z</time>
      </trkpt>
      <trkpt lat="47.12635" lon="-1.40891">
        <ele>99</ele>
        <time>2022-07-14T06:25:57Z</time>
      </trkpt>
      <trkpt lat="47.12626" lon="-1.40889">
        <ele>99</ele>
        <time>2022-07-14T06:25:59Z</time>
      </trkpt>
      <trkpt lat="47.12616" lon="-1.40887">
        <ele>99</ele>
        <time>2022-07-14T06:26:01Z</time>
      </trkpt>
      <trkpt lat="47.12606" lon="-1.40885">
        <ele>99</ele>
        <time>2022-07-14T06:26:03Z</time>
      </trkpt>
      <trkpt lat="47.12597" lon="-1.40883">
        <ele>100</ele>
        <time>2022-07-14T06:26:05Z</time>
      </trkpt>
      <trkpt lat="47.12587" lon="-1.40881">
        <ele>100</ele>
        <time>2022-07-14T06:26:07Z</time>
      </trkpt>
      <trkpt lat="47.12577" lon="-1.40879">
        <ele>100</ele>
        <time>2022-07-14T06:26:09Z</time>
      </trkpt>
      <trkpt lat="47.12566" lon="-1.40876">
        <ele>100</ele>
        <time>2022-07-14T06:26:11Z</time>
      </trkpt>
      <trkpt lat="47.12555" lon="-1.40874">
        <ele>100</ele>
        <time>2022-07-14T06:26:13Z</time>
      </trkpt>
      <trkpt lat="47.12545" lon="-1.40871">
        <ele>100</ele>
        <time>2022-07-14T06:26:15Z</time>
      </trkpt>
      <trkpt lat="47.12534" lon="-1.40868">
        <ele>100</ele>
        <time>2022-07-14T06:26:17Z</time>
      </trkpt>
      <trkpt lat="47.12523" lon="-1.40866">
        <ele>100</ele>
        <time>2022-07-14T06:26:19Z</time>
      </trkpt>
      <trkpt lat="47.12511" lon="-1.40863">
        <ele>100</ele>
        <time>2022-07-14T06:26:21Z</time>
      </trkpt>
      <trkpt lat="47.12499" lon="-1.40861">
        <ele>100</ele>
        <time>2022-07-14T06:26:23Z</time>
      </trkpt>
      <trkpt lat="47.12488" lon="-1.40857">
        <ele>100</ele>
        <time>2022-07-14T06:26:25Z</time>
      </trkpt>
      <trkpt lat="47.12476" lon="-1.40854">
        <ele>100</ele>
        <time>2022-07-14T06:26:27Z</time>
      </trkpt>
      <trkpt lat="47.12464" lon="-1.40851">
        <ele>101</ele>
        <time>2022-07-14T06:26:29Z</time>
      </trkpt>
      <trkpt lat="47.12453" lon="-1.40845">
        <ele>101</ele>
        <time>2022-07-14T06:26:31Z</time>
      </trkpt>
      <trkpt lat="47.12442" lon="-1.40839">
        <ele>101</ele>
        <time>2022-07-14T06:26:33Z</time>
      </trkpt>
      <trkpt lat="47.12433" lon="-1.40829">
        <ele>101</ele>
        <time>2022-07-14T06:26:35Z</time>
      </trkpt>
      <trkpt lat="47.12424" lon="-1.40818">
        <ele>101</ele>
        <time>2022-07-14T06:26:37Z</time>
      </trkpt>
      <trkpt lat="47.12415" lon="-1.40806">
        <ele>101</ele>
        <time>2022-07-14T06:26:39Z</time>
      </trkpt>
      <trkpt lat="47.12407" lon="-1.40794">
        <ele>101</ele>
        <time>2022-07-14T06:26:41Z</time>
      </trkpt>
      <trkpt lat="47.124" lon="-1.40782">
        <ele>101</ele>
        <time>2022-07-14T06:26:43Z</time>
      </trkpt>
      <trkpt lat="47.12392" lon="-1.4077">
        <ele>101</ele>
        <time>2022-07-14T06:26:45Z</time>
      </trkpt>
      <trkpt lat="47.12384" lon="-1.40758">
        <ele>102</ele>
        <time>2022-07-14T06:26:47Z</time>
      </trkpt>
      <trkpt lat="47.12377" lon="-1.40747">
        <ele>102</ele>
        <time>2022-07-14T06:26:49Z</time>
      </trkpt>
      <trkpt lat="47.1237" lon="-1.40735">
        <ele>102</ele>
        <time>2022-07-14T06:26:51Z</time>
      </trkpt>
      <trkpt lat="47.12362" lon="-1.40723">
        <ele>102</ele>
        <time>2022-07-14T06:26:53Z</time>
      </trkpt>
      <trkpt lat="47.12354" lon="-1.40712">
        <ele>102</ele>
        <time>2022-07-14T06:26:55Z</time>
      </trkpt>
      <trkpt lat="47.12345" lon="-1.40703">
        <ele>102</ele>
        <time>2022-07-14T06:26:57Z</time>
      </trkpt>
      <trkpt lat="47.12334" lon="-1.40697">
        <ele>102</ele>
        <time>2022-07-14T06:26:59Z</time>
      </trkpt>
      <trkpt lat="47.12324" lon="-1.40691">
        <ele>103</ele>
        <time>2022-07-14T06:27:01Z</time>
      </trkpt>
      <trkpt lat="47.12313" lon="-1.40686">
        <ele>104</ele>
        <time>2022-07-14T06:27:03Z</time>
      </trkpt>
      <trkpt lat="47.12301" lon="-1.40681">
        <ele>104</ele>
        <time>2022-07-14T06:27:05Z</time>
      </trkpt>
      <trkpt lat="47.1229" lon="-1.40673">
        <ele>104</ele>
        <time>2022-07-14T06:27:07Z</time>
      </trkpt>
      <trkpt lat="47.12281" lon="-1.40662">
        <ele>104</ele>
        <time>2022-07-14T06:27:09Z</time>
      </trkpt>
      <trkpt lat="47.12273" lon="-1.40646">
        <ele>104</ele>
        <time>2022-07-14T06:27:11Z</time>
      </trkpt>
      <trkpt lat="47.12266" lon="-1.4063">
        <ele>104</ele>
        <time>2022-07-14T06:27:13Z</time>
      </trkpt>
      <trkpt lat="47.1226" lon="-1.40613">
        <ele>104</ele>
        <time>2022-07-14T06:27:15Z</time>
      </trkpt>
      <trkpt lat="47.12253" lon="-1.40595">
        <ele>104</ele>
        <time>2022-07-14T06:27:17Z</time>
      </trkpt>
      <trkpt lat="47.12247" lon="-1.40578">
        <ele>104</ele>
        <time>2022-07-14T06:27:19Z</time>
      </trkpt>
      <trkpt lat="47.1224" lon="-1.40559">
        <ele>104</ele>
        <time>2022-07-14T06:27:21Z</time>
      </trkpt>
      <trkpt lat="47.12235" lon="-1.4054">
        <ele>104</ele>
        <time>2022-07-14T06:27:23Z</time>
      </trkpt>
      <trkpt lat="47.1223" lon="-1.40521">
        <ele>103</ele>
        <time>2022-07-14T06:27:25Z</time>
      </trkpt>
      <trkpt lat="47.12226" lon="-1.40501">
        <ele>103</ele>
        <time>2022-07-14T06:27:27Z</time>
      </trkpt>
      <trkpt lat="47.12221" lon="-1.40481">
        <ele>103</ele>
        <time>2022-07-14T06:27:29Z</time>
      </trkpt>
      <trkpt lat="47.12217" lon="-1.40462">
        <ele>103</ele>
        <time>2022-07-14T06:27:31Z</time>
      </trkpt>
      <trkpt lat="47.12213" lon="-1.40443">
        <ele>103</ele>
        <time>2022-07-14T06:27:33Z</time>
      </trkpt>
      <trkpt lat="47.12209" lon="-1.40423">
        <ele>103</ele>
        <time>2022-07-14T06:27:35Z</time>
      </trkpt>
      <trkpt lat="47.12205" lon="-1.40404">
        <ele>103</ele>
        <time>2022-07-14T06:27:37Z</time>
      </trkpt>
      <trkpt lat="47.12201" lon="-1.40386">
        <ele>103</ele>
        <time>2022-07-14T06:27:39Z</time>
      </trkpt>
      <trkpt lat="47.12197" lon="-1.40368">
        <ele>102</ele>
        <time>2022-07-14T06:27:41Z</time>
      </trkpt>
      <trkpt lat="47.12194" lon="-1.40351">
        <ele>102</ele>
        <time>2022-07-14T06:27:43Z</time>
      </trkpt>
      <trkpt lat="47.1219" lon="-1.40335">
        <ele>102</ele>
        <time>2022-07-14T06:27:45Z</time>
      </trkpt>
      <trkpt lat="47.12188" lon="-1.40321">
        <ele>102</ele>
        <time>2022-07-14T06:27:47Z</time>
      </trkpt>
      <trkpt lat="47.12187" lon="-1.40302">
        <ele>103</ele>
        <time>2022-07-14T06:27:50Z</time>
      </trkpt>
      <trkpt lat="47.12196" lon="-1.40292">
        <ele>103</ele>
        <time>2022-07-14T06:27:52Z</time>
      </trkpt>
      <trkpt lat="47.12208" lon="-1.40286">
        <ele>104</ele>
        <time>2022-07-14T06:27:54Z</time>
      </trkpt>
      <trkpt lat="47.1222" lon="-1.40281">
        <ele>105</ele>
        <time>2022-07-14T06:27:56Z</time>
      </trkpt>
      <trkpt lat="47.12232" lon="-1.40276">
        <ele>105</ele>
        <time>2022-07-14T06:27:58Z</time>
      </trkpt>
      <trkpt lat="47.12243" lon="-1.4027">
        <ele>105</ele>
        <time>2022-07-14T06:28:00Z</time>
      </trkpt>
      <trkpt lat="47.12255" lon="-1.40264">
        <ele>106</ele>
        <time>2022-07-14T06:28:02Z</time>
      </trkpt>
      <trkpt lat="47.12266" lon="-1.40259">
        <ele>106</ele>
        <time>2022-07-14T06:28:04Z</time>
      </trkpt>
      <trkpt lat="47.12278" lon="-1.40253">
        <ele>106</ele>
        <time>2022-07-14T06:28:06Z</time>
      </trkpt>
      <trkpt lat="47.12289" lon="-1.40247">
        <ele>106</ele>
        <time>2022-07-14T06:28:08Z</time>
      </trkpt>
      <trkpt lat="47.12301" lon="-1.40242">
        <ele>105</ele>
        <time>2022-07-14T06:28:10Z</time>
      </trkpt>
      <trkpt lat="47.12313" lon="-1.40237">
        <ele>105</ele>
        <time>2022-07-14T06:28:12Z</time>
      </trkpt>
      <trkpt lat="47.12325" lon="-1.40231">
        <ele>104</ele>
        <time>2022-07-14T06:28:14Z</time>
      </trkpt>
      <trkpt lat="47.12337" lon="-1.40225">
        <ele>103</ele>
        <time>2022-07-14T06:28:16Z</time>
      </trkpt>
      <trkpt lat="47.1235" lon="-1.40219">
        <ele>103</ele>
        <time>2022-07-14T06:28:18Z</time>
      </trkpt>
      <trkpt lat="47.12363" lon="-1.40213">
        <ele>102</ele>
        <time>2022-07-14T06:28:20Z</time>
      </trkpt>
      <trkpt lat="47.12376" lon="-1.40207">
        <ele>102</ele>
        <time>2022-07-14T06:28:22Z</time>
      </trkpt>
      <trkpt lat="47.12389" lon="-1.40201">
        <ele>102</ele>
        <time>2022-07-14T06:28:24Z</time>
      </trkpt>
      <trkpt lat="47.12401" lon="-1.40195">
        <ele>101</ele>
        <time>2022-07-14T06:28:26Z</time>
      </trkpt>
      <trkpt lat="47.12414" lon="-1.40189">
        <ele>100</ele>
        <time>2022-07-14T06:28:28Z</time>
      </trkpt>
      <trkpt lat="47.12427" lon="-1.40182">
        <ele>100</ele>
        <time>2022-07-14T06:28:30Z</time>
      </trkpt>
      <trkpt lat="47.12441" lon="-1.40176">
        <ele>99</ele>
        <time>2022-07-14T06:28:32Z</time>
      </trkpt>
      <trkpt lat="47.12454" lon="-1.40169">
        <ele>99</ele>
        <time>2022-07-14T06:28:34Z</time>
      </trkpt>
      <trkpt lat="47.12468" lon="-1.40163">
        <ele>98</ele>
        <time>2022-07-14T06:28:36Z</time>
      </trkpt>
      <trkpt lat="47.12482" lon="-1.40157">
        <ele>98</ele>
        <time>2022-07-14T06:28:38Z</time>
      </trkpt>
      <trkpt lat="47.12495" lon="-1.40151">
        <ele>97</ele>
        <time>2022-07-14T06:28:40Z</time>
      </trkpt>
      <trkpt lat="47.12509" lon="-1.40148">
        <ele>97</ele>
        <time>2022-07-14T06:28:42Z</time>
      </trkpt>
      <trkpt lat="47.12523" lon="-1.40147">
        <ele>97</ele>
        <time>2022-07-14T06:28:44Z</time>
      </trkpt>
      <trkpt lat="47.12538" lon="-1.40148">
        <ele>97</ele>
        <time>2022-07-14T06:28:46Z</time>
      </trkpt>
      <trkpt lat="47.12552" lon="-1.40151">
        <ele>97</ele>
        <time>2022-07-14T06:28:48Z</time>
      </trkpt>
      <trkpt lat="47.12565" lon="-1.40155">
        <ele>97</ele>
        <time>2022-07-14T06:28:50Z</time>
      </trkpt>
      <trkpt lat="47.12579" lon="-1.40159">
        <ele>97</ele>
        <time>2022-07-14T06:28:52Z</time>
      </trkpt>
      <trkpt lat="47.12592" lon="-1.40162">
        <ele>97</ele>
        <time>2022-07-14T06:28:54Z</time>
      </trkpt>
      <trkpt lat="47.12606" lon="-1.40163">
        <ele>97</ele>
        <time>2022-07-14T06:28:56Z</time>
      </trkpt>
      <trkpt lat="47.12619" lon="-1.40161">
        <ele>97</ele>
        <time>2022-07-14T06:28:58Z</time>
      </trkpt>
      <trkpt lat="47.12633" lon="-1.40159">
        <ele>96</ele>
        <time>2022-07-14T06:29:00Z</time>
      </trkpt>
      <trkpt lat="47.12647" lon="-1.40157">
        <ele>96</ele>
        <time>2022-07-14T06:29:02Z</time>
      </trkpt>
      <trkpt lat="47.12661" lon="-1.40154">
        <ele>95</ele>
        <time>2022-07-14T06:29:04Z</time>
      </trkpt>
      <trkpt lat="47.12675" lon="-1.40151">
        <ele>94</ele>
        <time>2022-07-14T06:29:06Z</time>
      </trkpt>
      <trkpt lat="47.12688" lon="-1.40145">
        <ele>94</ele>
        <time>2022-07-14T06:29:08Z</time>
      </trkpt>
      <trkpt lat="47.12701" lon="-1.40136">
        <ele>94</ele>
        <time>2022-07-14T06:29:10Z</time>
      </trkpt>
      <trkpt lat="47.12713" lon="-1.40125">
        <ele>93</ele>
        <time>2022-07-14T06:29:12Z</time>
      </trkpt>
      <trkpt lat="47.12725" lon="-1.40113">
        <ele>93</ele>
        <time>2022-07-14T06:29:14Z</time>
      </trkpt>
      <trkpt lat="47.12737" lon="-1.40102">
        <ele>92</ele>
        <time>2022-07-14T06:29:16Z</time>
      </trkpt>
      <trkpt lat="47.12749" lon="-1.4009">
        <ele>92</ele>
        <time>2022-07-14T06:29:18Z</time>
      </trkpt>
      <trkpt lat="47.12761" lon="-1.40079">
        <ele>91</ele>
        <time>2022-07-14T06:29:20Z</time>
      </trkpt>
      <trkpt lat="47.12773" lon="-1.40068">
        <ele>90</ele>
        <time>2022-07-14T06:29:22Z</time>
      </trkpt>
      <trkpt lat="47.12785" lon="-1.40057">
        <ele>90</ele>
        <time>2022-07-14T06:29:24Z</time>
      </trkpt>
      <trkpt lat="47.12796" lon="-1.40046">
        <ele>91</ele>
        <time>2022-07-14T06:29:26Z</time>
      </trkpt>
      <trkpt lat="47.12808" lon="-1.40034">
        <ele>91</ele>
        <time>2022-07-14T06:29:28Z</time>
      </trkpt>
      <trkpt lat="47.1282" lon="-1.40023">
        <ele>91</ele>
        <time>2022-07-14T06:29:30Z</time>
      </trkpt>
      <trkpt lat="47.12831" lon="-1.40012">
        <ele>91</ele>
        <time>2022-07-14T06:29:32Z</time>
      </trkpt>
      <trkpt lat="47.12842" lon="-1.40001">
        <ele>91</ele>
        <time>2022-07-14T06:29:34Z</time>
      </trkpt>
      <trkpt lat="47.12853" lon="-1.3999">
        <ele>91</ele>
        <time>2022-07-14T06:29:36Z</time>
      </trkpt>
      <trkpt lat="47.12865" lon="-1.39979">
        <ele>91</ele>
        <time>2022-07-14T06:29:38Z</time>
      </trkpt>
      <trkpt lat="47.12876" lon="-1.39968">
        <ele>91</ele>
        <time>2022-07-14T06:29:40Z</time>
      </trkpt>
      <trkpt lat="47.12888" lon="-1.39959">
        <ele>91</ele>
        <time>2022-07-14T06:29:42Z</time>
      </trkpt>
      <trkpt lat="47.129" lon="-1.39951">
        <ele>91</ele>
        <time>2022-07-14T06:29:44Z</time>
      </trkpt>
      <trkpt lat="47.12913" lon="-1.39945">
        <ele>92</ele>
        <time>2022-07-14T06:29:46Z</time>
      </trkpt>
      <trkpt lat="47.12925" lon="-1.3994">
        <ele>92</ele>
        <time>2022-07-14T06:29:48Z</time>
      </trkpt>
      <trkpt lat="47.12937" lon="-1.39935">
        <ele>93</ele>
        <time>2022-07-14T06:29:50Z</time>
      </trkpt>
      <trkpt lat="47.12948" lon="-1.39931">
        <ele>93</ele>
        <time>2022-07-14T06:29:52Z</time>
      </trkpt>
      <trkpt lat="47.12959" lon="-1.39926">
        <ele>93</ele>
        <time>2022-07-14T06:29:54Z</time>
      </trkpt>
      <trkpt lat="47.1297" lon="-1.3992">
        <ele>93</ele>
        <time>2022-07-14T06:29:56Z</time>
      </trkpt>
      <trkpt lat="47.1298" lon="-1.39912">
        <ele>93</ele>
        <time>2022-07-14T06:29:58Z</time>
      </trkpt>
      <trkpt lat="47.12987" lon="-1.39902">
        <ele>94</ele>
        <time>2022-07-14T06:30:00Z</time>
      </trkpt>
      <trkpt lat="47.12998" lon="-1.39896">
        <ele>93</ele>
        <time>2022-07-14T06:30:03Z</time>
      </trkpt>
      <trkpt lat="47.13007" lon="-1.39905">
        <ele>93</ele>
        <time>2022-07-14T06:30:05Z</time>
      </trkpt>
      <trkpt lat="47.13014" lon="-1.3992">
        <ele>93</ele>
        <time>2022-07-14T06:30:07Z</time>
      </trkpt>
      <trkpt lat="47.13023" lon="-1.39935">
        <ele>93</ele>
        <time>2022-07-14T06:30:09Z</time>
      </trkpt>
      <trkpt lat="47.13033" lon="-1.39949">
        <ele>93</ele>
        <time>2022-07-14T06:30:11Z</time>
      </trkpt>
      <trkpt lat="47.13044" lon="-1.39962">
        <ele>93</ele>
        <time>2022-07-14T06:30:13Z</time>
      </trkpt>
      <trkpt lat="47.13055" lon="-1.39973">
        <ele>93</ele>
        <time>2022-07-14T06:30:15Z</time>
      </trkpt>
      <trkpt lat="47.13068" lon="-1.39983">
        <ele>93</ele>
        <time>2022-07-14T06:30:17Z</time>
      </trkpt>
      <trkpt lat="47.13081" lon="-1.39991">
        <ele>93</ele>
        <time>2022-07-14T06:30:19Z</time>
      </trkpt>
      <trkpt lat="47.13094" lon="-1.39998">
        <ele>93</ele>
        <time>2022-07-14T06:30:21Z</time>
      </trkpt>
      <trkpt lat="47.13107" lon="-1.40004">
        <ele>93</ele>
        <time>2022-07-14T06:30:23Z</time>
      </trkpt>
      <trkpt lat="47.1312" lon="-1.40011">
        <ele>93</ele>
        <time>2022-07-14T06:30:25Z</time>
      </trkpt>
      <trkpt lat="47.13133" lon="-1.40018">
        <ele>94</ele>
        <time>2022-07-14T06:30:27Z</time>
      </trkpt>
      <trkpt lat="47.13146" lon="-1.40024">
        <ele>93</ele>
        <time>2022-07-14T06:30:29Z</time>
      </trkpt>
      <trkpt lat="47.13158" lon="-1.40031">
        <ele>93</ele>
        <time>2022-07-14T06:30:31Z</time>
      </trkpt>
      <trkpt lat="47.1317" lon="-1.40039">
        <ele>92</ele>
        <time>2022-07-14T06:30:33Z</time>
      </trkpt>
      <trkpt lat="47.13183" lon="-1.40046">
        <ele>92</ele>
        <time>2022-07-14T06:30:35Z</time>
      </trkpt>
      <trkpt lat="47.13195" lon="-1.40054">
        <ele>92</ele>
        <time>2022-07-14T06:30:37Z</time>
      </trkpt>
      <trkpt lat="47.13207" lon="-1.40062">
        <ele>92</ele>
        <time>2022-07-14T06:30:39Z</time>
      </trkpt>
      <trkpt lat="47.13218" lon="-1.4007">
        <ele>93</ele>
        <time>2022-07-14T06:30:41Z</time>
      </trkpt>
      <trkpt lat="47.1323" lon="-1.4008">
        <ele>93</ele>
        <time>2022-07-14T06:30:43Z</time>
      </trkpt>
      <trkpt lat="47.13241" lon="-1.40089">
        <ele>92</ele>
        <time>2022-07-14T06:30:45Z</time>
      </trkpt>
      <trkpt lat="47.13253" lon="-1.40098">
        <ele>92</ele>
        <time>2022-07-14T06:30:47Z</time>
      </trkpt>
      <trkpt lat="47.13263" lon="-1.40108">
        <ele>92</ele>
        <time>2022-07-14T06:30:49Z</time>
      </trkpt>
      <trkpt lat="47.13274" lon="-1.40116">
        <ele>92</ele>
        <time>2022-07-14T06:30:51Z</time>
      </trkpt>
      <trkpt lat="47.13285" lon="-1.40125">
        <ele>93</ele>
        <time>2022-07-14T06:30:53Z</time>
      </trkpt>
      <trkpt lat="47.13296" lon="-1.40134">
        <ele>92</ele>
        <time>2022-07-14T06:30:55Z</time>
      </trkpt>
      <trkpt lat="47.13306" lon="-1.40143">
        <ele>93</ele>
        <time>2022-07-14T06:30:57Z</time>
      </trkpt>
      <trkpt lat="47.13316" lon="-1.40151">
        <ele>93</ele>
        <time>2022-07-14T06:30:59Z</time>
      </trkpt>
      <trkpt lat="47.13327" lon="-1.40159">
        <ele>93</ele>
        <time>2022-07-14T06:31:01Z</time>
      </trkpt>
      <trkpt lat="47.13344" lon="-1.4017">
        <ele>94</ele>
        <time>2022-07-14T06:31:04Z</time>
      </trkpt>
      <trkpt lat="47.13355" lon="-1.40175">
        <ele>94</ele>
        <time>2022-07-14T06:31:06Z</time>
      </trkpt>
      <trkpt lat="47.13367" lon="-1.40178">
        <ele>94</ele>
        <time>2022-07-14T06:31:08Z</time>
      </trkpt>
      <trkpt lat="47.13384" lon="-1.40179">
        <ele>93</ele>
        <time>2022-07-14T06:31:11Z</time>
      </trkpt>
      <trkpt lat="47.13396" lon="-1.40179">
        <ele>93</ele>
        <time>2022-07-14T06:31:13Z</time>
      </trkpt>
      <trkpt lat="47.13408" lon="-1.40179">
        <ele>93</ele>
        <time>2022-07-14T06:31:15Z</time>
      </trkpt>
      <trkpt lat="47.1342" lon="-1.4018">
        <ele>93</ele>
        <time>2022-07-14T06:31:17Z</time>
      </trkpt>
      <trkpt lat="47.13432" lon="-1.40182">
        <ele>93</ele>
        <time>2022-07-14T06:31:19Z</time>
      </trkpt>
      <trkpt lat="47.13444" lon="-1.40186">
        <ele>93</ele>
        <time>2022-07-14T06:31:21Z</time>
      </trkpt>
      <trkpt lat="47.13456" lon="-1.4019">
        <ele>94</ele>
        <time>2022-07-14T06:31:23Z</time>
      </trkpt>
      <trkpt lat="47.13468" lon="-1.40195">
        <ele>94</ele>
        <time>2022-07-14T06:31:25Z</time>
      </trkpt>
      <trkpt lat="47.13479" lon="-1.40201">
        <ele>94</ele>
        <time>2022-07-14T06:31:27Z</time>
      </trkpt>
      <trkpt lat="47.13491" lon="-1.40206">
        <ele>94</ele>
        <time>2022-07-14T06:31:29Z</time>
      </trkpt>
      <trkpt lat="47.13502" lon="-1.40211">
        <ele>94</ele>
        <time>2022-07-14T06:31:31Z</time>
      </trkpt>
      <trkpt lat="47.13514" lon="-1.40217">
        <ele>93</ele>
        <time>2022-07-14T06:31:33Z</time>
      </trkpt>
      <trkpt lat="47.13525" lon="-1.40223">
        <ele>93</ele>
        <time>2022-07-14T06:31:35Z</time>
      </trkpt>
      <trkpt lat="47.13537" lon="-1.40228">
        <ele>93</ele>
        <time>2022-07-14T06:31:37Z</time>
      </trkpt>
      <trkpt lat="47.13549" lon="-1.40233">
        <ele>92</ele>
        <time>2022-07-14T06:31:39Z</time>
      </trkpt>
      <trkpt lat="47.13561" lon="-1.40239">
        <ele>92</ele>
        <time>2022-07-14T06:31:41Z</time>
      </trkpt>
      <trkpt lat="47.13573" lon="-1.40244">
        <ele>92</ele>
        <time>2022-07-14T06:31:43Z</time>
      </trkpt>
      <trkpt lat="47.13585" lon="-1.4025">
        <ele>92</ele>
        <time>2022-07-14T06:31:45Z</time>
      </trkpt>
      <trkpt lat="47.13597" lon="-1.40256">
        <ele>92</ele>
        <time>2022-07-14T06:31:47Z</time>
      </trkpt>
      <trkpt lat="47.13609" lon="-1.40261">
        <ele>92</ele>
        <time>2022-07-14T06:31:49Z</time>
      </trkpt>
      <trkpt lat="47.1362" lon="-1.40266">
        <ele>92</ele>
        <time>2022-07-14T06:31:51Z</time>
      </trkpt>
      <trkpt lat="47.13632" lon="-1.40271">
        <ele>92</ele>
        <time>2022-07-14T06:31:53Z</time>
      </trkpt>
      <trkpt lat="47.13643" lon="-1.40275">
        <ele>92</ele>
        <time>2022-07-14T06:31:55Z</time>
      </trkpt>
      <trkpt lat="47.13654" lon="-1.40278">
        <ele>92</ele>
        <time>2022-07-14T06:31:57Z</time>
      </trkpt>
      <trkpt lat="47.13666" lon="-1.40279">
        <ele>92</ele>
        <time>2022-07-14T06:31:59Z</time>
      </trkpt>
      <trkpt lat="47.13678" lon="-1.40279">
        <ele>92</ele>
        <time>2022-07-14T06:32:01Z</time>
      </trkpt>
      <trkpt lat="47.13689" lon="-1.40277">
        <ele>92</ele>
        <time>2022-07-14T06:32:03Z</time>
      </trkpt>
      <trkpt lat="47.13701" lon="-1.40276">
        <ele>91</ele>
        <time>2022-07-14T06:32:05Z</time>
      </trkpt>
      <trkpt lat="47.13713" lon="-1.40273">
        <ele>91</ele>
        <time>2022-07-14T06:32:07Z</time>
      </trkpt>
      <trkpt lat="47.13724" lon="-1.40271">
        <ele>90</ele>
        <time>2022-07-14T06:32:09Z</time>
      </trkpt>
      <trkpt lat="47.13736" lon="-1.40269">
        <ele>90</ele>
        <time>2022-07-14T06:32:11Z</time>
      </trkpt>
      <trkpt lat="47.13748" lon="-1.40267">
        <ele>90</ele>
        <time>2022-07-14T06:32:13Z</time>
      </trkpt>
      <trkpt lat="47.1376" lon="-1.40265">
        <ele>90</ele>
        <time>2022-07-14T06:32:15Z</time>
      </trkpt>
      <trkpt lat="47.13772" lon="-1.40262">
        <ele>90</ele>
        <time>2022-07-14T06:32:17Z</time>
      </trkpt>
      <trkpt lat="47.13784" lon="-1.4026">
        <ele>90</ele>
        <time>2022-07-14T06:32:19Z</time>
      </trkpt>
      <trkpt lat="47.13795" lon="-1.40258">
        <ele>90</ele>
        <time>2022-07-14T06:32:21Z</time>
      </trkpt>
      <trkpt lat="47.13807" lon="-1.40256">
        <ele>90</ele>
        <time>2022-07-14T06:32:23Z</time>
      </trkpt>
      <trkpt lat="47.13818" lon="-1.40254">
        <ele>90</ele>
        <time>2022-07-14T06:32:25Z</time>
      </trkpt>
      <trkpt lat="47.13831" lon="-1.40252">
        <ele>90</ele>
        <time>2022-07-14T06:32:27Z</time>
      </trkpt>
      <trkpt lat="47.13842" lon="-1.4025">
        <ele>90</ele>
        <time>2022-07-14T06:32:29Z</time>
      </trkpt>
      <trkpt lat="47.13854" lon="-1.40247">
        <ele>90</ele>
        <time>2022-07-14T06:32:31Z</time>
      </trkpt>
      <trkpt lat="47.13865" lon="-1.40245">
        <ele>90</ele>
        <time>2022-07-14T06:32:33Z</time>
      </trkpt>
      <trkpt lat="47.13877" lon="-1.40243">
        <ele>90</ele>
        <time>2022-07-14T06:32:35Z</time>
      </trkpt>
      <trkpt lat="47.13889" lon="-1.40242">
        <ele>90</ele>
        <time>2022-07-14T06:32:37Z</time>
      </trkpt>
      <trkpt lat="47.139" lon="-1.40241">
        <ele>90</ele>
        <time>2022-07-14T06:32:39Z</time>
      </trkpt>
      <trkpt lat="47.13912" lon="-1.40242">
        <ele>90</ele>
        <time>2022-07-14T06:32:41Z</time>
      </trkpt>
      <trkpt lat="47.13923" lon="-1.40244">
        <ele>90</ele>
        <time>2022-07-14T06:32:43Z</time>
      </trkpt>
      <trkpt lat="47.13935" lon="-1.40247">
        <ele>90</ele>
        <time>2022-07-14T06:32:45Z</time>
      </trkpt>
      <trkpt lat="47.13947" lon="-1.40252">
        <ele>90</ele>
        <time>2022-07-14T06:32:47Z</time>
      </trkpt>
      <trkpt lat="47.13957" lon="-1.40257">
        <ele>90</ele>
        <time>2022-07-14T06:32:49Z</time>
      </trkpt>
      <trkpt lat="47.13968" lon="-1.40263">
        <ele>90</ele>
        <time>2022-07-14T06:32:51Z</time>
      </trkpt>
      <trkpt lat="47.13979" lon="-1.4027">
        <ele>90</ele>
        <time>2022-07-14T06:32:53Z</time>
      </trkpt>
      <trkpt lat="47.1399" lon="-1.40278">
        <ele>90</ele>
        <time>2022-07-14T06:32:55Z</time>
      </trkpt>
      <trkpt lat="47.13999" lon="-1.40288">
        <ele>90</ele>
        <time>2022-07-14T06:32:57Z</time>
      </trkpt>
      <trkpt lat="47.14009" lon="-1.403">
        <ele>90</ele>
        <time>2022-07-14T06:32:59Z</time>
      </trkpt>
      <trkpt lat="47.14017" lon="-1.40313">
        <ele>91</ele>
        <time>2022-07-14T06:33:01Z</time>
      </trkpt>
      <trkpt lat="47.14025" lon="-1.40326">
        <ele>91</ele>
        <time>2022-07-14T06:33:03Z</time>
      </trkpt>
      <trkpt lat="47.14033" lon="-1.40341">
        <ele>91</ele>
        <time>2022-07-14T06:33:05Z</time>
      </trkpt>
      <trkpt lat="47.14039" lon="-1.40356">
        <ele>91</ele>
        <time>2022-07-14T06:33:07Z</time>
      </trkpt>
      <trkpt lat="47.14045" lon="-1.40372">
        <ele>91</ele>
        <time>2022-07-14T06:33:09Z</time>
      </trkpt>
      <trkpt lat="47.1405" lon="-1.4039">
        <ele>91</ele>
        <time>2022-07-14T06:33:11Z</time>
      </trkpt>
      <trkpt lat="47.14056" lon="-1.40407">
        <ele>91</ele>
        <time>2022-07-14T06:33:13Z</time>
      </trkpt>
      <trkpt lat="47.14061" lon="-1.40424">
        <ele>91</ele>
        <time>2022-07-14T06:33:15Z</time>
      </trkpt>
      <trkpt lat="47.14067" lon="-1.40439">
        <ele>91</ele>
        <time>2022-07-14T06:33:17Z</time>
      </trkpt>
      <trkpt lat="47.14074" lon="-1.40454">
        <ele>91</ele>
        <time>2022-07-14T06:33:19Z</time>
      </trkpt>
      <trkpt lat="47.14082" lon="-1.40469">
        <ele>91</ele>
        <time>2022-07-14T06:33:21Z</time>
      </trkpt>
      <trkpt lat="47.14091" lon="-1.40482">
        <ele>91</ele>
        <time>2022-07-14T06:33:23Z</time>
      </trkpt>
      <trkpt lat="47.141" lon="-1.40494">
        <ele>91</ele>
        <time>2022-07-14T06:33:25Z</time>
      </trkpt>
      <trkpt lat="47.14108" lon="-1.40507">
        <ele>91</ele>
        <time>2022-07-14T06:33:27Z</time>
      </trkpt>
      <trkpt lat="47.14118" lon="-1.4052">
        <ele>91</ele>
        <time>2022-07-14T06:33:29Z</time>
      </trkpt>
      <trkpt lat="47.14127" lon="-1.40533">
        <ele>91</ele>
        <time>2022-07-14T06:33:31Z</time>
      </trkpt>
      <trkpt lat="47.14136" lon="-1.40546">
        <ele>91</ele>
        <time>2022-07-14T06:33:33Z</time>
      </trkpt>
      <trkpt lat="47.14145" lon="-1.40558">
        <ele>90</ele>
        <time>2022-07-14T06:33:35Z</time>
      </trkpt>
      <trkpt lat="47.14154" lon="-1.40571">
        <ele>90</ele>
        <time>2022-07-14T06:33:37Z</time>
      </trkpt>
      <trkpt lat="47.14164" lon="-1.40584">
        <ele>90</ele>
        <time>2022-07-14T06:33:39Z</time>
      </trkpt>
      <trkpt lat="47.14173" lon="-1.40598">
        <ele>90</ele>
        <time>2022-07-14T06:33:41Z</time>
      </trkpt>
      <trkpt lat="47.14183" lon="-1.40611">
        <ele>90</ele>
        <time>2022-07-14T06:33:43Z</time>
      </trkpt>
      <trkpt lat="47.14192" lon="-1.40624">
        <ele>90</ele>
        <time>2022-07-14T06:33:45Z</time>
      </trkpt>
      <trkpt lat="47.14201" lon="-1.40638">
        <ele>90</ele>
        <time>2022-07-14T06:33:47Z</time>
      </trkpt>
      <trkpt lat="47.14211" lon="-1.40651">
        <ele>90</ele>
        <time>2022-07-14T06:33:49Z</time>
      </trkpt>
      <trkpt lat="47.1422" lon="-1.40665">
        <ele>89</ele>
        <time>2022-07-14T06:33:51Z</time>
      </trkpt>
      <trkpt lat="47.14229" lon="-1.40679">
        <ele>89</ele>
        <time>2022-07-14T06:33:53Z</time>
      </trkpt>
      <trkpt lat="47.14238" lon="-1.40694">
        <ele>89</ele>
        <time>2022-07-14T06:33:55Z</time>
      </trkpt>
      <trkpt lat="47.14246" lon="-1.40709">
        <ele>89</ele>
        <time>2022-07-14T06:33:57Z</time>
      </trkpt>
      <trkpt lat="47.14255" lon="-1.40724">
        <ele>89</ele>
        <time>2022-07-14T06:33:59Z</time>
      </trkpt>
      <trkpt lat="47.14264" lon="-1.40739">
        <ele>89</ele>
        <time>2022-07-14T06:34:01Z</time>
      </trkpt>
      <trkpt lat="47.14272" lon="-1.40754">
        <ele>89</ele>
        <time>2022-07-14T06:34:03Z</time>
      </trkpt>
      <trkpt lat="47.14281" lon="-1.40769">
        <ele>89</ele>
        <time>2022-07-14T06:34:05Z</time>
      </trkpt>
      <trkpt lat="47.14289" lon="-1.40784">
        <ele>88</ele>
        <time>2022-07-14T06:34:07Z</time>
      </trkpt>
      <trkpt lat="47.14297" lon="-1.408">
        <ele>88</ele>
        <time>2022-07-14T06:34:09Z</time>
      </trkpt>
      <trkpt lat="47.14306" lon="-1.40815">
        <ele>88</ele>
        <time>2022-07-14T06:34:11Z</time>
      </trkpt>
      <trkpt lat="47.14314" lon="-1.4083">
        <ele>88</ele>
        <time>2022-07-14T06:34:13Z</time>
      </trkpt>
      <trkpt lat="47.14322" lon="-1.40844">
        <ele>88</ele>
        <time>2022-07-14T06:34:15Z</time>
      </trkpt>
      <trkpt lat="47.14329" lon="-1.40858">
        <ele>89</ele>
        <time>2022-07-14T06:34:17Z</time>
      </trkpt>
      <trkpt lat="47.14337" lon="-1.40872">
        <ele>89</ele>
        <time>2022-07-14T06:34:19Z</time>
      </trkpt>
      <trkpt lat="47.14345" lon="-1.40887">
        <ele>89</ele>
        <time>2022-07-14T06:34:21Z</time>
      </trkpt>
      <trkpt lat="47.14353" lon="-1.409">
        <ele>89</ele>
        <time>2022-07-14T06:34:23Z</time>
      </trkpt>
      <trkpt lat="47.1436" lon="-1.40913">
        <ele>89</ele>
        <time>2022-07-14T06:34:25Z</time>
      </trkpt>
      <trkpt lat="47.14367" lon="-1.40927">
        <ele>90</ele>
        <time>2022-07-14T06:34:27Z</time>
      </trkpt>
      <trkpt lat="47.14375" lon="-1.40941">
        <ele>90</ele>
        <time>2022-07-14T06:34:29Z</time>
      </trkpt>
      <trkpt lat="47.14382" lon="-1.40955">
        <ele>90</ele>
        <time>2022-07-14T06:34:31Z</time>
      </trkpt>
      <trkpt lat="47.1439" lon="-1.40969">
        <ele>90</ele>
        <time>2022-07-14T06:34:33Z</time>
      </trkpt>
      <trkpt lat="47.14397" lon="-1.40985">
        <ele>90</ele>
        <time>2022-07-14T06:34:35Z</time>
      </trkpt>
      <trkpt lat="47.14402" lon="-1.41002">
        <ele>90</ele>
        <time>2022-07-14T06:34:37Z</time>
      </trkpt>
      <trkpt lat="47.14405" lon="-1.41019">
        <ele>90</ele>
        <time>2022-07-14T06:34:39Z</time>
      </trkpt>
      <trkpt lat="47.14407" lon="-1.41037">
        <ele>90</ele>
        <time>2022-07-14T06:34:41Z</time>
      </trkpt>
      <trkpt lat="47.14408" lon="-1.41054">
        <ele>90</ele>
        <time>2022-07-14T06:34:43Z</time>
      </trkpt>
      <trkpt lat="47.14407" lon="-1.41073">
        <ele>91</ele>
        <time>2022-07-14T06:34:45Z</time>
      </trkpt>
      <trkpt lat="47.14406" lon="-1.41091">
        <ele>91</ele>
        <time>2022-07-14T06:34:47Z</time>
      </trkpt>
      <trkpt lat="47.14405" lon="-1.41109">
        <ele>91</ele>
        <time>2022-07-14T06:34:49Z</time>
      </trkpt>
      <trkpt lat="47.14404" lon="-1.41127">
        <ele>91</ele>
        <time>2022-07-14T06:34:51Z</time>
      </trkpt>
      <trkpt lat="47.14403" lon="-1.41145">
        <ele>91</ele>
        <time>2022-07-14T06:34:53Z</time>
      </trkpt>
      <trkpt lat="47.14402" lon="-1.41162">
        <ele>91</ele>
        <time>2022-07-14T06:34:55Z</time>
      </trkpt>
      <trkpt lat="47.144" lon="-1.41181">
        <ele>92</ele>
        <time>2022-07-14T06:34:57Z</time>
      </trkpt>
      <trkpt lat="47.14399" lon="-1.41199">
        <ele>92</ele>
        <time>2022-07-14T06:34:59Z</time>
      </trkpt>
      <trkpt lat="47.14398" lon="-1.41218">
        <ele>92</ele>
        <time>2022-07-14T06:35:01Z</time>
      </trkpt>
      <trkpt lat="47.14397" lon="-1.41237">
        <ele>92</ele>
        <time>2022-07-14T06:35:03Z</time>
      </trkpt>
      <trkpt lat="47.14396" lon="-1.41255">
        <ele>92</ele>
        <time>2022-07-14T06:35:05Z</time>
      </trkpt>
      <trkpt lat="47.14396" lon="-1.41273">
        <ele>92</ele>
        <time>2022-07-14T06:35:07Z</time>
      </trkpt>
      <trkpt lat="47.14394" lon="-1.41291">
        <ele>93</ele>
        <time>2022-07-14T06:35:09Z</time>
      </trkpt>
      <trkpt lat="47.14393" lon="-1.41308">
        <ele>93</ele>
        <time>2022-07-14T06:35:11Z</time>
      </trkpt>
      <trkpt lat="47.14393" lon="-1.41326">
        <ele>93</ele>
        <time>2022-07-14T06:35:13Z</time>
      </trkpt>
      <trkpt lat="47.14393" lon="-1.41343">
        <ele>93</ele>
        <time>2022-07-14T06:35:15Z</time>
      </trkpt>
      <trkpt lat="47.14394" lon="-1.4136">
        <ele>93</ele>
        <time>2022-07-14T06:35:17Z</time>
      </trkpt>
      <trkpt lat="47.14394" lon="-1.41377">
        <ele>93</ele>
        <time>2022-07-14T06:35:19Z</time>
      </trkpt>
      <trkpt lat="47.14395" lon="-1.41395">
        <ele>94</ele>
        <time>2022-07-14T06:35:21Z</time>
      </trkpt>
      <trkpt lat="47.14395" lon="-1.41412">
        <ele>94</ele>
        <time>2022-07-14T06:35:23Z</time>
      </trkpt>
      <trkpt lat="47.14395" lon="-1.41428">
        <ele>94</ele>
        <time>2022-07-14T06:35:25Z</time>
      </trkpt>
      <trkpt lat="47.14395" lon="-1.41445">
        <ele>94</ele>
        <time>2022-07-14T06:35:27Z</time>
      </trkpt>
      <trkpt lat="47.14395" lon="-1.41462">
        <ele>94</ele>
        <time>2022-07-14T06:35:29Z</time>
      </trkpt>
      <trkpt lat="47.14396" lon="-1.41479">
        <ele>95</ele>
        <time>2022-07-14T06:35:31Z</time>
      </trkpt>
      <trkpt lat="47.14396" lon="-1.41496">
        <ele>95</ele>
        <time>2022-07-14T06:35:33Z</time>
      </trkpt>
      <trkpt lat="47.14396" lon="-1.41512">
        <ele>95</ele>
        <time>2022-07-14T06:35:35Z</time>
      </trkpt>
      <trkpt lat="47.14396" lon="-1.41529">
        <ele>96</ele>
        <time>2022-07-14T06:35:37Z</time>
      </trkpt>
      <trkpt lat="47.14396" lon="-1.41546">
        <ele>96</ele>
        <time>2022-07-14T06:35:39Z</time>
      </trkpt>
      <trkpt lat="47.14397" lon="-1.41562">
        <ele>96</ele>
        <time>2022-07-14T06:35:41Z</time>
      </trkpt>
      <trkpt lat="47.14397" lon="-1.41578">
        <ele>96</ele>
        <time>2022-07-14T06:35:43Z</time>
      </trkpt>
      <trkpt lat="47.14394" lon="-1.41593">
        <ele>96</ele>
        <time>2022-07-14T06:35:45Z</time>
      </trkpt>
      <trkpt lat="47.1439" lon="-1.41609">
        <ele>96</ele>
        <time>2022-07-14T06:35:47Z</time>
      </trkpt>
      <trkpt lat="47.14386" lon="-1.41625">
        <ele>96</ele>
        <time>2022-07-14T06:35:49Z</time>
      </trkpt>
      <trkpt lat="47.14382" lon="-1.41642">
        <ele>96</ele>
        <time>2022-07-14T06:35:51Z</time>
      </trkpt>
      <trkpt lat="47.14382" lon="-1.41659">
        <ele>96</ele>
        <time>2022-07-14T06:35:53Z</time>
      </trkpt>
      <trkpt lat="47.14384" lon="-1.41676">
        <ele>96</ele>
        <time>2022-07-14T06:35:55Z</time>
      </trkpt>
      <trkpt lat="47.14388" lon="-1.41694">
        <ele>96</ele>
        <time>2022-07-14T06:35:57Z</time>
      </trkpt>
      <trkpt lat="47.14393" lon="-1.41712">
        <ele>95</ele>
        <time>2022-07-14T06:35:59Z</time>
      </trkpt>
      <trkpt lat="47.14398" lon="-1.41731">
        <ele>95</ele>
        <time>2022-07-14T06:36:01Z</time>
      </trkpt>
      <trkpt lat="47.144" lon="-1.41751">
        <ele>94</ele>
        <time>2022-07-14T06:36:03Z</time>
      </trkpt>
      <trkpt lat="47.14402" lon="-1.41771">
        <ele>94</ele>
        <time>2022-07-14T06:36:05Z</time>
      </trkpt>
      <trkpt lat="47.14403" lon="-1.41793">
        <ele>93</ele>
        <time>2022-07-14T06:36:07Z</time>
      </trkpt>
      <trkpt lat="47.14404" lon="-1.41815">
        <ele>92</ele>
        <time>2022-07-14T06:36:09Z</time>
      </trkpt>
      <trkpt lat="47.14406" lon="-1.41837">
        <ele>91</ele>
        <time>2022-07-14T06:36:11Z</time>
      </trkpt>
      <trkpt lat="47.14409" lon="-1.41858">
        <ele>91</ele>
        <time>2022-07-14T06:36:13Z</time>
      </trkpt>
      <trkpt lat="47.14414" lon="-1.41878">
        <ele>90</ele>
        <time>2022-07-14T06:36:15Z</time>
      </trkpt>
      <trkpt lat="47.14419" lon="-1.41898">
        <ele>90</ele>
        <time>2022-07-14T06:36:17Z</time>
      </trkpt>
      <trkpt lat="47.14423" lon="-1.41917">
        <ele>89</ele>
        <time>2022-07-14T06:36:19Z</time>
      </trkpt>
      <trkpt lat="47.14428" lon="-1.41938">
        <ele>88</ele>
        <time>2022-07-14T06:36:21Z</time>
      </trkpt>
      <trkpt lat="47.14434" lon="-1.41959">
        <ele>87</ele>
        <time>2022-07-14T06:36:23Z</time>
      </trkpt>
      <trkpt lat="47.14439" lon="-1.41981">
        <ele>87</ele>
        <time>2022-07-14T06:36:25Z</time>
      </trkpt>
      <trkpt lat="47.14444" lon="-1.42003">
        <ele>86</ele>
        <time>2022-07-14T06:36:27Z</time>
      </trkpt>
      <trkpt lat="47.1445" lon="-1.42025">
        <ele>85</ele>
        <time>2022-07-14T06:36:29Z</time>
      </trkpt>
      <trkpt lat="47.14458" lon="-1.42046">
        <ele>84</ele>
        <time>2022-07-14T06:36:31Z</time>
      </trkpt>
      <trkpt lat="47.14467" lon="-1.42066">
        <ele>82</ele>
        <time>2022-07-14T06:36:33Z</time>
      </trkpt>
      <trkpt lat="47.14476" lon="-1.42087">
        <ele>81</ele>
        <time>2022-07-14T06:36:35Z</time>
      </trkpt>
      <trkpt lat="47.14484" lon="-1.42108">
        <ele>80</ele>
        <time>2022-07-14T06:36:37Z</time>
      </trkpt>
      <trkpt lat="47.14493" lon="-1.42129">
        <ele>78</ele>
        <time>2022-07-14T06:36:39Z</time>
      </trkpt>
      <trkpt lat="47.14501" lon="-1.42151">
        <ele>77</ele>
        <time>2022-07-14T06:36:41Z</time>
      </trkpt>
      <trkpt lat="47.1451" lon="-1.42173">
        <ele>76</ele>
        <time>2022-07-14T06:36:43Z</time>
      </trkpt>
      <trkpt lat="47.14517" lon="-1.42195">
        <ele>75</ele>
        <time>2022-07-14T06:36:45Z</time>
      </trkpt>
      <trkpt lat="47.14525" lon="-1.42218">
        <ele>74</ele>
        <time>2022-07-14T06:36:47Z</time>
      </trkpt>
      <trkpt lat="47.14533" lon="-1.42239">
        <ele>73</ele>
        <time>2022-07-14T06:36:49Z</time>
      </trkpt>
      <trkpt lat="47.14541" lon="-1.42259">
        <ele>73</ele>
        <time>2022-07-14T06:36:51Z</time>
      </trkpt>
      <trkpt lat="47.14549" lon="-1.42277">
        <ele>73</ele>
        <time>2022-07-14T06:36:53Z</time>
      </trkpt>
      <trkpt lat="47.14558" lon="-1.42294">
        <ele>73</ele>
        <time>2022-07-14T06:36:55Z</time>
      </trkpt>
      <trkpt lat="47.14567" lon="-1.42309">
        <ele>73</ele>
        <time>2022-07-14T06:36:57Z</time>
      </trkpt>
      <trkpt lat="47.14578" lon="-1.42323">
        <ele>74</ele>
        <time>2022-07-14T06:36:59Z</time>
      </trkpt>
      <trkpt lat="47.14588" lon="-1.42334">
        <ele>74</ele>
        <time>2022-07-14T06:37:01Z</time>
      </trkpt>
      <trkpt lat="47.14599" lon="-1.42345">
        <ele>74</ele>
        <time>2022-07-14T06:37:03Z</time>
      </trkpt>
      <trkpt lat="47.14609" lon="-1.42355">
        <ele>75</ele>
        <time>2022-07-14T06:37:05Z</time>
      </trkpt>
      <trkpt lat="47.14619" lon="-1.42365">
        <ele>75</ele>
        <time>2022-07-14T06:37:07Z</time>
      </trkpt>
      <trkpt lat="47.14629" lon="-1.42375">
        <ele>76</ele>
        <time>2022-07-14T06:37:09Z</time>
      </trkpt>
      <trkpt lat="47.14639" lon="-1.42385">
        <ele>77</ele>
        <time>2022-07-14T06:37:11Z</time>
      </trkpt>
      <trkpt lat="47.14649" lon="-1.42394">
        <ele>77</ele>
        <time>2022-07-14T06:37:13Z</time>
      </trkpt>
      <trkpt lat="47.14658" lon="-1.42403">
        <ele>78</ele>
        <time>2022-07-14T06:37:15Z</time>
      </trkpt>
      <trkpt lat="47.14667" lon="-1.42412">
        <ele>78</ele>
        <time>2022-07-14T06:37:17Z</time>
      </trkpt>
      <trkpt lat="47.14676" lon="-1.42421">
        <ele>79</ele>
        <time>2022-07-14T06:37:19Z</time>
      </trkpt>
      <trkpt lat="47.14685" lon="-1.4243">
        <ele>79</ele>
        <time>2022-07-14T06:37:21Z</time>
      </trkpt>
      <trkpt lat="47.14694" lon="-1.42439">
        <ele>80</ele>
        <time>2022-07-14T06:37:23Z</time>
      </trkpt>
      <trkpt lat="47.14703" lon="-1.42448">
        <ele>80</ele>
        <time>2022-07-14T06:37:25Z</time>
      </trkpt>
      <trkpt lat="47.14712" lon="-1.42457">
        <ele>81</ele>
        <time>2022-07-14T06:37:27Z</time>
      </trkpt>
      <trkpt lat="47.14721" lon="-1.42466">
        <ele>81</ele>
        <time>2022-07-14T06:37:29Z</time>
      </trkpt>
      <trkpt lat="47.1473" lon="-1.42475">
        <ele>82</ele>
        <time>2022-07-14T06:37:31Z</time>
      </trkpt>
      <trkpt lat="47.14739" lon="-1.42483">
        <ele>82</ele>
        <time>2022-07-14T06:37:33Z</time>
      </trkpt>
      <trkpt lat="47.14747" lon="-1.42492">
        <ele>82</ele>
        <time>2022-07-14T06:37:35Z</time>
      </trkpt>
      <trkpt lat="47.14756" lon="-1.42501">
        <ele>82</ele>
        <time>2022-07-14T06:37:37Z</time>
      </trkpt>
      <trkpt lat="47.14765" lon="-1.42509">
        <ele>83</ele>
        <time>2022-07-14T06:37:39Z</time>
      </trkpt>
      <trkpt lat="47.14773" lon="-1.42518">
        <ele>83</ele>
        <time>2022-07-14T06:37:41Z</time>
      </trkpt>
      <trkpt lat="47.14782" lon="-1.42527">
        <ele>83</ele>
        <time>2022-07-14T06:37:43Z</time>
      </trkpt>
      <trkpt lat="47.1479" lon="-1.42536">
        <ele>83</ele>
        <time>2022-07-14T06:37:45Z</time>
      </trkpt>
      <trkpt lat="47.14798" lon="-1.42546">
        <ele>84</ele>
        <time>2022-07-14T06:37:47Z</time>
      </trkpt>
      <trkpt lat="47.14807" lon="-1.42556">
        <ele>83</ele>
        <time>2022-07-14T06:37:49Z</time>
      </trkpt>
      <trkpt lat="47.14815" lon="-1.42566">
        <ele>83</ele>
        <time>2022-07-14T06:37:51Z</time>
      </trkpt>
      <trkpt lat="47.14823" lon="-1.42577">
        <ele>83</ele>
        <time>2022-07-14T06:37:53Z</time>
      </trkpt>
      <trkpt lat="47.14831" lon="-1.42588">
        <ele>83</ele>
        <time>2022-07-14T06:37:55Z</time>
      </trkpt>
      <trkpt lat="47.1484" lon="-1.42599">
        <ele>83</ele>
        <time>2022-07-14T06:37:57Z</time>
      </trkpt>
      <trkpt lat="47.14848" lon="-1.42611">
        <ele>83</ele>
        <time>2022-07-14T06:37:59Z</time>
      </trkpt>
      <trkpt lat="47.14857" lon="-1.42623">
        <ele>82</ele>
        <time>2022-07-14T06:38:01Z</time>
      </trkpt>
      <trkpt lat="47.14866" lon="-1.42634">
        <ele>82</ele>
        <time>2022-07-14T06:38:03Z</time>
      </trkpt>
      <trkpt lat="47.14875" lon="-1.42647">
        <ele>81</ele>
        <time>2022-07-14T06:38:05Z</time>
      </trkpt>
      <trkpt lat="47.14885" lon="-1.4266">
        <ele>81</ele>
        <time>2022-07-14T06:38:07Z</time>
      </trkpt>
      <trkpt lat="47.14894" lon="-1.42673">
        <ele>80</ele>
        <time>2022-07-14T06:38:09Z</time>
      </trkpt>
      <trkpt lat="47.14904" lon="-1.42688">
        <ele>80</ele>
        <time>2022-07-14T06:38:11Z</time>
      </trkpt>
      <trkpt lat="47.14914" lon="-1.42703">
        <ele>79</ele>
        <time>2022-07-14T06:38:13Z</time>
      </trkpt>
      <trkpt lat="47.14924" lon="-1.42719">
        <ele>78</ele>
        <time>2022-07-14T06:38:15Z</time>
      </trkpt>
      <trkpt lat="47.14934" lon="-1.42735">
        <ele>78</ele>
        <time>2022-07-14T06:38:17Z</time>
      </trkpt>
      <trkpt lat="47.14944" lon="-1.42751">
        <ele>77</ele>
        <time>2022-07-14T06:38:19Z</time>
      </trkpt>
      <trkpt lat="47.14954" lon="-1.42767">
        <ele>77</ele>
        <time>2022-07-14T06:38:21Z</time>
      </trkpt>
      <trkpt lat="47.14964" lon="-1.42783">
        <ele>77</ele>
        <time>2022-07-14T06:38:23Z</time>
      </trkpt>
      <trkpt lat="47.14974" lon="-1.42798">
        <ele>77</ele>
        <time>2022-07-14T06:38:25Z</time>
      </trkpt>
      <trkpt lat="47.14984" lon="-1.42814">
        <ele>76</ele>
        <time>2022-07-14T06:38:27Z</time>
      </trkpt>
      <trkpt lat="47.14994" lon="-1.42829">
        <ele>77</ele>
        <time>2022-07-14T06:38:29Z</time>
      </trkpt>
      <trkpt lat="47.15005" lon="-1.42843">
        <ele>76</ele>
        <time>2022-07-14T06:38:31Z</time>
      </trkpt>
      <trkpt lat="47.15016" lon="-1.42854">
        <ele>77</ele>
        <time>2022-07-14T06:38:33Z</time>
      </trkpt>
      <trkpt lat="47.1503" lon="-1.42862">
        <ele>77</ele>
        <time>2022-07-14T06:38:35Z</time>
      </trkpt>
      <trkpt lat="47.15043" lon="-1.42866">
        <ele>77</ele>
        <time>2022-07-14T06:38:37Z</time>
      </trkpt>
      <trkpt lat="47.15055" lon="-1.42871">
        <ele>76</ele>
        <time>2022-07-14T06:38:39Z</time>
      </trkpt>
      <trkpt lat="47.15068" lon="-1.42874">
        <ele>76</ele>
        <time>2022-07-14T06:38:41Z</time>
      </trkpt>
      <trkpt lat="47.15081" lon="-1.42878">
        <ele>76</ele>
        <time>2022-07-14T06:38:43Z</time>
      </trkpt>
      <trkpt lat="47.15094" lon="-1.42883">
        <ele>76</ele>
        <time>2022-07-14T06:38:45Z</time>
      </trkpt>
      <trkpt lat="47.15107" lon="-1.42886">
        <ele>76</ele>
        <time>2022-07-14T06:38:47Z</time>
      </trkpt>
      <trkpt lat="47.1512" lon="-1.42891">
        <ele>76</ele>
        <time>2022-07-14T06:38:49Z</time>
      </trkpt>
      <trkpt lat="47.15133" lon="-1.42898">
        <ele>75</ele>
        <time>2022-07-14T06:38:51Z</time>
      </trkpt>
      <trkpt lat="47.15145" lon="-1.42904">
        <ele>76</ele>
        <time>2022-07-14T06:38:53Z</time>
      </trkpt>
      <trkpt lat="47.15157" lon="-1.42911">
        <ele>76</ele>
        <time>2022-07-14T06:38:55Z</time>
      </trkpt>
      <trkpt lat="47.15169" lon="-1.42918">
        <ele>75</ele>
        <time>2022-07-14T06:38:57Z</time>
      </trkpt>
      <trkpt lat="47.15182" lon="-1.42926">
        <ele>74</ele>
        <time>2022-07-14T06:38:59Z</time>
      </trkpt>
      <trkpt lat="47.15194" lon="-1.42938">
        <ele>74</ele>
        <time>2022-07-14T06:39:01Z</time>
      </trkpt>
      <trkpt lat="47.15204" lon="-1.42953">
        <ele>73</ele>
        <time>2022-07-14T06:39:03Z</time>
      </trkpt>
      <trkpt lat="47.15214" lon="-1.42971">
        <ele>73</ele>
        <time>2022-07-14T06:39:05Z</time>
      </trkpt>
      <trkpt lat="47.15223" lon="-1.42988">
        <ele>73</ele>
        <time>2022-07-14T06:39:07Z</time>
      </trkpt>
      <trkpt lat="47.15233" lon="-1.43007">
        <ele>72</ele>
        <time>2022-07-14T06:39:09Z</time>
      </trkpt>
      <trkpt lat="47.15241" lon="-1.43029">
        <ele>71</ele>
        <time>2022-07-14T06:39:11Z</time>
      </trkpt>
      <trkpt lat="47.15248" lon="-1.43053">
        <ele>70</ele>
        <time>2022-07-14T06:39:13Z</time>
      </trkpt>
      <trkpt lat="47.15252" lon="-1.43078">
        <ele>68</ele>
        <time>2022-07-14T06:39:15Z</time>
      </trkpt>
      <trkpt lat="47.15253" lon="-1.43103">
        <ele>67</ele>
        <time>2022-07-14T06:39:17Z</time>
      </trkpt>
      <trkpt lat="47.15253" lon="-1.43129">
        <ele>67</ele>
        <time>2022-07-14T06:39:19Z</time>
      </trkpt>
      <trkpt lat="47.15252" lon="-1.43156">
        <ele>66</ele>
        <time>2022-07-14T06:39:21Z</time>
      </trkpt>
      <trkpt lat="47.15252" lon="-1.4317">
        <ele>66</ele>
        <time>2022-07-14T06:39:22Z</time>
      </trkpt>
      <trkpt lat="47.15251" lon="-1.43183">
        <ele>65</ele>
        <time>2022-07-14T06:39:23Z</time>
      </trkpt>
      <trkpt lat="47.15251" lon="-1.43197">
        <ele>65</ele>
        <time>2022-07-14T06:39:24Z</time>
      </trkpt>
      <trkpt lat="47.15251" lon="-1.43211">
        <ele>64</ele>
        <time>2022-07-14T06:39:25Z</time>
      </trkpt>
      <trkpt lat="47.1525" lon="-1.43225">
        <ele>64</ele>
        <time>2022-07-14T06:39:26Z</time>
      </trkpt>
      <trkpt lat="47.15249" lon="-1.43239">
        <ele>63</ele>
        <time>2022-07-14T06:39:27Z</time>
      </trkpt>
      <trkpt lat="47.15249" lon="-1.43253">
        <ele>63</ele>
        <time>2022-07-14T06:39:28Z</time>
      </trkpt>
      <trkpt lat="47.15248" lon="-1.43267">
        <ele>62</ele>
        <time>2022-07-14T06:39:29Z</time>
      </trkpt>
      <trkpt lat="47.15248" lon="-1.43281">
        <ele>62</ele>
        <time>2022-07-14T06:39:30Z</time>
      </trkpt>
      <trkpt lat="47.15248" lon="-1.43295">
        <ele>62</ele>
        <time>2022-07-14T06:39:31Z</time>
      </trkpt>
      <trkpt lat="47.15247" lon="-1.43309">
        <ele>62</ele>
        <time>2022-07-14T06:39:32Z</time>
      </trkpt>
      <trkpt lat="47.15248" lon="-1.43323">
        <ele>62</ele>
        <time>2022-07-14T06:39:33Z</time>
      </trkpt>
      <trkpt lat="47.15247" lon="-1.43337">
        <ele>62</ele>
        <time>2022-07-14T06:39:34Z</time>
      </trkpt>
      <trkpt lat="47.15247" lon="-1.43351">
        <ele>61</ele>
        <time>2022-07-14T06:39:35Z</time>
      </trkpt>
      <trkpt lat="47.15248" lon="-1.43366">
        <ele>61</ele>
        <time>2022-07-14T06:39:36Z</time>
      </trkpt>
      <trkpt lat="47.15248" lon="-1.43379">
        <ele>60</ele>
        <time>2022-07-14T06:39:37Z</time>
      </trkpt>
      <trkpt lat="47.15249" lon="-1.43394">
        <ele>60</ele>
        <time>2022-07-14T06:39:38Z</time>
      </trkpt>
      <trkpt lat="47.1525" lon="-1.43407">
        <ele>60</ele>
        <time>2022-07-14T06:39:39Z</time>
      </trkpt>
      <trkpt lat="47.15251" lon="-1.43421">
        <ele>60</ele>
        <time>2022-07-14T06:39:40Z</time>
      </trkpt>
      <trkpt lat="47.15254" lon="-1.43447">
        <ele>60</ele>
        <time>2022-07-14T06:39:42Z</time>
      </trkpt>
      <trkpt lat="47.15256" lon="-1.43473">
        <ele>60</ele>
        <time>2022-07-14T06:39:44Z</time>
      </trkpt>
      <trkpt lat="47.15259" lon="-1.43498">
        <ele>60</ele>
        <time>2022-07-14T06:39:46Z</time>
      </trkpt>
      <trkpt lat="47.15262" lon="-1.43522">
        <ele>61</ele>
        <time>2022-07-14T06:39:48Z</time>
      </trkpt>
      <trkpt lat="47.15264" lon="-1.43547">
        <ele>61</ele>
        <time>2022-07-14T06:39:50Z</time>
      </trkpt>
      <trkpt lat="47.15266" lon="-1.43571">
        <ele>60</ele>
        <time>2022-07-14T06:39:52Z</time>
      </trkpt>
      <trkpt lat="47.15268" lon="-1.43594">
        <ele>59</ele>
        <time>2022-07-14T06:39:54Z</time>
      </trkpt>
      <trkpt lat="47.1527" lon="-1.43616">
        <ele>59</ele>
        <time>2022-07-14T06:39:56Z</time>
      </trkpt>
      <trkpt lat="47.15272" lon="-1.43637">
        <ele>59</ele>
        <time>2022-07-14T06:39:58Z</time>
      </trkpt>
      <trkpt lat="47.15274" lon="-1.43659">
        <ele>60</ele>
        <time>2022-07-14T06:40:00Z</time>
      </trkpt>
      <trkpt lat="47.15276" lon="-1.43681">
        <ele>60</ele>
        <time>2022-07-14T06:40:02Z</time>
      </trkpt>
      <trkpt lat="47.15276" lon="-1.43704">
        <ele>59</ele>
        <time>2022-07-14T06:40:04Z</time>
      </trkpt>
      <trkpt lat="47.15276" lon="-1.43727">
        <ele>59</ele>
        <time>2022-07-14T06:40:06Z</time>
      </trkpt>
      <trkpt lat="47.15274" lon="-1.43749">
        <ele>59</ele>
        <time>2022-07-14T06:40:08Z</time>
      </trkpt>
      <trkpt lat="47.15272" lon="-1.4377">
        <ele>59</ele>
        <time>2022-07-14T06:40:10Z</time>
      </trkpt>
      <trkpt lat="47.15271" lon="-1.43793">
        <ele>59</ele>
        <time>2022-07-14T06:40:12Z</time>
      </trkpt>
      <trkpt lat="47.15269" lon="-1.43815">
        <ele>59</ele>
        <time>2022-07-14T06:40:14Z</time>
      </trkpt>
      <trkpt lat="47.15269" lon="-1.43838">
        <ele>59</ele>
        <time>2022-07-14T06:40:16Z</time>
      </trkpt>
      <trkpt lat="47.15271" lon="-1.4386">
        <ele>59</ele>
        <time>2022-07-14T06:40:18Z</time>
      </trkpt>
      <trkpt lat="47.15276" lon="-1.43881">
        <ele>60</ele>
        <time>2022-07-14T06:40:20Z</time>
      </trkpt>
      <trkpt lat="47.15283" lon="-1.43899">
        <ele>60</ele>
        <time>2022-07-14T06:40:22Z</time>
      </trkpt>
      <trkpt lat="47.15292" lon="-1.43914">
        <ele>61</ele>
        <time>2022-07-14T06:40:24Z</time>
      </trkpt>
      <trkpt lat="47.15302" lon="-1.43927">
        <ele>61</ele>
        <time>2022-07-14T06:40:26Z</time>
      </trkpt>
      <trkpt lat="47.15311" lon="-1.43939">
        <ele>62</ele>
        <time>2022-07-14T06:40:28Z</time>
      </trkpt>
      <trkpt lat="47.15319" lon="-1.4395">
        <ele>62</ele>
        <time>2022-07-14T06:40:30Z</time>
      </trkpt>
      <trkpt lat="47.15327" lon="-1.43961">
        <ele>63</ele>
        <time>2022-07-14T06:40:32Z</time>
      </trkpt>
      <trkpt lat="47.15335" lon="-1.43972">
        <ele>62</ele>
        <time>2022-07-14T06:40:34Z</time>
      </trkpt>
      <trkpt lat="47.15342" lon="-1.43984">
        <ele>62</ele>
        <time>2022-07-14T06:40:36Z</time>
      </trkpt>
      <trkpt lat="47.1535" lon="-1.43995">
        <ele>62</ele>
        <time>2022-07-14T06:40:38Z</time>
      </trkpt>
      <trkpt lat="47.15359" lon="-1.44007">
        <ele>62</ele>
        <time>2022-07-14T06:40:40Z</time>
      </trkpt>
      <trkpt lat="47.15367" lon="-1.4402">
        <ele>61</ele>
        <time>2022-07-14T06:40:42Z</time>
      </trkpt>
      <trkpt lat="47.15376" lon="-1.44035">
        <ele>61</ele>
        <time>2022-07-14T06:40:44Z</time>
      </trkpt>
      <trkpt lat="47.15381" lon="-1.44054">
        <ele>61</ele>
        <time>2022-07-14T06:40:46Z</time>
      </trkpt>
      <trkpt lat="47.15383" lon="-1.44074">
        <ele>62</ele>
        <time>2022-07-14T06:40:48Z</time>
      </trkpt>
      <trkpt lat="47.15381" lon="-1.44094">
        <ele>62</ele>
        <time>2022-07-14T06:40:50Z</time>
      </trkpt>
      <trkpt lat="47.15378" lon="-1.44115">
        <ele>61</ele>
        <time>2022-07-14T06:40:52Z</time>
      </trkpt>
      <trkpt lat="47.15374" lon="-1.44135">
        <ele>61</ele>
        <time>2022-07-14T06:40:54Z</time>
      </trkpt>
      <trkpt lat="47.15371" lon="-1.44155">
        <ele>61</ele>
        <time>2022-07-14T06:40:56Z</time>
      </trkpt>
      <trkpt lat="47.15368" lon="-1.44175">
        <ele>61</ele>
        <time>2022-07-14T06:40:58Z</time>
      </trkpt>
      <trkpt lat="47.15365" lon="-1.44194">
        <ele>62</ele>
        <time>2022-07-14T06:41:00Z</time>
      </trkpt>
      <trkpt lat="47.15365" lon="-1.44214">
        <ele>62</ele>
        <time>2022-07-14T06:41:02Z</time>
      </trkpt>
      <trkpt lat="47.15365" lon="-1.44233">
        <ele>63</ele>
        <time>2022-07-14T06:41:04Z</time>
      </trkpt>
      <trkpt lat="47.15368" lon="-1.44254">
        <ele>63</ele>
        <time>2022-07-14T06:41:06Z</time>
      </trkpt>
      <trkpt lat="47.15371" lon="-1.44275">
        <ele>64</ele>
        <time>2022-07-14T06:41:08Z</time>
      </trkpt>
      <trkpt lat="47.15377" lon="-1.44294">
        <ele>64</ele>
        <time>2022-07-14T06:41:10Z</time>
      </trkpt>
      <trkpt lat="47.15383" lon="-1.44312">
        <ele>64</ele>
        <time>2022-07-14T06:41:12Z</time>
      </trkpt>
      <trkpt lat="47.15389" lon="-1.44329">
        <ele>64</ele>
        <time>2022-07-14T06:41:14Z</time>
      </trkpt>
      <trkpt lat="47.15397" lon="-1.44345">
        <ele>64</ele>
        <time>2022-07-14T06:41:16Z</time>
      </trkpt>
      <trkpt lat="47.15407" lon="-1.44359">
        <ele>63</ele>
        <time>2022-07-14T06:41:18Z</time>
      </trkpt>
      <trkpt lat="47.15418" lon="-1.44371">
        <ele>64</ele>
        <time>2022-07-14T06:41:20Z</time>
      </trkpt>
      <trkpt lat="47.15428" lon="-1.44382">
        <ele>64</ele>
        <time>2022-07-14T06:41:22Z</time>
      </trkpt>
      <trkpt lat="47.1544" lon="-1.44391">
        <ele>64</ele>
        <time>2022-07-14T06:41:24Z</time>
      </trkpt>
      <trkpt lat="47.15451" lon="-1.44397">
        <ele>64</ele>
        <time>2022-07-14T06:41:26Z</time>
      </trkpt>
      <trkpt lat="47.15463" lon="-1.44403">
        <ele>64</ele>
        <time>2022-07-14T06:41:28Z</time>
      </trkpt>
      <trkpt lat="47.15475" lon="-1.44408">
        <ele>65</ele>
        <time>2022-07-14T06:41:30Z</time>
      </trkpt>
      <trkpt lat="47.15487" lon="-1.4441">
        <ele>65</ele>
        <time>2022-07-14T06:41:32Z</time>
      </trkpt>
      <trkpt lat="47.15499" lon="-1.44412">
        <ele>65</ele>
        <time>2022-07-14T06:41:34Z</time>
      </trkpt>
      <trkpt lat="47.15512" lon="-1.44414">
        <ele>65</ele>
        <time>2022-07-14T06:41:36Z</time>
      </trkpt>
      <trkpt lat="47.15523" lon="-1.44414">
        <ele>65</ele>
        <time>2022-07-14T06:41:38Z</time>
      </trkpt>
      <trkpt lat="47.15535" lon="-1.44416">
        <ele>65</ele>
        <time>2022-07-14T06:41:40Z</time>
      </trkpt>
      <trkpt lat="47.15546" lon="-1.44417">
        <ele>65</ele>
        <time>2022-07-14T06:41:42Z</time>
      </trkpt>
      <trkpt lat="47.15557" lon="-1.44417">
        <ele>66</ele>
        <time>2022-07-14T06:41:44Z</time>
      </trkpt>
      <trkpt lat="47.15567" lon="-1.44415">
        <ele>66</ele>
        <time>2022-07-14T06:41:46Z</time>
      </trkpt>
      <trkpt lat="47.15578" lon="-1.44412">
        <ele>66</ele>
        <time>2022-07-14T06:41:48Z</time>
      </trkpt>
      <trkpt lat="47.15589" lon="-1.44408">
        <ele>66</ele>
        <time>2022-07-14T06:41:50Z</time>
      </trkpt>
      <trkpt lat="47.15601" lon="-1.44404">
        <ele>66</ele>
        <time>2022-07-14T06:41:52Z</time>
      </trkpt>
      <trkpt lat="47.15612" lon="-1.44399">
        <ele>66</ele>
        <time>2022-07-14T06:41:54Z</time>
      </trkpt>
      <trkpt lat="47.15622" lon="-1.44394">
        <ele>66</ele>
        <time>2022-07-14T06:41:56Z</time>
      </trkpt>
      <trkpt lat="47.15632" lon="-1.4439">
        <ele>66</ele>
        <time>2022-07-14T06:41:58Z</time>
      </trkpt>
      <trkpt lat="47.15642" lon="-1.44385">
        <ele>66</ele>
        <time>2022-07-14T06:42:00Z</time>
      </trkpt>
      <trkpt lat="47.15653" lon="-1.44381">
        <ele>67</ele>
        <time>2022-07-14T06:42:02Z</time>
      </trkpt>
      <trkpt lat="47.15663" lon="-1.44377">
        <ele>66</ele>
        <time>2022-07-14T06:42:04Z</time>
      </trkpt>
      <trkpt lat="47.15673" lon="-1.44373">
        <ele>67</ele>
        <time>2022-07-14T06:42:06Z</time>
      </trkpt>
      <trkpt lat="47.15683" lon="-1.44368">
        <ele>67</ele>
        <time>2022-07-14T06:42:08Z</time>
      </trkpt>
      <trkpt lat="47.15694" lon="-1.44364">
        <ele>67</ele>
        <time>2022-07-14T06:42:10Z</time>
      </trkpt>
      <trkpt lat="47.15703" lon="-1.4436">
        <ele>68</ele>
        <time>2022-07-14T06:42:12Z</time>
      </trkpt>
      <trkpt lat="47.15712" lon="-1.44355">
        <ele>68</ele>
        <time>2022-07-14T06:42:14Z</time>
      </trkpt>
      <trkpt lat="47.15722" lon="-1.44351">
        <ele>69</ele>
        <time>2022-07-14T06:42:16Z</time>
      </trkpt>
      <trkpt lat="47.15732" lon="-1.44347">
        <ele>70</ele>
        <time>2022-07-14T06:42:18Z</time>
      </trkpt>
      <trkpt lat="47.15742" lon="-1.44342">
        <ele>70</ele>
        <time>2022-07-14T06:42:20Z</time>
      </trkpt>
      <trkpt lat="47.15752" lon="-1.44338">
        <ele>70</ele>
        <time>2022-07-14T06:42:22Z</time>
      </trkpt>
      <trkpt lat="47.15762" lon="-1.44334">
        <ele>69</ele>
        <time>2022-07-14T06:42:24Z</time>
      </trkpt>
      <trkpt lat="47.15773" lon="-1.4433">
        <ele>69</ele>
        <time>2022-07-14T06:42:26Z</time>
      </trkpt>
      <trkpt lat="47.15783" lon="-1.44326">
        <ele>70</ele>
        <time>2022-07-14T06:42:28Z</time>
      </trkpt>
      <trkpt lat="47.15794" lon="-1.44325">
        <ele>70</ele>
        <time>2022-07-14T06:42:30Z</time>
      </trkpt>
      <trkpt lat="47.15804" lon="-1.44328">
        <ele>71</ele>
        <time>2022-07-14T06:42:32Z</time>
      </trkpt>
      <trkpt lat="47.15813" lon="-1.44336">
        <ele>70</ele>
        <time>2022-07-14T06:42:34Z</time>
      </trkpt>
      <trkpt lat="47.15821" lon="-1.44347">
        <ele>71</ele>
        <time>2022-07-14T06:42:36Z</time>
      </trkpt>
      <trkpt lat="47.15827" lon="-1.4436">
        <ele>72</ele>
        <time>2022-07-14T06:42:38Z</time>
      </trkpt>
      <trkpt lat="47.15833" lon="-1.44374">
        <ele>72</ele>
        <time>2022-07-14T06:42:40Z</time>
      </trkpt>
      <trkpt lat="47.15838" lon="-1.44387">
        <ele>72</ele>
        <time>2022-07-14T06:42:42Z</time>
      </trkpt>
      <trkpt lat="47.15844" lon="-1.44401">
        <ele>72</ele>
        <time>2022-07-14T06:42:44Z</time>
      </trkpt>
      <trkpt lat="47.15849" lon="-1.44414">
        <ele>72</ele>
        <time>2022-07-14T06:42:46Z</time>
      </trkpt>
      <trkpt lat="47.15855" lon="-1.44427">
        <ele>73</ele>
        <time>2022-07-14T06:42:48Z</time>
      </trkpt>
      <trkpt lat="47.1586" lon="-1.4444">
        <ele>73</ele>
        <time>2022-07-14T06:42:50Z</time>
      </trkpt>
      <trkpt lat="47.15865" lon="-1.44453">
        <ele>73</ele>
        <time>2022-07-14T06:42:52Z</time>
      </trkpt>
      <trkpt lat="47.1587" lon="-1.44466">
        <ele>74</ele>
        <time>2022-07-14T06:42:54Z</time>
      </trkpt>
      <trkpt lat="47.15875" lon="-1.44479">
        <ele>74</ele>
        <time>2022-07-14T06:42:56Z</time>
      </trkpt>
      <trkpt lat="47.1588" lon="-1.44493">
        <ele>74</ele>
        <time>2022-07-14T06:42:58Z</time>
      </trkpt>
      <trkpt lat="47.15885" lon="-1.44506">
        <ele>75</ele>
        <time>2022-07-14T06:43:00Z</time>
      </trkpt>
      <trkpt lat="47.1589" lon="-1.4452">
        <ele>75</ele>
        <time>2022-07-14T06:43:02Z</time>
      </trkpt>
      <trkpt lat="47.15894" lon="-1.44532">
        <ele>76</ele>
        <time>2022-07-14T06:43:04Z</time>
      </trkpt>
      <trkpt lat="47.15899" lon="-1.44545">
        <ele>76</ele>
        <time>2022-07-14T06:43:06Z</time>
      </trkpt>
      <trkpt lat="47.15904" lon="-1.44558">
        <ele>77</ele>
        <time>2022-07-14T06:43:08Z</time>
      </trkpt>
      <trkpt lat="47.15909" lon="-1.44571">
        <ele>78</ele>
        <time>2022-07-14T06:43:10Z</time>
      </trkpt>
      <trkpt lat="47.15913" lon="-1.44583">
        <ele>78</ele>
        <time>2022-07-14T06:43:12Z</time>
      </trkpt>
      <trkpt lat="47.15917" lon="-1.44596">
        <ele>79</ele>
        <time>2022-07-14T06:43:14Z</time>
      </trkpt>
      <trkpt lat="47.15921" lon="-1.44608">
        <ele>80</ele>
        <time>2022-07-14T06:43:16Z</time>
      </trkpt>
      <trkpt lat="47.15925" lon="-1.44621">
        <ele>81</ele>
        <time>2022-07-14T06:43:18Z</time>
      </trkpt>
      <trkpt lat="47.15929" lon="-1.44633">
        <ele>81</ele>
        <time>2022-07-14T06:43:20Z</time>
      </trkpt>
      <trkpt lat="47.15933" lon="-1.44646">
        <ele>82</ele>
        <time>2022-07-14T06:43:22Z</time>
      </trkpt>
      <trkpt lat="47.15937" lon="-1.44658">
        <ele>83</ele>
        <time>2022-07-14T06:43:24Z</time>
      </trkpt>
      <trkpt lat="47.1594" lon="-1.44671">
        <ele>83</ele>
        <time>2022-07-14T06:43:26Z</time>
      </trkpt>
      <trkpt lat="47.15945" lon="-1.44689">
        <ele>84</ele>
        <time>2022-07-14T06:43:29Z</time>
      </trkpt>
      <trkpt lat="47.15949" lon="-1.44701">
        <ele>84</ele>
        <time>2022-07-14T06:43:31Z</time>
      </trkpt>
      <trkpt lat="47.15955" lon="-1.44719">
        <ele>84</ele>
        <time>2022-07-14T06:43:34Z</time>
      </trkpt>
      <trkpt lat="47.15961" lon="-1.44737">
        <ele>85</ele>
        <time>2022-07-14T06:43:37Z</time>
      </trkpt>
      <trkpt lat="47.15965" lon="-1.44751">
        <ele>85</ele>
        <time>2022-07-14T06:43:39Z</time>
      </trkpt>
      <trkpt lat="47.15969" lon="-1.44765">
        <ele>84</ele>
        <time>2022-07-14T06:43:41Z</time>
      </trkpt>
      <trkpt lat="47.15974" lon="-1.44779">
        <ele>84</ele>
        <time>2022-07-14T06:43:43Z</time>
      </trkpt>
      <trkpt lat="47.15979" lon="-1.44794">
        <ele>84</ele>
        <time>2022-07-14T06:43:45Z</time>
      </trkpt>
      <trkpt lat="47.15986" lon="-1.44809">
        <ele>84</ele>
        <time>2022-07-14T06:43:47Z</time>
      </trkpt>
      <trkpt lat="47.15994" lon="-1.44824">
        <ele>84</ele>
        <time>2022-07-14T06:43:49Z</time>
      </trkpt>
      <trkpt lat="47.16002" lon="-1.44838">
        <ele>84</ele>
        <time>2022-07-14T06:43:51Z</time>
      </trkpt>
      <trkpt lat="47.16012" lon="-1.44852">
        <ele>84</ele>
        <time>2022-07-14T06:43:53Z</time>
      </trkpt>
      <trkpt lat="47.16021" lon="-1.44864">
        <ele>85</ele>
        <time>2022-07-14T06:43:55Z</time>
      </trkpt>
      <trkpt lat="47.16031" lon="-1.44876">
        <ele>85</ele>
        <time>2022-07-14T06:43:57Z</time>
      </trkpt>
      <trkpt lat="47.16042" lon="-1.44888">
        <ele>85</ele>
        <time>2022-07-14T06:43:59Z</time>
      </trkpt>
      <trkpt lat="47.16052" lon="-1.44899">
        <ele>85</ele>
        <time>2022-07-14T06:44:01Z</time>
      </trkpt>
      <trkpt lat="47.16062" lon="-1.44911">
        <ele>85</ele>
        <time>2022-07-14T06:44:03Z</time>
      </trkpt>
      <trkpt lat="47.16072" lon="-1.44923">
        <ele>84</ele>
        <time>2022-07-14T06:44:05Z</time>
      </trkpt>
      <trkpt lat="47.1608" lon="-1.44937">
        <ele>84</ele>
        <time>2022-07-14T06:44:07Z</time>
      </trkpt>
      <trkpt lat="47.16089" lon="-1.44951">
        <ele>84</ele>
        <time>2022-07-14T06:44:09Z</time>
      </trkpt>
      <trkpt lat="47.16096" lon="-1.44966">
        <ele>85</ele>
        <time>2022-07-14T06:44:11Z</time>
      </trkpt>
      <trkpt lat="47.16102" lon="-1.44982">
        <ele>85</ele>
        <time>2022-07-14T06:44:13Z</time>
      </trkpt>
      <trkpt lat="47.16108" lon="-1.44999">
        <ele>85</ele>
        <time>2022-07-14T06:44:15Z</time>
      </trkpt>
      <trkpt lat="47.16114" lon="-1.45015">
        <ele>85</ele>
        <time>2022-07-14T06:44:17Z</time>
      </trkpt>
      <trkpt lat="47.1612" lon="-1.45031">
        <ele>86</ele>
        <time>2022-07-14T06:44:19Z</time>
      </trkpt>
      <trkpt lat="47.16125" lon="-1.45047">
        <ele>86</ele>
        <time>2022-07-14T06:44:21Z</time>
      </trkpt>
      <trkpt lat="47.16129" lon="-1.45062">
        <ele>86</ele>
        <time>2022-07-14T06:44:23Z</time>
      </trkpt>
      <trkpt lat="47.16133" lon="-1.45077">
        <ele>86</ele>
        <time>2022-07-14T06:44:25Z</time>
      </trkpt>
      <trkpt lat="47.16137" lon="-1.45091">
        <ele>86</ele>
        <time>2022-07-14T06:44:27Z</time>
      </trkpt>
      <trkpt lat="47.1614" lon="-1.45106">
        <ele>86</ele>
        <time>2022-07-14T06:44:29Z</time>
      </trkpt>
      <trkpt lat="47.16143" lon="-1.45119">
        <ele>87</ele>
        <time>2022-07-14T06:44:31Z</time>
      </trkpt>
      <trkpt lat="47.16148" lon="-1.45133">
        <ele>87</ele>
        <time>2022-07-14T06:44:33Z</time>
      </trkpt>
      <trkpt lat="47.16154" lon="-1.45146">
        <ele>87</ele>
        <time>2022-07-14T06:44:35Z</time>
      </trkpt>
      <trkpt lat="47.16163" lon="-1.45155">
        <ele>88</ele>
        <time>2022-07-14T06:44:37Z</time>
      </trkpt>
      <trkpt lat="47.16172" lon="-1.45162">
        <ele>88</ele>
        <time>2022-07-14T06:44:39Z</time>
      </trkpt>
      <trkpt lat="47.16183" lon="-1.45168">
        <ele>87</ele>
        <time>2022-07-14T06:44:41Z</time>
      </trkpt>
      <trkpt lat="47.16193" lon="-1.45174">
        <ele>87</ele>
        <time>2022-07-14T06:44:43Z</time>
      </trkpt>
      <trkpt lat="47.16203" lon="-1.45179">
        <ele>87</ele>
        <time>2022-07-14T06:44:45Z</time>
      </trkpt>
      <trkpt lat="47.16213" lon="-1.45185">
        <ele>87</ele>
        <time>2022-07-14T06:44:47Z</time>
      </trkpt>
      <trkpt lat="47.16222" lon="-1.45191">
        <ele>88</ele>
        <time>2022-07-14T06:44:49Z</time>
      </trkpt>
      <trkpt lat="47.16231" lon="-1.45199">
        <ele>88</ele>
        <time>2022-07-14T06:44:51Z</time>
      </trkpt>
      <trkpt lat="47.1624" lon="-1.45207">
        <ele>88</ele>
        <time>2022-07-14T06:44:53Z</time>
      </trkpt>
      <trkpt lat="47.16247" lon="-1.45218">
        <ele>89</ele>
        <time>2022-07-14T06:44:55Z</time>
      </trkpt>
      <trkpt lat="47.16254" lon="-1.45231">
        <ele>89</ele>
        <time>2022-07-14T06:44:57Z</time>
      </trkpt>
      <trkpt lat="47.16259" lon="-1.45245">
        <ele>89</ele>
        <time>2022-07-14T06:44:59Z</time>
      </trkpt>
      <trkpt lat="47.16264" lon="-1.45261">
        <ele>89</ele>
        <time>2022-07-14T06:45:01Z</time>
      </trkpt>
      <trkpt lat="47.16269" lon="-1.45277">
        <ele>89</ele>
        <time>2022-07-14T06:45:03Z</time>
      </trkpt>
      <trkpt lat="47.16275" lon="-1.45293">
        <ele>89</ele>
        <time>2022-07-14T06:45:05Z</time>
      </trkpt>
      <trkpt lat="47.16281" lon="-1.4531">
        <ele>89</ele>
        <time>2022-07-14T06:45:07Z</time>
      </trkpt>
      <trkpt lat="47.16286" lon="-1.45329">
        <ele>88</ele>
        <time>2022-07-14T06:45:09Z</time>
      </trkpt>
      <trkpt lat="47.16291" lon="-1.4535">
        <ele>88</ele>
        <time>2022-07-14T06:45:11Z</time>
      </trkpt>
      <trkpt lat="47.16294" lon="-1.45373">
        <ele>87</ele>
        <time>2022-07-14T06:45:13Z</time>
      </trkpt>
      <trkpt lat="47.16297" lon="-1.45398">
        <ele>86</ele>
        <time>2022-07-14T06:45:15Z</time>
      </trkpt>
      <trkpt lat="47.16304" lon="-1.45421">
        <ele>85</ele>
        <time>2022-07-14T06:45:17Z</time>
      </trkpt>
      <trkpt lat="47.16314" lon="-1.45442">
        <ele>85</ele>
        <time>2022-07-14T06:45:19Z</time>
      </trkpt>
      <trkpt lat="47.16324" lon="-1.45463">
        <ele>84</ele>
        <time>2022-07-14T06:45:21Z</time>
      </trkpt>
      <trkpt lat="47.16335" lon="-1.45481">
        <ele>84</ele>
        <time>2022-07-14T06:45:23Z</time>
      </trkpt>
      <trkpt lat="47.16345" lon="-1.45499">
        <ele>83</ele>
        <time>2022-07-14T06:45:25Z</time>
      </trkpt>
      <trkpt lat="47.16355" lon="-1.45517">
        <ele>83</ele>
        <time>2022-07-14T06:45:27Z</time>
      </trkpt>
      <trkpt lat="47.16364" lon="-1.45535">
        <ele>83</ele>
        <time>2022-07-14T06:45:29Z</time>
      </trkpt>
      <trkpt lat="47.16374" lon="-1.45554">
        <ele>82</ele>
        <time>2022-07-14T06:45:31Z</time>
      </trkpt>
      <trkpt lat="47.16384" lon="-1.45573">
        <ele>82</ele>
        <time>2022-07-14T06:45:33Z</time>
      </trkpt>
      <trkpt lat="47.16393" lon="-1.45592">
        <ele>82</ele>
        <time>2022-07-14T06:45:35Z</time>
      </trkpt>
      <trkpt lat="47.16401" lon="-1.45612">
        <ele>82</ele>
        <time>2022-07-14T06:45:37Z</time>
      </trkpt>
      <trkpt lat="47.16409" lon="-1.45633">
        <ele>82</ele>
        <time>2022-07-14T06:45:39Z</time>
      </trkpt>
      <trkpt lat="47.16415" lon="-1.45656">
        <ele>82</ele>
        <time>2022-07-14T06:45:41Z</time>
      </trkpt>
      <trkpt lat="47.16421" lon="-1.45678">
        <ele>82</ele>
        <time>2022-07-14T06:45:43Z</time>
      </trkpt>
      <trkpt lat="47.16426" lon="-1.457">
        <ele>82</ele>
        <time>2022-07-14T06:45:45Z</time>
      </trkpt>
      <trkpt lat="47.16431" lon="-1.45721">
        <ele>82</ele>
        <time>2022-07-14T06:45:47Z</time>
      </trkpt>
      <trkpt lat="47.16436" lon="-1.45742">
        <ele>82</ele>
        <time>2022-07-14T06:45:49Z</time>
      </trkpt>
      <trkpt lat="47.16441" lon="-1.45763">
        <ele>82</ele>
        <time>2022-07-14T06:45:51Z</time>
      </trkpt>
      <trkpt lat="47.16446" lon="-1.45783">
        <ele>82</ele>
        <time>2022-07-14T06:45:53Z</time>
      </trkpt>
      <trkpt lat="47.1645" lon="-1.45802">
        <ele>83</ele>
        <time>2022-07-14T06:45:55Z</time>
      </trkpt>
      <trkpt lat="47.16455" lon="-1.45821">
        <ele>83</ele>
        <time>2022-07-14T06:45:57Z</time>
      </trkpt>
      <trkpt lat="47.1646" lon="-1.45839">
        <ele>84</ele>
        <time>2022-07-14T06:45:59Z</time>
      </trkpt>
      <trkpt lat="47.16465" lon="-1.45857">
        <ele>84</ele>
        <time>2022-07-14T06:46:01Z</time>
      </trkpt>
      <trkpt lat="47.16471" lon="-1.45875">
        <ele>84</ele>
        <time>2022-07-14T06:46:03Z</time>
      </trkpt>
      <trkpt lat="47.16476" lon="-1.45892">
        <ele>85</ele>
        <time>2022-07-14T06:46:05Z</time>
      </trkpt>
      <trkpt lat="47.16481" lon="-1.45909">
        <ele>85</ele>
        <time>2022-07-14T06:46:07Z</time>
      </trkpt>
      <trkpt lat="47.16486" lon="-1.45925">
        <ele>85</ele>
        <time>2022-07-14T06:46:09Z</time>
      </trkpt>
      <trkpt lat="47.16491" lon="-1.4594">
        <ele>85</ele>
        <time>2022-07-14T06:46:11Z</time>
      </trkpt>
      <trkpt lat="47.16496" lon="-1.45956">
        <ele>85</ele>
        <time>2022-07-14T06:46:13Z</time>
      </trkpt>
      <trkpt lat="47.16502" lon="-1.45971">
        <ele>86</ele>
        <time>2022-07-14T06:46:15Z</time>
      </trkpt>
      <trkpt lat="47.16508" lon="-1.45987">
        <ele>86</ele>
        <time>2022-07-14T06:46:17Z</time>
      </trkpt>
      <trkpt lat="47.16514" lon="-1.46002">
        <ele>86</ele>
        <time>2022-07-14T06:46:19Z</time>
      </trkpt>
      <trkpt lat="47.1652" lon="-1.46016">
        <ele>86</ele>
        <time>2022-07-14T06:46:21Z</time>
      </trkpt>
      <trkpt lat="47.16528" lon="-1.46026">
        <ele>86</ele>
        <time>2022-07-14T06:46:23Z</time>
      </trkpt>
      <trkpt lat="47.16538" lon="-1.46031">
        <ele>86</ele>
        <time>2022-07-14T06:46:25Z</time>
      </trkpt>
      <trkpt lat="47.16547" lon="-1.46041">
        <ele>87</ele>
        <time>2022-07-14T06:46:27Z</time>
      </trkpt>
      <trkpt lat="47.16553" lon="-1.46055">
        <ele>87</ele>
        <time>2022-07-14T06:46:29Z</time>
      </trkpt>
      <trkpt lat="47.16558" lon="-1.46071">
        <ele>88</ele>
        <time>2022-07-14T06:46:31Z</time>
      </trkpt>
      <trkpt lat="47.1656" lon="-1.46086">
        <ele>89</ele>
        <time>2022-07-14T06:46:33Z</time>
      </trkpt>
      <trkpt lat="47.16564" lon="-1.46103">
        <ele>88</ele>
        <time>2022-07-14T06:46:35Z</time>
      </trkpt>
      <trkpt lat="47.16568" lon="-1.46118">
        <ele>89</ele>
        <time>2022-07-14T06:46:37Z</time>
      </trkpt>
      <trkpt lat="47.16574" lon="-1.46133">
        <ele>89</ele>
        <time>2022-07-14T06:46:39Z</time>
      </trkpt>
      <trkpt lat="47.1658" lon="-1.46146">
        <ele>89</ele>
        <time>2022-07-14T06:46:41Z</time>
      </trkpt>
      <trkpt lat="47.16587" lon="-1.46159">
        <ele>90</ele>
        <time>2022-07-14T06:46:43Z</time>
      </trkpt>
      <trkpt lat="47.16593" lon="-1.46171">
        <ele>91</ele>
        <time>2022-07-14T06:46:45Z</time>
      </trkpt>
      <trkpt lat="47.166" lon="-1.46183">
        <ele>91</ele>
        <time>2022-07-14T06:46:47Z</time>
      </trkpt>
      <trkpt lat="47.16607" lon="-1.46194">
        <ele>91</ele>
        <time>2022-07-14T06:46:49Z</time>
      </trkpt>
      <trkpt lat="47.16617" lon="-1.46201">
        <ele>91</ele>
        <time>2022-07-14T06:46:51Z</time>
      </trkpt>
      <trkpt lat="47.16624" lon="-1.46211">
        <ele>91</ele>
        <time>2022-07-14T06:46:53Z</time>
      </trkpt>
      <trkpt lat="47.16627" lon="-1.46225">
        <ele>91</ele>
        <time>2022-07-14T06:46:55Z</time>
      </trkpt>
      <trkpt lat="47.1663" lon="-1.4624">
        <ele>90</ele>
        <time>2022-07-14T06:46:57Z</time>
      </trkpt>
      <trkpt lat="47.16637" lon="-1.46254">
        <ele>90</ele>
        <time>2022-07-14T06:46:59Z</time>
      </trkpt>
      <trkpt lat="47.16645" lon="-1.46267">
        <ele>90</ele>
        <time>2022-07-14T06:47:01Z</time>
      </trkpt>
      <trkpt lat="47.16655" lon="-1.46286">
        <ele>91</ele>
        <time>2022-07-14T06:47:04Z</time>
      </trkpt>
      <trkpt lat="47.1666" lon="-1.46301">
        <ele>91</ele>
        <time>2022-07-14T06:47:06Z</time>
      </trkpt>
      <trkpt lat="47.16665" lon="-1.46315">
        <ele>91</ele>
        <time>2022-07-14T06:47:08Z</time>
      </trkpt>
      <trkpt lat="47.16672" lon="-1.46329">
        <ele>91</ele>
        <time>2022-07-14T06:47:10Z</time>
      </trkpt>
      <trkpt lat="47.16679" lon="-1.46342">
        <ele>92</ele>
        <time>2022-07-14T06:47:12Z</time>
      </trkpt>
      <trkpt lat="47.16686" lon="-1.46354">
        <ele>92</ele>
        <time>2022-07-14T06:47:14Z</time>
      </trkpt>
      <trkpt lat="47.16694" lon="-1.46366">
        <ele>91</ele>
        <time>2022-07-14T06:47:16Z</time>
      </trkpt>
      <trkpt lat="47.16701" lon="-1.46379">
        <ele>91</ele>
        <time>2022-07-14T06:47:18Z</time>
      </trkpt>
      <trkpt lat="47.16709" lon="-1.46392">
        <ele>91</ele>
        <time>2022-07-14T06:47:20Z</time>
      </trkpt>
      <trkpt lat="47.16716" lon="-1.46406">
        <ele>90</ele>
        <time>2022-07-14T06:47:22Z</time>
      </trkpt>
      <trkpt lat="47.16725" lon="-1.4642">
        <ele>90</ele>
        <time>2022-07-14T06:47:24Z</time>
      </trkpt>
      <trkpt lat="47.16733" lon="-1.46433">
        <ele>89</ele>
        <time>2022-07-14T06:47:26Z</time>
      </trkpt>
      <trkpt lat="47.16742" lon="-1.46445">
        <ele>89</ele>
        <time>2022-07-14T06:47:28Z</time>
      </trkpt>
      <trkpt lat="47.16751" lon="-1.46459">
        <ele>89</ele>
        <time>2022-07-14T06:47:30Z</time>
      </trkpt>
      <trkpt lat="47.16761" lon="-1.46472">
        <ele>89</ele>
        <time>2022-07-14T06:47:32Z</time>
      </trkpt>
      <trkpt lat="47.16771" lon="-1.46485">
        <ele>88</ele>
        <time>2022-07-14T06:47:34Z</time>
      </trkpt>
      <trkpt lat="47.16781" lon="-1.46498">
        <ele>88</ele>
        <time>2022-07-14T06:47:36Z</time>
      </trkpt>
      <trkpt lat="47.16791" lon="-1.46509">
        <ele>88</ele>
        <time>2022-07-14T06:47:38Z</time>
      </trkpt>
      <trkpt lat="47.16801" lon="-1.46521">
        <ele>88</ele>
        <time>2022-07-14T06:47:40Z</time>
      </trkpt>
      <trkpt lat="47.16811" lon="-1.46533">
        <ele>87</ele>
        <time>2022-07-14T06:47:42Z</time>
      </trkpt>
      <trkpt lat="47.16822" lon="-1.46545">
        <ele>87</ele>
        <time>2022-07-14T06:47:44Z</time>
      </trkpt>
      <trkpt lat="47.16833" lon="-1.46556">
        <ele>87</ele>
        <time>2022-07-14T06:47:46Z</time>
      </trkpt>
      <trkpt lat="47.16843" lon="-1.46568">
        <ele>86</ele>
        <time>2022-07-14T06:47:48Z</time>
      </trkpt>
      <trkpt lat="47.16854" lon="-1.46577">
        <ele>87</ele>
        <time>2022-07-14T06:47:50Z</time>
      </trkpt>
      <trkpt lat="47.16866" lon="-1.46588">
        <ele>87</ele>
        <time>2022-07-14T06:47:52Z</time>
      </trkpt>
      <trkpt lat="47.16878" lon="-1.46599">
        <ele>87</ele>
        <time>2022-07-14T06:47:54Z</time>
      </trkpt>
      <trkpt lat="47.16889" lon="-1.4661">
        <ele>86</ele>
        <time>2022-07-14T06:47:56Z</time>
      </trkpt>
      <trkpt lat="47.16901" lon="-1.4662">
        <ele>86</ele>
        <time>2022-07-14T06:47:58Z</time>
      </trkpt>
      <trkpt lat="47.16913" lon="-1.4663">
        <ele>85</ele>
        <time>2022-07-14T06:48:00Z</time>
      </trkpt>
      <trkpt lat="47.16925" lon="-1.46638">
        <ele>85</ele>
        <time>2022-07-14T06:48:02Z</time>
      </trkpt>
      <trkpt lat="47.16936" lon="-1.46647">
        <ele>85</ele>
        <time>2022-07-14T06:48:04Z</time>
      </trkpt>
      <trkpt lat="47.16948" lon="-1.46655">
        <ele>85</ele>
        <time>2022-07-14T06:48:06Z</time>
      </trkpt>
      <trkpt lat="47.1696" lon="-1.4666">
        <ele>84</ele>
        <time>2022-07-14T06:48:08Z</time>
      </trkpt>
      <trkpt lat="47.16972" lon="-1.46666">
        <ele>84</ele>
        <time>2022-07-14T06:48:10Z</time>
      </trkpt>
      <trkpt lat="47.16982" lon="-1.4668">
        <ele>83</ele>
        <time>2022-07-14T06:48:12Z</time>
      </trkpt>
      <trkpt lat="47.16992" lon="-1.46693">
        <ele>82</ele>
        <time>2022-07-14T06:48:14Z</time>
      </trkpt>
      <trkpt lat="47.17003" lon="-1.46702">
        <ele>82</ele>
        <time>2022-07-14T06:48:16Z</time>
      </trkpt>
      <trkpt lat="47.17015" lon="-1.46713">
        <ele>81</ele>
        <time>2022-07-14T06:48:18Z</time>
      </trkpt>
      <trkpt lat="47.17028" lon="-1.46723">
        <ele>81</ele>
        <time>2022-07-14T06:48:20Z</time>
      </trkpt>
      <trkpt lat="47.17041" lon="-1.46733">
        <ele>80</ele>
        <time>2022-07-14T06:48:22Z</time>
      </trkpt>
      <trkpt lat="47.17054" lon="-1.46743">
        <ele>79</ele>
        <time>2022-07-14T06:48:24Z</time>
      </trkpt>
      <trkpt lat="47.17067" lon="-1.46754">
        <ele>78</ele>
        <time>2022-07-14T06:48:26Z</time>
      </trkpt>
      <trkpt lat="47.17079" lon="-1.46767">
        <ele>78</ele>
        <time>2022-07-14T06:48:28Z</time>
      </trkpt>
      <trkpt lat="47.17092" lon="-1.4678">
        <ele>77</ele>
        <time>2022-07-14T06:48:30Z</time>
      </trkpt>
      <trkpt lat="47.17104" lon="-1.46794">
        <ele>76</ele>
        <time>2022-07-14T06:48:32Z</time>
      </trkpt>
      <trkpt lat="47.17118" lon="-1.46804">
        <ele>75</ele>
        <time>2022-07-14T06:48:34Z</time>
      </trkpt>
      <trkpt lat="47.17132" lon="-1.46814">
        <ele>74</ele>
        <time>2022-07-14T06:48:36Z</time>
      </trkpt>
      <trkpt lat="47.17141" lon="-1.46833">
        <ele>74</ele>
        <time>2022-07-14T06:48:38Z</time>
      </trkpt>
      <trkpt lat="47.1715" lon="-1.4685">
        <ele>74</ele>
        <time>2022-07-14T06:48:40Z</time>
      </trkpt>
      <trkpt lat="47.17159" lon="-1.46862">
        <ele>74</ele>
        <time>2022-07-14T06:48:42Z</time>
      </trkpt>
      <trkpt lat="47.17167" lon="-1.46875">
        <ele>74</ele>
        <time>2022-07-14T06:48:44Z</time>
      </trkpt>
      <trkpt lat="47.17174" lon="-1.46889">
        <ele>74</ele>
        <time>2022-07-14T06:48:46Z</time>
      </trkpt>
      <trkpt lat="47.17182" lon="-1.46905">
        <ele>74</ele>
        <time>2022-07-14T06:48:48Z</time>
      </trkpt>
      <trkpt lat="47.1719" lon="-1.46923">
        <ele>73</ele>
        <time>2022-07-14T06:48:50Z</time>
      </trkpt>
      <trkpt lat="47.17199" lon="-1.46941">
        <ele>73</ele>
        <time>2022-07-14T06:48:52Z</time>
      </trkpt>
      <trkpt lat="47.17207" lon="-1.4696">
        <ele>73</ele>
        <time>2022-07-14T06:48:54Z</time>
      </trkpt>
      <trkpt lat="47.17214" lon="-1.46979">
        <ele>72</ele>
        <time>2022-07-14T06:48:56Z</time>
      </trkpt>
      <trkpt lat="47.17221" lon="-1.46997">
        <ele>72</ele>
        <time>2022-07-14T06:48:58Z</time>
      </trkpt>
      <trkpt lat="47.17228" lon="-1.47016">
        <ele>72</ele>
        <time>2022-07-14T06:49:00Z</time>
      </trkpt>
      <trkpt lat="47.17235" lon="-1.47036">
        <ele>71</ele>
        <time>2022-07-14T06:49:02Z</time>
      </trkpt>
      <trkpt lat="47.17241" lon="-1.47056">
        <ele>71</ele>
        <time>2022-07-14T06:49:04Z</time>
      </trkpt>
      <trkpt lat="47.17246" lon="-1.47076">
        <ele>71</ele>
        <time>2022-07-14T06:49:06Z</time>
      </trkpt>
      <trkpt lat="47.17251" lon="-1.47096">
        <ele>70</ele>
        <time>2022-07-14T06:49:08Z</time>
      </trkpt>
      <trkpt lat="47.17256" lon="-1.47115">
        <ele>70</ele>
        <time>2022-07-14T06:49:10Z</time>
      </trkpt>
      <trkpt lat="47.1726" lon="-1.47137">
        <ele>68</ele>
        <time>2022-07-14T06:49:12Z</time>
      </trkpt>
      <trkpt lat="47.17264" lon="-1.47157">
        <ele>67</ele>
        <time>2022-07-14T06:49:14Z</time>
      </trkpt>
      <trkpt lat="47.17268" lon="-1.47178">
        <ele>67</ele>
        <time>2022-07-14T06:49:16Z</time>
      </trkpt>
      <trkpt lat="47.17272" lon="-1.47199">
        <ele>67</ele>
        <time>2022-07-14T06:49:18Z</time>
      </trkpt>
      <trkpt lat="47.17276" lon="-1.47219">
        <ele>66</ele>
        <time>2022-07-14T06:49:20Z</time>
      </trkpt>
      <trkpt lat="47.1728" lon="-1.47239">
        <ele>66</ele>
        <time>2022-07-14T06:49:22Z</time>
      </trkpt>
      <trkpt lat="47.17284" lon="-1.4726">
        <ele>67</ele>
        <time>2022-07-14T06:49:24Z</time>
      </trkpt>
      <trkpt lat="47.17288" lon="-1.4728">
        <ele>66</ele>
        <time>2022-07-14T06:49:26Z</time>
      </trkpt>
      <trkpt lat="47.17292" lon="-1.47301">
        <ele>66</ele>
        <time>2022-07-14T06:49:28Z</time>
      </trkpt>
      <trkpt lat="47.17295" lon="-1.47321">
        <ele>66</ele>
        <time>2022-07-14T06:49:30Z</time>
      </trkpt>
      <trkpt lat="47.17299" lon="-1.4734">
        <ele>65</ele>
        <time>2022-07-14T06:49:32Z</time>
      </trkpt>
      <trkpt lat="47.17306" lon="-1.47356">
        <ele>64</ele>
        <time>2022-07-14T06:49:34Z</time>
      </trkpt>
      <trkpt lat="47.17319" lon="-1.47364">
        <ele>64</ele>
        <time>2022-07-14T06:49:36Z</time>
      </trkpt>
      <trkpt lat="47.17332" lon="-1.47362">
        <ele>64</ele>
        <time>2022-07-14T06:49:38Z</time>
      </trkpt>
      <trkpt lat="47.17346" lon="-1.47359">
        <ele>63</ele>
        <time>2022-07-14T06:49:40Z</time>
      </trkpt>
      <trkpt lat="47.1736" lon="-1.47356">
        <ele>63</ele>
        <time>2022-07-14T06:49:42Z</time>
      </trkpt>
      <trkpt lat="47.17373" lon="-1.47354">
        <ele>61</ele>
        <time>2022-07-14T06:49:44Z</time>
      </trkpt>
      <trkpt lat="47.17386" lon="-1.47352">
        <ele>61</ele>
        <time>2022-07-14T06:49:46Z</time>
      </trkpt>
      <trkpt lat="47.17399" lon="-1.4735">
        <ele>60</ele>
        <time>2022-07-14T06:49:48Z</time>
      </trkpt>
      <trkpt lat="47.17411" lon="-1.47349">
        <ele>60</ele>
        <time>2022-07-14T06:49:50Z</time>
      </trkpt>
      <trkpt lat="47.17423" lon="-1.47347">
        <ele>59</ele>
        <time>2022-07-14T06:49:52Z</time>
      </trkpt>
      <trkpt lat="47.17436" lon="-1.47347">
        <ele>59</ele>
        <time>2022-07-14T06:49:54Z</time>
      </trkpt>
      <trkpt lat="47.1745" lon="-1.47347">
        <ele>58</ele>
        <time>2022-07-14T06:49:56Z</time>
      </trkpt>
      <trkpt lat="47.17464" lon="-1.47347">
        <ele>58</ele>
        <time>2022-07-14T06:49:58Z</time>
      </trkpt>
      <trkpt lat="47.17477" lon="-1.47347">
        <ele>58</ele>
        <time>2022-07-14T06:50:00Z</time>
      </trkpt>
      <trkpt lat="47.17491" lon="-1.47349">
        <ele>57</ele>
        <time>2022-07-14T06:50:02Z</time>
      </trkpt>
      <trkpt lat="47.17504" lon="-1.47349">
        <ele>56</ele>
        <time>2022-07-14T06:50:04Z</time>
      </trkpt>
      <trkpt lat="47.17518" lon="-1.47349">
        <ele>56</ele>
        <time>2022-07-14T06:50:06Z</time>
      </trkpt>
      <trkpt lat="47.17532" lon="-1.47349">
        <ele>55</ele>
        <time>2022-07-14T06:50:08Z</time>
      </trkpt>
      <trkpt lat="47.17545" lon="-1.4735">
        <ele>55</ele>
        <time>2022-07-14T06:50:10Z</time>
      </trkpt>
      <trkpt lat="47.17559" lon="-1.47351">
        <ele>55</ele>
        <time>2022-07-14T06:50:12Z</time>
      </trkpt>
      <trkpt lat="47.17571" lon="-1.47353">
        <ele>54</ele>
        <time>2022-07-14T06:50:14Z</time>
      </trkpt>
      <trkpt lat="47.17584" lon="-1.47355">
        <ele>53</ele>
        <time>2022-07-14T06:50:16Z</time>
      </trkpt>
      <trkpt lat="47.17598" lon="-1.47358">
        <ele>53</ele>
        <time>2022-07-14T06:50:18Z</time>
      </trkpt>
      <trkpt lat="47.17611" lon="-1.47362">
        <ele>54</ele>
        <time>2022-07-14T06:50:20Z</time>
      </trkpt>
      <trkpt lat="47.17624" lon="-1.47365">
        <ele>53</ele>
        <time>2022-07-14T06:50:22Z</time>
      </trkpt>
      <trkpt lat="47.17637" lon="-1.47369">
        <ele>53</ele>
        <time>2022-07-14T06:50:24Z</time>
      </trkpt>
      <trkpt lat="47.17649" lon="-1.47374">
        <ele>54</ele>
        <time>2022-07-14T06:50:26Z</time>
      </trkpt>
      <trkpt lat="47.17661" lon="-1.47381">
        <ele>54</ele>
        <time>2022-07-14T06:50:28Z</time>
      </trkpt>
      <trkpt lat="47.17671" lon="-1.47386">
        <ele>55</ele>
        <time>2022-07-14T06:50:30Z</time>
      </trkpt>
      <trkpt lat="47.17683" lon="-1.47392">
        <ele>55</ele>
        <time>2022-07-14T06:50:32Z</time>
      </trkpt>
      <trkpt lat="47.17693" lon="-1.47398">
        <ele>56</ele>
        <time>2022-07-14T06:50:34Z</time>
      </trkpt>
      <trkpt lat="47.17704" lon="-1.47403">
        <ele>57</ele>
        <time>2022-07-14T06:50:36Z</time>
      </trkpt>
      <trkpt lat="47.17715" lon="-1.47407">
        <ele>57</ele>
        <time>2022-07-14T06:50:38Z</time>
      </trkpt>
      <trkpt lat="47.17726" lon="-1.47413">
        <ele>57</ele>
        <time>2022-07-14T06:50:40Z</time>
      </trkpt>
      <trkpt lat="47.17737" lon="-1.47418">
        <ele>57</ele>
        <time>2022-07-14T06:50:42Z</time>
      </trkpt>
      <trkpt lat="47.17748" lon="-1.47424">
        <ele>57</ele>
        <time>2022-07-14T06:50:44Z</time>
      </trkpt>
      <trkpt lat="47.1776" lon="-1.47431">
        <ele>57</ele>
        <time>2022-07-14T06:50:46Z</time>
      </trkpt>
      <trkpt lat="47.17772" lon="-1.47437">
        <ele>56</ele>
        <time>2022-07-14T06:50:48Z</time>
      </trkpt>
      <trkpt lat="47.17784" lon="-1.47442">
        <ele>56</ele>
        <time>2022-07-14T06:50:50Z</time>
      </trkpt>
      <trkpt lat="47.17796" lon="-1.47447">
        <ele>56</ele>
        <time>2022-07-14T06:50:52Z</time>
      </trkpt>
      <trkpt lat="47.17808" lon="-1.47452">
        <ele>55</ele>
        <time>2022-07-14T06:50:54Z</time>
      </trkpt>
      <trkpt lat="47.17821" lon="-1.47456">
        <ele>55</ele>
        <time>2022-07-14T06:50:56Z</time>
      </trkpt>
      <trkpt lat="47.17833" lon="-1.47459">
        <ele>55</ele>
        <time>2022-07-14T06:50:58Z</time>
      </trkpt>
      <trkpt lat="47.17845" lon="-1.47462">
        <ele>55</ele>
        <time>2022-07-14T06:51:00Z</time>
      </trkpt>
      <trkpt lat="47.17858" lon="-1.47466">
        <ele>55</ele>
        <time>2022-07-14T06:51:02Z</time>
      </trkpt>
      <trkpt lat="47.1787" lon="-1.47469">
        <ele>55</ele>
        <time>2022-07-14T06:51:04Z</time>
      </trkpt>
      <trkpt lat="47.17881" lon="-1.4747">
        <ele>55</ele>
        <time>2022-07-14T06:51:06Z</time>
      </trkpt>
      <trkpt lat="47.17893" lon="-1.47467">
        <ele>55</ele>
        <time>2022-07-14T06:51:08Z</time>
      </trkpt>
      <trkpt lat="47.17905" lon="-1.47463">
        <ele>55</ele>
        <time>2022-07-14T06:51:10Z</time>
      </trkpt>
      <trkpt lat="47.17917" lon="-1.47466">
        <ele>56</ele>
        <time>2022-07-14T06:51:12Z</time>
      </trkpt>
      <trkpt lat="47.17926" lon="-1.47477">
        <ele>56</ele>
        <time>2022-07-14T06:51:14Z</time>
      </trkpt>
      <trkpt lat="47.17935" lon="-1.47486">
        <ele>56</ele>
        <time>2022-07-14T06:51:16Z</time>
      </trkpt>
      <trkpt lat="47.17945" lon="-1.47489">
        <ele>57</ele>
        <time>2022-07-14T06:51:18Z</time>
      </trkpt>
      <trkpt lat="47.17956" lon="-1.47492">
        <ele>58</ele>
        <time>2022-07-14T06:51:20Z</time>
      </trkpt>
      <trkpt lat="47.17967" lon="-1.47495">
        <ele>58</ele>
        <time>2022-07-14T06:51:22Z</time>
      </trkpt>
      <trkpt lat="47.17978" lon="-1.47498">
        <ele>58</ele>
        <time>2022-07-14T06:51:24Z</time>
      </trkpt>
      <trkpt lat="47.17988" lon="-1.475">
        <ele>58</ele>
        <time>2022-07-14T06:51:26Z</time>
      </trkpt>
      <trkpt lat="47.18" lon="-1.47503">
        <ele>58</ele>
        <time>2022-07-14T06:51:28Z</time>
      </trkpt>
      <trkpt lat="47.18011" lon="-1.47505">
        <ele>58</ele>
        <time>2022-07-14T06:51:30Z</time>
      </trkpt>
      <trkpt lat="47.18022" lon="-1.47509">
        <ele>58</ele>
        <time>2022-07-14T06:51:32Z</time>
      </trkpt>
      <trkpt lat="47.18032" lon="-1.47512">
        <ele>58</ele>
        <time>2022-07-14T06:51:34Z</time>
      </trkpt>
      <trkpt lat="47.18043" lon="-1.47514">
        <ele>58</ele>
        <time>2022-07-14T06:51:36Z</time>
      </trkpt>
      <trkpt lat="47.18054" lon="-1.47517">
        <ele>59</ele>
        <time>2022-07-14T06:51:38Z</time>
      </trkpt>
      <trkpt lat="47.18065" lon="-1.4752">
        <ele>59</ele>
        <time>2022-07-14T06:51:40Z</time>
      </trkpt>
      <trkpt lat="47.18076" lon="-1.47522">
        <ele>59</ele>
        <time>2022-07-14T06:51:42Z</time>
      </trkpt>
      <trkpt lat="47.18086" lon="-1.47525">
        <ele>59</ele>
        <time>2022-07-14T06:51:44Z</time>
      </trkpt>
      <trkpt lat="47.18097" lon="-1.47528">
        <ele>59</ele>
        <time>2022-07-14T06:51:46Z</time>
      </trkpt>
      <trkpt lat="47.18107" lon="-1.47531">
        <ele>60</ele>
        <time>2022-07-14T06:51:48Z</time>
      </trkpt>
      <trkpt lat="47.18117" lon="-1.47533">
        <ele>60</ele>
        <time>2022-07-14T06:51:50Z</time>
      </trkpt>
      <trkpt lat="47.18128" lon="-1.47536">
        <ele>60</ele>
        <time>2022-07-14T06:51:52Z</time>
      </trkpt>
      <trkpt lat="47.18138" lon="-1.47538">
        <ele>61</ele>
        <time>2022-07-14T06:51:54Z</time>
      </trkpt>
      <trkpt lat="47.18149" lon="-1.47541">
        <ele>61</ele>
        <time>2022-07-14T06:51:56Z</time>
      </trkpt>
      <trkpt lat="47.1816" lon="-1.47544">
        <ele>62</ele>
        <time>2022-07-14T06:51:58Z</time>
      </trkpt>
      <trkpt lat="47.1817" lon="-1.47546">
        <ele>62</ele>
        <time>2022-07-14T06:52:00Z</time>
      </trkpt>
      <trkpt lat="47.1818" lon="-1.47548">
        <ele>62</ele>
        <time>2022-07-14T06:52:02Z</time>
      </trkpt>
      <trkpt lat="47.1819" lon="-1.4755">
        <ele>62</ele>
        <time>2022-07-14T06:52:04Z</time>
      </trkpt>
      <trkpt lat="47.182" lon="-1.47552">
        <ele>63</ele>
        <time>2022-07-14T06:52:06Z</time>
      </trkpt>
      <trkpt lat="47.1821" lon="-1.47554">
        <ele>63</ele>
        <time>2022-07-14T06:52:08Z</time>
      </trkpt>
      <trkpt lat="47.1822" lon="-1.47557">
        <ele>63</ele>
        <time>2022-07-14T06:52:10Z</time>
      </trkpt>
      <trkpt lat="47.1823" lon="-1.47561">
        <ele>63</ele>
        <time>2022-07-14T06:52:12Z</time>
      </trkpt>
      <trkpt lat="47.1824" lon="-1.47563">
        <ele>63</ele>
        <time>2022-07-14T06:52:14Z</time>
      </trkpt>
      <trkpt lat="47.18249" lon="-1.47565">
        <ele>63</ele>
        <time>2022-07-14T06:52:16Z</time>
      </trkpt>
      <trkpt lat="47.18258" lon="-1.47568">
        <ele>63</ele>
        <time>2022-07-14T06:52:18Z</time>
      </trkpt>
      <trkpt lat="47.18268" lon="-1.47571">
        <ele>63</ele>
        <time>2022-07-14T06:52:20Z</time>
      </trkpt>
      <trkpt lat="47.18281" lon="-1.47574">
        <ele>63</ele>
        <time>2022-07-14T06:52:23Z</time>
      </trkpt>
      <trkpt lat="47.18293" lon="-1.47579">
        <ele>64</ele>
        <time>2022-07-14T06:52:26Z</time>
      </trkpt>
      <trkpt lat="47.18306" lon="-1.47584">
        <ele>64</ele>
        <time>2022-07-14T06:52:29Z</time>
      </trkpt>
      <trkpt lat="47.18319" lon="-1.47587">
        <ele>65</ele>
        <time>2022-07-14T06:52:32Z</time>
      </trkpt>
      <trkpt lat="47.18332" lon="-1.4759">
        <ele>65</ele>
        <time>2022-07-14T06:52:35Z</time>
      </trkpt>
      <trkpt lat="47.18345" lon="-1.47594">
        <ele>66</ele>
        <time>2022-07-14T06:52:38Z</time>
      </trkpt>
      <trkpt lat="47.18358" lon="-1.47597">
        <ele>66</ele>
        <time>2022-07-14T06:52:41Z</time>
      </trkpt>
      <trkpt lat="47.18369" lon="-1.47598">
        <ele>67</ele>
        <time>2022-07-14T06:52:44Z</time>
      </trkpt>
      <trkpt lat="47.18379" lon="-1.476">
        <ele>67</ele>
        <time>2022-07-14T06:52:47Z</time>
      </trkpt>
      <trkpt lat="47.18388" lon="-1.47601">
        <ele>67</ele>
        <time>2022-07-14T06:52:51Z</time>
      </trkpt>
      <trkpt lat="47.18398" lon="-1.47603">
        <ele>68</ele>
        <time>2022-07-14T06:53:10Z</time>
      </trkpt>
      <trkpt lat="47.18411" lon="-1.47607">
        <ele>69</ele>
        <time>2022-07-14T06:53:13Z</time>
      </trkpt>
      <trkpt lat="47.18423" lon="-1.47612">
        <ele>70</ele>
        <time>2022-07-14T06:53:16Z</time>
      </trkpt>
      <trkpt lat="47.18435" lon="-1.47616">
        <ele>70</ele>
        <time>2022-07-14T06:53:19Z</time>
      </trkpt>
      <trkpt lat="47.18448" lon="-1.4762">
        <ele>72</ele>
        <time>2022-07-14T06:53:22Z</time>
      </trkpt>
      <trkpt lat="47.1846" lon="-1.47624">
        <ele>73</ele>
        <time>2022-07-14T06:53:25Z</time>
      </trkpt>
      <trkpt lat="47.18472" lon="-1.47627">
        <ele>74</ele>
        <time>2022-07-14T06:53:28Z</time>
      </trkpt>
      <trkpt lat="47.18483" lon="-1.4763">
        <ele>75</ele>
        <time>2022-07-14T06:53:31Z</time>
      </trkpt>
      <trkpt lat="47.18495" lon="-1.47634">
        <ele>76</ele>
        <time>2022-07-14T06:53:34Z</time>
      </trkpt>
      <trkpt lat="47.18508" lon="-1.47637">
        <ele>76</ele>
        <time>2022-07-14T06:53:37Z</time>
      </trkpt>
      <trkpt lat="47.1852" lon="-1.47639">
        <ele>76</ele>
        <time>2022-07-14T06:53:40Z</time>
      </trkpt>
      <trkpt lat="47.18532" lon="-1.47641">
        <ele>76</ele>
        <time>2022-07-14T06:53:43Z</time>
      </trkpt>
      <trkpt lat="47.18544" lon="-1.47645">
        <ele>76</ele>
        <time>2022-07-14T06:53:46Z</time>
      </trkpt>
      <trkpt lat="47.18556" lon="-1.47649">
        <ele>77</ele>
        <time>2022-07-14T06:53:49Z</time>
      </trkpt>
      <trkpt lat="47.18568" lon="-1.47653">
        <ele>78</ele>
        <time>2022-07-14T06:53:52Z</time>
      </trkpt>
      <trkpt lat="47.1858" lon="-1.47657">
        <ele>78</ele>
        <time>2022-07-14T06:53:55Z</time>
      </trkpt>
      <trkpt lat="47.18592" lon="-1.47661">
        <ele>78</ele>
        <time>2022-07-14T06:53:58Z</time>
      </trkpt>
      <trkpt lat="47.18605" lon="-1.47665">
        <ele>78</ele>
        <time>2022-07-14T06:54:01Z</time>
      </trkpt>
      <trkpt lat="47.18615" lon="-1.47667">
        <ele>78</ele>
        <time>2022-07-14T06:54:04Z</time>
      </trkpt>
      <trkpt lat="47.18627" lon="-1.4767">
        <ele>79</ele>
        <time>2022-07-14T06:54:07Z</time>
      </trkpt>
      <trkpt lat="47.1864" lon="-1.47671">
        <ele>80</ele>
        <time>2022-07-14T06:54:10Z</time>
      </trkpt>
      <trkpt lat="47.18652" lon="-1.47674">
        <ele>79</ele>
        <time>2022-07-14T06:54:13Z</time>
      </trkpt>
      <trkpt lat="47.18662" lon="-1.47676">
        <ele>79</ele>
        <time>2022-07-14T06:54:16Z</time>
      </trkpt>
      <trkpt lat="47.18671" lon="-1.47678">
        <ele>79</ele>
        <time>2022-07-14T06:54:19Z</time>
      </trkpt>
      <trkpt lat="47.18681" lon="-1.47679">
        <ele>77</ele>
        <time>2022-07-14T06:54:49Z</time>
      </trkpt>
      <trkpt lat="47.18692" lon="-1.47679">
        <ele>78</ele>
        <time>2022-07-14T06:54:53Z</time>
      </trkpt>
      <trkpt lat="47.18704" lon="-1.47675">
        <ele>78</ele>
        <time>2022-07-14T06:54:56Z</time>
      </trkpt>
      <trkpt lat="47.18713" lon="-1.47662">
        <ele>78</ele>
        <time>2022-07-14T06:54:59Z</time>
      </trkpt>
      <trkpt lat="47.18719" lon="-1.47651">
        <ele>78</ele>
        <time>2022-07-14T06:55:01Z</time>
      </trkpt>
      <trkpt lat="47.18724" lon="-1.47637">
        <ele>77</ele>
        <time>2022-07-14T06:55:03Z</time>
      </trkpt>
      <trkpt lat="47.1873" lon="-1.47623">
        <ele>76</ele>
        <time>2022-07-14T06:55:05Z</time>
      </trkpt>
      <trkpt lat="47.18737" lon="-1.47609">
        <ele>75</ele>
        <time>2022-07-14T06:55:07Z</time>
      </trkpt>
      <trkpt lat="47.18743" lon="-1.47596">
        <ele>75</ele>
        <time>2022-07-14T06:55:09Z</time>
      </trkpt>
      <trkpt lat="47.18749" lon="-1.47582">
        <ele>75</ele>
        <time>2022-07-14T06:55:11Z</time>
      </trkpt>
      <trkpt lat="47.18756" lon="-1.47567">
        <ele>75</ele>
        <time>2022-07-14T06:55:13Z</time>
      </trkpt>
      <trkpt lat="47.18763" lon="-1.47553">
        <ele>75</ele>
        <time>2022-07-14T06:55:15Z</time>
      </trkpt>
      <trkpt lat="47.1877" lon="-1.4754">
        <ele>75</ele>
        <time>2022-07-14T06:55:17Z</time>
      </trkpt>
      <trkpt lat="47.18776" lon="-1.47527">
        <ele>75</ele>
        <time>2022-07-14T06:55:19Z</time>
      </trkpt>
      <trkpt lat="47.18783" lon="-1.47513">
        <ele>74</ele>
        <time>2022-07-14T06:55:21Z</time>
      </trkpt>
      <trkpt lat="47.18789" lon="-1.47501">
        <ele>75</ele>
        <time>2022-07-14T06:55:23Z</time>
      </trkpt>
      <trkpt lat="47.18796" lon="-1.47488">
        <ele>75</ele>
        <time>2022-07-14T06:55:25Z</time>
      </trkpt>
      <trkpt lat="47.18802" lon="-1.47474">
        <ele>75</ele>
        <time>2022-07-14T06:55:27Z</time>
      </trkpt>
      <trkpt lat="47.18808" lon="-1.47461">
        <ele>75</ele>
        <time>2022-07-14T06:55:29Z</time>
      </trkpt>
      <trkpt lat="47.18814" lon="-1.47448">
        <ele>75</ele>
        <time>2022-07-14T06:55:31Z</time>
      </trkpt>
      <trkpt lat="47.18821" lon="-1.47435">
        <ele>75</ele>
        <time>2022-07-14T06:55:33Z</time>
      </trkpt>
      <trkpt lat="47.18827" lon="-1.47422">
        <ele>76</ele>
        <time>2022-07-14T06:55:35Z</time>
      </trkpt>
      <trkpt lat="47.18833" lon="-1.4741">
        <ele>76</ele>
        <time>2022-07-14T06:55:37Z</time>
      </trkpt>
      <trkpt lat="47.1884" lon="-1.47397">
        <ele>76</ele>
        <time>2022-07-14T06:55:39Z</time>
      </trkpt>
      <trkpt lat="47.18846" lon="-1.47384">
        <ele>76</ele>
        <time>2022-07-14T06:55:41Z</time>
      </trkpt>
      <trkpt lat="47.18852" lon="-1.4737">
        <ele>77</ele>
        <time>2022-07-14T06:55:43Z</time>
      </trkpt>
      <trkpt lat="47.18859" lon="-1.47357">
        <ele>76</ele>
        <time>2022-07-14T06:55:45Z</time>
      </trkpt>
      <trkpt lat="47.18865" lon="-1.47343">
        <ele>77</ele>
        <time>2022-07-14T06:55:47Z</time>
      </trkpt>
      <trkpt lat="47.18871" lon="-1.4733">
        <ele>76</ele>
        <time>2022-07-14T06:55:49Z</time>
      </trkpt>
      <trkpt lat="47.18877" lon="-1.47316">
        <ele>76</ele>
        <time>2022-07-14T06:55:51Z</time>
      </trkpt>
      <trkpt lat="47.18883" lon="-1.47304">
        <ele>76</ele>
        <time>2022-07-14T06:55:53Z</time>
      </trkpt>
      <trkpt lat="47.18889" lon="-1.47292">
        <ele>77</ele>
        <time>2022-07-14T06:55:55Z</time>
      </trkpt>
      <trkpt lat="47.18895" lon="-1.47279">
        <ele>77</ele>
        <time>2022-07-14T06:55:57Z</time>
      </trkpt>
      <trkpt lat="47.189" lon="-1.47266">
        <ele>77</ele>
        <time>2022-07-14T06:55:59Z</time>
      </trkpt>
      <trkpt lat="47.18907" lon="-1.47254">
        <ele>77</ele>
        <time>2022-07-14T06:56:01Z</time>
      </trkpt>
      <trkpt lat="47.18913" lon="-1.47242">
        <ele>78</ele>
        <time>2022-07-14T06:56:03Z</time>
      </trkpt>
      <trkpt lat="47.18919" lon="-1.4723">
        <ele>79</ele>
        <time>2022-07-14T06:56:05Z</time>
      </trkpt>
      <trkpt lat="47.18924" lon="-1.47218">
        <ele>79</ele>
        <time>2022-07-14T06:56:07Z</time>
      </trkpt>
      <trkpt lat="47.18929" lon="-1.472">
        <ele>81</ele>
        <time>2022-07-14T06:56:10Z</time>
      </trkpt>
      <trkpt lat="47.18932" lon="-1.47184">
        <ele>81</ele>
        <time>2022-07-14T06:56:12Z</time>
      </trkpt>
      <trkpt lat="47.1894" lon="-1.47172">
        <ele>81</ele>
        <time>2022-07-14T06:56:14Z</time>
      </trkpt>
      <trkpt lat="47.18949" lon="-1.4716">
        <ele>80</ele>
        <time>2022-07-14T06:56:16Z</time>
      </trkpt>
      <trkpt lat="47.18957" lon="-1.47146">
        <ele>80</ele>
        <time>2022-07-14T06:56:18Z</time>
      </trkpt>
      <trkpt lat="47.18964" lon="-1.47133">
        <ele>80</ele>
        <time>2022-07-14T06:56:20Z</time>
      </trkpt>
      <trkpt lat="47.18971" lon="-1.47119">
        <ele>81</ele>
        <time>2022-07-14T06:56:22Z</time>
      </trkpt>
      <trkpt lat="47.18979" lon="-1.47104">
        <ele>82</ele>
        <time>2022-07-14T06:56:24Z</time>
      </trkpt>
      <trkpt lat="47.18986" lon="-1.47088">
        <ele>82</ele>
        <time>2022-07-14T06:56:26Z</time>
      </trkpt>
      <trkpt lat="47.18994" lon="-1.47072">
        <ele>81</ele>
        <time>2022-07-14T06:56:28Z</time>
      </trkpt>
      <trkpt lat="47.19002" lon="-1.47054">
        <ele>80</ele>
        <time>2022-07-14T06:56:30Z</time>
      </trkpt>
      <trkpt lat="47.1901" lon="-1.47038">
        <ele>79</ele>
        <time>2022-07-14T06:56:32Z</time>
      </trkpt>
      <trkpt lat="47.19018" lon="-1.47021">
        <ele>78</ele>
        <time>2022-07-14T06:56:34Z</time>
      </trkpt>
      <trkpt lat="47.19025" lon="-1.47004">
        <ele>77</ele>
        <time>2022-07-14T06:56:36Z</time>
      </trkpt>
      <trkpt lat="47.19033" lon="-1.46989">
        <ele>77</ele>
        <time>2022-07-14T06:56:38Z</time>
      </trkpt>
      <trkpt lat="47.19041" lon="-1.46972">
        <ele>77</ele>
        <time>2022-07-14T06:56:40Z</time>
      </trkpt>
      <trkpt lat="47.19049" lon="-1.46956">
        <ele>76</ele>
        <time>2022-07-14T06:56:42Z</time>
      </trkpt>
      <trkpt lat="47.19056" lon="-1.46939">
        <ele>76</ele>
        <time>2022-07-14T06:56:44Z</time>
      </trkpt>
      <trkpt lat="47.19064" lon="-1.46924">
        <ele>76</ele>
        <time>2022-07-14T06:56:46Z</time>
      </trkpt>
      <trkpt lat="47.19071" lon="-1.46909">
        <ele>77</ele>
        <time>2022-07-14T06:56:48Z</time>
      </trkpt>
      <trkpt lat="47.19078" lon="-1.46894">
        <ele>77</ele>
        <time>2022-07-14T06:56:50Z</time>
      </trkpt>
      <trkpt lat="47.19085" lon="-1.46879">
        <ele>77</ele>
        <time>2022-07-14T06:56:52Z</time>
      </trkpt>
      <trkpt lat="47.19092" lon="-1.46865">
        <ele>77</ele>
        <time>2022-07-14T06:56:54Z</time>
      </trkpt>
      <trkpt lat="47.19099" lon="-1.46849">
        <ele>77</ele>
        <time>2022-07-14T06:56:56Z</time>
      </trkpt>
      <trkpt lat="47.19105" lon="-1.46835">
        <ele>77</ele>
        <time>2022-07-14T06:56:58Z</time>
      </trkpt>
      <trkpt lat="47.19112" lon="-1.46822">
        <ele>77</ele>
        <time>2022-07-14T06:57:00Z</time>
      </trkpt>
      <trkpt lat="47.19119" lon="-1.46808">
        <ele>77</ele>
        <time>2022-07-14T06:57:02Z</time>
      </trkpt>
      <trkpt lat="47.19126" lon="-1.46793">
        <ele>77</ele>
        <time>2022-07-14T06:57:04Z</time>
      </trkpt>
      <trkpt lat="47.19133" lon="-1.46778">
        <ele>77</ele>
        <time>2022-07-14T06:57:06Z</time>
      </trkpt>
      <trkpt lat="47.1914" lon="-1.46764">
        <ele>77</ele>
        <time>2022-07-14T06:57:08Z</time>
      </trkpt>
      <trkpt lat="47.19147" lon="-1.4675">
        <ele>77</ele>
        <time>2022-07-14T06:57:10Z</time>
      </trkpt>
      <trkpt lat="47.19154" lon="-1.46736">
        <ele>76</ele>
        <time>2022-07-14T06:57:12Z</time>
      </trkpt>
      <trkpt lat="47.1916" lon="-1.46721">
        <ele>76</ele>
        <time>2022-07-14T06:57:14Z</time>
      </trkpt>
      <trkpt lat="47.19167" lon="-1.46706">
        <ele>76</ele>
        <time>2022-07-14T06:57:16Z</time>
      </trkpt>
      <trkpt lat="47.19174" lon="-1.46692">
        <ele>76</ele>
        <time>2022-07-14T06:57:18Z</time>
      </trkpt>
      <trkpt lat="47.19181" lon="-1.46678">
        <ele>75</ele>
        <time>2022-07-14T06:57:20Z</time>
      </trkpt>
      <trkpt lat="47.19187" lon="-1.46664">
        <ele>75</ele>
        <time>2022-07-14T06:57:22Z</time>
      </trkpt>
      <trkpt lat="47.19194" lon="-1.46649">
        <ele>76</ele>
        <time>2022-07-14T06:57:24Z</time>
      </trkpt>
      <trkpt lat="47.19201" lon="-1.46635">
        <ele>76</ele>
        <time>2022-07-14T06:57:26Z</time>
      </trkpt>
      <trkpt lat="47.19207" lon="-1.4662">
        <ele>76</ele>
        <time>2022-07-14T06:57:28Z</time>
      </trkpt>
      <trkpt lat="47.19215" lon="-1.46606">
        <ele>76</ele>
        <time>2022-07-14T06:57:30Z</time>
      </trkpt>
      <trkpt lat="47.19222" lon="-1.46592">
        <ele>76</ele>
        <time>2022-07-14T06:57:32Z</time>
      </trkpt>
      <trkpt lat="47.19229" lon="-1.46578">
        <ele>76</ele>
        <time>2022-07-14T06:57:34Z</time>
      </trkpt>
      <trkpt lat="47.19235" lon="-1.46564">
        <ele>76</ele>
        <time>2022-07-14T06:57:36Z</time>
      </trkpt>
      <trkpt lat="47.19242" lon="-1.4655">
        <ele>76</ele>
        <time>2022-07-14T06:57:38Z</time>
      </trkpt>
      <trkpt lat="47.19248" lon="-1.46537">
        <ele>75</ele>
        <time>2022-07-14T06:57:40Z</time>
      </trkpt>
      <trkpt lat="47.19254" lon="-1.46523">
        <ele>75</ele>
        <time>2022-07-14T06:57:42Z</time>
      </trkpt>
      <trkpt lat="47.19261" lon="-1.46509">
        <ele>75</ele>
        <time>2022-07-14T06:57:44Z</time>
      </trkpt>
      <trkpt lat="47.19268" lon="-1.46495">
        <ele>75</ele>
        <time>2022-07-14T06:57:46Z</time>
      </trkpt>
      <trkpt lat="47.19275" lon="-1.46481">
        <ele>75</ele>
        <time>2022-07-14T06:57:48Z</time>
      </trkpt>
      <trkpt lat="47.19282" lon="-1.46467">
        <ele>75</ele>
        <time>2022-07-14T06:57:50Z</time>
      </trkpt>
      <trkpt lat="47.19288" lon="-1.46453">
        <ele>75</ele>
        <time>2022-07-14T06:57:52Z</time>
      </trkpt>
      <trkpt lat="47.19295" lon="-1.46439">
        <ele>74</ele>
        <time>2022-07-14T06:57:54Z</time>
      </trkpt>
      <trkpt lat="47.19302" lon="-1.46426">
        <ele>74</ele>
        <time>2022-07-14T06:57:56Z</time>
      </trkpt>
      <trkpt lat="47.19308" lon="-1.46412">
        <ele>74</ele>
        <time>2022-07-14T06:57:58Z</time>
      </trkpt>
      <trkpt lat="47.19314" lon="-1.46398">
        <ele>75</ele>
        <time>2022-07-14T06:58:00Z</time>
      </trkpt>
      <trkpt lat="47.19321" lon="-1.46385">
        <ele>75</ele>
        <time>2022-07-14T06:58:02Z</time>
      </trkpt>
      <trkpt lat="47.19327" lon="-1.4637">
        <ele>75</ele>
        <time>2022-07-14T06:58:04Z</time>
      </trkpt>
      <trkpt lat="47.19333" lon="-1.46356">
        <ele>75</ele>
        <time>2022-07-14T06:58:06Z</time>
      </trkpt>
      <trkpt lat="47.19339" lon="-1.46342">
        <ele>75</ele>
        <time>2022-07-14T06:58:08Z</time>
      </trkpt>
      <trkpt lat="47.19345" lon="-1.46328">
        <ele>75</ele>
        <time>2022-07-14T06:58:10Z</time>
      </trkpt>
      <trkpt lat="47.19351" lon="-1.46316">
        <ele>75</ele>
        <time>2022-07-14T06:58:12Z</time>
      </trkpt>
      <trkpt lat="47.19355" lon="-1.46301">
        <ele>75</ele>
        <time>2022-07-14T06:58:14Z</time>
      </trkpt>
      <trkpt lat="47.19361" lon="-1.46288">
        <ele>75</ele>
        <time>2022-07-14T06:58:16Z</time>
      </trkpt>
      <trkpt lat="47.19371" lon="-1.46284">
        <ele>76</ele>
        <time>2022-07-14T06:58:18Z</time>
      </trkpt>
      <trkpt lat="47.1938" lon="-1.46296">
        <ele>77</ele>
        <time>2022-07-14T06:58:20Z</time>
      </trkpt>
      <trkpt lat="47.19389" lon="-1.46307">
        <ele>77</ele>
        <time>2022-07-14T06:58:22Z</time>
      </trkpt>
      <trkpt lat="47.19399" lon="-1.46316">
        <ele>78</ele>
        <time>2022-07-14T06:58:24Z</time>
      </trkpt>
      <trkpt lat="47.1941" lon="-1.46322">
        <ele>79</ele>
        <time>2022-07-14T06:58:26Z</time>
      </trkpt>
      <trkpt lat="47.19421" lon="-1.46327">
        <ele>79</ele>
        <time>2022-07-14T06:58:28Z</time>
      </trkpt>
      <trkpt lat="47.19433" lon="-1.46333">
        <ele>79</ele>
        <time>2022-07-14T06:58:30Z</time>
      </trkpt>
      <trkpt lat="47.19444" lon="-1.46338">
        <ele>79</ele>
        <time>2022-07-14T06:58:32Z</time>
      </trkpt>
      <trkpt lat="47.19455" lon="-1.46343">
        <ele>80</ele>
        <time>2022-07-14T06:58:34Z</time>
      </trkpt>
      <trkpt lat="47.19467" lon="-1.46349">
        <ele>79</ele>
        <time>2022-07-14T06:58:36Z</time>
      </trkpt>
      <trkpt lat="47.19478" lon="-1.46355">
        <ele>80</ele>
        <time>2022-07-14T06:58:38Z</time>
      </trkpt>
      <trkpt lat="47.19491" lon="-1.4636">
        <ele>80</ele>
        <time>2022-07-14T06:58:40Z</time>
      </trkpt>
      <trkpt lat="47.19502" lon="-1.46366">
        <ele>80</ele>
        <time>2022-07-14T06:58:42Z</time>
      </trkpt>
      <trkpt lat="47.19514" lon="-1.46371">
        <ele>80</ele>
        <time>2022-07-14T06:58:44Z</time>
      </trkpt>
      <trkpt lat="47.19525" lon="-1.46376">
        <ele>81</ele>
        <time>2022-07-14T06:58:46Z</time>
      </trkpt>
      <trkpt lat="47.19537" lon="-1.46382">
        <ele>81</ele>
        <time>2022-07-14T06:58:48Z</time>
      </trkpt>
      <trkpt lat="47.19549" lon="-1.46388">
        <ele>81</ele>
        <time>2022-07-14T06:58:50Z</time>
      </trkpt>
      <trkpt lat="47.19561" lon="-1.46394">
        <ele>80</ele>
        <time>2022-07-14T06:58:52Z</time>
      </trkpt>
      <trkpt lat="47.19574" lon="-1.464">
        <ele>80</ele>
        <time>2022-07-14T06:58:54Z</time>
      </trkpt>
      <trkpt lat="47.19586" lon="-1.46406">
        <ele>81</ele>
        <time>2022-07-14T06:58:56Z</time>
      </trkpt>
      <trkpt lat="47.19599" lon="-1.46412">
        <ele>80</ele>
        <time>2022-07-14T06:58:58Z</time>
      </trkpt>
      <trkpt lat="47.19611" lon="-1.46417">
        <ele>80</ele>
        <time>2022-07-14T06:59:00Z</time>
      </trkpt>
      <trkpt lat="47.19623" lon="-1.46423">
        <ele>79</ele>
        <time>2022-07-14T06:59:02Z</time>
      </trkpt>
      <trkpt lat="47.19636" lon="-1.46429">
        <ele>79</ele>
        <time>2022-07-14T06:59:04Z</time>
      </trkpt>
      <trkpt lat="47.19648" lon="-1.46435">
        <ele>78</ele>
        <time>2022-07-14T06:59:06Z</time>
      </trkpt>
      <trkpt lat="47.1966" lon="-1.46441">
        <ele>78</ele>
        <time>2022-07-14T06:59:08Z</time>
      </trkpt>
      <trkpt lat="47.19672" lon="-1.46447">
        <ele>77</ele>
        <time>2022-07-14T06:59:10Z</time>
      </trkpt>
      <trkpt lat="47.19684" lon="-1.46453">
        <ele>77</ele>
        <time>2022-07-14T06:59:12Z</time>
      </trkpt>
      <trkpt lat="47.19696" lon="-1.4646">
        <ele>76</ele>
        <time>2022-07-14T06:59:14Z</time>
      </trkpt>
      <trkpt lat="47.19708" lon="-1.46465">
        <ele>76</ele>
        <time>2022-07-14T06:59:16Z</time>
      </trkpt>
      <trkpt lat="47.1972" lon="-1.46471">
        <ele>76</ele>
        <time>2022-07-14T06:59:18Z</time>
      </trkpt>
      <trkpt lat="47.19732" lon="-1.46476">
        <ele>76</ele>
        <time>2022-07-14T06:59:20Z</time>
      </trkpt>
      <trkpt lat="47.19744" lon="-1.46482">
        <ele>76</ele>
        <time>2022-07-14T06:59:22Z</time>
      </trkpt>
      <trkpt lat="47.19756" lon="-1.46487">
        <ele>76</ele>
        <time>2022-07-14T06:59:24Z</time>
      </trkpt>
      <trkpt lat="47.19768" lon="-1.46493">
        <ele>76</ele>
        <time>2022-07-14T06:59:26Z</time>
      </trkpt>
      <trkpt lat="47.1978" lon="-1.465">
        <ele>75</ele>
        <time>2022-07-14T06:59:28Z</time>
      </trkpt>
      <trkpt lat="47.19793" lon="-1.46506">
        <ele>74</ele>
        <time>2022-07-14T06:59:30Z</time>
      </trkpt>
      <trkpt lat="47.19805" lon="-1.46511">
        <ele>74</ele>
        <time>2022-07-14T06:59:32Z</time>
      </trkpt>
      <trkpt lat="47.19817" lon="-1.46517">
        <ele>73</ele>
        <time>2022-07-14T06:59:34Z</time>
      </trkpt>
      <trkpt lat="47.19829" lon="-1.46523">
        <ele>73</ele>
        <time>2022-07-14T06:59:36Z</time>
      </trkpt>
      <trkpt lat="47.19841" lon="-1.46529">
        <ele>72</ele>
        <time>2022-07-14T06:59:38Z</time>
      </trkpt>
      <trkpt lat="47.19854" lon="-1.46535">
        <ele>71</ele>
        <time>2022-07-14T06:59:40Z</time>
      </trkpt>
      <trkpt lat="47.19866" lon="-1.4654">
        <ele>71</ele>
        <time>2022-07-14T06:59:42Z</time>
      </trkpt>
      <trkpt lat="47.19877" lon="-1.46546">
        <ele>71</ele>
        <time>2022-07-14T06:59:44Z</time>
      </trkpt>
      <trkpt lat="47.19889" lon="-1.46551">
        <ele>70</ele>
        <time>2022-07-14T06:59:46Z</time>
      </trkpt>
      <trkpt lat="47.19901" lon="-1.46557">
        <ele>70</ele>
        <time>2022-07-14T06:59:48Z</time>
      </trkpt>
      <trkpt lat="47.19913" lon="-1.46563">
        <ele>70</ele>
        <time>2022-07-14T06:59:50Z</time>
      </trkpt>
      <trkpt lat="47.19925" lon="-1.46568">
        <ele>69</ele>
        <time>2022-07-14T06:59:52Z</time>
      </trkpt>
      <trkpt lat="47.19937" lon="-1.46574">
        <ele>69</ele>
        <time>2022-07-14T06:59:54Z</time>
      </trkpt>
      <trkpt lat="47.19949" lon="-1.46578">
        <ele>70</ele>
        <time>2022-07-14T06:59:56Z</time>
      </trkpt>
      <trkpt lat="47.1996" lon="-1.46582">
        <ele>70</ele>
        <time>2022-07-14T06:59:58Z</time>
      </trkpt>
      <trkpt lat="47.19971" lon="-1.46587">
        <ele>70</ele>
        <time>2022-07-14T07:00:00Z</time>
      </trkpt>
      <trkpt lat="47.19983" lon="-1.46592">
        <ele>70</ele>
        <time>2022-07-14T07:00:02Z</time>
      </trkpt>
      <trkpt lat="47.19996" lon="-1.46597">
        <ele>69</ele>
        <time>2022-07-14T07:00:04Z</time>
      </trkpt>
      <trkpt lat="47.20007" lon="-1.46601">
        <ele>69</ele>
        <time>2022-07-14T07:00:06Z</time>
      </trkpt>
      <trkpt lat="47.20019" lon="-1.46606">
        <ele>70</ele>
        <time>2022-07-14T07:00:08Z</time>
      </trkpt>
      <trkpt lat="47.20031" lon="-1.46611">
        <ele>70</ele>
        <time>2022-07-14T07:00:10Z</time>
      </trkpt>
      <trkpt lat="47.20042" lon="-1.46616">
        <ele>70</ele>
        <time>2022-07-14T07:00:12Z</time>
      </trkpt>
      <trkpt lat="47.20054" lon="-1.46621">
        <ele>70</ele>
        <time>2022-07-14T07:00:14Z</time>
      </trkpt>
      <trkpt lat="47.20066" lon="-1.46626">
        <ele>70</ele>
        <time>2022-07-14T07:00:16Z</time>
      </trkpt>
      <trkpt lat="47.20078" lon="-1.4663">
        <ele>71</ele>
        <time>2022-07-14T07:00:18Z</time>
      </trkpt>
      <trkpt lat="47.2009" lon="-1.46634">
        <ele>71</ele>
        <time>2022-07-14T07:00:20Z</time>
      </trkpt>
      <trkpt lat="47.20102" lon="-1.46641">
        <ele>71</ele>
        <time>2022-07-14T07:00:22Z</time>
      </trkpt>
      <trkpt lat="47.20113" lon="-1.46648">
        <ele>71</ele>
        <time>2022-07-14T07:00:24Z</time>
      </trkpt>
      <trkpt lat="47.20125" lon="-1.46655">
        <ele>71</ele>
        <time>2022-07-14T07:00:26Z</time>
      </trkpt>
      <trkpt lat="47.20136" lon="-1.46663">
        <ele>70</ele>
        <time>2022-07-14T07:00:28Z</time>
      </trkpt>
      <trkpt lat="47.20146" lon="-1.46667">
        <ele>70</ele>
        <time>2022-07-14T07:00:30Z</time>
      </trkpt>
      <trkpt lat="47.20158" lon="-1.46667">
        <ele>69</ele>
        <time>2022-07-14T07:00:32Z</time>
      </trkpt>
      <trkpt lat="47.2017" lon="-1.46668">
        <ele>69</ele>
        <time>2022-07-14T07:00:34Z</time>
      </trkpt>
      <trkpt lat="47.20182" lon="-1.46672">
        <ele>68</ele>
        <time>2022-07-14T07:00:36Z</time>
      </trkpt>
      <trkpt lat="47.20193" lon="-1.46675">
        <ele>68</ele>
        <time>2022-07-14T07:00:38Z</time>
      </trkpt>
      <trkpt lat="47.20205" lon="-1.46679">
        <ele>68</ele>
        <time>2022-07-14T07:00:40Z</time>
      </trkpt>
      <trkpt lat="47.20216" lon="-1.46682">
        <ele>68</ele>
        <time>2022-07-14T07:00:42Z</time>
      </trkpt>
      <trkpt lat="47.20228" lon="-1.46683">
        <ele>68</ele>
        <time>2022-07-14T07:00:44Z</time>
      </trkpt>
      <trkpt lat="47.2024" lon="-1.46687">
        <ele>68</ele>
        <time>2022-07-14T07:00:46Z</time>
      </trkpt>
      <trkpt lat="47.20251" lon="-1.4669">
        <ele>69</ele>
        <time>2022-07-14T07:00:48Z</time>
      </trkpt>
      <trkpt lat="47.20263" lon="-1.46692">
        <ele>68</ele>
        <time>2022-07-14T07:00:50Z</time>
      </trkpt>
      <trkpt lat="47.20274" lon="-1.46693">
        <ele>68</ele>
        <time>2022-07-14T07:00:52Z</time>
      </trkpt>
      <trkpt lat="47.20286" lon="-1.46695">
        <ele>68</ele>
        <time>2022-07-14T07:00:54Z</time>
      </trkpt>
      <trkpt lat="47.20297" lon="-1.46698">
        <ele>68</ele>
        <time>2022-07-14T07:00:56Z</time>
      </trkpt>
      <trkpt lat="47.20309" lon="-1.46699">
        <ele>67</ele>
        <time>2022-07-14T07:00:58Z</time>
      </trkpt>
      <trkpt lat="47.20321" lon="-1.46701">
        <ele>68</ele>
        <time>2022-07-14T07:01:00Z</time>
      </trkpt>
      <trkpt lat="47.20333" lon="-1.46704">
        <ele>68</ele>
        <time>2022-07-14T07:01:02Z</time>
      </trkpt>
      <trkpt lat="47.20345" lon="-1.46706">
        <ele>68</ele>
        <time>2022-07-14T07:01:04Z</time>
      </trkpt>
      <trkpt lat="47.20356" lon="-1.46708">
        <ele>68</ele>
        <time>2022-07-14T07:01:06Z</time>
      </trkpt>
      <trkpt lat="47.20368" lon="-1.46709">
        <ele>68</ele>
        <time>2022-07-14T07:01:08Z</time>
      </trkpt>
      <trkpt lat="47.20379" lon="-1.4671">
        <ele>68</ele>
        <time>2022-07-14T07:01:10Z</time>
      </trkpt>
      <trkpt lat="47.2039" lon="-1.46712">
        <ele>68</ele>
        <time>2022-07-14T07:01:12Z</time>
      </trkpt>
      <trkpt lat="47.20402" lon="-1.46714">
        <ele>68</ele>
        <time>2022-07-14T07:01:14Z</time>
      </trkpt>
      <trkpt lat="47.20412" lon="-1.46715">
        <ele>69</ele>
        <time>2022-07-14T07:01:16Z</time>
      </trkpt>
      <trkpt lat="47.20424" lon="-1.46717">
        <ele>69</ele>
        <time>2022-07-14T07:01:18Z</time>
      </trkpt>
      <trkpt lat="47.20434" lon="-1.46718">
        <ele>69</ele>
        <time>2022-07-14T07:01:20Z</time>
      </trkpt>
      <trkpt lat="47.20446" lon="-1.4672">
        <ele>69</ele>
        <time>2022-07-14T07:01:22Z</time>
      </trkpt>
      <trkpt lat="47.20457" lon="-1.46722">
        <ele>70</ele>
        <time>2022-07-14T07:01:24Z</time>
      </trkpt>
      <trkpt lat="47.20468" lon="-1.46723">
        <ele>70</ele>
        <time>2022-07-14T07:01:26Z</time>
      </trkpt>
      <trkpt lat="47.20481" lon="-1.46725">
        <ele>70</ele>
        <time>2022-07-14T07:01:28Z</time>
      </trkpt>
      <trkpt lat="47.20492" lon="-1.46727">
        <ele>70</ele>
        <time>2022-07-14T07:01:30Z</time>
      </trkpt>
      <trkpt lat="47.20503" lon="-1.46729">
        <ele>69</ele>
        <time>2022-07-14T07:01:32Z</time>
      </trkpt>
      <trkpt lat="47.20514" lon="-1.46731">
        <ele>70</ele>
        <time>2022-07-14T07:01:34Z</time>
      </trkpt>
      <trkpt lat="47.20524" lon="-1.46733">
        <ele>70</ele>
        <time>2022-07-14T07:01:36Z</time>
      </trkpt>
      <trkpt lat="47.20535" lon="-1.46733">
        <ele>70</ele>
        <time>2022-07-14T07:01:38Z</time>
      </trkpt>
      <trkpt lat="47.20546" lon="-1.46734">
        <ele>70</ele>
        <time>2022-07-14T07:01:40Z</time>
      </trkpt>
      <trkpt lat="47.20556" lon="-1.46734">
        <ele>70</ele>
        <time>2022-07-14T07:01:42Z</time>
      </trkpt>
      <trkpt lat="47.20566" lon="-1.46733">
        <ele>70</ele>
        <time>2022-07-14T07:01:44Z</time>
      </trkpt>
      <trkpt lat="47.20577" lon="-1.46732">
        <ele>70</ele>
        <time>2022-07-14T07:01:46Z</time>
      </trkpt>
      <trkpt lat="47.20587" lon="-1.46731">
        <ele>69</ele>
        <time>2022-07-14T07:01:48Z</time>
      </trkpt>
      <trkpt lat="47.20598" lon="-1.46729">
        <ele>69</ele>
        <time>2022-07-14T07:01:50Z</time>
      </trkpt>
      <trkpt lat="47.20608" lon="-1.46727">
        <ele>69</ele>
        <time>2022-07-14T07:01:52Z</time>
      </trkpt>
      <trkpt lat="47.20619" lon="-1.46723">
        <ele>69</ele>
        <time>2022-07-14T07:01:54Z</time>
      </trkpt>
      <trkpt lat="47.20629" lon="-1.46721">
        <ele>69</ele>
        <time>2022-07-14T07:01:56Z</time>
      </trkpt>
      <trkpt lat="47.2064" lon="-1.46719">
        <ele>69</ele>
        <time>2022-07-14T07:01:58Z</time>
      </trkpt>
      <trkpt lat="47.2065" lon="-1.46717">
        <ele>69</ele>
        <time>2022-07-14T07:02:00Z</time>
      </trkpt>
      <trkpt lat="47.20661" lon="-1.46715">
        <ele>69</ele>
        <time>2022-07-14T07:02:02Z</time>
      </trkpt>
      <trkpt lat="47.20671" lon="-1.46713">
        <ele>70</ele>
        <time>2022-07-14T07:02:04Z</time>
      </trkpt>
      <trkpt lat="47.20682" lon="-1.4671">
        <ele>71</ele>
        <time>2022-07-14T07:02:06Z</time>
      </trkpt>
      <trkpt lat="47.20692" lon="-1.46708">
        <ele>71</ele>
        <time>2022-07-14T07:02:08Z</time>
      </trkpt>
      <trkpt lat="47.20703" lon="-1.46706">
        <ele>71</ele>
        <time>2022-07-14T07:02:10Z</time>
      </trkpt>
      <trkpt lat="47.20714" lon="-1.46705">
        <ele>71</ele>
        <time>2022-07-14T07:02:12Z</time>
      </trkpt>
      <trkpt lat="47.20725" lon="-1.46703">
        <ele>70</ele>
        <time>2022-07-14T07:02:14Z</time>
      </trkpt>
      <trkpt lat="47.20735" lon="-1.46702">
        <ele>70</ele>
        <time>2022-07-14T07:02:16Z</time>
      </trkpt>
      <trkpt lat="47.20746" lon="-1.467">
        <ele>70</ele>
        <time>2022-07-14T07:02:18Z</time>
      </trkpt>
      <trkpt lat="47.20757" lon="-1.46698">
        <ele>70</ele>
        <time>2022-07-14T07:02:20Z</time>
      </trkpt>
      <trkpt lat="47.20768" lon="-1.46697">
        <ele>70</ele>
        <time>2022-07-14T07:02:22Z</time>
      </trkpt>
      <trkpt lat="47.20779" lon="-1.46695">
        <ele>69</ele>
        <time>2022-07-14T07:02:24Z</time>
      </trkpt>
      <trkpt lat="47.2079" lon="-1.46693">
        <ele>69</ele>
        <time>2022-07-14T07:02:26Z</time>
      </trkpt>
      <trkpt lat="47.208" lon="-1.46692">
        <ele>69</ele>
        <time>2022-07-14T07:02:28Z</time>
      </trkpt>
      <trkpt lat="47.20811" lon="-1.46692">
        <ele>69</ele>
        <time>2022-07-14T07:02:30Z</time>
      </trkpt>
      <trkpt lat="47.2082" lon="-1.4669">
        <ele>69</ele>
        <time>2022-07-14T07:02:32Z</time>
      </trkpt>
      <trkpt lat="47.2083" lon="-1.46688">
        <ele>70</ele>
        <time>2022-07-14T07:02:34Z</time>
      </trkpt>
      <trkpt lat="47.2084" lon="-1.46685">
        <ele>69</ele>
        <time>2022-07-14T07:02:36Z</time>
      </trkpt>
      <trkpt lat="47.20856" lon="-1.46678">
        <ele>70</ele>
        <time>2022-07-14T07:02:39Z</time>
      </trkpt>
      <trkpt lat="47.20867" lon="-1.46679">
        <ele>70</ele>
        <time>2022-07-14T07:02:41Z</time>
      </trkpt>
      <trkpt lat="47.20877" lon="-1.46677">
        <ele>70</ele>
        <time>2022-07-14T07:02:43Z</time>
      </trkpt>
      <trkpt lat="47.20893" lon="-1.46668">
        <ele>70</ele>
        <time>2022-07-14T07:02:46Z</time>
      </trkpt>
      <trkpt lat="47.20903" lon="-1.46663">
        <ele>70</ele>
        <time>2022-07-14T07:02:48Z</time>
      </trkpt>
      <trkpt lat="47.20914" lon="-1.46657">
        <ele>70</ele>
        <time>2022-07-14T07:02:50Z</time>
      </trkpt>
      <trkpt lat="47.20924" lon="-1.46651">
        <ele>70</ele>
        <time>2022-07-14T07:02:52Z</time>
      </trkpt>
      <trkpt lat="47.20933" lon="-1.46644">
        <ele>70</ele>
        <time>2022-07-14T07:02:54Z</time>
      </trkpt>
      <trkpt lat="47.20943" lon="-1.46636">
        <ele>70</ele>
        <time>2022-07-14T07:02:56Z</time>
      </trkpt>
      <trkpt lat="47.2096" lon="-1.46626">
        <ele>69</ele>
        <time>2022-07-14T07:02:59Z</time>
      </trkpt>
      <trkpt lat="47.20971" lon="-1.46621">
        <ele>69</ele>
        <time>2022-07-14T07:03:01Z</time>
      </trkpt>
      <trkpt lat="47.20982" lon="-1.46618">
        <ele>69</ele>
        <time>2022-07-14T07:03:03Z</time>
      </trkpt>
      <trkpt lat="47.20993" lon="-1.46615">
        <ele>69</ele>
        <time>2022-07-14T07:03:05Z</time>
      </trkpt>
      <trkpt lat="47.2101" lon="-1.4661">
        <ele>69</ele>
        <time>2022-07-14T07:03:08Z</time>
      </trkpt>
      <trkpt lat="47.21021" lon="-1.46607">
        <ele>69</ele>
        <time>2022-07-14T07:03:10Z</time>
      </trkpt>
      <trkpt lat="47.21031" lon="-1.46604">
        <ele>69</ele>
        <time>2022-07-14T07:03:12Z</time>
      </trkpt>
      <trkpt lat="47.21042" lon="-1.46599">
        <ele>69</ele>
        <time>2022-07-14T07:03:14Z</time>
      </trkpt>
      <trkpt lat="47.21051" lon="-1.46592">
        <ele>68</ele>
        <time>2022-07-14T07:03:16Z</time>
      </trkpt>
      <trkpt lat="47.21058" lon="-1.46577">
        <ele>69</ele>
        <time>2022-07-14T07:03:18Z</time>
      </trkpt>
      <trkpt lat="47.21064" lon="-1.46561">
        <ele>69</ele>
        <time>2022-07-14T07:03:20Z</time>
      </trkpt>
      <trkpt lat="47.21071" lon="-1.46545">
        <ele>69</ele>
        <time>2022-07-14T07:03:22Z</time>
      </trkpt>
      <trkpt lat="47.2108" lon="-1.46533">
        <ele>69</ele>
        <time>2022-07-14T07:03:24Z</time>
      </trkpt>
      <trkpt lat="47.21093" lon="-1.46532">
        <ele>68</ele>
        <time>2022-07-14T07:03:26Z</time>
      </trkpt>
      <trkpt lat="47.21104" lon="-1.46541">
        <ele>69</ele>
        <time>2022-07-14T07:03:28Z</time>
      </trkpt>
      <trkpt lat="47.21113" lon="-1.46553">
        <ele>69</ele>
        <time>2022-07-14T07:03:30Z</time>
      </trkpt>
      <trkpt lat="47.21123" lon="-1.46562">
        <ele>69</ele>
        <time>2022-07-14T07:03:32Z</time>
      </trkpt>
      <trkpt lat="47.21132" lon="-1.46574">
        <ele>69</ele>
        <time>2022-07-14T07:03:34Z</time>
      </trkpt>
      <trkpt lat="47.21141" lon="-1.46584">
        <ele>69</ele>
        <time>2022-07-14T07:03:36Z</time>
      </trkpt>
      <trkpt lat="47.21151" lon="-1.46589">
        <ele>70</ele>
        <time>2022-07-14T07:03:38Z</time>
      </trkpt>
      <trkpt lat="47.21163" lon="-1.46593">
        <ele>70</ele>
        <time>2022-07-14T07:03:40Z</time>
      </trkpt>
      <trkpt lat="47.21174" lon="-1.46598">
        <ele>69</ele>
        <time>2022-07-14T07:03:42Z</time>
      </trkpt>
      <trkpt lat="47.21185" lon="-1.46604">
        <ele>69</ele>
        <time>2022-07-14T07:03:44Z</time>
      </trkpt>
      <trkpt lat="47.21196" lon="-1.4661">
        <ele>69</ele>
        <time>2022-07-14T07:03:46Z</time>
      </trkpt>
      <trkpt lat="47.21208" lon="-1.46616">
        <ele>69</ele>
        <time>2022-07-14T07:03:48Z</time>
      </trkpt>
      <trkpt lat="47.21221" lon="-1.4662">
        <ele>69</ele>
        <time>2022-07-14T07:03:50Z</time>
      </trkpt>
      <trkpt lat="47.21233" lon="-1.46622">
        <ele>69</ele>
        <time>2022-07-14T07:03:52Z</time>
      </trkpt>
      <trkpt lat="47.21245" lon="-1.46624">
        <ele>68</ele>
        <time>2022-07-14T07:03:54Z</time>
      </trkpt>
      <trkpt lat="47.21257" lon="-1.46626">
        <ele>68</ele>
        <time>2022-07-14T07:03:56Z</time>
      </trkpt>
      <trkpt lat="47.21269" lon="-1.46627">
        <ele>68</ele>
        <time>2022-07-14T07:03:58Z</time>
      </trkpt>
      <trkpt lat="47.21281" lon="-1.46628">
        <ele>68</ele>
        <time>2022-07-14T07:04:00Z</time>
      </trkpt>
      <trkpt lat="47.21292" lon="-1.46629">
        <ele>69</ele>
        <time>2022-07-14T07:04:02Z</time>
      </trkpt>
      <trkpt lat="47.21305" lon="-1.4663">
        <ele>68</ele>
        <time>2022-07-14T07:04:04Z</time>
      </trkpt>
      <trkpt lat="47.21317" lon="-1.4663">
        <ele>68</ele>
        <time>2022-07-14T07:04:06Z</time>
      </trkpt>
      <trkpt lat="47.21329" lon="-1.46631">
        <ele>68</ele>
        <time>2022-07-14T07:04:08Z</time>
      </trkpt>
      <trkpt lat="47.21341" lon="-1.46631">
        <ele>68</ele>
        <time>2022-07-14T07:04:10Z</time>
      </trkpt>
      <trkpt lat="47.21353" lon="-1.46632">
        <ele>68</ele>
        <time>2022-07-14T07:04:12Z</time>
      </trkpt>
      <trkpt lat="47.21366" lon="-1.46633">
        <ele>67</ele>
        <time>2022-07-14T07:04:14Z</time>
      </trkpt>
      <trkpt lat="47.21378" lon="-1.46633">
        <ele>67</ele>
        <time>2022-07-14T07:04:16Z</time>
      </trkpt>
      <trkpt lat="47.2139" lon="-1.46633">
        <ele>67</ele>
        <time>2022-07-14T07:04:18Z</time>
      </trkpt>
      <trkpt lat="47.21404" lon="-1.46634">
        <ele>66</ele>
        <time>2022-07-14T07:04:20Z</time>
      </trkpt>
      <trkpt lat="47.21417" lon="-1.46635">
        <ele>66</ele>
        <time>2022-07-14T07:04:22Z</time>
      </trkpt>
      <trkpt lat="47.2143" lon="-1.46634">
        <ele>65</ele>
        <time>2022-07-14T07:04:24Z</time>
      </trkpt>
      <trkpt lat="47.21442" lon="-1.46631">
        <ele>65</ele>
        <time>2022-07-14T07:04:26Z</time>
      </trkpt>
      <trkpt lat="47.21456" lon="-1.46625">
        <ele>65</ele>
        <time>2022-07-14T07:04:28Z</time>
      </trkpt>
      <trkpt lat="47.21468" lon="-1.46616">
        <ele>64</ele>
        <time>2022-07-14T07:04:30Z</time>
      </trkpt>
      <trkpt lat="47.21481" lon="-1.46605">
        <ele>63</ele>
        <time>2022-07-14T07:04:32Z</time>
      </trkpt>
      <trkpt lat="47.21494" lon="-1.46594">
        <ele>61</ele>
        <time>2022-07-14T07:04:34Z</time>
      </trkpt>
      <trkpt lat="47.21506" lon="-1.46581">
        <ele>61</ele>
        <time>2022-07-14T07:04:36Z</time>
      </trkpt>
      <trkpt lat="47.21516" lon="-1.46566">
        <ele>60</ele>
        <time>2022-07-14T07:04:38Z</time>
      </trkpt>
      <trkpt lat="47.21526" lon="-1.46552">
        <ele>59</ele>
        <time>2022-07-14T07:04:40Z</time>
      </trkpt>
      <trkpt lat="47.21539" lon="-1.46542">
        <ele>59</ele>
        <time>2022-07-14T07:04:42Z</time>
      </trkpt>
      <trkpt lat="47.21553" lon="-1.46535">
        <ele>58</ele>
        <time>2022-07-14T07:04:44Z</time>
      </trkpt>
      <trkpt lat="47.21567" lon="-1.46532">
        <ele>56</ele>
        <time>2022-07-14T07:04:46Z</time>
      </trkpt>
      <trkpt lat="47.21581" lon="-1.4653">
        <ele>56</ele>
        <time>2022-07-14T07:04:48Z</time>
      </trkpt>
      <trkpt lat="47.21596" lon="-1.46529">
        <ele>55</ele>
        <time>2022-07-14T07:04:50Z</time>
      </trkpt>
      <trkpt lat="47.21611" lon="-1.46529">
        <ele>55</ele>
        <time>2022-07-14T07:04:52Z</time>
      </trkpt>
      <trkpt lat="47.21626" lon="-1.46528">
        <ele>54</ele>
        <time>2022-07-14T07:04:54Z</time>
      </trkpt>
      <trkpt lat="47.21638" lon="-1.46526">
        <ele>54</ele>
        <time>2022-07-14T07:04:56Z</time>
      </trkpt>
      <trkpt lat="47.21645" lon="-1.46515">
        <ele>53</ele>
        <time>2022-07-14T07:04:58Z</time>
      </trkpt>
      <trkpt lat="47.21647" lon="-1.46499">
        <ele>53</ele>
        <time>2022-07-14T07:05:00Z</time>
      </trkpt>
      <trkpt lat="47.21648" lon="-1.46482">
        <ele>52</ele>
        <time>2022-07-14T07:05:02Z</time>
      </trkpt>
      <trkpt lat="47.2165" lon="-1.46465">
        <ele>52</ele>
        <time>2022-07-14T07:05:04Z</time>
      </trkpt>
      <trkpt lat="47.21655" lon="-1.46449">
        <ele>51</ele>
        <time>2022-07-14T07:05:06Z</time>
      </trkpt>
      <trkpt lat="47.21657" lon="-1.46431">
        <ele>51</ele>
        <time>2022-07-14T07:05:08Z</time>
      </trkpt>
      <trkpt lat="47.21659" lon="-1.46412">
        <ele>50</ele>
        <time>2022-07-14T07:05:10Z</time>
      </trkpt>
      <trkpt lat="47.21661" lon="-1.46394">
        <ele>49</ele>
        <time>2022-07-14T07:05:12Z</time>
      </trkpt>
      <trkpt lat="47.21662" lon="-1.46374">
        <ele>49</ele>
        <time>2022-07-14T07:05:14Z</time>
      </trkpt>
      <trkpt lat="47.21664" lon="-1.46355">
        <ele>49</ele>
        <time>2022-07-14T07:05:16Z</time>
      </trkpt>
      <trkpt lat="47.21666" lon="-1.46336">
        <ele>48</ele>
        <time>2022-07-14T07:05:18Z</time>
      </trkpt>
      <trkpt lat="47.21667" lon="-1.46318">
        <ele>48</ele>
        <time>2022-07-14T07:05:20Z</time>
      </trkpt>
      <trkpt lat="47.21669" lon="-1.463">
        <ele>48</ele>
        <time>2022-07-14T07:05:22Z</time>
      </trkpt>
      <trkpt lat="47.2167" lon="-1.46282">
        <ele>48</ele>
        <time>2022-07-14T07:05:24Z</time>
      </trkpt>
      <trkpt lat="47.21672" lon="-1.46264">
        <ele>49</ele>
        <time>2022-07-14T07:05:26Z</time>
      </trkpt>
      <trkpt lat="47.21673" lon="-1.46247">
        <ele>49</ele>
        <time>2022-07-14T07:05:28Z</time>
      </trkpt>
      <trkpt lat="47.21673" lon="-1.4623">
        <ele>49</ele>
        <time>2022-07-14T07:05:30Z</time>
      </trkpt>
      <trkpt lat="47.21672" lon="-1.46214">
        <ele>49</ele>
        <time>2022-07-14T07:05:32Z</time>
      </trkpt>
      <trkpt lat="47.2167" lon="-1.46198">
        <ele>49</ele>
        <time>2022-07-14T07:05:34Z</time>
      </trkpt>
      <trkpt lat="47.21669" lon="-1.46183">
        <ele>49</ele>
        <time>2022-07-14T07:05:36Z</time>
      </trkpt>
      <trkpt lat="47.21678" lon="-1.46177">
        <ele>48</ele>
        <time>2022-07-14T07:05:38Z</time>
      </trkpt>
      <trkpt lat="47.21691" lon="-1.46172">
        <ele>48</ele>
        <time>2022-07-14T07:05:41Z</time>
      </trkpt>
      <trkpt lat="47.21696" lon="-1.46157">
        <ele>48</ele>
        <time>2022-07-14T07:05:43Z</time>
      </trkpt>
      <trkpt lat="47.21702" lon="-1.46142">
        <ele>48</ele>
        <time>2022-07-14T07:05:45Z</time>
      </trkpt>
      <trkpt lat="47.21706" lon="-1.46127">
        <ele>48</ele>
        <time>2022-07-14T07:05:47Z</time>
      </trkpt>
      <trkpt lat="47.21715" lon="-1.4612">
        <ele>48</ele>
        <time>2022-07-14T07:05:49Z</time>
      </trkpt>
      <trkpt lat="47.21725" lon="-1.46126">
        <ele>49</ele>
        <time>2022-07-14T07:05:51Z</time>
      </trkpt>
      <trkpt lat="47.21735" lon="-1.46135">
        <ele>49</ele>
        <time>2022-07-14T07:05:53Z</time>
      </trkpt>
      <trkpt lat="47.21746" lon="-1.46141">
        <ele>50</ele>
        <time>2022-07-14T07:05:55Z</time>
      </trkpt>
      <trkpt lat="47.21757" lon="-1.46148">
        <ele>50</ele>
        <time>2022-07-14T07:05:57Z</time>
      </trkpt>
      <trkpt lat="47.21767" lon="-1.46154">
        <ele>50</ele>
        <time>2022-07-14T07:05:59Z</time>
      </trkpt>
      <trkpt lat="47.21778" lon="-1.4616">
        <ele>50</ele>
        <time>2022-07-14T07:06:01Z</time>
      </trkpt>
      <trkpt lat="47.21789" lon="-1.46166">
        <ele>50</ele>
        <time>2022-07-14T07:06:03Z</time>
      </trkpt>
      <trkpt lat="47.21801" lon="-1.4617">
        <ele>50</ele>
        <time>2022-07-14T07:06:05Z</time>
      </trkpt>
      <trkpt lat="47.21812" lon="-1.46176">
        <ele>50</ele>
        <time>2022-07-14T07:06:07Z</time>
      </trkpt>
      <trkpt lat="47.21824" lon="-1.46182">
        <ele>50</ele>
        <time>2022-07-14T07:06:09Z</time>
      </trkpt>
      <trkpt lat="47.21835" lon="-1.46188">
        <ele>50</ele>
        <time>2022-07-14T07:06:11Z</time>
      </trkpt>
      <trkpt lat="47.21847" lon="-1.46194">
        <ele>50</ele>
        <time>2022-07-14T07:06:13Z</time>
      </trkpt>
      <trkpt lat="47.21858" lon="-1.462">
        <ele>50</ele>
        <time>2022-07-14T07:06:15Z</time>
      </trkpt>
      <trkpt lat="47.21869" lon="-1.46205">
        <ele>51</ele>
        <time>2022-07-14T07:06:17Z</time>
      </trkpt>
      <trkpt lat="47.2188" lon="-1.46211">
        <ele>51</ele>
        <time>2022-07-14T07:06:19Z</time>
      </trkpt>
      <trkpt lat="47.21892" lon="-1.46217">
        <ele>51</ele>
        <time>2022-07-14T07:06:21Z</time>
      </trkpt>
      <trkpt lat="47.21903" lon="-1.46223">
        <ele>52</ele>
        <time>2022-07-14T07:06:23Z</time>
      </trkpt>
      <trkpt lat="47.21914" lon="-1.46229">
        <ele>52</ele>
        <time>2022-07-14T07:06:25Z</time>
      </trkpt>
      <trkpt lat="47.21925" lon="-1.46235">
        <ele>52</ele>
        <time>2022-07-14T07:06:27Z</time>
      </trkpt>
      <trkpt lat="47.21937" lon="-1.46241">
        <ele>52</ele>
        <time>2022-07-14T07:06:29Z</time>
      </trkpt>
      <trkpt lat="47.21947" lon="-1.46246">
        <ele>52</ele>
        <time>2022-07-14T07:06:31Z</time>
      </trkpt>
      <trkpt lat="47.21958" lon="-1.4625">
        <ele>53</ele>
        <time>2022-07-14T07:06:33Z</time>
      </trkpt>
      <trkpt lat="47.21967" lon="-1.46255">
        <ele>53</ele>
        <time>2022-07-14T07:06:35Z</time>
      </trkpt>
      <trkpt lat="47.21976" lon="-1.46259">
        <ele>54</ele>
        <time>2022-07-14T07:06:37Z</time>
      </trkpt>
      <trkpt lat="47.21986" lon="-1.46263">
        <ele>54</ele>
        <time>2022-07-14T07:06:39Z</time>
      </trkpt>
      <trkpt lat="47.21998" lon="-1.4627">
        <ele>52</ele>
        <time>2022-07-14T07:06:41Z</time>
      </trkpt>
      <trkpt lat="47.2201" lon="-1.46276">
        <ele>52</ele>
        <time>2022-07-14T07:06:43Z</time>
      </trkpt>
      <trkpt lat="47.22022" lon="-1.46282">
        <ele>52</ele>
        <time>2022-07-14T07:06:45Z</time>
      </trkpt>
      <trkpt lat="47.22033" lon="-1.46287">
        <ele>52</ele>
        <time>2022-07-14T07:06:47Z</time>
      </trkpt>
      <trkpt lat="47.22045" lon="-1.46293">
        <ele>52</ele>
        <time>2022-07-14T07:06:49Z</time>
      </trkpt>
      <trkpt lat="47.22056" lon="-1.46299">
        <ele>52</ele>
        <time>2022-07-14T07:06:51Z</time>
      </trkpt>
      <trkpt lat="47.22068" lon="-1.46306">
        <ele>52</ele>
        <time>2022-07-14T07:06:53Z</time>
      </trkpt>
      <trkpt lat="47.22079" lon="-1.46311">
        <ele>52</ele>
        <time>2022-07-14T07:06:55Z</time>
      </trkpt>
      <trkpt lat="47.22091" lon="-1.46317">
        <ele>52</ele>
        <time>2022-07-14T07:06:57Z</time>
      </trkpt>
      <trkpt lat="47.22102" lon="-1.46324">
        <ele>53</ele>
        <time>2022-07-14T07:06:59Z</time>
      </trkpt>
      <trkpt lat="47.22113" lon="-1.4633">
        <ele>53</ele>
        <time>2022-07-14T07:07:01Z</time>
      </trkpt>
      <trkpt lat="47.22124" lon="-1.46336">
        <ele>53</ele>
        <time>2022-07-14T07:07:03Z</time>
      </trkpt>
      <trkpt lat="47.22136" lon="-1.46341">
        <ele>53</ele>
        <time>2022-07-14T07:07:05Z</time>
      </trkpt>
      <trkpt lat="47.22147" lon="-1.46347">
        <ele>52</ele>
        <time>2022-07-14T07:07:07Z</time>
      </trkpt>
      <trkpt lat="47.22158" lon="-1.46352">
        <ele>52</ele>
        <time>2022-07-14T07:07:09Z</time>
      </trkpt>
      <trkpt lat="47.22169" lon="-1.46358">
        <ele>52</ele>
        <time>2022-07-14T07:07:11Z</time>
      </trkpt>
      <trkpt lat="47.22179" lon="-1.46363">
        <ele>53</ele>
        <time>2022-07-14T07:07:13Z</time>
      </trkpt>
      <trkpt lat="47.2219" lon="-1.46369">
        <ele>52</ele>
        <time>2022-07-14T07:07:15Z</time>
      </trkpt>
      <trkpt lat="47.222" lon="-1.46374">
        <ele>52</ele>
        <time>2022-07-14T07:07:17Z</time>
      </trkpt>
      <trkpt lat="47.22211" lon="-1.4638">
        <ele>52</ele>
        <time>2022-07-14T07:07:19Z</time>
      </trkpt>
      <trkpt lat="47.22222" lon="-1.46385">
        <ele>52</ele>
        <time>2022-07-14T07:07:21Z</time>
      </trkpt>
      <trkpt lat="47.22233" lon="-1.46391">
        <ele>52</ele>
        <time>2022-07-14T07:07:23Z</time>
      </trkpt>
      <trkpt lat="47.22243" lon="-1.46397">
        <ele>52</ele>
        <time>2022-07-14T07:07:25Z</time>
      </trkpt>
      <trkpt lat="47.22255" lon="-1.46403">
        <ele>53</ele>
        <time>2022-07-14T07:07:27Z</time>
      </trkpt>
      <trkpt lat="47.22266" lon="-1.46408">
        <ele>53</ele>
        <time>2022-07-14T07:07:29Z</time>
      </trkpt>
      <trkpt lat="47.22277" lon="-1.46414">
        <ele>53</ele>
        <time>2022-07-14T07:07:31Z</time>
      </trkpt>
      <trkpt lat="47.22288" lon="-1.4642">
        <ele>53</ele>
        <time>2022-07-14T07:07:33Z</time>
      </trkpt>
      <trkpt lat="47.22299" lon="-1.46425">
        <ele>53</ele>
        <time>2022-07-14T07:07:35Z</time>
      </trkpt>
      <trkpt lat="47.22311" lon="-1.4643">
        <ele>53</ele>
        <time>2022-07-14T07:07:37Z</time>
      </trkpt>
      <trkpt lat="47.22322" lon="-1.46436">
        <ele>53</ele>
        <time>2022-07-14T07:07:39Z</time>
      </trkpt>
      <trkpt lat="47.22332" lon="-1.46444">
        <ele>54</ele>
        <time>2022-07-14T07:07:41Z</time>
      </trkpt>
      <trkpt lat="47.22341" lon="-1.46454">
        <ele>54</ele>
        <time>2022-07-14T07:07:43Z</time>
      </trkpt>
      <trkpt lat="47.2235" lon="-1.46464">
        <ele>54</ele>
        <time>2022-07-14T07:07:45Z</time>
      </trkpt>
      <trkpt lat="47.22359" lon="-1.46475">
        <ele>54</ele>
        <time>2022-07-14T07:07:47Z</time>
      </trkpt>
      <trkpt lat="47.22367" lon="-1.46486">
        <ele>55</ele>
        <time>2022-07-14T07:07:49Z</time>
      </trkpt>
      <trkpt lat="47.22376" lon="-1.46497">
        <ele>55</ele>
        <time>2022-07-14T07:07:51Z</time>
      </trkpt>
      <trkpt lat="47.22385" lon="-1.46509">
        <ele>55</ele>
        <time>2022-07-14T07:07:53Z</time>
      </trkpt>
      <trkpt lat="47.22394" lon="-1.4652">
        <ele>55</ele>
        <time>2022-07-14T07:07:55Z</time>
      </trkpt>
      <trkpt lat="47.22403" lon="-1.46531">
        <ele>56</ele>
        <time>2022-07-14T07:07:57Z</time>
      </trkpt>
      <trkpt lat="47.22412" lon="-1.46543">
        <ele>55</ele>
        <time>2022-07-14T07:07:59Z</time>
      </trkpt>
      <trkpt lat="47.22421" lon="-1.46555">
        <ele>56</ele>
        <time>2022-07-14T07:08:01Z</time>
      </trkpt>
      <trkpt lat="47.2243" lon="-1.46566">
        <ele>57</ele>
        <time>2022-07-14T07:08:03Z</time>
      </trkpt>
      <trkpt lat="47.2244" lon="-1.46578">
        <ele>58</ele>
        <time>2022-07-14T07:08:05Z</time>
      </trkpt>
      <trkpt lat="47.22448" lon="-1.4659">
        <ele>57</ele>
        <time>2022-07-14T07:08:07Z</time>
      </trkpt>
      <trkpt lat="47.22457" lon="-1.46602">
        <ele>58</ele>
        <time>2022-07-14T07:08:09Z</time>
      </trkpt>
      <trkpt lat="47.22465" lon="-1.46614">
        <ele>58</ele>
        <time>2022-07-14T07:08:11Z</time>
      </trkpt>
      <trkpt lat="47.22473" lon="-1.46625">
        <ele>58</ele>
        <time>2022-07-14T07:08:13Z</time>
      </trkpt>
      <trkpt lat="47.22481" lon="-1.46635">
        <ele>57</ele>
        <time>2022-07-14T07:08:15Z</time>
      </trkpt>
      <trkpt lat="47.22487" lon="-1.46645">
        <ele>57</ele>
        <time>2022-07-14T07:08:17Z</time>
      </trkpt>
      <trkpt lat="47.22497" lon="-1.46656">
        <ele>57</ele>
        <time>2022-07-14T07:08:20Z</time>
      </trkpt>
      <trkpt lat="47.22505" lon="-1.46663">
        <ele>57</ele>
        <time>2022-07-14T07:08:22Z</time>
      </trkpt>
      <trkpt lat="47.22514" lon="-1.46674">
        <ele>57</ele>
        <time>2022-07-14T07:08:24Z</time>
      </trkpt>
      <trkpt lat="47.22524" lon="-1.4668">
        <ele>57</ele>
        <time>2022-07-14T07:08:26Z</time>
      </trkpt>
      <trkpt lat="47.22533" lon="-1.46686">
        <ele>56</ele>
        <time>2022-07-14T07:08:28Z</time>
      </trkpt>
      <trkpt lat="47.22541" lon="-1.46692">
        <ele>56</ele>
        <time>2022-07-14T07:08:30Z</time>
      </trkpt>
      <trkpt lat="47.22545" lon="-1.46706">
        <ele>55</ele>
        <time>2022-07-14T07:08:32Z</time>
      </trkpt>
      <trkpt lat="47.2255" lon="-1.4672">
        <ele>55</ele>
        <time>2022-07-14T07:08:34Z</time>
      </trkpt>
      <trkpt lat="47.22559" lon="-1.46732">
        <ele>54</ele>
        <time>2022-07-14T07:08:36Z</time>
      </trkpt>
      <trkpt lat="47.22568" lon="-1.46743">
        <ele>53</ele>
        <time>2022-07-14T07:08:38Z</time>
      </trkpt>
      <trkpt lat="47.22578" lon="-1.46753">
        <ele>53</ele>
        <time>2022-07-14T07:08:40Z</time>
      </trkpt>
      <trkpt lat="47.22588" lon="-1.46762">
        <ele>53</ele>
        <time>2022-07-14T07:08:42Z</time>
      </trkpt>
      <trkpt lat="47.22598" lon="-1.46769">
        <ele>53</ele>
        <time>2022-07-14T07:08:44Z</time>
      </trkpt>
      <trkpt lat="47.22607" lon="-1.46776">
        <ele>53</ele>
        <time>2022-07-14T07:08:46Z</time>
      </trkpt>
      <trkpt lat="47.22617" lon="-1.46781">
        <ele>53</ele>
        <time>2022-07-14T07:08:48Z</time>
      </trkpt>
      <trkpt lat="47.22623" lon="-1.46792">
        <ele>54</ele>
        <time>2022-07-14T07:08:50Z</time>
      </trkpt>
      <trkpt lat="47.22628" lon="-1.46804">
        <ele>54</ele>
        <time>2022-07-14T07:08:52Z</time>
      </trkpt>
      <trkpt lat="47.22627" lon="-1.4682">
        <ele>54</ele>
        <time>2022-07-14T07:08:54Z</time>
      </trkpt>
      <trkpt lat="47.22621" lon="-1.46835">
        <ele>54</ele>
        <time>2022-07-14T07:08:56Z</time>
      </trkpt>
      <trkpt lat="47.22613" lon="-1.4685">
        <ele>54</ele>
        <time>2022-07-14T07:08:58Z</time>
      </trkpt>
      <trkpt lat="47.22607" lon="-1.46865">
        <ele>54</ele>
        <time>2022-07-14T07:09:00Z</time>
      </trkpt>
      <trkpt lat="47.22604" lon="-1.46883">
        <ele>54</ele>
        <time>2022-07-14T07:09:02Z</time>
      </trkpt>
      <trkpt lat="47.22604" lon="-1.46901">
        <ele>54</ele>
        <time>2022-07-14T07:09:04Z</time>
      </trkpt>
      <trkpt lat="47.22605" lon="-1.4692">
        <ele>53</ele>
        <time>2022-07-14T07:09:06Z</time>
      </trkpt>
      <trkpt lat="47.22604" lon="-1.46938">
        <ele>53</ele>
        <time>2022-07-14T07:09:08Z</time>
      </trkpt>
      <trkpt lat="47.22605" lon="-1.46955">
        <ele>53</ele>
        <time>2022-07-14T07:09:10Z</time>
      </trkpt>
      <trkpt lat="47.22605" lon="-1.46973">
        <ele>53</ele>
        <time>2022-07-14T07:09:12Z</time>
      </trkpt>
      <trkpt lat="47.22604" lon="-1.46992">
        <ele>53</ele>
        <time>2022-07-14T07:09:14Z</time>
      </trkpt>
      <trkpt lat="47.22602" lon="-1.4701">
        <ele>54</ele>
        <time>2022-07-14T07:09:16Z</time>
      </trkpt>
      <trkpt lat="47.22599" lon="-1.47028">
        <ele>53</ele>
        <time>2022-07-14T07:09:18Z</time>
      </trkpt>
      <trkpt lat="47.22594" lon="-1.47045">
        <ele>53</ele>
        <time>2022-07-14T07:09:20Z</time>
      </trkpt>
      <trkpt lat="47.22588" lon="-1.4706">
        <ele>54</ele>
        <time>2022-07-14T07:09:22Z</time>
      </trkpt>
      <trkpt lat="47.2258" lon="-1.47074">
        <ele>54</ele>
        <time>2022-07-14T07:09:24Z</time>
      </trkpt>
      <trkpt lat="47.22572" lon="-1.47085">
        <ele>55</ele>
        <time>2022-07-14T07:09:26Z</time>
      </trkpt>
      <trkpt lat="47.22561" lon="-1.47094">
        <ele>55</ele>
        <time>2022-07-14T07:09:28Z</time>
      </trkpt>
      <trkpt lat="47.22552" lon="-1.47102">
        <ele>54</ele>
        <time>2022-07-14T07:09:30Z</time>
      </trkpt>
      <trkpt lat="47.22543" lon="-1.47108">
        <ele>54</ele>
        <time>2022-07-14T07:09:32Z</time>
      </trkpt>
      <trkpt lat="47.22533" lon="-1.47114">
        <ele>54</ele>
        <time>2022-07-14T07:09:34Z</time>
      </trkpt>
      <trkpt lat="47.22525" lon="-1.4712">
        <ele>54</ele>
        <time>2022-07-14T07:09:36Z</time>
      </trkpt>
      <trkpt lat="47.22533" lon="-1.47126">
        <ele>53</ele>
        <time>2022-07-14T07:09:39Z</time>
      </trkpt>
      <trkpt lat="47.22543" lon="-1.47123">
        <ele>53</ele>
        <time>2022-07-14T07:09:41Z</time>
      </trkpt>
      <trkpt lat="47.22555" lon="-1.47119">
        <ele>53</ele>
        <time>2022-07-14T07:09:43Z</time>
      </trkpt>
      <trkpt lat="47.22567" lon="-1.47114">
        <ele>53</ele>
        <time>2022-07-14T07:09:45Z</time>
      </trkpt>
      <trkpt lat="47.22579" lon="-1.47107">
        <ele>53</ele>
        <time>2022-07-14T07:09:47Z</time>
      </trkpt>
      <trkpt lat="47.2259" lon="-1.47097">
        <ele>53</ele>
        <time>2022-07-14T07:09:49Z</time>
      </trkpt>
      <trkpt lat="47.226" lon="-1.47083">
        <ele>52</ele>
        <time>2022-07-14T07:09:51Z</time>
      </trkpt>
      <trkpt lat="47.22608" lon="-1.47068">
        <ele>52</ele>
        <time>2022-07-14T07:09:53Z</time>
      </trkpt>
      <trkpt lat="47.22616" lon="-1.47053">
        <ele>52</ele>
        <time>2022-07-14T07:09:55Z</time>
      </trkpt>
      <trkpt lat="47.22624" lon="-1.47038">
        <ele>52</ele>
        <time>2022-07-14T07:09:57Z</time>
      </trkpt>
      <trkpt lat="47.22633" lon="-1.47025">
        <ele>52</ele>
        <time>2022-07-14T07:09:59Z</time>
      </trkpt>
      <trkpt lat="47.22642" lon="-1.47013">
        <ele>52</ele>
        <time>2022-07-14T07:10:01Z</time>
      </trkpt>
      <trkpt lat="47.22652" lon="-1.47002">
        <ele>52</ele>
        <time>2022-07-14T07:10:03Z</time>
      </trkpt>
      <trkpt lat="47.22662" lon="-1.46992">
        <ele>52</ele>
        <time>2022-07-14T07:10:05Z</time>
      </trkpt>
      <trkpt lat="47.22673" lon="-1.46983">
        <ele>52</ele>
        <time>2022-07-14T07:10:07Z</time>
      </trkpt>
      <trkpt lat="47.22684" lon="-1.46975">
        <ele>52</ele>
        <time>2022-07-14T07:10:09Z</time>
      </trkpt>
      <trkpt lat="47.22695" lon="-1.46968">
        <ele>51</ele>
        <time>2022-07-14T07:10:11Z</time>
      </trkpt>
      <trkpt lat="47.22706" lon="-1.46962">
        <ele>51</ele>
        <time>2022-07-14T07:10:13Z</time>
      </trkpt>
      <trkpt lat="47.22718" lon="-1.46958">
        <ele>51</ele>
        <time>2022-07-14T07:10:15Z</time>
      </trkpt>
      <trkpt lat="47.22729" lon="-1.46955">
        <ele>51</ele>
        <time>2022-07-14T07:10:17Z</time>
      </trkpt>
      <trkpt lat="47.22741" lon="-1.46952">
        <ele>51</ele>
        <time>2022-07-14T07:10:19Z</time>
      </trkpt>
      <trkpt lat="47.22752" lon="-1.46949">
        <ele>51</ele>
        <time>2022-07-14T07:10:21Z</time>
      </trkpt>
      <trkpt lat="47.22761" lon="-1.46938">
        <ele>51</ele>
        <time>2022-07-14T07:10:23Z</time>
      </trkpt>
      <trkpt lat="47.2277" lon="-1.46927">
        <ele>52</ele>
        <time>2022-07-14T07:10:25Z</time>
      </trkpt>
      <trkpt lat="47.22782" lon="-1.46926">
        <ele>53</ele>
        <time>2022-07-14T07:10:27Z</time>
      </trkpt>
      <trkpt lat="47.22792" lon="-1.4693">
        <ele>53</ele>
        <time>2022-07-14T07:10:29Z</time>
      </trkpt>
      <trkpt lat="47.22803" lon="-1.46936">
        <ele>53</ele>
        <time>2022-07-14T07:10:31Z</time>
      </trkpt>
      <trkpt lat="47.22815" lon="-1.46941">
        <ele>53</ele>
        <time>2022-07-14T07:10:33Z</time>
      </trkpt>
      <trkpt lat="47.22826" lon="-1.46945">
        <ele>53</ele>
        <time>2022-07-14T07:10:35Z</time>
      </trkpt>
      <trkpt lat="47.22837" lon="-1.46951">
        <ele>54</ele>
        <time>2022-07-14T07:10:37Z</time>
      </trkpt>
      <trkpt lat="47.22849" lon="-1.46955">
        <ele>54</ele>
        <time>2022-07-14T07:10:39Z</time>
      </trkpt>
      <trkpt lat="47.2286" lon="-1.46961">
        <ele>55</ele>
        <time>2022-07-14T07:10:41Z</time>
      </trkpt>
      <trkpt lat="47.22871" lon="-1.46966">
        <ele>55</ele>
        <time>2022-07-14T07:10:43Z</time>
      </trkpt>
      <trkpt lat="47.22881" lon="-1.4697">
        <ele>56</ele>
        <time>2022-07-14T07:10:45Z</time>
      </trkpt>
      <trkpt lat="47.2289" lon="-1.46973">
        <ele>56</ele>
        <time>2022-07-14T07:10:47Z</time>
      </trkpt>
      <trkpt lat="47.229" lon="-1.46975">
        <ele>56</ele>
        <time>2022-07-14T07:10:49Z</time>
      </trkpt>
      <trkpt lat="47.2291" lon="-1.46977">
        <ele>56</ele>
        <time>2022-07-14T07:10:51Z</time>
      </trkpt>
      <trkpt lat="47.2292" lon="-1.46979">
        <ele>57</ele>
        <time>2022-07-14T07:10:53Z</time>
      </trkpt>
      <trkpt lat="47.22931" lon="-1.4698">
        <ele>57</ele>
        <time>2022-07-14T07:10:55Z</time>
      </trkpt>
      <trkpt lat="47.22942" lon="-1.46981">
        <ele>57</ele>
        <time>2022-07-14T07:10:57Z</time>
      </trkpt>
      <trkpt lat="47.22952" lon="-1.46981">
        <ele>58</ele>
        <time>2022-07-14T07:10:59Z</time>
      </trkpt>
      <trkpt lat="47.22962" lon="-1.46982">
        <ele>57</ele>
        <time>2022-07-14T07:11:01Z</time>
      </trkpt>
      <trkpt lat="47.22971" lon="-1.46984">
        <ele>58</ele>
        <time>2022-07-14T07:11:03Z</time>
      </trkpt>
      <trkpt lat="47.22981" lon="-1.46988">
        <ele>57</ele>
        <time>2022-07-14T07:11:05Z</time>
      </trkpt>
      <trkpt lat="47.22991" lon="-1.46992">
        <ele>57</ele>
        <time>2022-07-14T07:11:07Z</time>
      </trkpt>
      <trkpt lat="47.23002" lon="-1.46997">
        <ele>57</ele>
        <time>2022-07-14T07:11:09Z</time>
      </trkpt>
      <trkpt lat="47.23012" lon="-1.47004">
        <ele>57</ele>
        <time>2022-07-14T07:11:11Z</time>
      </trkpt>
      <trkpt lat="47.23022" lon="-1.4701">
        <ele>57</ele>
        <time>2022-07-14T07:11:13Z</time>
      </trkpt>
      <trkpt lat="47.23031" lon="-1.47019">
        <ele>57</ele>
        <time>2022-07-14T07:11:15Z</time>
      </trkpt>
      <trkpt lat="47.2304" lon="-1.47028">
        <ele>57</ele>
        <time>2022-07-14T07:11:17Z</time>
      </trkpt>
      <trkpt lat="47.23047" lon="-1.47038">
        <ele>57</ele>
        <time>2022-07-14T07:11:19Z</time>
      </trkpt>
      <trkpt lat="47.23055" lon="-1.47051">
        <ele>57</ele>
        <time>2022-07-14T07:11:21Z</time>
      </trkpt>
      <trkpt lat="47.23063" lon="-1.47064">
        <ele>56</ele>
        <time>2022-07-14T07:11:23Z</time>
      </trkpt>
      <trkpt lat="47.23072" lon="-1.47078">
        <ele>56</ele>
        <time>2022-07-14T07:11:25Z</time>
      </trkpt>
      <trkpt lat="47.2308" lon="-1.47093">
        <ele>56</ele>
        <time>2022-07-14T07:11:27Z</time>
      </trkpt>
      <trkpt lat="47.23088" lon="-1.47108">
        <ele>55</ele>
        <time>2022-07-14T07:11:29Z</time>
      </trkpt>
      <trkpt lat="47.23096" lon="-1.47122">
        <ele>55</ele>
        <time>2022-07-14T07:11:31Z</time>
      </trkpt>
      <trkpt lat="47.23108" lon="-1.47127">
        <ele>54</ele>
        <time>2022-07-14T07:11:33Z</time>
      </trkpt>
      <trkpt lat="47.23119" lon="-1.47119">
        <ele>54</ele>
        <time>2022-07-14T07:11:35Z</time>
      </trkpt>
      <trkpt lat="47.23127" lon="-1.47108">
        <ele>54</ele>
        <time>2022-07-14T07:11:37Z</time>
      </trkpt>
      <trkpt lat="47.23134" lon="-1.47094">
        <ele>54</ele>
        <time>2022-07-14T07:11:39Z</time>
      </trkpt>
      <trkpt lat="47.23131" lon="-1.47077">
        <ele>56</ele>
        <time>2022-07-14T07:11:41Z</time>
      </trkpt>
      <trkpt lat="47.23125" lon="-1.47062">
        <ele>56</ele>
        <time>2022-07-14T07:11:43Z</time>
      </trkpt>
      <trkpt lat="47.23118" lon="-1.47047">
        <ele>56</ele>
        <time>2022-07-14T07:11:45Z</time>
      </trkpt>
      <trkpt lat="47.23111" lon="-1.47034">
        <ele>56</ele>
        <time>2022-07-14T07:11:47Z</time>
      </trkpt>
      <trkpt lat="47.23104" lon="-1.47022">
        <ele>57</ele>
        <time>2022-07-14T07:11:49Z</time>
      </trkpt>
      <trkpt lat="47.23097" lon="-1.47008">
        <ele>58</ele>
        <time>2022-07-14T07:11:51Z</time>
      </trkpt>
      <trkpt lat="47.23091" lon="-1.46997">
        <ele>58</ele>
        <time>2022-07-14T07:11:53Z</time>
      </trkpt>
      <trkpt lat="47.23084" lon="-1.46987">
        <ele>58</ele>
        <time>2022-07-14T07:11:55Z</time>
      </trkpt>
      <trkpt lat="47.23073" lon="-1.46987">
        <ele>58</ele>
        <time>2022-07-14T07:11:58Z</time>
      </trkpt>
      <trkpt lat="47.23062" lon="-1.46975">
        <ele>56</ele>
        <time>2022-07-14T07:12:01Z</time>
      </trkpt>
      <trkpt lat="47.23056" lon="-1.46962">
        <ele>56</ele>
        <time>2022-07-14T07:12:03Z</time>
      </trkpt>
      <trkpt lat="47.23048" lon="-1.46948">
        <ele>55</ele>
        <time>2022-07-14T07:12:05Z</time>
      </trkpt>
      <trkpt lat="47.23042" lon="-1.46936">
        <ele>55</ele>
        <time>2022-07-14T07:12:07Z</time>
      </trkpt>
      <trkpt lat="47.23033" lon="-1.46927">
        <ele>54</ele>
        <time>2022-07-14T07:12:10Z</time>
      </trkpt>
      <trkpt lat="47.23024" lon="-1.46926">
        <ele>54</ele>
        <time>2022-07-14T07:12:26Z</time>
      </trkpt>
      <trkpt lat="47.23034" lon="-1.46925">
        <ele>54</ele>
        <time>2022-07-14T07:13:44Z</time>
      </trkpt>
      <trkpt lat="47.2304" lon="-1.46935">
        <ele>54</ele>
        <time>2022-07-14T07:13:47Z</time>
      </trkpt>
      <trkpt lat="47.23047" lon="-1.46948">
        <ele>54</ele>
        <time>2022-07-14T07:13:51Z</time>
      </trkpt>
      <trkpt lat="47.23054" lon="-1.46961">
        <ele>56</ele>
        <time>2022-07-14T07:13:55Z</time>
      </trkpt>
      <trkpt lat="47.23061" lon="-1.46975">
        <ele>57</ele>
        <time>2022-07-14T07:13:59Z</time>
      </trkpt>
      <trkpt lat="47.23067" lon="-1.46985">
        <ele>58</ele>
        <time>2022-07-14T07:14:02Z</time>
      </trkpt>
      <trkpt lat="47.23073" lon="-1.46997">
        <ele>59</ele>
        <time>2022-07-14T07:14:05Z</time>
      </trkpt>
      <trkpt lat="47.23081" lon="-1.47012">
        <ele>59</ele>
        <time>2022-07-14T07:14:08Z</time>
      </trkpt>
      <trkpt lat="47.23087" lon="-1.47022">
        <ele>59</ele>
        <time>2022-07-14T07:14:10Z</time>
      </trkpt>
      <trkpt lat="47.23093" lon="-1.47032">
        <ele>58</ele>
        <time>2022-07-14T07:14:12Z</time>
      </trkpt>
      <trkpt lat="47.23102" lon="-1.47047">
        <ele>59</ele>
        <time>2022-07-14T07:14:15Z</time>
      </trkpt>
      <trkpt lat="47.2311" lon="-1.47062">
        <ele>59</ele>
        <time>2022-07-14T07:14:18Z</time>
      </trkpt>
      <trkpt lat="47.23118" lon="-1.47078">
        <ele>60</ele>
        <time>2022-07-14T07:14:21Z</time>
      </trkpt>
      <trkpt lat="47.23123" lon="-1.47089">
        <ele>60</ele>
        <time>2022-07-14T07:14:23Z</time>
      </trkpt>
      <trkpt lat="47.23131" lon="-1.47104">
        <ele>61</ele>
        <time>2022-07-14T07:14:26Z</time>
      </trkpt>
      <trkpt lat="47.23137" lon="-1.47115">
        <ele>61</ele>
        <time>2022-07-14T07:14:28Z</time>
      </trkpt>
      <trkpt lat="47.23143" lon="-1.47126">
        <ele>61</ele>
        <time>2022-07-14T07:14:30Z</time>
      </trkpt>
      <trkpt lat="47.23149" lon="-1.47136">
        <ele>60</ele>
        <time>2022-07-14T07:14:32Z</time>
      </trkpt>
      <trkpt lat="47.23155" lon="-1.47147">
        <ele>60</ele>
        <time>2022-07-14T07:14:34Z</time>
      </trkpt>
      <trkpt lat="47.23161" lon="-1.47157">
        <ele>60</ele>
        <time>2022-07-14T07:14:36Z</time>
      </trkpt>
      <trkpt lat="47.23168" lon="-1.47168">
        <ele>60</ele>
        <time>2022-07-14T07:14:38Z</time>
      </trkpt>
      <trkpt lat="47.23174" lon="-1.47179">
        <ele>60</ele>
        <time>2022-07-14T07:14:40Z</time>
      </trkpt>
      <trkpt lat="47.23181" lon="-1.4719">
        <ele>60</ele>
        <time>2022-07-14T07:14:42Z</time>
      </trkpt>
      <trkpt lat="47.23187" lon="-1.47201">
        <ele>60</ele>
        <time>2022-07-14T07:14:44Z</time>
      </trkpt>
      <trkpt lat="47.23194" lon="-1.47212">
        <ele>61</ele>
        <time>2022-07-14T07:14:46Z</time>
      </trkpt>
      <trkpt lat="47.232" lon="-1.47224">
        <ele>61</ele>
        <time>2022-07-14T07:14:48Z</time>
      </trkpt>
      <trkpt lat="47.23207" lon="-1.47236">
        <ele>61</ele>
        <time>2022-07-14T07:14:50Z</time>
      </trkpt>
      <trkpt lat="47.23214" lon="-1.47248">
        <ele>60</ele>
        <time>2022-07-14T07:14:52Z</time>
      </trkpt>
      <trkpt lat="47.23221" lon="-1.4726">
        <ele>60</ele>
        <time>2022-07-14T07:14:54Z</time>
      </trkpt>
      <trkpt lat="47.23228" lon="-1.47272">
        <ele>60</ele>
        <time>2022-07-14T07:14:56Z</time>
      </trkpt>
      <trkpt lat="47.23235" lon="-1.47284">
        <ele>61</ele>
        <time>2022-07-14T07:14:58Z</time>
      </trkpt>
      <trkpt lat="47.23242" lon="-1.47296">
        <ele>61</ele>
        <time>2022-07-14T07:15:00Z</time>
      </trkpt>
      <trkpt lat="47.23249" lon="-1.47309">
        <ele>61</ele>
        <time>2022-07-14T07:15:02Z</time>
      </trkpt>
      <trkpt lat="47.23257" lon="-1.47321">
        <ele>61</ele>
        <time>2022-07-14T07:15:04Z</time>
      </trkpt>
      <trkpt lat="47.23264" lon="-1.47333">
        <ele>61</ele>
        <time>2022-07-14T07:15:06Z</time>
      </trkpt>
      <trkpt lat="47.23272" lon="-1.47346">
        <ele>60</ele>
        <time>2022-07-14T07:15:08Z</time>
      </trkpt>
      <trkpt lat="47.23279" lon="-1.47359">
        <ele>60</ele>
        <time>2022-07-14T07:15:10Z</time>
      </trkpt>
      <trkpt lat="47.23286" lon="-1.47371">
        <ele>61</ele>
        <time>2022-07-14T07:15:12Z</time>
      </trkpt>
      <trkpt lat="47.23294" lon="-1.47384">
        <ele>61</ele>
        <time>2022-07-14T07:15:14Z</time>
      </trkpt>
      <trkpt lat="47.23301" lon="-1.47396">
        <ele>61</ele>
        <time>2022-07-14T07:15:16Z</time>
      </trkpt>
      <trkpt lat="47.23308" lon="-1.47408">
        <ele>61</ele>
        <time>2022-07-14T07:15:18Z</time>
      </trkpt>
      <trkpt lat="47.23316" lon="-1.47422">
        <ele>61</ele>
        <time>2022-07-14T07:15:20Z</time>
      </trkpt>
      <trkpt lat="47.23324" lon="-1.47435">
        <ele>60</ele>
        <time>2022-07-14T07:15:22Z</time>
      </trkpt>
      <trkpt lat="47.23332" lon="-1.47448">
        <ele>60</ele>
        <time>2022-07-14T07:15:24Z</time>
      </trkpt>
      <trkpt lat="47.2334" lon="-1.47462">
        <ele>60</ele>
        <time>2022-07-14T07:15:26Z</time>
      </trkpt>
      <trkpt lat="47.23348" lon="-1.47476">
        <ele>60</ele>
        <time>2022-07-14T07:15:28Z</time>
      </trkpt>
      <trkpt lat="47.23356" lon="-1.47489">
        <ele>59</ele>
        <time>2022-07-14T07:15:30Z</time>
      </trkpt>
      <trkpt lat="47.23364" lon="-1.47502">
        <ele>59</ele>
        <time>2022-07-14T07:15:32Z</time>
      </trkpt>
      <trkpt lat="47.23374" lon="-1.47516">
        <ele>59</ele>
        <time>2022-07-14T07:15:34Z</time>
      </trkpt>
      <trkpt lat="47.23384" lon="-1.47529">
        <ele>59</ele>
        <time>2022-07-14T07:15:36Z</time>
      </trkpt>
      <trkpt lat="47.23393" lon="-1.47545">
        <ele>58</ele>
        <time>2022-07-14T07:15:38Z</time>
      </trkpt>
      <trkpt lat="47.23402" lon="-1.47559">
        <ele>58</ele>
        <time>2022-07-14T07:15:40Z</time>
      </trkpt>
      <trkpt lat="47.23412" lon="-1.47574">
        <ele>57</ele>
        <time>2022-07-14T07:15:42Z</time>
      </trkpt>
      <trkpt lat="47.23422" lon="-1.47589">
        <ele>57</ele>
        <time>2022-07-14T07:15:44Z</time>
      </trkpt>
      <trkpt lat="47.23433" lon="-1.47604">
        <ele>56</ele>
        <time>2022-07-14T07:15:46Z</time>
      </trkpt>
      <trkpt lat="47.23442" lon="-1.47618">
        <ele>56</ele>
        <time>2022-07-14T07:15:48Z</time>
      </trkpt>
      <trkpt lat="47.23452" lon="-1.47631">
        <ele>56</ele>
        <time>2022-07-14T07:15:50Z</time>
      </trkpt>
      <trkpt lat="47.23462" lon="-1.47645">
        <ele>56</ele>
        <time>2022-07-14T07:15:52Z</time>
      </trkpt>
      <trkpt lat="47.23474" lon="-1.47656">
        <ele>56</ele>
        <time>2022-07-14T07:15:54Z</time>
      </trkpt>
      <trkpt lat="47.23486" lon="-1.47666">
        <ele>55</ele>
        <time>2022-07-14T07:15:56Z</time>
      </trkpt>
      <trkpt lat="47.23499" lon="-1.47675">
        <ele>54</ele>
        <time>2022-07-14T07:15:58Z</time>
      </trkpt>
      <trkpt lat="47.23512" lon="-1.47683">
        <ele>54</ele>
        <time>2022-07-14T07:16:00Z</time>
      </trkpt>
      <trkpt lat="47.23523" lon="-1.4769">
        <ele>54</ele>
        <time>2022-07-14T07:16:02Z</time>
      </trkpt>
      <trkpt lat="47.23535" lon="-1.47697">
        <ele>54</ele>
        <time>2022-07-14T07:16:04Z</time>
      </trkpt>
      <trkpt lat="47.23545" lon="-1.47702">
        <ele>53</ele>
        <time>2022-07-14T07:16:06Z</time>
      </trkpt>
      <trkpt lat="47.23556" lon="-1.47694">
        <ele>54</ele>
        <time>2022-07-14T07:16:08Z</time>
      </trkpt>
      <trkpt lat="47.23562" lon="-1.47683">
        <ele>54</ele>
        <time>2022-07-14T07:16:10Z</time>
      </trkpt>
      <trkpt lat="47.23559" lon="-1.4767">
        <ele>55</ele>
        <time>2022-07-14T07:16:12Z</time>
      </trkpt>
      <trkpt lat="47.23551" lon="-1.47659">
        <ele>54</ele>
        <time>2022-07-14T07:16:14Z</time>
      </trkpt>
      <trkpt lat="47.23543" lon="-1.47646">
        <ele>54</ele>
        <time>2022-07-14T07:16:16Z</time>
      </trkpt>
      <trkpt lat="47.23535" lon="-1.47633">
        <ele>55</ele>
        <time>2022-07-14T07:16:18Z</time>
      </trkpt>
      <trkpt lat="47.23526" lon="-1.47619">
        <ele>56</ele>
        <time>2022-07-14T07:16:20Z</time>
      </trkpt>
      <trkpt lat="47.23518" lon="-1.47606">
        <ele>56</ele>
        <time>2022-07-14T07:16:22Z</time>
      </trkpt>
      <trkpt lat="47.23509" lon="-1.47593">
        <ele>55</ele>
        <time>2022-07-14T07:16:24Z</time>
      </trkpt>
      <trkpt lat="47.23501" lon="-1.4758">
        <ele>55</ele>
        <time>2022-07-14T07:16:26Z</time>
      </trkpt>
      <trkpt lat="47.23492" lon="-1.47566">
        <ele>55</ele>
        <time>2022-07-14T07:16:28Z</time>
      </trkpt>
      <trkpt lat="47.23484" lon="-1.47552">
        <ele>55</ele>
        <time>2022-07-14T07:16:30Z</time>
      </trkpt>
      <trkpt lat="47.23475" lon="-1.47538">
        <ele>56</ele>
        <time>2022-07-14T07:16:32Z</time>
      </trkpt>
      <trkpt lat="47.23467" lon="-1.47523">
        <ele>56</ele>
        <time>2022-07-14T07:16:34Z</time>
      </trkpt>
      <trkpt lat="47.23458" lon="-1.47509">
        <ele>56</ele>
        <time>2022-07-14T07:16:36Z</time>
      </trkpt>
      <trkpt lat="47.2345" lon="-1.47495">
        <ele>56</ele>
        <time>2022-07-14T07:16:38Z</time>
      </trkpt>
      <trkpt lat="47.23441" lon="-1.47482">
        <ele>56</ele>
        <time>2022-07-14T07:16:40Z</time>
      </trkpt>
      <trkpt lat="47.23432" lon="-1.4747">
        <ele>56</ele>
        <time>2022-07-14T07:16:42Z</time>
      </trkpt>
      <trkpt lat="47.23424" lon="-1.47457">
        <ele>56</ele>
        <time>2022-07-14T07:16:44Z</time>
      </trkpt>
      <trkpt lat="47.23418" lon="-1.47445">
        <ele>56</ele>
        <time>2022-07-14T07:16:46Z</time>
      </trkpt>
      <trkpt lat="47.23404" lon="-1.47442">
        <ele>57</ele>
        <time>2022-07-14T07:16:49Z</time>
      </trkpt>
      <trkpt lat="47.23393" lon="-1.4745">
        <ele>58</ele>
        <time>2022-07-14T07:16:51Z</time>
      </trkpt>
      <trkpt lat="47.23381" lon="-1.47457">
        <ele>58</ele>
        <time>2022-07-14T07:16:53Z</time>
      </trkpt>
      <trkpt lat="47.23369" lon="-1.47464">
        <ele>58</ele>
        <time>2022-07-14T07:16:55Z</time>
      </trkpt>
      <trkpt lat="47.23356" lon="-1.4747">
        <ele>57</ele>
        <time>2022-07-14T07:16:57Z</time>
      </trkpt>
      <trkpt lat="47.23343" lon="-1.47475">
        <ele>56</ele>
        <time>2022-07-14T07:16:59Z</time>
      </trkpt>
      <trkpt lat="47.23333" lon="-1.4748">
        <ele>56</ele>
        <time>2022-07-14T07:17:01Z</time>
      </trkpt>
      <trkpt lat="47.23323" lon="-1.47488">
        <ele>57</ele>
        <time>2022-07-14T07:17:03Z</time>
      </trkpt>
      <trkpt lat="47.23312" lon="-1.47498">
        <ele>58</ele>
        <time>2022-07-14T07:17:05Z</time>
      </trkpt>
      <trkpt lat="47.23301" lon="-1.47505">
        <ele>58</ele>
        <time>2022-07-14T07:17:07Z</time>
      </trkpt>
      <trkpt lat="47.23289" lon="-1.47513">
        <ele>57</ele>
        <time>2022-07-14T07:17:09Z</time>
      </trkpt>
      <trkpt lat="47.23276" lon="-1.4752">
        <ele>58</ele>
        <time>2022-07-14T07:17:11Z</time>
      </trkpt>
      <trkpt lat="47.23265" lon="-1.47529">
        <ele>58</ele>
        <time>2022-07-14T07:17:13Z</time>
      </trkpt>
      <trkpt lat="47.23256" lon="-1.47542">
        <ele>58</ele>
        <time>2022-07-14T07:17:15Z</time>
      </trkpt>
      <trkpt lat="47.23248" lon="-1.47556">
        <ele>58</ele>
        <time>2022-07-14T07:17:17Z</time>
      </trkpt>
      <trkpt lat="47.23239" lon="-1.4757">
        <ele>57</ele>
        <time>2022-07-14T07:17:19Z</time>
      </trkpt>
      <trkpt lat="47.23231" lon="-1.47584">
        <ele>57</ele>
        <time>2022-07-14T07:17:21Z</time>
      </trkpt>
      <trkpt lat="47.23224" lon="-1.47598">
        <ele>58</ele>
        <time>2022-07-14T07:17:23Z</time>
      </trkpt>
      <trkpt lat="47.23217" lon="-1.47615">
        <ele>57</ele>
        <time>2022-07-14T07:17:25Z</time>
      </trkpt>
      <trkpt lat="47.23211" lon="-1.4763">
        <ele>57</ele>
        <time>2022-07-14T07:17:27Z</time>
      </trkpt>
      <trkpt lat="47.23205" lon="-1.47645">
        <ele>57</ele>
        <time>2022-07-14T07:17:29Z</time>
      </trkpt>
      <trkpt lat="47.232" lon="-1.47659">
        <ele>57</ele>
        <time>2022-07-14T07:17:31Z</time>
      </trkpt>
      <trkpt lat="47.23194" lon="-1.47674">
        <ele>56</ele>
        <time>2022-07-14T07:17:33Z</time>
      </trkpt>
      <trkpt lat="47.23188" lon="-1.47689">
        <ele>56</ele>
        <time>2022-07-14T07:17:35Z</time>
      </trkpt>
      <trkpt lat="47.23181" lon="-1.47706">
        <ele>56</ele>
        <time>2022-07-14T07:17:37Z</time>
      </trkpt>
      <trkpt lat="47.23174" lon="-1.47722">
        <ele>57</ele>
        <time>2022-07-14T07:17:39Z</time>
      </trkpt>
      <trkpt lat="47.23166" lon="-1.47739">
        <ele>56</ele>
        <time>2022-07-14T07:17:41Z</time>
      </trkpt>
      <trkpt lat="47.23159" lon="-1.47755">
        <ele>56</ele>
        <time>2022-07-14T07:17:43Z</time>
      </trkpt>
      <trkpt lat="47.23151" lon="-1.4777">
        <ele>56</ele>
        <time>2022-07-14T07:17:45Z</time>
      </trkpt>
      <trkpt lat="47.23145" lon="-1.47786">
        <ele>56</ele>
        <time>2022-07-14T07:17:47Z</time>
      </trkpt>
      <trkpt lat="47.2314" lon="-1.47802">
        <ele>56</ele>
        <time>2022-07-14T07:17:49Z</time>
      </trkpt>
      <trkpt lat="47.23134" lon="-1.47818">
        <ele>56</ele>
        <time>2022-07-14T07:17:51Z</time>
      </trkpt>
      <trkpt lat="47.23126" lon="-1.47833">
        <ele>57</ele>
        <time>2022-07-14T07:17:53Z</time>
      </trkpt>
      <trkpt lat="47.23118" lon="-1.4785">
        <ele>57</ele>
        <time>2022-07-14T07:17:55Z</time>
      </trkpt>
      <trkpt lat="47.2311" lon="-1.47865">
        <ele>57</ele>
        <time>2022-07-14T07:17:57Z</time>
      </trkpt>
      <trkpt lat="47.23101" lon="-1.4788">
        <ele>56</ele>
        <time>2022-07-14T07:17:59Z</time>
      </trkpt>
      <trkpt lat="47.23091" lon="-1.47893">
        <ele>56</ele>
        <time>2022-07-14T07:18:01Z</time>
      </trkpt>
      <trkpt lat="47.23082" lon="-1.47907">
        <ele>56</ele>
        <time>2022-07-14T07:18:03Z</time>
      </trkpt>
      <trkpt lat="47.23072" lon="-1.4792">
        <ele>57</ele>
        <time>2022-07-14T07:18:05Z</time>
      </trkpt>
      <trkpt lat="47.23062" lon="-1.47932">
        <ele>57</ele>
        <time>2022-07-14T07:18:07Z</time>
      </trkpt>
      <trkpt lat="47.23052" lon="-1.47944">
        <ele>57</ele>
        <time>2022-07-14T07:18:09Z</time>
      </trkpt>
      <trkpt lat="47.23042" lon="-1.47957">
        <ele>57</ele>
        <time>2022-07-14T07:18:11Z</time>
      </trkpt>
      <trkpt lat="47.23032" lon="-1.4797">
        <ele>57</ele>
        <time>2022-07-14T07:18:13Z</time>
      </trkpt>
      <trkpt lat="47.23023" lon="-1.47983">
        <ele>57</ele>
        <time>2022-07-14T07:18:15Z</time>
      </trkpt>
      <trkpt lat="47.23013" lon="-1.47996">
        <ele>57</ele>
        <time>2022-07-14T07:18:17Z</time>
      </trkpt>
      <trkpt lat="47.23004" lon="-1.48011">
        <ele>57</ele>
        <time>2022-07-14T07:18:19Z</time>
      </trkpt>
      <trkpt lat="47.22996" lon="-1.48025">
        <ele>57</ele>
        <time>2022-07-14T07:18:21Z</time>
      </trkpt>
      <trkpt lat="47.22988" lon="-1.4804">
        <ele>57</ele>
        <time>2022-07-14T07:18:23Z</time>
      </trkpt>
      <trkpt lat="47.2298" lon="-1.48054">
        <ele>57</ele>
        <time>2022-07-14T07:18:25Z</time>
      </trkpt>
      <trkpt lat="47.22971" lon="-1.48069">
        <ele>57</ele>
        <time>2022-07-14T07:18:27Z</time>
      </trkpt>
      <trkpt lat="47.22962" lon="-1.48082">
        <ele>56</ele>
        <time>2022-07-14T07:18:29Z</time>
      </trkpt>
      <trkpt lat="47.22954" lon="-1.48095">
        <ele>56</ele>
        <time>2022-07-14T07:18:31Z</time>
      </trkpt>
      <trkpt lat="47.22946" lon="-1.48106">
        <ele>56</ele>
        <time>2022-07-14T07:18:33Z</time>
      </trkpt>
      <trkpt lat="47.22933" lon="-1.48109">
        <ele>55</ele>
        <time>2022-07-14T07:18:35Z</time>
      </trkpt>
      <trkpt lat="47.22921" lon="-1.48113">
        <ele>56</ele>
        <time>2022-07-14T07:18:37Z</time>
      </trkpt>
      <trkpt lat="47.22909" lon="-1.48119">
        <ele>56</ele>
        <time>2022-07-14T07:18:39Z</time>
      </trkpt>
      <trkpt lat="47.22899" lon="-1.4813">
        <ele>56</ele>
        <time>2022-07-14T07:18:41Z</time>
      </trkpt>
      <trkpt lat="47.22889" lon="-1.48142">
        <ele>54</ele>
        <time>2022-07-14T07:18:43Z</time>
      </trkpt>
      <trkpt lat="47.22881" lon="-1.48156">
        <ele>54</ele>
        <time>2022-07-14T07:18:45Z</time>
      </trkpt>
      <trkpt lat="47.22871" lon="-1.4817">
        <ele>55</ele>
        <time>2022-07-14T07:18:47Z</time>
      </trkpt>
      <trkpt lat="47.22862" lon="-1.48183">
        <ele>55</ele>
        <time>2022-07-14T07:18:49Z</time>
      </trkpt>
      <trkpt lat="47.22853" lon="-1.48197">
        <ele>56</ele>
        <time>2022-07-14T07:18:51Z</time>
      </trkpt>
      <trkpt lat="47.22845" lon="-1.48211">
        <ele>56</ele>
        <time>2022-07-14T07:18:53Z</time>
      </trkpt>
      <trkpt lat="47.22836" lon="-1.48224">
        <ele>56</ele>
        <time>2022-07-14T07:18:55Z</time>
      </trkpt>
      <trkpt lat="47.22827" lon="-1.48239">
        <ele>56</ele>
        <time>2022-07-14T07:18:57Z</time>
      </trkpt>
      <trkpt lat="47.22818" lon="-1.48252">
        <ele>56</ele>
        <time>2022-07-14T07:18:59Z</time>
      </trkpt>
      <trkpt lat="47.22808" lon="-1.48266">
        <ele>57</ele>
        <time>2022-07-14T07:19:01Z</time>
      </trkpt>
      <trkpt lat="47.228" lon="-1.48281">
        <ele>58</ele>
        <time>2022-07-14T07:19:03Z</time>
      </trkpt>
      <trkpt lat="47.22791" lon="-1.48295">
        <ele>58</ele>
        <time>2022-07-14T07:19:05Z</time>
      </trkpt>
      <trkpt lat="47.22781" lon="-1.48309">
        <ele>58</ele>
        <time>2022-07-14T07:19:07Z</time>
      </trkpt>
      <trkpt lat="47.22773" lon="-1.48324">
        <ele>58</ele>
        <time>2022-07-14T07:19:09Z</time>
      </trkpt>
      <trkpt lat="47.22763" lon="-1.48338">
        <ele>58</ele>
        <time>2022-07-14T07:19:11Z</time>
      </trkpt>
      <trkpt lat="47.22753" lon="-1.48351">
        <ele>57</ele>
        <time>2022-07-14T07:19:13Z</time>
      </trkpt>
      <trkpt lat="47.22744" lon="-1.48364">
        <ele>57</ele>
        <time>2022-07-14T07:19:15Z</time>
      </trkpt>
      <trkpt lat="47.22734" lon="-1.48377">
        <ele>56</ele>
        <time>2022-07-14T07:19:17Z</time>
      </trkpt>
      <trkpt lat="47.22725" lon="-1.4839">
        <ele>56</ele>
        <time>2022-07-14T07:19:19Z</time>
      </trkpt>
      <trkpt lat="47.22715" lon="-1.48402">
        <ele>56</ele>
        <time>2022-07-14T07:19:21Z</time>
      </trkpt>
      <trkpt lat="47.22707" lon="-1.48418">
        <ele>56</ele>
        <time>2022-07-14T07:19:23Z</time>
      </trkpt>
      <trkpt lat="47.227" lon="-1.48436">
        <ele>56</ele>
        <time>2022-07-14T07:19:25Z</time>
      </trkpt>
      <trkpt lat="47.22694" lon="-1.48454">
        <ele>55</ele>
        <time>2022-07-14T07:19:27Z</time>
      </trkpt>
      <trkpt lat="47.22687" lon="-1.48472">
        <ele>55</ele>
        <time>2022-07-14T07:19:29Z</time>
      </trkpt>
      <trkpt lat="47.22679" lon="-1.48488">
        <ele>55</ele>
        <time>2022-07-14T07:19:31Z</time>
      </trkpt>
      <trkpt lat="47.22672" lon="-1.48504">
        <ele>56</ele>
        <time>2022-07-14T07:19:33Z</time>
      </trkpt>
      <trkpt lat="47.22665" lon="-1.48521">
        <ele>56</ele>
        <time>2022-07-14T07:19:35Z</time>
      </trkpt>
      <trkpt lat="47.2266" lon="-1.4854">
        <ele>56</ele>
        <time>2022-07-14T07:19:37Z</time>
      </trkpt>
      <trkpt lat="47.22653" lon="-1.48558">
        <ele>56</ele>
        <time>2022-07-14T07:19:39Z</time>
      </trkpt>
      <trkpt lat="47.22647" lon="-1.48575">
        <ele>56</ele>
        <time>2022-07-14T07:19:41Z</time>
      </trkpt>
      <trkpt lat="47.22641" lon="-1.48593">
        <ele>55</ele>
        <time>2022-07-14T07:19:43Z</time>
      </trkpt>
      <trkpt lat="47.22636" lon="-1.48608">
        <ele>56</ele>
        <time>2022-07-14T07:19:45Z</time>
      </trkpt>
      <trkpt lat="47.2263" lon="-1.48623">
        <ele>56</ele>
        <time>2022-07-14T07:19:47Z</time>
      </trkpt>
      <trkpt lat="47.22624" lon="-1.4864">
        <ele>57</ele>
        <time>2022-07-14T07:19:49Z</time>
      </trkpt>
      <trkpt lat="47.22618" lon="-1.48657">
        <ele>58</ele>
        <time>2022-07-14T07:19:51Z</time>
      </trkpt>
      <trkpt lat="47.22613" lon="-1.48675">
        <ele>57</ele>
        <time>2022-07-14T07:19:53Z</time>
      </trkpt>
      <trkpt lat="47.22606" lon="-1.48694">
        <ele>57</ele>
        <time>2022-07-14T07:19:55Z</time>
      </trkpt>
      <trkpt lat="47.226" lon="-1.48713">
        <ele>57</ele>
        <time>2022-07-14T07:19:57Z</time>
      </trkpt>
      <trkpt lat="47.22593" lon="-1.48731">
        <ele>57</ele>
        <time>2022-07-14T07:19:59Z</time>
      </trkpt>
      <trkpt lat="47.22589" lon="-1.4875">
        <ele>57</ele>
        <time>2022-07-14T07:20:01Z</time>
      </trkpt>
      <trkpt lat="47.22584" lon="-1.48769">
        <ele>57</ele>
        <time>2022-07-14T07:20:03Z</time>
      </trkpt>
      <trkpt lat="47.22579" lon="-1.48787">
        <ele>58</ele>
        <time>2022-07-14T07:20:05Z</time>
      </trkpt>
      <trkpt lat="47.22574" lon="-1.48806">
        <ele>58</ele>
        <time>2022-07-14T07:20:07Z</time>
      </trkpt>
      <trkpt lat="47.22567" lon="-1.48823">
        <ele>59</ele>
        <time>2022-07-14T07:20:09Z</time>
      </trkpt>
      <trkpt lat="47.2256" lon="-1.48838">
        <ele>60</ele>
        <time>2022-07-14T07:20:11Z</time>
      </trkpt>
      <trkpt lat="47.22555" lon="-1.48854">
        <ele>61</ele>
        <time>2022-07-14T07:20:13Z</time>
      </trkpt>
      <trkpt lat="47.2255" lon="-1.48873">
        <ele>62</ele>
        <time>2022-07-14T07:20:15Z</time>
      </trkpt>
      <trkpt lat="47.22545" lon="-1.48891">
        <ele>62</ele>
        <time>2022-07-14T07:20:17Z</time>
      </trkpt>
      <trkpt lat="47.22541" lon="-1.4891">
        <ele>62</ele>
        <time>2022-07-14T07:20:19Z</time>
      </trkpt>
      <trkpt lat="47.22535" lon="-1.4893">
        <ele>62</ele>
        <time>2022-07-14T07:20:21Z</time>
      </trkpt>
      <trkpt lat="47.22529" lon="-1.48949">
        <ele>62</ele>
        <time>2022-07-14T07:20:23Z</time>
      </trkpt>
      <trkpt lat="47.22524" lon="-1.48966">
        <ele>62</ele>
        <time>2022-07-14T07:20:25Z</time>
      </trkpt>
      <trkpt lat="47.22518" lon="-1.48984">
        <ele>62</ele>
        <time>2022-07-14T07:20:27Z</time>
      </trkpt>
      <trkpt lat="47.22512" lon="-1.49001">
        <ele>61</ele>
        <time>2022-07-14T07:20:29Z</time>
      </trkpt>
      <trkpt lat="47.22507" lon="-1.49019">
        <ele>62</ele>
        <time>2022-07-14T07:20:31Z</time>
      </trkpt>
      <trkpt lat="47.22502" lon="-1.49036">
        <ele>62</ele>
        <time>2022-07-14T07:20:33Z</time>
      </trkpt>
      <trkpt lat="47.22497" lon="-1.49053">
        <ele>62</ele>
        <time>2022-07-14T07:20:35Z</time>
      </trkpt>
      <trkpt lat="47.22491" lon="-1.49071">
        <ele>62</ele>
        <time>2022-07-14T07:20:37Z</time>
      </trkpt>
      <trkpt lat="47.22485" lon="-1.4909">
        <ele>63</ele>
        <time>2022-07-14T07:20:39Z</time>
      </trkpt>
      <trkpt lat="47.2248" lon="-1.49108">
        <ele>63</ele>
        <time>2022-07-14T07:20:41Z</time>
      </trkpt>
      <trkpt lat="47.22475" lon="-1.49127">
        <ele>63</ele>
        <time>2022-07-14T07:20:43Z</time>
      </trkpt>
      <trkpt lat="47.2247" lon="-1.49145">
        <ele>63</ele>
        <time>2022-07-14T07:20:45Z</time>
      </trkpt>
      <trkpt lat="47.22464" lon="-1.49163">
        <ele>63</ele>
        <time>2022-07-14T07:20:47Z</time>
      </trkpt>
      <trkpt lat="47.22459" lon="-1.49182">
        <ele>63</ele>
        <time>2022-07-14T07:20:49Z</time>
      </trkpt>
      <trkpt lat="47.22452" lon="-1.49199">
        <ele>63</ele>
        <time>2022-07-14T07:20:51Z</time>
      </trkpt>
      <trkpt lat="47.22444" lon="-1.49216">
        <ele>62</ele>
        <time>2022-07-14T07:20:53Z</time>
      </trkpt>
      <trkpt lat="47.22438" lon="-1.49234">
        <ele>61</ele>
        <time>2022-07-14T07:20:55Z</time>
      </trkpt>
      <trkpt lat="47.22432" lon="-1.49253">
        <ele>61</ele>
        <time>2022-07-14T07:20:57Z</time>
      </trkpt>
      <trkpt lat="47.22425" lon="-1.49269">
        <ele>60</ele>
        <time>2022-07-14T07:20:59Z</time>
      </trkpt>
      <trkpt lat="47.22417" lon="-1.49285">
        <ele>59</ele>
        <time>2022-07-14T07:21:01Z</time>
      </trkpt>
      <trkpt lat="47.22411" lon="-1.49302">
        <ele>59</ele>
        <time>2022-07-14T07:21:03Z</time>
      </trkpt>
      <trkpt lat="47.22404" lon="-1.49319">
        <ele>59</ele>
        <time>2022-07-14T07:21:05Z</time>
      </trkpt>
      <trkpt lat="47.22398" lon="-1.49337">
        <ele>59</ele>
        <time>2022-07-14T07:21:07Z</time>
      </trkpt>
      <trkpt lat="47.22391" lon="-1.49353">
        <ele>59</ele>
        <time>2022-07-14T07:21:09Z</time>
      </trkpt>
      <trkpt lat="47.22385" lon="-1.4937">
        <ele>59</ele>
        <time>2022-07-14T07:21:11Z</time>
      </trkpt>
      <trkpt lat="47.22378" lon="-1.49386">
        <ele>59</ele>
        <time>2022-07-14T07:21:13Z</time>
      </trkpt>
      <trkpt lat="47.2237" lon="-1.49402">
        <ele>59</ele>
        <time>2022-07-14T07:21:15Z</time>
      </trkpt>
      <trkpt lat="47.22364" lon="-1.49418">
        <ele>59</ele>
        <time>2022-07-14T07:21:17Z</time>
      </trkpt>
      <trkpt lat="47.22358" lon="-1.49435">
        <ele>59</ele>
        <time>2022-07-14T07:21:19Z</time>
      </trkpt>
      <trkpt lat="47.22352" lon="-1.49451">
        <ele>60</ele>
        <time>2022-07-14T07:21:21Z</time>
      </trkpt>
      <trkpt lat="47.22347" lon="-1.49467">
        <ele>60</ele>
        <time>2022-07-14T07:21:23Z</time>
      </trkpt>
      <trkpt lat="47.22341" lon="-1.49485">
        <ele>61</ele>
        <time>2022-07-14T07:21:25Z</time>
      </trkpt>
      <trkpt lat="47.22336" lon="-1.49503">
        <ele>61</ele>
        <time>2022-07-14T07:21:27Z</time>
      </trkpt>
      <trkpt lat="47.2233" lon="-1.49519">
        <ele>62</ele>
        <time>2022-07-14T07:21:29Z</time>
      </trkpt>
      <trkpt lat="47.22323" lon="-1.49536">
        <ele>62</ele>
        <time>2022-07-14T07:21:31Z</time>
      </trkpt>
      <trkpt lat="47.22317" lon="-1.49554">
        <ele>61</ele>
        <time>2022-07-14T07:21:33Z</time>
      </trkpt>
      <trkpt lat="47.22312" lon="-1.49571">
        <ele>61</ele>
        <time>2022-07-14T07:21:35Z</time>
      </trkpt>
      <trkpt lat="47.22306" lon="-1.49588">
        <ele>61</ele>
        <time>2022-07-14T07:21:37Z</time>
      </trkpt>
      <trkpt lat="47.223" lon="-1.49606">
        <ele>62</ele>
        <time>2022-07-14T07:21:39Z</time>
      </trkpt>
      <trkpt lat="47.22294" lon="-1.49623">
        <ele>62</ele>
        <time>2022-07-14T07:21:41Z</time>
      </trkpt>
      <trkpt lat="47.2229" lon="-1.4964">
        <ele>61</ele>
        <time>2022-07-14T07:21:43Z</time>
      </trkpt>
      <trkpt lat="47.22285" lon="-1.49658">
        <ele>61</ele>
        <time>2022-07-14T07:21:45Z</time>
      </trkpt>
      <trkpt lat="47.22279" lon="-1.49675">
        <ele>61</ele>
        <time>2022-07-14T07:21:47Z</time>
      </trkpt>
      <trkpt lat="47.22274" lon="-1.49691">
        <ele>61</ele>
        <time>2022-07-14T07:21:49Z</time>
      </trkpt>
      <trkpt lat="47.22268" lon="-1.49708">
        <ele>62</ele>
        <time>2022-07-14T07:21:51Z</time>
      </trkpt>
      <trkpt lat="47.22262" lon="-1.49726">
        <ele>62</ele>
        <time>2022-07-14T07:21:53Z</time>
      </trkpt>
      <trkpt lat="47.22257" lon="-1.49744">
        <ele>62</ele>
        <time>2022-07-14T07:21:55Z</time>
      </trkpt>
      <trkpt lat="47.22254" lon="-1.49763">
        <ele>61</ele>
        <time>2022-07-14T07:21:57Z</time>
      </trkpt>
      <trkpt lat="47.22251" lon="-1.49781">
        <ele>61</ele>
        <time>2022-07-14T07:21:59Z</time>
      </trkpt>
      <trkpt lat="47.22249" lon="-1.49799">
        <ele>62</ele>
        <time>2022-07-14T07:22:01Z</time>
      </trkpt>
      <trkpt lat="47.22245" lon="-1.49816">
        <ele>63</ele>
        <time>2022-07-14T07:22:03Z</time>
      </trkpt>
      <trkpt lat="47.22241" lon="-1.49835">
        <ele>63</ele>
        <time>2022-07-14T07:22:05Z</time>
      </trkpt>
      <trkpt lat="47.22236" lon="-1.49852">
        <ele>63</ele>
        <time>2022-07-14T07:22:07Z</time>
      </trkpt>
      <trkpt lat="47.22232" lon="-1.49872">
        <ele>63</ele>
        <time>2022-07-14T07:22:09Z</time>
      </trkpt>
      <trkpt lat="47.22228" lon="-1.4989">
        <ele>63</ele>
        <time>2022-07-14T07:22:11Z</time>
      </trkpt>
      <trkpt lat="47.22223" lon="-1.49909">
        <ele>64</ele>
        <time>2022-07-14T07:22:13Z</time>
      </trkpt>
      <trkpt lat="47.22218" lon="-1.49928">
        <ele>64</ele>
        <time>2022-07-14T07:22:15Z</time>
      </trkpt>
      <trkpt lat="47.22214" lon="-1.49945">
        <ele>65</ele>
        <time>2022-07-14T07:22:17Z</time>
      </trkpt>
      <trkpt lat="47.2221" lon="-1.49963">
        <ele>66</ele>
        <time>2022-07-14T07:22:19Z</time>
      </trkpt>
      <trkpt lat="47.22204" lon="-1.49979">
        <ele>66</ele>
        <time>2022-07-14T07:22:21Z</time>
      </trkpt>
      <trkpt lat="47.222" lon="-1.49996">
        <ele>66</ele>
        <time>2022-07-14T07:22:23Z</time>
      </trkpt>
      <trkpt lat="47.22194" lon="-1.50015">
        <ele>66</ele>
        <time>2022-07-14T07:22:25Z</time>
      </trkpt>
      <trkpt lat="47.22189" lon="-1.50034">
        <ele>66</ele>
        <time>2022-07-14T07:22:27Z</time>
      </trkpt>
      <trkpt lat="47.22186" lon="-1.50053">
        <ele>65</ele>
        <time>2022-07-14T07:22:29Z</time>
      </trkpt>
      <trkpt lat="47.22182" lon="-1.50071">
        <ele>65</ele>
        <time>2022-07-14T07:22:31Z</time>
      </trkpt>
      <trkpt lat="47.22178" lon="-1.50088">
        <ele>66</ele>
        <time>2022-07-14T07:22:33Z</time>
      </trkpt>
      <trkpt lat="47.22172" lon="-1.50106">
        <ele>66</ele>
        <time>2022-07-14T07:22:35Z</time>
      </trkpt>
      <trkpt lat="47.22167" lon="-1.50124">
        <ele>65</ele>
        <time>2022-07-14T07:22:37Z</time>
      </trkpt>
      <trkpt lat="47.22161" lon="-1.50141">
        <ele>65</ele>
        <time>2022-07-14T07:22:39Z</time>
      </trkpt>
      <trkpt lat="47.22155" lon="-1.50158">
        <ele>64</ele>
        <time>2022-07-14T07:22:41Z</time>
      </trkpt>
      <trkpt lat="47.22151" lon="-1.50177">
        <ele>63</ele>
        <time>2022-07-14T07:22:43Z</time>
      </trkpt>
      <trkpt lat="47.22147" lon="-1.50194">
        <ele>63</ele>
        <time>2022-07-14T07:22:45Z</time>
      </trkpt>
      <trkpt lat="47.22143" lon="-1.50212">
        <ele>62</ele>
        <time>2022-07-14T07:22:47Z</time>
      </trkpt>
      <trkpt lat="47.22138" lon="-1.50229">
        <ele>62</ele>
        <time>2022-07-14T07:22:49Z</time>
      </trkpt>
      <trkpt lat="47.22133" lon="-1.50245">
        <ele>61</ele>
        <time>2022-07-14T07:22:51Z</time>
      </trkpt>
      <trkpt lat="47.22128" lon="-1.50263">
        <ele>61</ele>
        <time>2022-07-14T07:22:53Z</time>
      </trkpt>
      <trkpt lat="47.22121" lon="-1.50281">
        <ele>61</ele>
        <time>2022-07-14T07:22:55Z</time>
      </trkpt>
      <trkpt lat="47.22114" lon="-1.50297">
        <ele>61</ele>
        <time>2022-07-14T07:22:57Z</time>
      </trkpt>
      <trkpt lat="47.22106" lon="-1.50312">
        <ele>61</ele>
        <time>2022-07-14T07:22:59Z</time>
      </trkpt>
      <trkpt lat="47.22098" lon="-1.50327">
        <ele>61</ele>
        <time>2022-07-14T07:23:01Z</time>
      </trkpt>
      <trkpt lat="47.22091" lon="-1.50343">
        <ele>61</ele>
        <time>2022-07-14T07:23:03Z</time>
      </trkpt>
      <trkpt lat="47.22086" lon="-1.50359">
        <ele>61</ele>
        <time>2022-07-14T07:23:05Z</time>
      </trkpt>
      <trkpt lat="47.22081" lon="-1.50378">
        <ele>61</ele>
        <time>2022-07-14T07:23:07Z</time>
      </trkpt>
      <trkpt lat="47.22077" lon="-1.50396">
        <ele>60</ele>
        <time>2022-07-14T07:23:09Z</time>
      </trkpt>
      <trkpt lat="47.22072" lon="-1.50412">
        <ele>58</ele>
        <time>2022-07-14T07:23:11Z</time>
      </trkpt>
      <trkpt lat="47.22069" lon="-1.50429">
        <ele>58</ele>
        <time>2022-07-14T07:23:13Z</time>
      </trkpt>
      <trkpt lat="47.22066" lon="-1.50447">
        <ele>58</ele>
        <time>2022-07-14T07:23:15Z</time>
      </trkpt>
      <trkpt lat="47.22063" lon="-1.50466">
        <ele>59</ele>
        <time>2022-07-14T07:23:17Z</time>
      </trkpt>
      <trkpt lat="47.22061" lon="-1.50484">
        <ele>59</ele>
        <time>2022-07-14T07:23:19Z</time>
      </trkpt>
      <trkpt lat="47.22059" lon="-1.50502">
        <ele>59</ele>
        <time>2022-07-14T07:23:21Z</time>
      </trkpt>
      <trkpt lat="47.22059" lon="-1.5052">
        <ele>58</ele>
        <time>2022-07-14T07:23:23Z</time>
      </trkpt>
      <trkpt lat="47.22057" lon="-1.50537">
        <ele>58</ele>
        <time>2022-07-14T07:23:25Z</time>
      </trkpt>
      <trkpt lat="47.22056" lon="-1.50555">
        <ele>58</ele>
        <time>2022-07-14T07:23:27Z</time>
      </trkpt>
      <trkpt lat="47.22055" lon="-1.50572">
        <ele>58</ele>
        <time>2022-07-14T07:23:29Z</time>
      </trkpt>
      <trkpt lat="47.22054" lon="-1.50589">
        <ele>58</ele>
        <time>2022-07-14T07:23:31Z</time>
      </trkpt>
      <trkpt lat="47.22054" lon="-1.50606">
        <ele>59</ele>
        <time>2022-07-14T07:23:33Z</time>
      </trkpt>
      <trkpt lat="47.22054" lon="-1.50623">
        <ele>59</ele>
        <time>2022-07-14T07:23:35Z</time>
      </trkpt>
      <trkpt lat="47.22053" lon="-1.50643">
        <ele>59</ele>
        <time>2022-07-14T07:23:37Z</time>
      </trkpt>
      <trkpt lat="47.2205" lon="-1.50662">
        <ele>59</ele>
        <time>2022-07-14T07:23:39Z</time>
      </trkpt>
      <trkpt lat="47.22046" lon="-1.50677">
        <ele>59</ele>
        <time>2022-07-14T07:23:41Z</time>
      </trkpt>
      <trkpt lat="47.22044" lon="-1.5069">
        <ele>59</ele>
        <time>2022-07-14T07:23:43Z</time>
      </trkpt>
      <trkpt lat="47.22042" lon="-1.50707">
        <ele>60</ele>
        <time>2022-07-14T07:23:45Z</time>
      </trkpt>
      <trkpt lat="47.22039" lon="-1.50724">
        <ele>61</ele>
        <time>2022-07-14T07:23:47Z</time>
      </trkpt>
      <trkpt lat="47.22037" lon="-1.50742">
        <ele>61</ele>
        <time>2022-07-14T07:23:49Z</time>
      </trkpt>
      <trkpt lat="47.22035" lon="-1.5076">
        <ele>63</ele>
        <time>2022-07-14T07:23:51Z</time>
      </trkpt>
      <trkpt lat="47.22032" lon="-1.50778">
        <ele>63</ele>
        <time>2022-07-14T07:23:53Z</time>
      </trkpt>
      <trkpt lat="47.22027" lon="-1.50797">
        <ele>63</ele>
        <time>2022-07-14T07:23:55Z</time>
      </trkpt>
      <trkpt lat="47.22023" lon="-1.50814">
        <ele>63</ele>
        <time>2022-07-14T07:23:57Z</time>
      </trkpt>
      <trkpt lat="47.22016" lon="-1.50831">
        <ele>63</ele>
        <time>2022-07-14T07:23:59Z</time>
      </trkpt>
      <trkpt lat="47.22011" lon="-1.50848">
        <ele>63</ele>
        <time>2022-07-14T07:24:01Z</time>
      </trkpt>
      <trkpt lat="47.22004" lon="-1.50869">
        <ele>63</ele>
        <time>2022-07-14T07:24:03Z</time>
      </trkpt>
      <trkpt lat="47.21997" lon="-1.50887">
        <ele>63</ele>
        <time>2022-07-14T07:24:05Z</time>
      </trkpt>
      <trkpt lat="47.21991" lon="-1.50904">
        <ele>62</ele>
        <time>2022-07-14T07:24:07Z</time>
      </trkpt>
      <trkpt lat="47.21985" lon="-1.50922">
        <ele>62</ele>
        <time>2022-07-14T07:24:09Z</time>
      </trkpt>
      <trkpt lat="47.2198" lon="-1.5094">
        <ele>61</ele>
        <time>2022-07-14T07:24:11Z</time>
      </trkpt>
      <trkpt lat="47.21975" lon="-1.50957">
        <ele>62</ele>
        <time>2022-07-14T07:24:13Z</time>
      </trkpt>
      <trkpt lat="47.21971" lon="-1.50974">
        <ele>62</ele>
        <time>2022-07-14T07:24:15Z</time>
      </trkpt>
      <trkpt lat="47.21966" lon="-1.50991">
        <ele>61</ele>
        <time>2022-07-14T07:24:17Z</time>
      </trkpt>
      <trkpt lat="47.21961" lon="-1.51008">
        <ele>61</ele>
        <time>2022-07-14T07:24:19Z</time>
      </trkpt>
      <trkpt lat="47.21956" lon="-1.51026">
        <ele>59</ele>
        <time>2022-07-14T07:24:21Z</time>
      </trkpt>
      <trkpt lat="47.21951" lon="-1.51042">
        <ele>59</ele>
        <time>2022-07-14T07:24:23Z</time>
      </trkpt>
      <trkpt lat="47.21946" lon="-1.51055">
        <ele>58</ele>
        <time>2022-07-14T07:24:25Z</time>
      </trkpt>
      <trkpt lat="47.2194" lon="-1.51066">
        <ele>58</ele>
        <time>2022-07-14T07:24:27Z</time>
      </trkpt>
      <trkpt lat="47.21933" lon="-1.51081">
        <ele>58</ele>
        <time>2022-07-14T07:24:29Z</time>
      </trkpt>
      <trkpt lat="47.21927" lon="-1.51099">
        <ele>58</ele>
        <time>2022-07-14T07:24:31Z</time>
      </trkpt>
      <trkpt lat="47.21921" lon="-1.51116">
        <ele>57</ele>
        <time>2022-07-14T07:24:33Z</time>
      </trkpt>
      <trkpt lat="47.21915" lon="-1.51134">
        <ele>57</ele>
        <time>2022-07-14T07:24:35Z</time>
      </trkpt>
      <trkpt lat="47.2191" lon="-1.51151">
        <ele>57</ele>
        <time>2022-07-14T07:24:37Z</time>
      </trkpt>
      <trkpt lat="47.21904" lon="-1.51168">
        <ele>57</ele>
        <time>2022-07-14T07:24:39Z</time>
      </trkpt>
      <trkpt lat="47.21898" lon="-1.51185">
        <ele>56</ele>
        <time>2022-07-14T07:24:41Z</time>
      </trkpt>
      <trkpt lat="47.21893" lon="-1.51202">
        <ele>56</ele>
        <time>2022-07-14T07:24:43Z</time>
      </trkpt>
      <trkpt lat="47.21887" lon="-1.51219">
        <ele>56</ele>
        <time>2022-07-14T07:24:45Z</time>
      </trkpt>
      <trkpt lat="47.21881" lon="-1.51237">
        <ele>56</ele>
        <time>2022-07-14T07:24:47Z</time>
      </trkpt>
      <trkpt lat="47.21876" lon="-1.51254">
        <ele>56</ele>
        <time>2022-07-14T07:24:49Z</time>
      </trkpt>
      <trkpt lat="47.2187" lon="-1.5127">
        <ele>57</ele>
        <time>2022-07-14T07:24:51Z</time>
      </trkpt>
      <trkpt lat="47.21865" lon="-1.51287">
        <ele>57</ele>
        <time>2022-07-14T07:24:53Z</time>
      </trkpt>
      <trkpt lat="47.2186" lon="-1.51304">
        <ele>57</ele>
        <time>2022-07-14T07:24:55Z</time>
      </trkpt>
      <trkpt lat="47.21855" lon="-1.51321">
        <ele>57</ele>
        <time>2022-07-14T07:24:57Z</time>
      </trkpt>
      <trkpt lat="47.2185" lon="-1.51338">
        <ele>58</ele>
        <time>2022-07-14T07:24:59Z</time>
      </trkpt>
      <trkpt lat="47.21845" lon="-1.51355">
        <ele>58</ele>
        <time>2022-07-14T07:25:01Z</time>
      </trkpt>
      <trkpt lat="47.2184" lon="-1.51372">
        <ele>57</ele>
        <time>2022-07-14T07:25:03Z</time>
      </trkpt>
      <trkpt lat="47.21836" lon="-1.5139">
        <ele>57</ele>
        <time>2022-07-14T07:25:05Z</time>
      </trkpt>
      <trkpt lat="47.21831" lon="-1.51407">
        <ele>57</ele>
        <time>2022-07-14T07:25:07Z</time>
      </trkpt>
      <trkpt lat="47.2183" lon="-1.51426">
        <ele>58</ele>
        <time>2022-07-14T07:25:09Z</time>
      </trkpt>
      <trkpt lat="47.21826" lon="-1.51444">
        <ele>57</ele>
        <time>2022-07-14T07:25:11Z</time>
      </trkpt>
      <trkpt lat="47.21822" lon="-1.51461">
        <ele>57</ele>
        <time>2022-07-14T07:25:13Z</time>
      </trkpt>
      <trkpt lat="47.21817" lon="-1.51478">
        <ele>56</ele>
        <time>2022-07-14T07:25:15Z</time>
      </trkpt>
      <trkpt lat="47.21813" lon="-1.51495">
        <ele>56</ele>
        <time>2022-07-14T07:25:17Z</time>
      </trkpt>
      <trkpt lat="47.21806" lon="-1.51509">
        <ele>56</ele>
        <time>2022-07-14T07:25:19Z</time>
      </trkpt>
      <trkpt lat="47.218" lon="-1.51524">
        <ele>56</ele>
        <time>2022-07-14T07:25:21Z</time>
      </trkpt>
      <trkpt lat="47.21794" lon="-1.5154">
        <ele>56</ele>
        <time>2022-07-14T07:25:23Z</time>
      </trkpt>
      <trkpt lat="47.21787" lon="-1.51555">
        <ele>56</ele>
        <time>2022-07-14T07:25:25Z</time>
      </trkpt>
      <trkpt lat="47.2178" lon="-1.51569">
        <ele>56</ele>
        <time>2022-07-14T07:25:27Z</time>
      </trkpt>
      <trkpt lat="47.21772" lon="-1.51583">
        <ele>56</ele>
        <time>2022-07-14T07:25:29Z</time>
      </trkpt>
      <trkpt lat="47.21764" lon="-1.51595">
        <ele>56</ele>
        <time>2022-07-14T07:25:31Z</time>
      </trkpt>
      <trkpt lat="47.21755" lon="-1.51607">
        <ele>56</ele>
        <time>2022-07-14T07:25:33Z</time>
      </trkpt>
      <trkpt lat="47.21748" lon="-1.51621">
        <ele>56</ele>
        <time>2022-07-14T07:25:35Z</time>
      </trkpt>
      <trkpt lat="47.21741" lon="-1.51636">
        <ele>56</ele>
        <time>2022-07-14T07:25:37Z</time>
      </trkpt>
      <trkpt lat="47.21734" lon="-1.51651">
        <ele>56</ele>
        <time>2022-07-14T07:25:39Z</time>
      </trkpt>
      <trkpt lat="47.21728" lon="-1.51665">
        <ele>56</ele>
        <time>2022-07-14T07:25:41Z</time>
      </trkpt>
      <trkpt lat="47.21722" lon="-1.51679">
        <ele>56</ele>
        <time>2022-07-14T07:25:43Z</time>
      </trkpt>
      <trkpt lat="47.21716" lon="-1.51692">
        <ele>57</ele>
        <time>2022-07-14T07:25:45Z</time>
      </trkpt>
      <trkpt lat="47.21709" lon="-1.51706">
        <ele>58</ele>
        <time>2022-07-14T07:25:47Z</time>
      </trkpt>
      <trkpt lat="47.21706" lon="-1.51721">
        <ele>58</ele>
        <time>2022-07-14T07:25:49Z</time>
      </trkpt>
      <trkpt lat="47.21699" lon="-1.51738">
        <ele>59</ele>
        <time>2022-07-14T07:25:51Z</time>
      </trkpt>
      <trkpt lat="47.21691" lon="-1.51754">
        <ele>60</ele>
        <time>2022-07-14T07:25:53Z</time>
      </trkpt>
      <trkpt lat="47.21682" lon="-1.51769">
        <ele>58</ele>
        <time>2022-07-14T07:25:55Z</time>
      </trkpt>
      <trkpt lat="47.21676" lon="-1.51786">
        <ele>58</ele>
        <time>2022-07-14T07:25:57Z</time>
      </trkpt>
      <trkpt lat="47.21668" lon="-1.51801">
        <ele>57</ele>
        <time>2022-07-14T07:25:59Z</time>
      </trkpt>
      <trkpt lat="47.21661" lon="-1.51816">
        <ele>57</ele>
        <time>2022-07-14T07:26:01Z</time>
      </trkpt>
      <trkpt lat="47.21655" lon="-1.51832">
        <ele>57</ele>
        <time>2022-07-14T07:26:03Z</time>
      </trkpt>
      <trkpt lat="47.21649" lon="-1.51848">
        <ele>56</ele>
        <time>2022-07-14T07:26:05Z</time>
      </trkpt>
      <trkpt lat="47.21646" lon="-1.51865">
        <ele>57</ele>
        <time>2022-07-14T07:26:07Z</time>
      </trkpt>
      <trkpt lat="47.21643" lon="-1.51883">
        <ele>58</ele>
        <time>2022-07-14T07:26:09Z</time>
      </trkpt>
      <trkpt lat="47.21634" lon="-1.51897">
        <ele>57</ele>
        <time>2022-07-14T07:26:11Z</time>
      </trkpt>
      <trkpt lat="47.21627" lon="-1.51913">
        <ele>58</ele>
        <time>2022-07-14T07:26:13Z</time>
      </trkpt>
      <trkpt lat="47.21622" lon="-1.5193">
        <ele>58</ele>
        <time>2022-07-14T07:26:15Z</time>
      </trkpt>
      <trkpt lat="47.21618" lon="-1.51949">
        <ele>57</ele>
        <time>2022-07-14T07:26:17Z</time>
      </trkpt>
      <trkpt lat="47.21615" lon="-1.51965">
        <ele>57</ele>
        <time>2022-07-14T07:26:19Z</time>
      </trkpt>
      <trkpt lat="47.2161" lon="-1.5198">
        <ele>59</ele>
        <time>2022-07-14T07:26:21Z</time>
      </trkpt>
      <trkpt lat="47.21605" lon="-1.51994">
        <ele>59</ele>
        <time>2022-07-14T07:26:23Z</time>
      </trkpt>
      <trkpt lat="47.21598" lon="-1.52012">
        <ele>58</ele>
        <time>2022-07-14T07:26:25Z</time>
      </trkpt>
      <trkpt lat="47.21592" lon="-1.52031">
        <ele>58</ele>
        <time>2022-07-14T07:26:27Z</time>
      </trkpt>
      <trkpt lat="47.21585" lon="-1.52049">
        <ele>57</ele>
        <time>2022-07-14T07:26:29Z</time>
      </trkpt>
      <trkpt lat="47.2158" lon="-1.52066">
        <ele>57</ele>
        <time>2022-07-14T07:26:31Z</time>
      </trkpt>
      <trkpt lat="47.21574" lon="-1.52083">
        <ele>57</ele>
        <time>2022-07-14T07:26:33Z</time>
      </trkpt>
      <trkpt lat="47.21568" lon="-1.521">
        <ele>57</ele>
        <time>2022-07-14T07:26:35Z</time>
      </trkpt>
      <trkpt lat="47.21562" lon="-1.52117">
        <ele>56</ele>
        <time>2022-07-14T07:26:37Z</time>
      </trkpt>
      <trkpt lat="47.21558" lon="-1.52134">
        <ele>56</ele>
        <time>2022-07-14T07:26:39Z</time>
      </trkpt>
      <trkpt lat="47.21552" lon="-1.52152">
        <ele>56</ele>
        <time>2022-07-14T07:26:41Z</time>
      </trkpt>
      <trkpt lat="47.21547" lon="-1.52169">
        <ele>56</ele>
        <time>2022-07-14T07:26:43Z</time>
      </trkpt>
      <trkpt lat="47.21541" lon="-1.52186">
        <ele>56</ele>
        <time>2022-07-14T07:26:45Z</time>
      </trkpt>
      <trkpt lat="47.21535" lon="-1.52204">
        <ele>56</ele>
        <time>2022-07-14T07:26:47Z</time>
      </trkpt>
      <trkpt lat="47.21529" lon="-1.52221">
        <ele>56</ele>
        <time>2022-07-14T07:26:49Z</time>
      </trkpt>
      <trkpt lat="47.21524" lon="-1.52238">
        <ele>56</ele>
        <time>2022-07-14T07:26:51Z</time>
      </trkpt>
      <trkpt lat="47.21519" lon="-1.52254">
        <ele>55</ele>
        <time>2022-07-14T07:26:53Z</time>
      </trkpt>
      <trkpt lat="47.21514" lon="-1.52272">
        <ele>56</ele>
        <time>2022-07-14T07:26:55Z</time>
      </trkpt>
      <trkpt lat="47.21509" lon="-1.52291">
        <ele>56</ele>
        <time>2022-07-14T07:26:57Z</time>
      </trkpt>
      <trkpt lat="47.21503" lon="-1.5231">
        <ele>56</ele>
        <time>2022-07-14T07:26:59Z</time>
      </trkpt>
      <trkpt lat="47.21497" lon="-1.52328">
        <ele>56</ele>
        <time>2022-07-14T07:27:01Z</time>
      </trkpt>
      <trkpt lat="47.21492" lon="-1.52344">
        <ele>57</ele>
        <time>2022-07-14T07:27:03Z</time>
      </trkpt>
      <trkpt lat="47.21486" lon="-1.52361">
        <ele>58</ele>
        <time>2022-07-14T07:27:05Z</time>
      </trkpt>
      <trkpt lat="47.2148" lon="-1.52379">
        <ele>59</ele>
        <time>2022-07-14T07:27:07Z</time>
      </trkpt>
      <trkpt lat="47.21474" lon="-1.52397">
        <ele>59</ele>
        <time>2022-07-14T07:27:09Z</time>
      </trkpt>
      <trkpt lat="47.21468" lon="-1.52415">
        <ele>58</ele>
        <time>2022-07-14T07:27:11Z</time>
      </trkpt>
      <trkpt lat="47.21462" lon="-1.52432">
        <ele>58</ele>
        <time>2022-07-14T07:27:13Z</time>
      </trkpt>
      <trkpt lat="47.21456" lon="-1.52449">
        <ele>59</ele>
        <time>2022-07-14T07:27:15Z</time>
      </trkpt>
      <trkpt lat="47.21451" lon="-1.52465">
        <ele>59</ele>
        <time>2022-07-14T07:27:17Z</time>
      </trkpt>
      <trkpt lat="47.21446" lon="-1.52484">
        <ele>59</ele>
        <time>2022-07-14T07:27:19Z</time>
      </trkpt>
      <trkpt lat="47.21439" lon="-1.52503">
        <ele>59</ele>
        <time>2022-07-14T07:27:21Z</time>
      </trkpt>
      <trkpt lat="47.21433" lon="-1.52522">
        <ele>59</ele>
        <time>2022-07-14T07:27:23Z</time>
      </trkpt>
      <trkpt lat="47.21428" lon="-1.5254">
        <ele>59</ele>
        <time>2022-07-14T07:27:25Z</time>
      </trkpt>
      <trkpt lat="47.21422" lon="-1.52558">
        <ele>59</ele>
        <time>2022-07-14T07:27:27Z</time>
      </trkpt>
      <trkpt lat="47.21417" lon="-1.52576">
        <ele>58</ele>
        <time>2022-07-14T07:27:29Z</time>
      </trkpt>
      <trkpt lat="47.21411" lon="-1.52593">
        <ele>58</ele>
        <time>2022-07-14T07:27:31Z</time>
      </trkpt>
      <trkpt lat="47.21405" lon="-1.52607">
        <ele>58</ele>
        <time>2022-07-14T07:27:33Z</time>
      </trkpt>
      <trkpt lat="47.214" lon="-1.52622">
        <ele>58</ele>
        <time>2022-07-14T07:27:35Z</time>
      </trkpt>
      <trkpt lat="47.21396" lon="-1.52638">
        <ele>59</ele>
        <time>2022-07-14T07:27:37Z</time>
      </trkpt>
      <trkpt lat="47.21393" lon="-1.52654">
        <ele>59</ele>
        <time>2022-07-14T07:27:39Z</time>
      </trkpt>
      <trkpt lat="47.21389" lon="-1.52672">
        <ele>61</ele>
        <time>2022-07-14T07:27:41Z</time>
      </trkpt>
      <trkpt lat="47.21384" lon="-1.52693">
        <ele>62</ele>
        <time>2022-07-14T07:27:43Z</time>
      </trkpt>
      <trkpt lat="47.21378" lon="-1.52714">
        <ele>61</ele>
        <time>2022-07-14T07:27:45Z</time>
      </trkpt>
      <trkpt lat="47.21374" lon="-1.52733">
        <ele>61</ele>
        <time>2022-07-14T07:27:47Z</time>
      </trkpt>
      <trkpt lat="47.21369" lon="-1.52754">
        <ele>60</ele>
        <time>2022-07-14T07:27:49Z</time>
      </trkpt>
      <trkpt lat="47.21366" lon="-1.52774">
        <ele>60</ele>
        <time>2022-07-14T07:27:51Z</time>
      </trkpt>
      <trkpt lat="47.21364" lon="-1.52793">
        <ele>60</ele>
        <time>2022-07-14T07:27:53Z</time>
      </trkpt>
      <trkpt lat="47.21362" lon="-1.52811">
        <ele>60</ele>
        <time>2022-07-14T07:27:55Z</time>
      </trkpt>
      <trkpt lat="47.21357" lon="-1.52829">
        <ele>59</ele>
        <time>2022-07-14T07:27:57Z</time>
      </trkpt>
      <trkpt lat="47.21353" lon="-1.52849">
        <ele>58</ele>
        <time>2022-07-14T07:27:59Z</time>
      </trkpt>
      <trkpt lat="47.21349" lon="-1.52868">
        <ele>58</ele>
        <time>2022-07-14T07:28:01Z</time>
      </trkpt>
      <trkpt lat="47.21345" lon="-1.52889">
        <ele>57</ele>
        <time>2022-07-14T07:28:03Z</time>
      </trkpt>
      <trkpt lat="47.21342" lon="-1.52909">
        <ele>56</ele>
        <time>2022-07-14T07:28:05Z</time>
      </trkpt>
      <trkpt lat="47.21338" lon="-1.52929">
        <ele>56</ele>
        <time>2022-07-14T07:28:07Z</time>
      </trkpt>
      <trkpt lat="47.21336" lon="-1.52946">
        <ele>53</ele>
        <time>2022-07-14T07:28:10Z</time>
      </trkpt>
      <trkpt lat="47.21332" lon="-1.5297">
        <ele>59</ele>
        <time>2022-07-14T07:28:12Z</time>
      </trkpt>
      <trkpt lat="47.2133" lon="-1.52984">
        <ele>59</ele>
        <time>2022-07-14T07:28:13Z</time>
      </trkpt>
      <trkpt lat="47.2133" lon="-1.53007">
        <ele>58</ele>
        <time>2022-07-14T07:28:15Z</time>
      </trkpt>
      <trkpt lat="47.21329" lon="-1.53029">
        <ele>57</ele>
        <time>2022-07-14T07:28:17Z</time>
      </trkpt>
      <trkpt lat="47.21327" lon="-1.53049">
        <ele>57</ele>
        <time>2022-07-14T07:28:19Z</time>
      </trkpt>
      <trkpt lat="47.21326" lon="-1.53069">
        <ele>57</ele>
        <time>2022-07-14T07:28:21Z</time>
      </trkpt>
      <trkpt lat="47.21324" lon="-1.53087">
        <ele>58</ele>
        <time>2022-07-14T07:28:23Z</time>
      </trkpt>
      <trkpt lat="47.21322" lon="-1.53105">
        <ele>58</ele>
        <time>2022-07-14T07:28:25Z</time>
      </trkpt>
      <trkpt lat="47.21319" lon="-1.53123">
        <ele>58</ele>
        <time>2022-07-14T07:28:27Z</time>
      </trkpt>
      <trkpt lat="47.21316" lon="-1.53143">
        <ele>57</ele>
        <time>2022-07-14T07:28:29Z</time>
      </trkpt>
      <trkpt lat="47.21313" lon="-1.53162">
        <ele>57</ele>
        <time>2022-07-14T07:28:31Z</time>
      </trkpt>
      <trkpt lat="47.21311" lon="-1.5318">
        <ele>58</ele>
        <time>2022-07-14T07:28:33Z</time>
      </trkpt>
      <trkpt lat="47.2131" lon="-1.53199">
        <ele>58</ele>
        <time>2022-07-14T07:28:35Z</time>
      </trkpt>
      <trkpt lat="47.21309" lon="-1.53219">
        <ele>59</ele>
        <time>2022-07-14T07:28:37Z</time>
      </trkpt>
      <trkpt lat="47.21309" lon="-1.53238">
        <ele>58</ele>
        <time>2022-07-14T07:28:39Z</time>
      </trkpt>
      <trkpt lat="47.21309" lon="-1.53257">
        <ele>57</ele>
        <time>2022-07-14T07:28:41Z</time>
      </trkpt>
      <trkpt lat="47.21308" lon="-1.53277">
        <ele>57</ele>
        <time>2022-07-14T07:28:43Z</time>
      </trkpt>
      <trkpt lat="47.21308" lon="-1.53295">
        <ele>57</ele>
        <time>2022-07-14T07:28:45Z</time>
      </trkpt>
      <trkpt lat="47.21305" lon="-1.53314">
        <ele>57</ele>
        <time>2022-07-14T07:28:47Z</time>
      </trkpt>
      <trkpt lat="47.21303" lon="-1.53334">
        <ele>56</ele>
        <time>2022-07-14T07:28:49Z</time>
      </trkpt>
      <trkpt lat="47.213" lon="-1.53352">
        <ele>56</ele>
        <time>2022-07-14T07:28:51Z</time>
      </trkpt>
      <trkpt lat="47.21296" lon="-1.5337">
        <ele>56</ele>
        <time>2022-07-14T07:28:53Z</time>
      </trkpt>
      <trkpt lat="47.21294" lon="-1.53389">
        <ele>57</ele>
        <time>2022-07-14T07:28:55Z</time>
      </trkpt>
      <trkpt lat="47.21292" lon="-1.53408">
        <ele>57</ele>
        <time>2022-07-14T07:28:57Z</time>
      </trkpt>
      <trkpt lat="47.21289" lon="-1.53427">
        <ele>56</ele>
        <time>2022-07-14T07:28:59Z</time>
      </trkpt>
      <trkpt lat="47.21287" lon="-1.53444">
        <ele>56</ele>
        <time>2022-07-14T07:29:01Z</time>
      </trkpt>
      <trkpt lat="47.2129" lon="-1.53459">
        <ele>57</ele>
        <time>2022-07-14T07:29:03Z</time>
      </trkpt>
      <trkpt lat="47.21295" lon="-1.53475">
        <ele>56</ele>
        <time>2022-07-14T07:29:05Z</time>
      </trkpt>
      <trkpt lat="47.21297" lon="-1.53492">
        <ele>56</ele>
        <time>2022-07-14T07:29:07Z</time>
      </trkpt>
      <trkpt lat="47.21298" lon="-1.53509">
        <ele>56</ele>
        <time>2022-07-14T07:29:09Z</time>
      </trkpt>
      <trkpt lat="47.21299" lon="-1.53526">
        <ele>56</ele>
        <time>2022-07-14T07:29:11Z</time>
      </trkpt>
      <trkpt lat="47.21298" lon="-1.53543">
        <ele>56</ele>
        <time>2022-07-14T07:29:13Z</time>
      </trkpt>
      <trkpt lat="47.21298" lon="-1.53559">
        <ele>56</ele>
        <time>2022-07-14T07:29:15Z</time>
      </trkpt>
      <trkpt lat="47.21299" lon="-1.53576">
        <ele>56</ele>
        <time>2022-07-14T07:29:17Z</time>
      </trkpt>
      <trkpt lat="47.213" lon="-1.53594">
        <ele>56</ele>
        <time>2022-07-14T07:29:19Z</time>
      </trkpt>
      <trkpt lat="47.213" lon="-1.5361">
        <ele>56</ele>
        <time>2022-07-14T07:29:21Z</time>
      </trkpt>
      <trkpt lat="47.21298" lon="-1.53624">
        <ele>57</ele>
        <time>2022-07-14T07:29:23Z</time>
      </trkpt>
      <trkpt lat="47.21293" lon="-1.53635">
        <ele>57</ele>
        <time>2022-07-14T07:29:27Z</time>
      </trkpt>
      <trkpt lat="47.2129" lon="-1.53649">
        <ele>57</ele>
        <time>2022-07-14T07:29:32Z</time>
      </trkpt>
      <trkpt lat="47.21288" lon="-1.53663">
        <ele>56</ele>
        <time>2022-07-14T07:29:34Z</time>
      </trkpt>
      <trkpt lat="47.21293" lon="-1.53676">
        <ele>55</ele>
        <time>2022-07-14T07:29:36Z</time>
      </trkpt>
      <trkpt lat="47.21299" lon="-1.53688">
        <ele>55</ele>
        <time>2022-07-14T07:29:38Z</time>
      </trkpt>
      <trkpt lat="47.21303" lon="-1.53704">
        <ele>56</ele>
        <time>2022-07-14T07:29:40Z</time>
      </trkpt>
      <trkpt lat="47.21307" lon="-1.5372">
        <ele>56</ele>
        <time>2022-07-14T07:29:42Z</time>
      </trkpt>
      <trkpt lat="47.21311" lon="-1.53736">
        <ele>56</ele>
        <time>2022-07-14T07:29:44Z</time>
      </trkpt>
      <trkpt lat="47.21314" lon="-1.53753">
        <ele>56</ele>
        <time>2022-07-14T07:29:46Z</time>
      </trkpt>
      <trkpt lat="47.21316" lon="-1.53769">
        <ele>56</ele>
        <time>2022-07-14T07:29:48Z</time>
      </trkpt>
      <trkpt lat="47.21317" lon="-1.53787">
        <ele>56</ele>
        <time>2022-07-14T07:29:50Z</time>
      </trkpt>
      <trkpt lat="47.2132" lon="-1.53804">
        <ele>56</ele>
        <time>2022-07-14T07:29:52Z</time>
      </trkpt>
      <trkpt lat="47.21322" lon="-1.53821">
        <ele>55</ele>
        <time>2022-07-14T07:29:54Z</time>
      </trkpt>
      <trkpt lat="47.21324" lon="-1.53838">
        <ele>55</ele>
        <time>2022-07-14T07:29:56Z</time>
      </trkpt>
      <trkpt lat="47.21327" lon="-1.53854">
        <ele>55</ele>
        <time>2022-07-14T07:29:58Z</time>
      </trkpt>
      <trkpt lat="47.21329" lon="-1.53871">
        <ele>56</ele>
        <time>2022-07-14T07:30:00Z</time>
      </trkpt>
      <trkpt lat="47.21332" lon="-1.53887">
        <ele>56</ele>
        <time>2022-07-14T07:30:02Z</time>
      </trkpt>
      <trkpt lat="47.21334" lon="-1.53903">
        <ele>55</ele>
        <time>2022-07-14T07:30:04Z</time>
      </trkpt>
      <trkpt lat="47.21335" lon="-1.53917">
        <ele>55</ele>
        <time>2022-07-14T07:30:06Z</time>
      </trkpt>
      <trkpt lat="47.21337" lon="-1.53931">
        <ele>55</ele>
        <time>2022-07-14T07:30:08Z</time>
      </trkpt>
      <trkpt lat="47.2134" lon="-1.53946">
        <ele>54</ele>
        <time>2022-07-14T07:30:10Z</time>
      </trkpt>
      <trkpt lat="47.21341" lon="-1.53961">
        <ele>54</ele>
        <time>2022-07-14T07:30:12Z</time>
      </trkpt>
      <trkpt lat="47.21341" lon="-1.53979">
        <ele>54</ele>
        <time>2022-07-14T07:30:15Z</time>
      </trkpt>
      <trkpt lat="47.21348" lon="-1.53993">
        <ele>54</ele>
        <time>2022-07-14T07:30:18Z</time>
      </trkpt>
      <trkpt lat="47.21358" lon="-1.53999">
        <ele>54</ele>
        <time>2022-07-14T07:30:20Z</time>
      </trkpt>
      <trkpt lat="47.21368" lon="-1.54011">
        <ele>55</ele>
        <time>2022-07-14T07:30:22Z</time>
      </trkpt>
      <trkpt lat="47.21377" lon="-1.54025">
        <ele>56</ele>
        <time>2022-07-14T07:30:24Z</time>
      </trkpt>
      <trkpt lat="47.21386" lon="-1.54038">
        <ele>56</ele>
        <time>2022-07-14T07:30:26Z</time>
      </trkpt>
      <trkpt lat="47.21395" lon="-1.54052">
        <ele>56</ele>
        <time>2022-07-14T07:30:28Z</time>
      </trkpt>
      <trkpt lat="47.21404" lon="-1.54065">
        <ele>56</ele>
        <time>2022-07-14T07:30:30Z</time>
      </trkpt>
      <trkpt lat="47.21412" lon="-1.54079">
        <ele>57</ele>
        <time>2022-07-14T07:30:32Z</time>
      </trkpt>
      <trkpt lat="47.21422" lon="-1.54091">
        <ele>57</ele>
        <time>2022-07-14T07:30:34Z</time>
      </trkpt>
      <trkpt lat="47.21431" lon="-1.54104">
        <ele>57</ele>
        <time>2022-07-14T07:30:36Z</time>
      </trkpt>
      <trkpt lat="47.21439" lon="-1.54117">
        <ele>57</ele>
        <time>2022-07-14T07:30:38Z</time>
      </trkpt>
      <trkpt lat="47.21447" lon="-1.54131">
        <ele>57</ele>
        <time>2022-07-14T07:30:40Z</time>
      </trkpt>
      <trkpt lat="47.21456" lon="-1.54143">
        <ele>57</ele>
        <time>2022-07-14T07:30:42Z</time>
      </trkpt>
      <trkpt lat="47.21464" lon="-1.54156">
        <ele>57</ele>
        <time>2022-07-14T07:30:44Z</time>
      </trkpt>
      <trkpt lat="47.21472" lon="-1.54168">
        <ele>58</ele>
        <time>2022-07-14T07:30:46Z</time>
      </trkpt>
      <trkpt lat="47.2148" lon="-1.54181">
        <ele>58</ele>
        <time>2022-07-14T07:30:48Z</time>
      </trkpt>
      <trkpt lat="47.21488" lon="-1.54194">
        <ele>57</ele>
        <time>2022-07-14T07:30:50Z</time>
      </trkpt>
      <trkpt lat="47.21496" lon="-1.54208">
        <ele>57</ele>
        <time>2022-07-14T07:30:52Z</time>
      </trkpt>
      <trkpt lat="47.21505" lon="-1.5422">
        <ele>58</ele>
        <time>2022-07-14T07:30:54Z</time>
      </trkpt>
      <trkpt lat="47.21514" lon="-1.54233">
        <ele>58</ele>
        <time>2022-07-14T07:30:56Z</time>
      </trkpt>
      <trkpt lat="47.21522" lon="-1.54245">
        <ele>58</ele>
        <time>2022-07-14T07:30:58Z</time>
      </trkpt>
      <trkpt lat="47.2153" lon="-1.54257">
        <ele>58</ele>
        <time>2022-07-14T07:31:00Z</time>
      </trkpt>
      <trkpt lat="47.21537" lon="-1.5427">
        <ele>58</ele>
        <time>2022-07-14T07:31:02Z</time>
      </trkpt>
      <trkpt lat="47.21546" lon="-1.54278">
        <ele>58</ele>
        <time>2022-07-14T07:31:04Z</time>
      </trkpt>
      <trkpt lat="47.21554" lon="-1.54285">
        <ele>57</ele>
        <time>2022-07-14T07:31:06Z</time>
      </trkpt>
      <trkpt lat="47.21562" lon="-1.54296">
        <ele>58</ele>
        <time>2022-07-14T07:31:08Z</time>
      </trkpt>
      <trkpt lat="47.2157" lon="-1.54308">
        <ele>58</ele>
        <time>2022-07-14T07:31:10Z</time>
      </trkpt>
      <trkpt lat="47.21578" lon="-1.54319">
        <ele>58</ele>
        <time>2022-07-14T07:31:12Z</time>
      </trkpt>
      <trkpt lat="47.21585" lon="-1.54329">
        <ele>59</ele>
        <time>2022-07-14T07:31:14Z</time>
      </trkpt>
      <trkpt lat="47.21592" lon="-1.54339">
        <ele>60</ele>
        <time>2022-07-14T07:31:16Z</time>
      </trkpt>
      <trkpt lat="47.21597" lon="-1.5435">
        <ele>62</ele>
        <time>2022-07-14T07:31:18Z</time>
      </trkpt>
      <trkpt lat="47.21603" lon="-1.54363">
        <ele>64</ele>
        <time>2022-07-14T07:31:20Z</time>
      </trkpt>
      <trkpt lat="47.21611" lon="-1.54375">
        <ele>64</ele>
        <time>2022-07-14T07:31:22Z</time>
      </trkpt>
      <trkpt lat="47.21617" lon="-1.54391">
        <ele>64</ele>
        <time>2022-07-14T07:31:24Z</time>
      </trkpt>
      <trkpt lat="47.21616" lon="-1.54409">
        <ele>63</ele>
        <time>2022-07-14T07:31:26Z</time>
      </trkpt>
      <trkpt lat="47.21613" lon="-1.54425">
        <ele>62</ele>
        <time>2022-07-14T07:31:28Z</time>
      </trkpt>
      <trkpt lat="47.21611" lon="-1.54443">
        <ele>61</ele>
        <time>2022-07-14T07:31:30Z</time>
      </trkpt>
      <trkpt lat="47.2161" lon="-1.54461">
        <ele>60</ele>
        <time>2022-07-14T07:31:32Z</time>
      </trkpt>
      <trkpt lat="47.21607" lon="-1.54479">
        <ele>60</ele>
        <time>2022-07-14T07:31:34Z</time>
      </trkpt>
      <trkpt lat="47.21603" lon="-1.54495">
        <ele>59</ele>
        <time>2022-07-14T07:31:36Z</time>
      </trkpt>
      <trkpt lat="47.21598" lon="-1.54511">
        <ele>59</ele>
        <time>2022-07-14T07:31:38Z</time>
      </trkpt>
      <trkpt lat="47.21593" lon="-1.54527">
        <ele>59</ele>
        <time>2022-07-14T07:31:40Z</time>
      </trkpt>
      <trkpt lat="47.21588" lon="-1.54541">
        <ele>60</ele>
        <time>2022-07-14T07:31:42Z</time>
      </trkpt>
      <trkpt lat="47.21583" lon="-1.54556">
        <ele>60</ele>
        <time>2022-07-14T07:31:44Z</time>
      </trkpt>
      <trkpt lat="47.21577" lon="-1.54571">
        <ele>59</ele>
        <time>2022-07-14T07:31:46Z</time>
      </trkpt>
      <trkpt lat="47.21571" lon="-1.54588">
        <ele>59</ele>
        <time>2022-07-14T07:31:48Z</time>
      </trkpt>
      <trkpt lat="47.21565" lon="-1.54604">
        <ele>59</ele>
        <time>2022-07-14T07:31:50Z</time>
      </trkpt>
      <trkpt lat="47.21559" lon="-1.5462">
        <ele>58</ele>
        <time>2022-07-14T07:31:52Z</time>
      </trkpt>
      <trkpt lat="47.21553" lon="-1.54636">
        <ele>58</ele>
        <time>2022-07-14T07:31:54Z</time>
      </trkpt>
      <trkpt lat="47.21547" lon="-1.5465">
        <ele>58</ele>
        <time>2022-07-14T07:31:56Z</time>
      </trkpt>
      <trkpt lat="47.2154" lon="-1.54661">
        <ele>58</ele>
        <time>2022-07-14T07:31:58Z</time>
      </trkpt>
      <trkpt lat="47.21535" lon="-1.54675">
        <ele>58</ele>
        <time>2022-07-14T07:32:00Z</time>
      </trkpt>
      <trkpt lat="47.21533" lon="-1.54692">
        <ele>60</ele>
        <time>2022-07-14T07:32:02Z</time>
      </trkpt>
      <trkpt lat="47.21528" lon="-1.54709">
        <ele>60</ele>
        <time>2022-07-14T07:32:04Z</time>
      </trkpt>
      <trkpt lat="47.21522" lon="-1.54726">
        <ele>58</ele>
        <time>2022-07-14T07:32:06Z</time>
      </trkpt>
      <trkpt lat="47.21517" lon="-1.54742">
        <ele>58</ele>
        <time>2022-07-14T07:32:08Z</time>
      </trkpt>
      <trkpt lat="47.21511" lon="-1.54757">
        <ele>59</ele>
        <time>2022-07-14T07:32:10Z</time>
      </trkpt>
      <trkpt lat="47.21505" lon="-1.54771">
        <ele>59</ele>
        <time>2022-07-14T07:32:12Z</time>
      </trkpt>
      <trkpt lat="47.21499" lon="-1.54786">
        <ele>59</ele>
        <time>2022-07-14T07:32:14Z</time>
      </trkpt>
      <trkpt lat="47.21493" lon="-1.54802">
        <ele>59</ele>
        <time>2022-07-14T07:32:16Z</time>
      </trkpt>
      <trkpt lat="47.21486" lon="-1.54817">
        <ele>59</ele>
        <time>2022-07-14T07:32:18Z</time>
      </trkpt>
      <trkpt lat="47.21479" lon="-1.54832">
        <ele>60</ele>
        <time>2022-07-14T07:32:20Z</time>
      </trkpt>
      <trkpt lat="47.21472" lon="-1.54847">
        <ele>60</ele>
        <time>2022-07-14T07:32:22Z</time>
      </trkpt>
      <trkpt lat="47.21465" lon="-1.5486">
        <ele>60</ele>
        <time>2022-07-14T07:32:24Z</time>
      </trkpt>
      <trkpt lat="47.21458" lon="-1.54875">
        <ele>60</ele>
        <time>2022-07-14T07:32:26Z</time>
      </trkpt>
      <trkpt lat="47.21451" lon="-1.5489">
        <ele>60</ele>
        <time>2022-07-14T07:32:28Z</time>
      </trkpt>
      <trkpt lat="47.21443" lon="-1.54905">
        <ele>60</ele>
        <time>2022-07-14T07:32:30Z</time>
      </trkpt>
      <trkpt lat="47.21435" lon="-1.54921">
        <ele>60</ele>
        <time>2022-07-14T07:32:32Z</time>
      </trkpt>
      <trkpt lat="47.21428" lon="-1.54936">
        <ele>60</ele>
        <time>2022-07-14T07:32:34Z</time>
      </trkpt>
      <trkpt lat="47.2142" lon="-1.54951">
        <ele>60</ele>
        <time>2022-07-14T07:32:36Z</time>
      </trkpt>
      <trkpt lat="47.21413" lon="-1.54966">
        <ele>60</ele>
        <time>2022-07-14T07:32:38Z</time>
      </trkpt>
      <trkpt lat="47.21406" lon="-1.54981">
        <ele>60</ele>
        <time>2022-07-14T07:32:40Z</time>
      </trkpt>
      <trkpt lat="47.21399" lon="-1.54997">
        <ele>59</ele>
        <time>2022-07-14T07:32:42Z</time>
      </trkpt>
      <trkpt lat="47.21393" lon="-1.55013">
        <ele>58</ele>
        <time>2022-07-14T07:32:44Z</time>
      </trkpt>
      <trkpt lat="47.21386" lon="-1.55029">
        <ele>58</ele>
        <time>2022-07-14T07:32:46Z</time>
      </trkpt>
      <trkpt lat="47.2138" lon="-1.55045">
        <ele>57</ele>
        <time>2022-07-14T07:32:48Z</time>
      </trkpt>
      <trkpt lat="47.21373" lon="-1.55062">
        <ele>56</ele>
        <time>2022-07-14T07:32:50Z</time>
      </trkpt>
      <trkpt lat="47.21366" lon="-1.55078">
        <ele>56</ele>
        <time>2022-07-14T07:32:52Z</time>
      </trkpt>
      <trkpt lat="47.21361" lon="-1.55095">
        <ele>56</ele>
        <time>2022-07-14T07:32:54Z</time>
      </trkpt>
      <trkpt lat="47.21354" lon="-1.55113">
        <ele>55</ele>
        <time>2022-07-14T07:32:56Z</time>
      </trkpt>
      <trkpt lat="47.21347" lon="-1.55129">
        <ele>55</ele>
        <time>2022-07-14T07:32:58Z</time>
      </trkpt>
      <trkpt lat="47.2134" lon="-1.55145">
        <ele>55</ele>
        <time>2022-07-14T07:33:00Z</time>
      </trkpt>
      <trkpt lat="47.21334" lon="-1.55162">
        <ele>54</ele>
        <time>2022-07-14T07:33:02Z</time>
      </trkpt>
      <trkpt lat="47.21326" lon="-1.55178">
        <ele>54</ele>
        <time>2022-07-14T07:33:04Z</time>
      </trkpt>
      <trkpt lat="47.21319" lon="-1.55194">
        <ele>55</ele>
        <time>2022-07-14T07:33:06Z</time>
      </trkpt>
      <trkpt lat="47.21313" lon="-1.55209">
        <ele>55</ele>
        <time>2022-07-14T07:33:08Z</time>
      </trkpt>
      <trkpt lat="47.21306" lon="-1.55226">
        <ele>55</ele>
        <time>2022-07-14T07:33:10Z</time>
      </trkpt>
      <trkpt lat="47.213" lon="-1.55241">
        <ele>55</ele>
        <time>2022-07-14T07:33:12Z</time>
      </trkpt>
      <trkpt lat="47.21294" lon="-1.55257">
        <ele>56</ele>
        <time>2022-07-14T07:33:14Z</time>
      </trkpt>
      <trkpt lat="47.21287" lon="-1.55273">
        <ele>56</ele>
        <time>2022-07-14T07:33:16Z</time>
      </trkpt>
      <trkpt lat="47.21281" lon="-1.55288">
        <ele>56</ele>
        <time>2022-07-14T07:33:18Z</time>
      </trkpt>
      <trkpt lat="47.21273" lon="-1.55299">
        <ele>57</ele>
        <time>2022-07-14T07:33:21Z</time>
      </trkpt>
      <trkpt lat="47.21263" lon="-1.55301">
        <ele>57</ele>
        <time>2022-07-14T07:33:23Z</time>
      </trkpt>
      <trkpt lat="47.21256" lon="-1.55312">
        <ele>57</ele>
        <time>2022-07-14T07:33:25Z</time>
      </trkpt>
      <trkpt lat="47.21259" lon="-1.55327">
        <ele>58</ele>
        <time>2022-07-14T07:33:27Z</time>
      </trkpt>
      <trkpt lat="47.21266" lon="-1.55342">
        <ele>58</ele>
        <time>2022-07-14T07:33:30Z</time>
      </trkpt>
      <trkpt lat="47.21274" lon="-1.55353">
        <ele>58</ele>
        <time>2022-07-14T07:33:41Z</time>
      </trkpt>
      <trkpt lat="47.2128" lon="-1.55366">
        <ele>57</ele>
        <time>2022-07-14T07:33:43Z</time>
      </trkpt>
      <trkpt lat="47.21277" lon="-1.55382">
        <ele>56</ele>
        <time>2022-07-14T07:33:45Z</time>
      </trkpt>
      <trkpt lat="47.21269" lon="-1.554">
        <ele>55</ele>
        <time>2022-07-14T07:33:49Z</time>
      </trkpt>
      <trkpt lat="47.21262" lon="-1.55414">
        <ele>55</ele>
        <time>2022-07-14T07:33:52Z</time>
      </trkpt>
      <trkpt lat="47.21255" lon="-1.55427">
        <ele>55</ele>
        <time>2022-07-14T07:33:54Z</time>
      </trkpt>
      <trkpt lat="47.21246" lon="-1.5544">
        <ele>55</ele>
        <time>2022-07-14T07:33:56Z</time>
      </trkpt>
      <trkpt lat="47.21237" lon="-1.55453">
        <ele>55</ele>
        <time>2022-07-14T07:33:58Z</time>
      </trkpt>
      <trkpt lat="47.21228" lon="-1.55468">
        <ele>55</ele>
        <time>2022-07-14T07:34:00Z</time>
      </trkpt>
      <trkpt lat="47.2122" lon="-1.55484">
        <ele>56</ele>
        <time>2022-07-14T07:34:02Z</time>
      </trkpt>
      <trkpt lat="47.21214" lon="-1.55501">
        <ele>56</ele>
        <time>2022-07-14T07:34:04Z</time>
      </trkpt>
      <trkpt lat="47.2121" lon="-1.55519">
        <ele>55</ele>
        <time>2022-07-14T07:34:06Z</time>
      </trkpt>
      <trkpt lat="47.21205" lon="-1.55537">
        <ele>55</ele>
        <time>2022-07-14T07:34:08Z</time>
      </trkpt>
      <trkpt lat="47.21199" lon="-1.55555">
        <ele>55</ele>
        <time>2022-07-14T07:34:10Z</time>
      </trkpt>
      <trkpt lat="47.2119" lon="-1.55582">
        <ele>54</ele>
        <time>2022-07-14T07:34:13Z</time>
      </trkpt>
      <trkpt lat="47.21185" lon="-1.55599">
        <ele>54</ele>
        <time>2022-07-14T07:34:15Z</time>
      </trkpt>
      <trkpt lat="47.21179" lon="-1.55616">
        <ele>53</ele>
        <time>2022-07-14T07:34:17Z</time>
      </trkpt>
      <trkpt lat="47.21173" lon="-1.55633">
        <ele>53</ele>
        <time>2022-07-14T07:34:19Z</time>
      </trkpt>
      <trkpt lat="47.21169" lon="-1.55648">
        <ele>53</ele>
        <time>2022-07-14T07:34:21Z</time>
      </trkpt>
      <trkpt lat="47.21168" lon="-1.55667">
        <ele>52</ele>
        <time>2022-07-14T07:34:23Z</time>
      </trkpt>
      <trkpt lat="47.21172" lon="-1.55685">
        <ele>52</ele>
        <time>2022-07-14T07:34:25Z</time>
      </trkpt>
      <trkpt lat="47.21172" lon="-1.55704">
        <ele>52</ele>
        <time>2022-07-14T07:34:27Z</time>
      </trkpt>
      <trkpt lat="47.21165" lon="-1.55731">
        <ele>53</ele>
        <time>2022-07-14T07:34:30Z</time>
      </trkpt>
      <trkpt lat="47.21158" lon="-1.55748">
        <ele>53</ele>
        <time>2022-07-14T07:34:32Z</time>
      </trkpt>
      <trkpt lat="47.21152" lon="-1.55766">
        <ele>53</ele>
        <time>2022-07-14T07:34:34Z</time>
      </trkpt>
      <trkpt lat="47.21147" lon="-1.55783">
        <ele>53</ele>
        <time>2022-07-14T07:34:36Z</time>
      </trkpt>
      <trkpt lat="47.21143" lon="-1.55801">
        <ele>53</ele>
        <time>2022-07-14T07:34:38Z</time>
      </trkpt>
      <trkpt lat="47.2114" lon="-1.5582">
        <ele>53</ele>
        <time>2022-07-14T07:34:40Z</time>
      </trkpt>
      <trkpt lat="47.21139" lon="-1.55839">
        <ele>53</ele>
        <time>2022-07-14T07:34:42Z</time>
      </trkpt>
      <trkpt lat="47.2114" lon="-1.55857">
        <ele>53</ele>
        <time>2022-07-14T07:34:44Z</time>
      </trkpt>
      <trkpt lat="47.21144" lon="-1.55875">
        <ele>53</ele>
        <time>2022-07-14T07:34:46Z</time>
      </trkpt>
      <trkpt lat="47.21146" lon="-1.55893">
        <ele>54</ele>
        <time>2022-07-14T07:34:48Z</time>
      </trkpt>
      <trkpt lat="47.21139" lon="-1.5591">
        <ele>54</ele>
        <time>2022-07-14T07:34:50Z</time>
      </trkpt>
      <trkpt lat="47.21127" lon="-1.55918">
        <ele>55</ele>
        <time>2022-07-14T07:34:52Z</time>
      </trkpt>
      <trkpt lat="47.21113" lon="-1.55927">
        <ele>54</ele>
        <time>2022-07-14T07:34:54Z</time>
      </trkpt>
      <trkpt lat="47.21101" lon="-1.55937">
        <ele>54</ele>
        <time>2022-07-14T07:34:56Z</time>
      </trkpt>
      <trkpt lat="47.21088" lon="-1.5595">
        <ele>54</ele>
        <time>2022-07-14T07:34:58Z</time>
      </trkpt>
      <trkpt lat="47.21077" lon="-1.55965">
        <ele>54</ele>
        <time>2022-07-14T07:35:00Z</time>
      </trkpt>
      <trkpt lat="47.21067" lon="-1.55982">
        <ele>53</ele>
        <time>2022-07-14T07:35:02Z</time>
      </trkpt>
      <trkpt lat="47.2106" lon="-1.56001">
        <ele>54</ele>
        <time>2022-07-14T07:35:04Z</time>
      </trkpt>
      <trkpt lat="47.21052" lon="-1.56018">
        <ele>54</ele>
        <time>2022-07-14T07:35:06Z</time>
      </trkpt>
      <trkpt lat="47.21044" lon="-1.56036">
        <ele>54</ele>
        <time>2022-07-14T07:35:08Z</time>
      </trkpt>
      <trkpt lat="47.21036" lon="-1.56055">
        <ele>54</ele>
        <time>2022-07-14T07:35:10Z</time>
      </trkpt>
      <trkpt lat="47.21029" lon="-1.56075">
        <ele>53</ele>
        <time>2022-07-14T07:35:12Z</time>
      </trkpt>
      <trkpt lat="47.21021" lon="-1.56093">
        <ele>54</ele>
        <time>2022-07-14T07:35:14Z</time>
      </trkpt>
      <trkpt lat="47.21014" lon="-1.5611">
        <ele>53</ele>
        <time>2022-07-14T07:35:16Z</time>
      </trkpt>
      <trkpt lat="47.21008" lon="-1.56127">
        <ele>53</ele>
        <time>2022-07-14T07:35:18Z</time>
      </trkpt>
      <trkpt lat="47.21001" lon="-1.56143">
        <ele>53</ele>
        <time>2022-07-14T07:35:20Z</time>
      </trkpt>
      <trkpt lat="47.20996" lon="-1.56156">
        <ele>53</ele>
        <time>2022-07-14T07:35:22Z</time>
      </trkpt>
      <trkpt lat="47.20995" lon="-1.5617">
        <ele>53</ele>
        <time>2022-07-14T07:35:27Z</time>
      </trkpt>
      <trkpt lat="47.20984" lon="-1.56173">
        <ele>53</ele>
        <time>2022-07-14T07:35:30Z</time>
      </trkpt>
      <trkpt lat="47.20973" lon="-1.56169">
        <ele>55</ele>
        <time>2022-07-14T07:35:32Z</time>
      </trkpt>
      <trkpt lat="47.2096" lon="-1.56165">
        <ele>56</ele>
        <time>2022-07-14T07:35:34Z</time>
      </trkpt>
      <trkpt lat="47.20948" lon="-1.56162">
        <ele>57</ele>
        <time>2022-07-14T07:35:36Z</time>
      </trkpt>
      <trkpt lat="47.20936" lon="-1.5616">
        <ele>57</ele>
        <time>2022-07-14T07:35:38Z</time>
      </trkpt>
      <trkpt lat="47.20923" lon="-1.56158">
        <ele>57</ele>
        <time>2022-07-14T07:35:40Z</time>
      </trkpt>
      <trkpt lat="47.2091" lon="-1.56155">
        <ele>57</ele>
        <time>2022-07-14T07:35:42Z</time>
      </trkpt>
      <trkpt lat="47.20897" lon="-1.56151">
        <ele>57</ele>
        <time>2022-07-14T07:35:44Z</time>
      </trkpt>
      <trkpt lat="47.20885" lon="-1.56147">
        <ele>57</ele>
        <time>2022-07-14T07:35:46Z</time>
      </trkpt>
      <trkpt lat="47.20873" lon="-1.56146">
        <ele>56</ele>
        <time>2022-07-14T07:35:48Z</time>
      </trkpt>
      <trkpt lat="47.20861" lon="-1.56144">
        <ele>56</ele>
        <time>2022-07-14T07:35:50Z</time>
      </trkpt>
      <trkpt lat="47.20849" lon="-1.5614">
        <ele>55</ele>
        <time>2022-07-14T07:35:52Z</time>
      </trkpt>
      <trkpt lat="47.20837" lon="-1.56144">
        <ele>55</ele>
        <time>2022-07-14T07:35:54Z</time>
      </trkpt>
      <trkpt lat="47.20832" lon="-1.56158">
        <ele>55</ele>
        <time>2022-07-14T07:35:56Z</time>
      </trkpt>
      <trkpt lat="47.20833" lon="-1.56178">
        <ele>54</ele>
        <time>2022-07-14T07:35:58Z</time>
      </trkpt>
      <trkpt lat="47.20832" lon="-1.56199">
        <ele>54</ele>
        <time>2022-07-14T07:36:00Z</time>
      </trkpt>
      <trkpt lat="47.20832" lon="-1.56221">
        <ele>55</ele>
        <time>2022-07-14T07:36:02Z</time>
      </trkpt>
      <trkpt lat="47.20831" lon="-1.56242">
        <ele>54</ele>
        <time>2022-07-14T07:36:04Z</time>
      </trkpt>
      <trkpt lat="47.20831" lon="-1.56264">
        <ele>54</ele>
        <time>2022-07-14T07:36:06Z</time>
      </trkpt>
      <trkpt lat="47.2083" lon="-1.56285">
        <ele>54</ele>
        <time>2022-07-14T07:36:08Z</time>
      </trkpt>
      <trkpt lat="47.20828" lon="-1.56306">
        <ele>54</ele>
        <time>2022-07-14T07:36:10Z</time>
      </trkpt>
      <trkpt lat="47.20824" lon="-1.56326">
        <ele>55</ele>
        <time>2022-07-14T07:36:12Z</time>
      </trkpt>
      <trkpt lat="47.20819" lon="-1.56345">
        <ele>55</ele>
        <time>2022-07-14T07:36:14Z</time>
      </trkpt>
      <trkpt lat="47.20814" lon="-1.56365">
        <ele>54</ele>
        <time>2022-07-14T07:36:16Z</time>
      </trkpt>
      <trkpt lat="47.20809" lon="-1.56384">
        <ele>54</ele>
        <time>2022-07-14T07:36:18Z</time>
      </trkpt>
      <trkpt lat="47.20805" lon="-1.56402">
        <ele>54</ele>
        <time>2022-07-14T07:36:20Z</time>
      </trkpt>
      <trkpt lat="47.208" lon="-1.5642">
        <ele>54</ele>
        <time>2022-07-14T07:36:22Z</time>
      </trkpt>
      <trkpt lat="47.20796" lon="-1.56437">
        <ele>54</ele>
        <time>2022-07-14T07:36:24Z</time>
      </trkpt>
      <trkpt lat="47.20791" lon="-1.56454">
        <ele>54</ele>
        <time>2022-07-14T07:36:26Z</time>
      </trkpt>
      <trkpt lat="47.20786" lon="-1.56471">
        <ele>54</ele>
        <time>2022-07-14T07:36:28Z</time>
      </trkpt>
      <trkpt lat="47.20781" lon="-1.56489">
        <ele>54</ele>
        <time>2022-07-14T07:36:30Z</time>
      </trkpt>
      <trkpt lat="47.20778" lon="-1.56504">
        <ele>54</ele>
        <time>2022-07-14T07:36:32Z</time>
      </trkpt>
      <trkpt lat="47.20773" lon="-1.56516">
        <ele>55</ele>
        <time>2022-07-14T07:36:34Z</time>
      </trkpt>
      <trkpt lat="47.20761" lon="-1.56507">
        <ele>56</ele>
        <time>2022-07-14T07:36:37Z</time>
      </trkpt>
      <trkpt lat="47.20752" lon="-1.56499">
        <ele>56</ele>
        <time>2022-07-14T07:36:39Z</time>
      </trkpt>
      <trkpt lat="47.20744" lon="-1.56492">
        <ele>57</ele>
        <time>2022-07-14T07:36:41Z</time>
      </trkpt>
      <trkpt lat="47.20735" lon="-1.56498">
        <ele>57</ele>
        <time>2022-07-14T07:36:44Z</time>
      </trkpt>
      <trkpt lat="47.2073" lon="-1.56511">
        <ele>56</ele>
        <time>2022-07-14T07:36:47Z</time>
      </trkpt>
      <trkpt lat="47.20726" lon="-1.56527">
        <ele>58</ele>
        <time>2022-07-14T07:36:50Z</time>
      </trkpt>
      <trkpt lat="47.20719" lon="-1.5654">
        <ele>57</ele>
        <time>2022-07-14T07:36:52Z</time>
      </trkpt>
      <trkpt lat="47.20712" lon="-1.56554">
        <ele>57</ele>
        <time>2022-07-14T07:36:54Z</time>
      </trkpt>
      <trkpt lat="47.20704" lon="-1.56565">
        <ele>57</ele>
        <time>2022-07-14T07:36:56Z</time>
      </trkpt>
      <trkpt lat="47.20693" lon="-1.56569">
        <ele>56</ele>
        <time>2022-07-14T07:36:58Z</time>
      </trkpt>
      <trkpt lat="47.20682" lon="-1.56578">
        <ele>56</ele>
        <time>2022-07-14T07:37:00Z</time>
      </trkpt>
      <trkpt lat="47.20672" lon="-1.56588">
        <ele>55</ele>
        <time>2022-07-14T07:37:02Z</time>
      </trkpt>
      <trkpt lat="47.20661" lon="-1.56597">
        <ele>55</ele>
        <time>2022-07-14T07:37:04Z</time>
      </trkpt>
      <trkpt lat="47.20651" lon="-1.56606">
        <ele>55</ele>
        <time>2022-07-14T07:37:06Z</time>
      </trkpt>
      <trkpt lat="47.2064" lon="-1.56615">
        <ele>54</ele>
        <time>2022-07-14T07:37:08Z</time>
      </trkpt>
      <trkpt lat="47.20629" lon="-1.56621">
        <ele>54</ele>
        <time>2022-07-14T07:37:10Z</time>
      </trkpt>
      <trkpt lat="47.20619" lon="-1.56626">
        <ele>54</ele>
        <time>2022-07-14T07:37:12Z</time>
      </trkpt>
      <trkpt lat="47.20609" lon="-1.5663">
        <ele>54</ele>
        <time>2022-07-14T07:37:14Z</time>
      </trkpt>
      <trkpt lat="47.20598" lon="-1.56635">
        <ele>54</ele>
        <time>2022-07-14T07:37:16Z</time>
      </trkpt>
      <trkpt lat="47.20587" lon="-1.5664">
        <ele>54</ele>
        <time>2022-07-14T07:37:18Z</time>
      </trkpt>
      <trkpt lat="47.20577" lon="-1.56649">
        <ele>54</ele>
        <time>2022-07-14T07:37:20Z</time>
      </trkpt>
      <trkpt lat="47.2057" lon="-1.56662">
        <ele>53</ele>
        <time>2022-07-14T07:37:22Z</time>
      </trkpt>
      <trkpt lat="47.20564" lon="-1.56677">
        <ele>53</ele>
        <time>2022-07-14T07:37:24Z</time>
      </trkpt>
      <trkpt lat="47.2056" lon="-1.56692">
        <ele>52</ele>
        <time>2022-07-14T07:37:26Z</time>
      </trkpt>
      <trkpt lat="47.20557" lon="-1.56709">
        <ele>52</ele>
        <time>2022-07-14T07:37:28Z</time>
      </trkpt>
      <trkpt lat="47.20556" lon="-1.56727">
        <ele>52</ele>
        <time>2022-07-14T07:37:30Z</time>
      </trkpt>
      <trkpt lat="47.20554" lon="-1.56744">
        <ele>53</ele>
        <time>2022-07-14T07:37:32Z</time>
      </trkpt>
      <trkpt lat="47.2055" lon="-1.56761">
        <ele>53</ele>
        <time>2022-07-14T07:37:34Z</time>
      </trkpt>
      <trkpt lat="47.20547" lon="-1.56777">
        <ele>53</ele>
        <time>2022-07-14T07:37:36Z</time>
      </trkpt>
      <trkpt lat="47.20544" lon="-1.56795">
        <ele>53</ele>
        <time>2022-07-14T07:37:38Z</time>
      </trkpt>
      <trkpt lat="47.20541" lon="-1.56812">
        <ele>53</ele>
        <time>2022-07-14T07:37:40Z</time>
      </trkpt>
      <trkpt lat="47.20537" lon="-1.56829">
        <ele>54</ele>
        <time>2022-07-14T07:37:42Z</time>
      </trkpt>
      <trkpt lat="47.20534" lon="-1.56846">
        <ele>54</ele>
        <time>2022-07-14T07:37:44Z</time>
      </trkpt>
      <trkpt lat="47.20531" lon="-1.56863">
        <ele>55</ele>
        <time>2022-07-14T07:37:46Z</time>
      </trkpt>
      <trkpt lat="47.20528" lon="-1.56876">
        <ele>57</ele>
        <time>2022-07-14T07:37:48Z</time>
      </trkpt>
      <trkpt lat="47.20517" lon="-1.56873">
        <ele>58</ele>
        <time>2022-07-14T07:37:50Z</time>
      </trkpt>
      <trkpt lat="47.20506" lon="-1.56871">
        <ele>58</ele>
        <time>2022-07-14T07:37:52Z</time>
      </trkpt>
      <trkpt lat="47.20497" lon="-1.56878">
        <ele>58</ele>
        <time>2022-07-14T07:37:54Z</time>
      </trkpt>
      <trkpt lat="47.20493" lon="-1.56893">
        <ele>58</ele>
        <time>2022-07-14T07:37:56Z</time>
      </trkpt>
      <trkpt lat="47.20489" lon="-1.5691">
        <ele>57</ele>
        <time>2022-07-14T07:37:58Z</time>
      </trkpt>
      <trkpt lat="47.20485" lon="-1.56926">
        <ele>57</ele>
        <time>2022-07-14T07:38:00Z</time>
      </trkpt>
      <trkpt lat="47.2048" lon="-1.56943">
        <ele>57</ele>
        <time>2022-07-14T07:38:02Z</time>
      </trkpt>
      <trkpt lat="47.20476" lon="-1.5696">
        <ele>57</ele>
        <time>2022-07-14T07:38:04Z</time>
      </trkpt>
      <trkpt lat="47.20472" lon="-1.56977">
        <ele>57</ele>
        <time>2022-07-14T07:38:06Z</time>
      </trkpt>
      <trkpt lat="47.20469" lon="-1.56995">
        <ele>56</ele>
        <time>2022-07-14T07:38:08Z</time>
      </trkpt>
      <trkpt lat="47.20466" lon="-1.57013">
        <ele>56</ele>
        <time>2022-07-14T07:38:10Z</time>
      </trkpt>
      <trkpt lat="47.20461" lon="-1.57031">
        <ele>56</ele>
        <time>2022-07-14T07:38:12Z</time>
      </trkpt>
      <trkpt lat="47.20457" lon="-1.57049">
        <ele>55</ele>
        <time>2022-07-14T07:38:14Z</time>
      </trkpt>
      <trkpt lat="47.20453" lon="-1.57067">
        <ele>54</ele>
        <time>2022-07-14T07:38:16Z</time>
      </trkpt>
      <trkpt lat="47.20449" lon="-1.57085">
        <ele>54</ele>
        <time>2022-07-14T07:38:18Z</time>
      </trkpt>
      <trkpt lat="47.20442" lon="-1.57102">
        <ele>55</ele>
        <time>2022-07-14T07:38:20Z</time>
      </trkpt>
      <trkpt lat="47.20432" lon="-1.57116">
        <ele>55</ele>
        <time>2022-07-14T07:38:22Z</time>
      </trkpt>
      <trkpt lat="47.2042" lon="-1.57128">
        <ele>54</ele>
        <time>2022-07-14T07:38:24Z</time>
      </trkpt>
      <trkpt lat="47.20411" lon="-1.57141">
        <ele>54</ele>
        <time>2022-07-14T07:38:26Z</time>
      </trkpt>
      <trkpt lat="47.20399" lon="-1.57151">
        <ele>54</ele>
        <time>2022-07-14T07:38:28Z</time>
      </trkpt>
      <trkpt lat="47.20386" lon="-1.57159">
        <ele>54</ele>
        <time>2022-07-14T07:38:30Z</time>
      </trkpt>
      <trkpt lat="47.20374" lon="-1.57168">
        <ele>54</ele>
        <time>2022-07-14T07:38:32Z</time>
      </trkpt>
      <trkpt lat="47.20361" lon="-1.57175">
        <ele>55</ele>
        <time>2022-07-14T07:38:34Z</time>
      </trkpt>
      <trkpt lat="47.20347" lon="-1.57178">
        <ele>54</ele>
        <time>2022-07-14T07:38:36Z</time>
      </trkpt>
      <trkpt lat="47.20335" lon="-1.57182">
        <ele>55</ele>
        <time>2022-07-14T07:38:38Z</time>
      </trkpt>
      <trkpt lat="47.20323" lon="-1.57189">
        <ele>54</ele>
        <time>2022-07-14T07:38:40Z</time>
      </trkpt>
      <trkpt lat="47.20311" lon="-1.57195">
        <ele>54</ele>
        <time>2022-07-14T07:38:42Z</time>
      </trkpt>
      <trkpt lat="47.203" lon="-1.57203">
        <ele>55</ele>
        <time>2022-07-14T07:38:44Z</time>
      </trkpt>
      <trkpt lat="47.20288" lon="-1.57212">
        <ele>54</ele>
        <time>2022-07-14T07:38:46Z</time>
      </trkpt>
      <trkpt lat="47.20276" lon="-1.57217">
        <ele>54</ele>
        <time>2022-07-14T07:38:48Z</time>
      </trkpt>
      <trkpt lat="47.20262" lon="-1.57216">
        <ele>54</ele>
        <time>2022-07-14T07:38:50Z</time>
      </trkpt>
      <trkpt lat="47.20248" lon="-1.57217">
        <ele>55</ele>
        <time>2022-07-14T07:38:52Z</time>
      </trkpt>
      <trkpt lat="47.20236" lon="-1.57213">
        <ele>55</ele>
        <time>2022-07-14T07:38:54Z</time>
      </trkpt>
      <trkpt lat="47.20227" lon="-1.572">
        <ele>55</ele>
        <time>2022-07-14T07:38:56Z</time>
      </trkpt>
      <trkpt lat="47.20221" lon="-1.57187">
        <ele>55</ele>
        <time>2022-07-14T07:38:58Z</time>
      </trkpt>
      <trkpt lat="47.20211" lon="-1.57186">
        <ele>55</ele>
        <time>2022-07-14T07:39:00Z</time>
      </trkpt>
      <trkpt lat="47.202" lon="-1.57194">
        <ele>55</ele>
        <time>2022-07-14T07:39:02Z</time>
      </trkpt>
      <trkpt lat="47.20188" lon="-1.57203">
        <ele>54</ele>
        <time>2022-07-14T07:39:04Z</time>
      </trkpt>
      <trkpt lat="47.20175" lon="-1.57211">
        <ele>54</ele>
        <time>2022-07-14T07:39:06Z</time>
      </trkpt>
      <trkpt lat="47.20163" lon="-1.5722">
        <ele>54</ele>
        <time>2022-07-14T07:39:08Z</time>
      </trkpt>
      <trkpt lat="47.2015" lon="-1.57228">
        <ele>54</ele>
        <time>2022-07-14T07:39:10Z</time>
      </trkpt>
      <trkpt lat="47.20137" lon="-1.57237">
        <ele>54</ele>
        <time>2022-07-14T07:39:12Z</time>
      </trkpt>
      <trkpt lat="47.20125" lon="-1.57246">
        <ele>54</ele>
        <time>2022-07-14T07:39:14Z</time>
      </trkpt>
      <trkpt lat="47.20112" lon="-1.57254">
        <ele>54</ele>
        <time>2022-07-14T07:39:16Z</time>
      </trkpt>
      <trkpt lat="47.20101" lon="-1.57262">
        <ele>54</ele>
        <time>2022-07-14T07:39:18Z</time>
      </trkpt>
      <trkpt lat="47.20089" lon="-1.5727">
        <ele>55</ele>
        <time>2022-07-14T07:39:20Z</time>
      </trkpt>
      <trkpt lat="47.20077" lon="-1.57279">
        <ele>55</ele>
        <time>2022-07-14T07:39:22Z</time>
      </trkpt>
      <trkpt lat="47.20065" lon="-1.57289">
        <ele>54</ele>
        <time>2022-07-14T07:39:24Z</time>
      </trkpt>
      <trkpt lat="47.20054" lon="-1.57299">
        <ele>55</ele>
        <time>2022-07-14T07:39:26Z</time>
      </trkpt>
      <trkpt lat="47.20042" lon="-1.57308">
        <ele>54</ele>
        <time>2022-07-14T07:39:28Z</time>
      </trkpt>
      <trkpt lat="47.20029" lon="-1.57317">
        <ele>54</ele>
        <time>2022-07-14T07:39:30Z</time>
      </trkpt>
      <trkpt lat="47.20017" lon="-1.57325">
        <ele>55</ele>
        <time>2022-07-14T07:39:32Z</time>
      </trkpt>
      <trkpt lat="47.20006" lon="-1.57333">
        <ele>55</ele>
        <time>2022-07-14T07:39:34Z</time>
      </trkpt>
      <trkpt lat="47.19994" lon="-1.57339">
        <ele>55</ele>
        <time>2022-07-14T07:39:36Z</time>
      </trkpt>
      <trkpt lat="47.19985" lon="-1.57331">
        <ele>55</ele>
        <time>2022-07-14T07:39:38Z</time>
      </trkpt>
      <trkpt lat="47.1998" lon="-1.57313">
        <ele>56</ele>
        <time>2022-07-14T07:39:40Z</time>
      </trkpt>
      <trkpt lat="47.19979" lon="-1.57295">
        <ele>56</ele>
        <time>2022-07-14T07:39:42Z</time>
      </trkpt>
      <trkpt lat="47.19978" lon="-1.57276">
        <ele>56</ele>
        <time>2022-07-14T07:39:44Z</time>
      </trkpt>
      <trkpt lat="47.19978" lon="-1.57258">
        <ele>57</ele>
        <time>2022-07-14T07:39:46Z</time>
      </trkpt>
      <trkpt lat="47.19978" lon="-1.57239">
        <ele>56</ele>
        <time>2022-07-14T07:39:48Z</time>
      </trkpt>
      <trkpt lat="47.19978" lon="-1.5722">
        <ele>56</ele>
        <time>2022-07-14T07:39:50Z</time>
      </trkpt>
      <trkpt lat="47.19978" lon="-1.57201">
        <ele>55</ele>
        <time>2022-07-14T07:39:52Z</time>
      </trkpt>
      <trkpt lat="47.19978" lon="-1.57182">
        <ele>55</ele>
        <time>2022-07-14T07:39:54Z</time>
      </trkpt>
      <trkpt lat="47.19977" lon="-1.57163">
        <ele>54</ele>
        <time>2022-07-14T07:39:56Z</time>
      </trkpt>
      <trkpt lat="47.19976" lon="-1.57144">
        <ele>54</ele>
        <time>2022-07-14T07:39:58Z</time>
      </trkpt>
      <trkpt lat="47.19973" lon="-1.57125">
        <ele>54</ele>
        <time>2022-07-14T07:40:00Z</time>
      </trkpt>
      <trkpt lat="47.19968" lon="-1.57108">
        <ele>54</ele>
        <time>2022-07-14T07:40:02Z</time>
      </trkpt>
      <trkpt lat="47.19964" lon="-1.5709">
        <ele>54</ele>
        <time>2022-07-14T07:40:04Z</time>
      </trkpt>
      <trkpt lat="47.1996" lon="-1.57072">
        <ele>54</ele>
        <time>2022-07-14T07:40:06Z</time>
      </trkpt>
      <trkpt lat="47.19956" lon="-1.57055">
        <ele>54</ele>
        <time>2022-07-14T07:40:08Z</time>
      </trkpt>
      <trkpt lat="47.19951" lon="-1.57039">
        <ele>55</ele>
        <time>2022-07-14T07:40:10Z</time>
      </trkpt>
      <trkpt lat="47.19949" lon="-1.5702">
        <ele>55</ele>
        <time>2022-07-14T07:40:12Z</time>
      </trkpt>
      <trkpt lat="47.19949" lon="-1.57001">
        <ele>55</ele>
        <time>2022-07-14T07:40:14Z</time>
      </trkpt>
      <trkpt lat="47.19949" lon="-1.56983">
        <ele>55</ele>
        <time>2022-07-14T07:40:16Z</time>
      </trkpt>
      <trkpt lat="47.19949" lon="-1.56964">
        <ele>55</ele>
        <time>2022-07-14T07:40:18Z</time>
      </trkpt>
      <trkpt lat="47.19949" lon="-1.56945">
        <ele>55</ele>
        <time>2022-07-14T07:40:20Z</time>
      </trkpt>
      <trkpt lat="47.19949" lon="-1.56927">
        <ele>55</ele>
        <time>2022-07-14T07:40:22Z</time>
      </trkpt>
      <trkpt lat="47.19949" lon="-1.56908">
        <ele>55</ele>
        <time>2022-07-14T07:40:24Z</time>
      </trkpt>
      <trkpt lat="47.19949" lon="-1.56889">
        <ele>55</ele>
        <time>2022-07-14T07:40:26Z</time>
      </trkpt>
      <trkpt lat="47.19949" lon="-1.5687">
        <ele>55</ele>
        <time>2022-07-14T07:40:28Z</time>
      </trkpt>
      <trkpt lat="47.19949" lon="-1.56852">
        <ele>54</ele>
        <time>2022-07-14T07:40:30Z</time>
      </trkpt>
      <trkpt lat="47.19949" lon="-1.56833">
        <ele>54</ele>
        <time>2022-07-14T07:40:32Z</time>
      </trkpt>
      <trkpt lat="47.19949" lon="-1.56814">
        <ele>54</ele>
        <time>2022-07-14T07:40:34Z</time>
      </trkpt>
      <trkpt lat="47.1995" lon="-1.56795">
        <ele>54</ele>
        <time>2022-07-14T07:40:36Z</time>
      </trkpt>
      <trkpt lat="47.1995" lon="-1.56776">
        <ele>54</ele>
        <time>2022-07-14T07:40:38Z</time>
      </trkpt>
      <trkpt lat="47.1995" lon="-1.56757">
        <ele>54</ele>
        <time>2022-07-14T07:40:40Z</time>
      </trkpt>
      <trkpt lat="47.1995" lon="-1.56738">
        <ele>54</ele>
        <time>2022-07-14T07:40:42Z</time>
      </trkpt>
      <trkpt lat="47.1995" lon="-1.56719">
        <ele>54</ele>
        <time>2022-07-14T07:40:44Z</time>
      </trkpt>
      <trkpt lat="47.1995" lon="-1.56701">
        <ele>54</ele>
        <time>2022-07-14T07:40:46Z</time>
      </trkpt>
      <trkpt lat="47.19951" lon="-1.56683">
        <ele>54</ele>
        <time>2022-07-14T07:40:48Z</time>
      </trkpt>
      <trkpt lat="47.19951" lon="-1.56664">
        <ele>54</ele>
        <time>2022-07-14T07:40:50Z</time>
      </trkpt>
      <trkpt lat="47.1995" lon="-1.56646">
        <ele>55</ele>
        <time>2022-07-14T07:40:52Z</time>
      </trkpt>
      <trkpt lat="47.1995" lon="-1.56628">
        <ele>55</ele>
        <time>2022-07-14T07:40:54Z</time>
      </trkpt>
      <trkpt lat="47.1995" lon="-1.5661">
        <ele>55</ele>
        <time>2022-07-14T07:40:56Z</time>
      </trkpt>
      <trkpt lat="47.1995" lon="-1.56592">
        <ele>55</ele>
        <time>2022-07-14T07:40:58Z</time>
      </trkpt>
      <trkpt lat="47.1995" lon="-1.56574">
        <ele>55</ele>
        <time>2022-07-14T07:41:00Z</time>
      </trkpt>
      <trkpt lat="47.1995" lon="-1.56556">
        <ele>55</ele>
        <time>2022-07-14T07:41:02Z</time>
      </trkpt>
      <trkpt lat="47.1995" lon="-1.56538">
        <ele>55</ele>
        <time>2022-07-14T07:41:04Z</time>
      </trkpt>
      <trkpt lat="47.19951" lon="-1.5652">
        <ele>55</ele>
        <time>2022-07-14T07:41:06Z</time>
      </trkpt>
      <trkpt lat="47.19951" lon="-1.56502">
        <ele>55</ele>
        <time>2022-07-14T07:41:08Z</time>
      </trkpt>
      <trkpt lat="47.19952" lon="-1.56485">
        <ele>54</ele>
        <time>2022-07-14T07:41:10Z</time>
      </trkpt>
      <trkpt lat="47.19954" lon="-1.56467">
        <ele>54</ele>
        <time>2022-07-14T07:41:12Z</time>
      </trkpt>
      <trkpt lat="47.19957" lon="-1.56449">
        <ele>54</ele>
        <time>2022-07-14T07:41:14Z</time>
      </trkpt>
      <trkpt lat="47.19961" lon="-1.56432">
        <ele>54</ele>
        <time>2022-07-14T07:41:16Z</time>
      </trkpt>
      <trkpt lat="47.19965" lon="-1.56415">
        <ele>53</ele>
        <time>2022-07-14T07:41:18Z</time>
      </trkpt>
      <trkpt lat="47.19968" lon="-1.56398">
        <ele>53</ele>
        <time>2022-07-14T07:41:20Z</time>
      </trkpt>
      <trkpt lat="47.19969" lon="-1.5638">
        <ele>53</ele>
        <time>2022-07-14T07:41:22Z</time>
      </trkpt>
      <trkpt lat="47.1997" lon="-1.56363">
        <ele>53</ele>
        <time>2022-07-14T07:41:24Z</time>
      </trkpt>
      <trkpt lat="47.19971" lon="-1.56346">
        <ele>53</ele>
        <time>2022-07-14T07:41:26Z</time>
      </trkpt>
      <trkpt lat="47.19973" lon="-1.56329">
        <ele>53</ele>
        <time>2022-07-14T07:41:28Z</time>
      </trkpt>
      <trkpt lat="47.19974" lon="-1.56313">
        <ele>53</ele>
        <time>2022-07-14T07:41:30Z</time>
      </trkpt>
      <trkpt lat="47.19975" lon="-1.56296">
        <ele>53</ele>
        <time>2022-07-14T07:41:32Z</time>
      </trkpt>
      <trkpt lat="47.19976" lon="-1.56279">
        <ele>53</ele>
        <time>2022-07-14T07:41:34Z</time>
      </trkpt>
      <trkpt lat="47.19976" lon="-1.56263">
        <ele>53</ele>
        <time>2022-07-14T07:41:36Z</time>
      </trkpt>
      <trkpt lat="47.19976" lon="-1.56246">
        <ele>54</ele>
        <time>2022-07-14T07:41:38Z</time>
      </trkpt>
      <trkpt lat="47.19976" lon="-1.5623">
        <ele>54</ele>
        <time>2022-07-14T07:41:40Z</time>
      </trkpt>
      <trkpt lat="47.19976" lon="-1.56214">
        <ele>54</ele>
        <time>2022-07-14T07:41:42Z</time>
      </trkpt>
      <trkpt lat="47.19976" lon="-1.56198">
        <ele>55</ele>
        <time>2022-07-14T07:41:44Z</time>
      </trkpt>
      <trkpt lat="47.19975" lon="-1.56182">
        <ele>55</ele>
        <time>2022-07-14T07:41:46Z</time>
      </trkpt>
      <trkpt lat="47.19972" lon="-1.5617">
        <ele>56</ele>
        <time>2022-07-14T07:41:48Z</time>
      </trkpt>
      <trkpt lat="47.19963" lon="-1.56164">
        <ele>57</ele>
        <time>2022-07-14T07:41:50Z</time>
      </trkpt>
      <trkpt lat="47.19952" lon="-1.56167">
        <ele>57</ele>
        <time>2022-07-14T07:41:52Z</time>
      </trkpt>
      <trkpt lat="47.19941" lon="-1.5617">
        <ele>59</ele>
        <time>2022-07-14T07:41:54Z</time>
      </trkpt>
      <trkpt lat="47.19929" lon="-1.56173">
        <ele>60</ele>
        <time>2022-07-14T07:41:56Z</time>
      </trkpt>
      <trkpt lat="47.19919" lon="-1.56174">
        <ele>60</ele>
        <time>2022-07-14T07:41:58Z</time>
      </trkpt>
      <trkpt lat="47.19908" lon="-1.56175">
        <ele>61</ele>
        <time>2022-07-14T07:42:00Z</time>
      </trkpt>
      <trkpt lat="47.19897" lon="-1.56177">
        <ele>61</ele>
        <time>2022-07-14T07:42:02Z</time>
      </trkpt>
      <trkpt lat="47.19886" lon="-1.56179">
        <ele>62</ele>
        <time>2022-07-14T07:42:04Z</time>
      </trkpt>
      <trkpt lat="47.19874" lon="-1.5618">
        <ele>62</ele>
        <time>2022-07-14T07:42:06Z</time>
      </trkpt>
      <trkpt lat="47.19862" lon="-1.56183">
        <ele>62</ele>
        <time>2022-07-14T07:42:08Z</time>
      </trkpt>
      <trkpt lat="47.19851" lon="-1.56185">
        <ele>62</ele>
        <time>2022-07-14T07:42:10Z</time>
      </trkpt>
      <trkpt lat="47.1984" lon="-1.56187">
        <ele>62</ele>
        <time>2022-07-14T07:42:12Z</time>
      </trkpt>
      <trkpt lat="47.19829" lon="-1.56189">
        <ele>62</ele>
        <time>2022-07-14T07:42:14Z</time>
      </trkpt>
      <trkpt lat="47.19817" lon="-1.56191">
        <ele>62</ele>
        <time>2022-07-14T07:42:16Z</time>
      </trkpt>
      <trkpt lat="47.19806" lon="-1.56194">
        <ele>61</ele>
        <time>2022-07-14T07:42:18Z</time>
      </trkpt>
      <trkpt lat="47.19794" lon="-1.56196">
        <ele>61</ele>
        <time>2022-07-14T07:42:20Z</time>
      </trkpt>
      <trkpt lat="47.19782" lon="-1.56198">
        <ele>61</ele>
        <time>2022-07-14T07:42:22Z</time>
      </trkpt>
      <trkpt lat="47.1977" lon="-1.56201">
        <ele>61</ele>
        <time>2022-07-14T07:42:24Z</time>
      </trkpt>
      <trkpt lat="47.19756" lon="-1.56204">
        <ele>61</ele>
        <time>2022-07-14T07:42:26Z</time>
      </trkpt>
      <trkpt lat="47.19742" lon="-1.56206">
        <ele>60</ele>
        <time>2022-07-14T07:42:28Z</time>
      </trkpt>
      <trkpt lat="47.19728" lon="-1.56209">
        <ele>60</ele>
        <time>2022-07-14T07:42:30Z</time>
      </trkpt>
      <trkpt lat="47.19712" lon="-1.56212">
        <ele>59</ele>
        <time>2022-07-14T07:42:32Z</time>
      </trkpt>
      <trkpt lat="47.19695" lon="-1.56215">
        <ele>58</ele>
        <time>2022-07-14T07:42:34Z</time>
      </trkpt>
      <trkpt lat="47.19677" lon="-1.56219">
        <ele>57</ele>
        <time>2022-07-14T07:42:36Z</time>
      </trkpt>
      <trkpt lat="47.19667" lon="-1.56223">
        <ele>57</ele>
        <time>2022-07-14T07:42:37Z</time>
      </trkpt>
      <trkpt lat="47.19658" lon="-1.56226">
        <ele>56</ele>
        <time>2022-07-14T07:42:38Z</time>
      </trkpt>
      <trkpt lat="47.19642" lon="-1.56233">
        <ele>55</ele>
        <time>2022-07-14T07:42:40Z</time>
      </trkpt>
      <trkpt lat="47.19633" lon="-1.56253">
        <ele>54</ele>
        <time>2022-07-14T07:42:42Z</time>
      </trkpt>
      <trkpt lat="47.19631" lon="-1.56275">
        <ele>53</ele>
        <time>2022-07-14T07:42:44Z</time>
      </trkpt>
      <trkpt lat="47.1963" lon="-1.56297">
        <ele>53</ele>
        <time>2022-07-14T07:42:46Z</time>
      </trkpt>
      <trkpt lat="47.1963" lon="-1.56319">
        <ele>53</ele>
        <time>2022-07-14T07:42:48Z</time>
      </trkpt>
      <trkpt lat="47.19629" lon="-1.56341">
        <ele>52</ele>
        <time>2022-07-14T07:42:50Z</time>
      </trkpt>
      <trkpt lat="47.19629" lon="-1.56362">
        <ele>52</ele>
        <time>2022-07-14T07:42:52Z</time>
      </trkpt>
      <trkpt lat="47.19629" lon="-1.56384">
        <ele>53</ele>
        <time>2022-07-14T07:42:54Z</time>
      </trkpt>
      <trkpt lat="47.1963" lon="-1.56406">
        <ele>53</ele>
        <time>2022-07-14T07:42:56Z</time>
      </trkpt>
      <trkpt lat="47.19631" lon="-1.56427">
        <ele>52</ele>
        <time>2022-07-14T07:42:58Z</time>
      </trkpt>
      <trkpt lat="47.19631" lon="-1.56448">
        <ele>52</ele>
        <time>2022-07-14T07:43:00Z</time>
      </trkpt>
      <trkpt lat="47.19632" lon="-1.56469">
        <ele>53</ele>
        <time>2022-07-14T07:43:02Z</time>
      </trkpt>
      <trkpt lat="47.19633" lon="-1.56489">
        <ele>53</ele>
        <time>2022-07-14T07:43:04Z</time>
      </trkpt>
      <trkpt lat="47.19633" lon="-1.5651">
        <ele>53</ele>
        <time>2022-07-14T07:43:06Z</time>
      </trkpt>
      <trkpt lat="47.19631" lon="-1.5653">
        <ele>53</ele>
        <time>2022-07-14T07:43:08Z</time>
      </trkpt>
      <trkpt lat="47.1963" lon="-1.56551">
        <ele>54</ele>
        <time>2022-07-14T07:43:10Z</time>
      </trkpt>
      <trkpt lat="47.1963" lon="-1.56572">
        <ele>55</ele>
        <time>2022-07-14T07:43:12Z</time>
      </trkpt>
      <trkpt lat="47.1963" lon="-1.56594">
        <ele>56</ele>
        <time>2022-07-14T07:43:14Z</time>
      </trkpt>
      <trkpt lat="47.19629" lon="-1.56615">
        <ele>56</ele>
        <time>2022-07-14T07:43:16Z</time>
      </trkpt>
      <trkpt lat="47.19629" lon="-1.56636">
        <ele>57</ele>
        <time>2022-07-14T07:43:18Z</time>
      </trkpt>
      <trkpt lat="47.19627" lon="-1.56656">
        <ele>58</ele>
        <time>2022-07-14T07:43:20Z</time>
      </trkpt>
      <trkpt lat="47.19626" lon="-1.56677">
        <ele>59</ele>
        <time>2022-07-14T07:43:22Z</time>
      </trkpt>
      <trkpt lat="47.19625" lon="-1.56697">
        <ele>59</ele>
        <time>2022-07-14T07:43:24Z</time>
      </trkpt>
      <trkpt lat="47.19624" lon="-1.56717">
        <ele>59</ele>
        <time>2022-07-14T07:43:26Z</time>
      </trkpt>
      <trkpt lat="47.19623" lon="-1.56737">
        <ele>59</ele>
        <time>2022-07-14T07:43:28Z</time>
      </trkpt>
      <trkpt lat="47.19621" lon="-1.56756">
        <ele>59</ele>
        <time>2022-07-14T07:43:30Z</time>
      </trkpt>
      <trkpt lat="47.19619" lon="-1.56775">
        <ele>58</ele>
        <time>2022-07-14T07:43:32Z</time>
      </trkpt>
      <trkpt lat="47.19617" lon="-1.56796">
        <ele>57</ele>
        <time>2022-07-14T07:43:34Z</time>
      </trkpt>
      <trkpt lat="47.19615" lon="-1.56816">
        <ele>57</ele>
        <time>2022-07-14T07:43:36Z</time>
      </trkpt>
      <trkpt lat="47.19614" lon="-1.56836">
        <ele>57</ele>
        <time>2022-07-14T07:43:38Z</time>
      </trkpt>
      <trkpt lat="47.19614" lon="-1.56856">
        <ele>57</ele>
        <time>2022-07-14T07:43:40Z</time>
      </trkpt>
      <trkpt lat="47.19613" lon="-1.56876">
        <ele>57</ele>
        <time>2022-07-14T07:43:42Z</time>
      </trkpt>
      <trkpt lat="47.19611" lon="-1.56896">
        <ele>57</ele>
        <time>2022-07-14T07:43:44Z</time>
      </trkpt>
      <trkpt lat="47.19611" lon="-1.56916">
        <ele>56</ele>
        <time>2022-07-14T07:43:46Z</time>
      </trkpt>
      <trkpt lat="47.19609" lon="-1.56934">
        <ele>56</ele>
        <time>2022-07-14T07:43:48Z</time>
      </trkpt>
      <trkpt lat="47.19608" lon="-1.56954">
        <ele>56</ele>
        <time>2022-07-14T07:43:50Z</time>
      </trkpt>
      <trkpt lat="47.19606" lon="-1.56974">
        <ele>55</ele>
        <time>2022-07-14T07:43:52Z</time>
      </trkpt>
      <trkpt lat="47.19605" lon="-1.56995">
        <ele>54</ele>
        <time>2022-07-14T07:43:54Z</time>
      </trkpt>
      <trkpt lat="47.19604" lon="-1.57015">
        <ele>55</ele>
        <time>2022-07-14T07:43:56Z</time>
      </trkpt>
      <trkpt lat="47.19602" lon="-1.57035">
        <ele>55</ele>
        <time>2022-07-14T07:43:58Z</time>
      </trkpt>
      <trkpt lat="47.19601" lon="-1.57055">
        <ele>55</ele>
        <time>2022-07-14T07:44:00Z</time>
      </trkpt>
      <trkpt lat="47.196" lon="-1.57074">
        <ele>55</ele>
        <time>2022-07-14T07:44:02Z</time>
      </trkpt>
      <trkpt lat="47.19599" lon="-1.57094">
        <ele>55</ele>
        <time>2022-07-14T07:44:04Z</time>
      </trkpt>
      <trkpt lat="47.19597" lon="-1.57113">
        <ele>56</ele>
        <time>2022-07-14T07:44:06Z</time>
      </trkpt>
      <trkpt lat="47.19596" lon="-1.57132">
        <ele>56</ele>
        <time>2022-07-14T07:44:08Z</time>
      </trkpt>
      <trkpt lat="47.19594" lon="-1.5715">
        <ele>55</ele>
        <time>2022-07-14T07:44:10Z</time>
      </trkpt>
      <trkpt lat="47.19592" lon="-1.57169">
        <ele>56</ele>
        <time>2022-07-14T07:44:12Z</time>
      </trkpt>
      <trkpt lat="47.19592" lon="-1.5719">
        <ele>55</ele>
        <time>2022-07-14T07:44:14Z</time>
      </trkpt>
      <trkpt lat="47.19591" lon="-1.5721">
        <ele>55</ele>
        <time>2022-07-14T07:44:16Z</time>
      </trkpt>
      <trkpt lat="47.19589" lon="-1.57229">
        <ele>55</ele>
        <time>2022-07-14T07:44:18Z</time>
      </trkpt>
      <trkpt lat="47.19587" lon="-1.57248">
        <ele>55</ele>
        <time>2022-07-14T07:44:20Z</time>
      </trkpt>
      <trkpt lat="47.19586" lon="-1.57269">
        <ele>55</ele>
        <time>2022-07-14T07:44:22Z</time>
      </trkpt>
      <trkpt lat="47.19585" lon="-1.57289">
        <ele>55</ele>
        <time>2022-07-14T07:44:24Z</time>
      </trkpt>
      <trkpt lat="47.19584" lon="-1.57308">
        <ele>55</ele>
        <time>2022-07-14T07:44:26Z</time>
      </trkpt>
      <trkpt lat="47.19581" lon="-1.57327">
        <ele>55</ele>
        <time>2022-07-14T07:44:28Z</time>
      </trkpt>
      <trkpt lat="47.19578" lon="-1.57346">
        <ele>55</ele>
        <time>2022-07-14T07:44:30Z</time>
      </trkpt>
      <trkpt lat="47.19574" lon="-1.57364">
        <ele>55</ele>
        <time>2022-07-14T07:44:32Z</time>
      </trkpt>
      <trkpt lat="47.1957" lon="-1.57383">
        <ele>55</ele>
        <time>2022-07-14T07:44:34Z</time>
      </trkpt>
      <trkpt lat="47.19566" lon="-1.57402">
        <ele>56</ele>
        <time>2022-07-14T07:44:36Z</time>
      </trkpt>
      <trkpt lat="47.19562" lon="-1.57419">
        <ele>57</ele>
        <time>2022-07-14T07:44:38Z</time>
      </trkpt>
      <trkpt lat="47.19559" lon="-1.57439">
        <ele>57</ele>
        <time>2022-07-14T07:44:40Z</time>
      </trkpt>
      <trkpt lat="47.19556" lon="-1.57458">
        <ele>57</ele>
        <time>2022-07-14T07:44:42Z</time>
      </trkpt>
      <trkpt lat="47.19553" lon="-1.57478">
        <ele>57</ele>
        <time>2022-07-14T07:44:44Z</time>
      </trkpt>
      <trkpt lat="47.19549" lon="-1.57498">
        <ele>57</ele>
        <time>2022-07-14T07:44:46Z</time>
      </trkpt>
      <trkpt lat="47.19544" lon="-1.57518">
        <ele>56</ele>
        <time>2022-07-14T07:44:48Z</time>
      </trkpt>
      <trkpt lat="47.19541" lon="-1.57537">
        <ele>55</ele>
        <time>2022-07-14T07:44:50Z</time>
      </trkpt>
      <trkpt lat="47.19537" lon="-1.57556">
        <ele>55</ele>
        <time>2022-07-14T07:44:52Z</time>
      </trkpt>
      <trkpt lat="47.19533" lon="-1.57574">
        <ele>56</ele>
        <time>2022-07-14T07:44:54Z</time>
      </trkpt>
      <trkpt lat="47.19529" lon="-1.57595">
        <ele>56</ele>
        <time>2022-07-14T07:44:56Z</time>
      </trkpt>
      <trkpt lat="47.19525" lon="-1.57615">
        <ele>55</ele>
        <time>2022-07-14T07:44:58Z</time>
      </trkpt>
      <trkpt lat="47.1952" lon="-1.57634">
        <ele>55</ele>
        <time>2022-07-14T07:45:00Z</time>
      </trkpt>
      <trkpt lat="47.19516" lon="-1.57652">
        <ele>55</ele>
        <time>2022-07-14T07:45:02Z</time>
      </trkpt>
      <trkpt lat="47.19512" lon="-1.57672">
        <ele>54</ele>
        <time>2022-07-14T07:45:04Z</time>
      </trkpt>
      <trkpt lat="47.19509" lon="-1.57692">
        <ele>54</ele>
        <time>2022-07-14T07:45:06Z</time>
      </trkpt>
      <trkpt lat="47.19505" lon="-1.57711">
        <ele>54</ele>
        <time>2022-07-14T07:45:08Z</time>
      </trkpt>
      <trkpt lat="47.19501" lon="-1.5773">
        <ele>54</ele>
        <time>2022-07-14T07:45:10Z</time>
      </trkpt>
      <trkpt lat="47.19497" lon="-1.57749">
        <ele>54</ele>
        <time>2022-07-14T07:45:12Z</time>
      </trkpt>
      <trkpt lat="47.19492" lon="-1.57769">
        <ele>54</ele>
        <time>2022-07-14T07:45:14Z</time>
      </trkpt>
      <trkpt lat="47.19488" lon="-1.57788">
        <ele>54</ele>
        <time>2022-07-14T07:45:16Z</time>
      </trkpt>
      <trkpt lat="47.19483" lon="-1.57807">
        <ele>54</ele>
        <time>2022-07-14T07:45:18Z</time>
      </trkpt>
      <trkpt lat="47.19479" lon="-1.57826">
        <ele>54</ele>
        <time>2022-07-14T07:45:20Z</time>
      </trkpt>
      <trkpt lat="47.19478" lon="-1.57844">
        <ele>54</ele>
        <time>2022-07-14T07:45:22Z</time>
      </trkpt>
      <trkpt lat="47.19476" lon="-1.57864">
        <ele>54</ele>
        <time>2022-07-14T07:45:24Z</time>
      </trkpt>
      <trkpt lat="47.19473" lon="-1.57884">
        <ele>54</ele>
        <time>2022-07-14T07:45:26Z</time>
      </trkpt>
      <trkpt lat="47.1947" lon="-1.57904">
        <ele>54</ele>
        <time>2022-07-14T07:45:28Z</time>
      </trkpt>
      <trkpt lat="47.19467" lon="-1.57926">
        <ele>54</ele>
        <time>2022-07-14T07:45:30Z</time>
      </trkpt>
      <trkpt lat="47.19465" lon="-1.57947">
        <ele>54</ele>
        <time>2022-07-14T07:45:32Z</time>
      </trkpt>
      <trkpt lat="47.19463" lon="-1.57967">
        <ele>54</ele>
        <time>2022-07-14T07:45:34Z</time>
      </trkpt>
      <trkpt lat="47.19462" lon="-1.57986">
        <ele>54</ele>
        <time>2022-07-14T07:45:36Z</time>
      </trkpt>
      <trkpt lat="47.19461" lon="-1.58006">
        <ele>54</ele>
        <time>2022-07-14T07:45:38Z</time>
      </trkpt>
      <trkpt lat="47.19459" lon="-1.58025">
        <ele>54</ele>
        <time>2022-07-14T07:45:40Z</time>
      </trkpt>
      <trkpt lat="47.19457" lon="-1.58043">
        <ele>54</ele>
        <time>2022-07-14T07:45:42Z</time>
      </trkpt>
      <trkpt lat="47.19455" lon="-1.58061">
        <ele>54</ele>
        <time>2022-07-14T07:45:44Z</time>
      </trkpt>
      <trkpt lat="47.19454" lon="-1.58077">
        <ele>54</ele>
        <time>2022-07-14T07:45:46Z</time>
      </trkpt>
      <trkpt lat="47.19449" lon="-1.58092">
        <ele>54</ele>
        <time>2022-07-14T07:45:48Z</time>
      </trkpt>
      <trkpt lat="47.19441" lon="-1.58105">
        <ele>53</ele>
        <time>2022-07-14T07:45:50Z</time>
      </trkpt>
      <trkpt lat="47.19431" lon="-1.58117">
        <ele>53</ele>
        <time>2022-07-14T07:45:52Z</time>
      </trkpt>
      <trkpt lat="47.19421" lon="-1.5813">
        <ele>53</ele>
        <time>2022-07-14T07:45:54Z</time>
      </trkpt>
      <trkpt lat="47.19411" lon="-1.58142">
        <ele>53</ele>
        <time>2022-07-14T07:45:56Z</time>
      </trkpt>
      <trkpt lat="47.19401" lon="-1.58157">
        <ele>53</ele>
        <time>2022-07-14T07:45:58Z</time>
      </trkpt>
      <trkpt lat="47.19393" lon="-1.58173">
        <ele>53</ele>
        <time>2022-07-14T07:46:00Z</time>
      </trkpt>
      <trkpt lat="47.19385" lon="-1.5819">
        <ele>53</ele>
        <time>2022-07-14T07:46:02Z</time>
      </trkpt>
      <trkpt lat="47.19377" lon="-1.58208">
        <ele>54</ele>
        <time>2022-07-14T07:46:04Z</time>
      </trkpt>
      <trkpt lat="47.1937" lon="-1.58228">
        <ele>54</ele>
        <time>2022-07-14T07:46:06Z</time>
      </trkpt>
      <trkpt lat="47.19362" lon="-1.58249">
        <ele>53</ele>
        <time>2022-07-14T07:46:08Z</time>
      </trkpt>
      <trkpt lat="47.19353" lon="-1.58269">
        <ele>54</ele>
        <time>2022-07-14T07:46:10Z</time>
      </trkpt>
      <trkpt lat="47.19341" lon="-1.58285">
        <ele>53</ele>
        <time>2022-07-14T07:46:12Z</time>
      </trkpt>
      <trkpt lat="47.19328" lon="-1.58299">
        <ele>53</ele>
        <time>2022-07-14T07:46:14Z</time>
      </trkpt>
      <trkpt lat="47.19315" lon="-1.58313">
        <ele>53</ele>
        <time>2022-07-14T07:46:16Z</time>
      </trkpt>
      <trkpt lat="47.19303" lon="-1.58324">
        <ele>53</ele>
        <time>2022-07-14T07:46:18Z</time>
      </trkpt>
      <trkpt lat="47.19291" lon="-1.58335">
        <ele>53</ele>
        <time>2022-07-14T07:46:20Z</time>
      </trkpt>
      <trkpt lat="47.19281" lon="-1.58347">
        <ele>52</ele>
        <time>2022-07-14T07:46:22Z</time>
      </trkpt>
      <trkpt lat="47.19269" lon="-1.58356">
        <ele>52</ele>
        <time>2022-07-14T07:46:24Z</time>
      </trkpt>
      <trkpt lat="47.19258" lon="-1.58366">
        <ele>52</ele>
        <time>2022-07-14T07:46:26Z</time>
      </trkpt>
      <trkpt lat="47.19245" lon="-1.58377">
        <ele>51</ele>
        <time>2022-07-14T07:46:28Z</time>
      </trkpt>
      <trkpt lat="47.19231" lon="-1.5839">
        <ele>51</ele>
        <time>2022-07-14T07:46:30Z</time>
      </trkpt>
      <trkpt lat="47.19218" lon="-1.58402">
        <ele>51</ele>
        <time>2022-07-14T07:46:32Z</time>
      </trkpt>
      <trkpt lat="47.19204" lon="-1.58413">
        <ele>51</ele>
        <time>2022-07-14T07:46:34Z</time>
      </trkpt>
      <trkpt lat="47.19191" lon="-1.58425">
        <ele>51</ele>
        <time>2022-07-14T07:46:36Z</time>
      </trkpt>
      <trkpt lat="47.19178" lon="-1.58436">
        <ele>51</ele>
        <time>2022-07-14T07:46:38Z</time>
      </trkpt>
      <trkpt lat="47.19166" lon="-1.58449">
        <ele>51</ele>
        <time>2022-07-14T07:46:40Z</time>
      </trkpt>
      <trkpt lat="47.19156" lon="-1.58459">
        <ele>51</ele>
        <time>2022-07-14T07:46:42Z</time>
      </trkpt>
      <trkpt lat="47.19148" lon="-1.58467">
        <ele>52</ele>
        <time>2022-07-14T07:46:46Z</time>
      </trkpt>
      <trkpt lat="47.19137" lon="-1.58477">
        <ele>51</ele>
        <time>2022-07-14T07:46:50Z</time>
      </trkpt>
      <trkpt lat="47.19128" lon="-1.58488">
        <ele>51</ele>
        <time>2022-07-14T07:46:52Z</time>
      </trkpt>
      <trkpt lat="47.19117" lon="-1.58498">
        <ele>51</ele>
        <time>2022-07-14T07:46:54Z</time>
      </trkpt>
      <trkpt lat="47.19105" lon="-1.58508">
        <ele>51</ele>
        <time>2022-07-14T07:46:56Z</time>
      </trkpt>
      <trkpt lat="47.19093" lon="-1.58519">
        <ele>52</ele>
        <time>2022-07-14T07:46:58Z</time>
      </trkpt>
      <trkpt lat="47.19082" lon="-1.58531">
        <ele>52</ele>
        <time>2022-07-14T07:47:00Z</time>
      </trkpt>
      <trkpt lat="47.19069" lon="-1.58543">
        <ele>52</ele>
        <time>2022-07-14T07:47:02Z</time>
      </trkpt>
      <trkpt lat="47.19057" lon="-1.58555">
        <ele>52</ele>
        <time>2022-07-14T07:47:04Z</time>
      </trkpt>
      <trkpt lat="47.19047" lon="-1.58566">
        <ele>52</ele>
        <time>2022-07-14T07:47:06Z</time>
      </trkpt>
      <trkpt lat="47.19036" lon="-1.58577">
        <ele>52</ele>
        <time>2022-07-14T07:47:08Z</time>
      </trkpt>
      <trkpt lat="47.19025" lon="-1.5859">
        <ele>52</ele>
        <time>2022-07-14T07:47:10Z</time>
      </trkpt>
      <trkpt lat="47.19015" lon="-1.58602">
        <ele>52</ele>
        <time>2022-07-14T07:47:12Z</time>
      </trkpt>
      <trkpt lat="47.19003" lon="-1.58614">
        <ele>52</ele>
        <time>2022-07-14T07:47:14Z</time>
      </trkpt>
      <trkpt lat="47.18992" lon="-1.58625">
        <ele>52</ele>
        <time>2022-07-14T07:47:16Z</time>
      </trkpt>
      <trkpt lat="47.1898" lon="-1.58636">
        <ele>52</ele>
        <time>2022-07-14T07:47:18Z</time>
      </trkpt>
      <trkpt lat="47.18968" lon="-1.58647">
        <ele>52</ele>
        <time>2022-07-14T07:47:20Z</time>
      </trkpt>
      <trkpt lat="47.18956" lon="-1.58658">
        <ele>52</ele>
        <time>2022-07-14T07:47:22Z</time>
      </trkpt>
      <trkpt lat="47.18945" lon="-1.5867">
        <ele>52</ele>
        <time>2022-07-14T07:47:24Z</time>
      </trkpt>
      <trkpt lat="47.18933" lon="-1.58681">
        <ele>51</ele>
        <time>2022-07-14T07:47:26Z</time>
      </trkpt>
      <trkpt lat="47.18922" lon="-1.58692">
        <ele>51</ele>
        <time>2022-07-14T07:47:28Z</time>
      </trkpt>
      <trkpt lat="47.1891" lon="-1.58703">
        <ele>51</ele>
        <time>2022-07-14T07:47:30Z</time>
      </trkpt>
      <trkpt lat="47.18898" lon="-1.58712">
        <ele>52</ele>
        <time>2022-07-14T07:47:32Z</time>
      </trkpt>
      <trkpt lat="47.18886" lon="-1.5872">
        <ele>52</ele>
        <time>2022-07-14T07:47:34Z</time>
      </trkpt>
      <trkpt lat="47.18874" lon="-1.58726">
        <ele>52</ele>
        <time>2022-07-14T07:47:36Z</time>
      </trkpt>
      <trkpt lat="47.18863" lon="-1.58733">
        <ele>53</ele>
        <time>2022-07-14T07:47:38Z</time>
      </trkpt>
      <trkpt lat="47.18851" lon="-1.58738">
        <ele>53</ele>
        <time>2022-07-14T07:47:40Z</time>
      </trkpt>
      <trkpt lat="47.18839" lon="-1.58743">
        <ele>53</ele>
        <time>2022-07-14T07:47:42Z</time>
      </trkpt>
      <trkpt lat="47.18831" lon="-1.58756">
        <ele>53</ele>
        <time>2022-07-14T07:47:44Z</time>
      </trkpt>
      <trkpt lat="47.18828" lon="-1.58773">
        <ele>52</ele>
        <time>2022-07-14T07:47:46Z</time>
      </trkpt>
      <trkpt lat="47.18821" lon="-1.58788">
        <ele>53</ele>
        <time>2022-07-14T07:47:48Z</time>
      </trkpt>
      <trkpt lat="47.18813" lon="-1.58801">
        <ele>53</ele>
        <time>2022-07-14T07:47:50Z</time>
      </trkpt>
      <trkpt lat="47.18802" lon="-1.58809">
        <ele>53</ele>
        <time>2022-07-14T07:47:52Z</time>
      </trkpt>
      <trkpt lat="47.1879" lon="-1.58816">
        <ele>53</ele>
        <time>2022-07-14T07:47:54Z</time>
      </trkpt>
      <trkpt lat="47.18784" lon="-1.58831">
        <ele>53</ele>
        <time>2022-07-14T07:47:56Z</time>
      </trkpt>
      <trkpt lat="47.1878" lon="-1.58848">
        <ele>54</ele>
        <time>2022-07-14T07:47:58Z</time>
      </trkpt>
      <trkpt lat="47.18776" lon="-1.58867">
        <ele>53</ele>
        <time>2022-07-14T07:48:00Z</time>
      </trkpt>
      <trkpt lat="47.18773" lon="-1.58886">
        <ele>53</ele>
        <time>2022-07-14T07:48:02Z</time>
      </trkpt>
      <trkpt lat="47.1877" lon="-1.58905">
        <ele>53</ele>
        <time>2022-07-14T07:48:04Z</time>
      </trkpt>
      <trkpt lat="47.18769" lon="-1.58925">
        <ele>53</ele>
        <time>2022-07-14T07:48:06Z</time>
      </trkpt>
      <trkpt lat="47.18766" lon="-1.58944">
        <ele>53</ele>
        <time>2022-07-14T07:48:08Z</time>
      </trkpt>
      <trkpt lat="47.18764" lon="-1.58963">
        <ele>53</ele>
        <time>2022-07-14T07:48:10Z</time>
      </trkpt>
      <trkpt lat="47.18762" lon="-1.58983">
        <ele>53</ele>
        <time>2022-07-14T07:48:12Z</time>
      </trkpt>
      <trkpt lat="47.1876" lon="-1.59003">
        <ele>53</ele>
        <time>2022-07-14T07:48:14Z</time>
      </trkpt>
      <trkpt lat="47.18757" lon="-1.59024">
        <ele>54</ele>
        <time>2022-07-14T07:48:16Z</time>
      </trkpt>
      <trkpt lat="47.18755" lon="-1.59045">
        <ele>53</ele>
        <time>2022-07-14T07:48:18Z</time>
      </trkpt>
      <trkpt lat="47.18753" lon="-1.59065">
        <ele>54</ele>
        <time>2022-07-14T07:48:20Z</time>
      </trkpt>
      <trkpt lat="47.18751" lon="-1.59086">
        <ele>53</ele>
        <time>2022-07-14T07:48:22Z</time>
      </trkpt>
      <trkpt lat="47.18749" lon="-1.59107">
        <ele>53</ele>
        <time>2022-07-14T07:48:24Z</time>
      </trkpt>
      <trkpt lat="47.18747" lon="-1.59128">
        <ele>54</ele>
        <time>2022-07-14T07:48:26Z</time>
      </trkpt>
      <trkpt lat="47.18744" lon="-1.59148">
        <ele>53</ele>
        <time>2022-07-14T07:48:28Z</time>
      </trkpt>
      <trkpt lat="47.18742" lon="-1.59168">
        <ele>53</ele>
        <time>2022-07-14T07:48:30Z</time>
      </trkpt>
      <trkpt lat="47.1874" lon="-1.59189">
        <ele>53</ele>
        <time>2022-07-14T07:48:32Z</time>
      </trkpt>
      <trkpt lat="47.18738" lon="-1.59209">
        <ele>53</ele>
        <time>2022-07-14T07:48:34Z</time>
      </trkpt>
      <trkpt lat="47.18735" lon="-1.5923">
        <ele>53</ele>
        <time>2022-07-14T07:48:36Z</time>
      </trkpt>
      <trkpt lat="47.18733" lon="-1.59251">
        <ele>53</ele>
        <time>2022-07-14T07:48:38Z</time>
      </trkpt>
      <trkpt lat="47.18731" lon="-1.59271">
        <ele>53</ele>
        <time>2022-07-14T07:48:40Z</time>
      </trkpt>
      <trkpt lat="47.18729" lon="-1.59292">
        <ele>53</ele>
        <time>2022-07-14T07:48:42Z</time>
      </trkpt>
      <trkpt lat="47.18727" lon="-1.59312">
        <ele>53</ele>
        <time>2022-07-14T07:48:44Z</time>
      </trkpt>
      <trkpt lat="47.18725" lon="-1.59334">
        <ele>53</ele>
        <time>2022-07-14T07:48:46Z</time>
      </trkpt>
      <trkpt lat="47.18722" lon="-1.59354">
        <ele>53</ele>
        <time>2022-07-14T07:48:48Z</time>
      </trkpt>
      <trkpt lat="47.1872" lon="-1.59374">
        <ele>53</ele>
        <time>2022-07-14T07:48:50Z</time>
      </trkpt>
      <trkpt lat="47.18718" lon="-1.59395">
        <ele>53</ele>
        <time>2022-07-14T07:48:52Z</time>
      </trkpt>
      <trkpt lat="47.18715" lon="-1.59415">
        <ele>54</ele>
        <time>2022-07-14T07:48:54Z</time>
      </trkpt>
      <trkpt lat="47.18713" lon="-1.59435">
        <ele>53</ele>
        <time>2022-07-14T07:48:56Z</time>
      </trkpt>
      <trkpt lat="47.18711" lon="-1.59456">
        <ele>54</ele>
        <time>2022-07-14T07:48:58Z</time>
      </trkpt>
      <trkpt lat="47.18709" lon="-1.59477">
        <ele>53</ele>
        <time>2022-07-14T07:49:00Z</time>
      </trkpt>
      <trkpt lat="47.18707" lon="-1.59498">
        <ele>53</ele>
        <time>2022-07-14T07:49:02Z</time>
      </trkpt>
      <trkpt lat="47.18705" lon="-1.59519">
        <ele>54</ele>
        <time>2022-07-14T07:49:04Z</time>
      </trkpt>
      <trkpt lat="47.18702" lon="-1.5954">
        <ele>54</ele>
        <time>2022-07-14T07:49:06Z</time>
      </trkpt>
      <trkpt lat="47.187" lon="-1.5956">
        <ele>54</ele>
        <time>2022-07-14T07:49:08Z</time>
      </trkpt>
      <trkpt lat="47.18698" lon="-1.5958">
        <ele>54</ele>
        <time>2022-07-14T07:49:10Z</time>
      </trkpt>
      <trkpt lat="47.18695" lon="-1.596">
        <ele>54</ele>
        <time>2022-07-14T07:49:12Z</time>
      </trkpt>
      <trkpt lat="47.18693" lon="-1.59621">
        <ele>54</ele>
        <time>2022-07-14T07:49:14Z</time>
      </trkpt>
      <trkpt lat="47.1869" lon="-1.59641">
        <ele>54</ele>
        <time>2022-07-14T07:49:16Z</time>
      </trkpt>
      <trkpt lat="47.18687" lon="-1.59662">
        <ele>54</ele>
        <time>2022-07-14T07:49:18Z</time>
      </trkpt>
      <trkpt lat="47.18685" lon="-1.59682">
        <ele>54</ele>
        <time>2022-07-14T07:49:20Z</time>
      </trkpt>
      <trkpt lat="47.18682" lon="-1.59701">
        <ele>53</ele>
        <time>2022-07-14T07:49:22Z</time>
      </trkpt>
      <trkpt lat="47.18681" lon="-1.5972">
        <ele>53</ele>
        <time>2022-07-14T07:49:24Z</time>
      </trkpt>
      <trkpt lat="47.18681" lon="-1.59739">
        <ele>53</ele>
        <time>2022-07-14T07:49:26Z</time>
      </trkpt>
      <trkpt lat="47.1868" lon="-1.5976">
        <ele>53</ele>
        <time>2022-07-14T07:49:28Z</time>
      </trkpt>
      <trkpt lat="47.18681" lon="-1.59781">
        <ele>53</ele>
        <time>2022-07-14T07:49:30Z</time>
      </trkpt>
      <trkpt lat="47.18682" lon="-1.59802">
        <ele>53</ele>
        <time>2022-07-14T07:49:32Z</time>
      </trkpt>
      <trkpt lat="47.18678" lon="-1.59822">
        <ele>54</ele>
        <time>2022-07-14T07:49:34Z</time>
      </trkpt>
      <trkpt lat="47.18669" lon="-1.59837">
        <ele>54</ele>
        <time>2022-07-14T07:49:36Z</time>
      </trkpt>
      <trkpt lat="47.18656" lon="-1.59845">
        <ele>54</ele>
        <time>2022-07-14T07:49:38Z</time>
      </trkpt>
      <trkpt lat="47.18641" lon="-1.59842">
        <ele>54</ele>
        <time>2022-07-14T07:49:40Z</time>
      </trkpt>
      <trkpt lat="47.18629" lon="-1.59833">
        <ele>54</ele>
        <time>2022-07-14T07:49:42Z</time>
      </trkpt>
      <trkpt lat="47.18618" lon="-1.59832">
        <ele>53</ele>
        <time>2022-07-14T07:49:44Z</time>
      </trkpt>
      <trkpt lat="47.18614" lon="-1.59845">
        <ele>53</ele>
        <time>2022-07-14T07:49:46Z</time>
      </trkpt>
      <trkpt lat="47.1862" lon="-1.59859">
        <ele>53</ele>
        <time>2022-07-14T07:49:48Z</time>
      </trkpt>
      <trkpt lat="47.18619" lon="-1.59875">
        <ele>53</ele>
        <time>2022-07-14T07:49:50Z</time>
      </trkpt>
      <trkpt lat="47.18616" lon="-1.59892">
        <ele>53</ele>
        <time>2022-07-14T07:49:52Z</time>
      </trkpt>
      <trkpt lat="47.1861" lon="-1.5991">
        <ele>53</ele>
        <time>2022-07-14T07:49:54Z</time>
      </trkpt>
      <trkpt lat="47.18605" lon="-1.59929">
        <ele>54</ele>
        <time>2022-07-14T07:49:56Z</time>
      </trkpt>
      <trkpt lat="47.18599" lon="-1.59947">
        <ele>54</ele>
        <time>2022-07-14T07:49:58Z</time>
      </trkpt>
      <trkpt lat="47.18594" lon="-1.59966">
        <ele>53</ele>
        <time>2022-07-14T07:50:00Z</time>
      </trkpt>
      <trkpt lat="47.18588" lon="-1.59985">
        <ele>54</ele>
        <time>2022-07-14T07:50:02Z</time>
      </trkpt>
      <trkpt lat="47.18582" lon="-1.60003">
        <ele>54</ele>
        <time>2022-07-14T07:50:04Z</time>
      </trkpt>
      <trkpt lat="47.18572" lon="-1.60031">
        <ele>53</ele>
        <time>2022-07-14T07:50:07Z</time>
      </trkpt>
      <trkpt lat="47.18566" lon="-1.60049">
        <ele>53</ele>
        <time>2022-07-14T07:50:09Z</time>
      </trkpt>
      <trkpt lat="47.18559" lon="-1.60066">
        <ele>53</ele>
        <time>2022-07-14T07:50:11Z</time>
      </trkpt>
      <trkpt lat="47.18552" lon="-1.60083">
        <ele>53</ele>
        <time>2022-07-14T07:50:13Z</time>
      </trkpt>
      <trkpt lat="47.18545" lon="-1.601">
        <ele>53</ele>
        <time>2022-07-14T07:50:15Z</time>
      </trkpt>
      <trkpt lat="47.18535" lon="-1.60125">
        <ele>53</ele>
        <time>2022-07-14T07:50:18Z</time>
      </trkpt>
      <trkpt lat="47.18527" lon="-1.60142">
        <ele>53</ele>
        <time>2022-07-14T07:50:20Z</time>
      </trkpt>
      <trkpt lat="47.1852" lon="-1.60158">
        <ele>53</ele>
        <time>2022-07-14T07:50:22Z</time>
      </trkpt>
      <trkpt lat="47.18513" lon="-1.60175">
        <ele>53</ele>
        <time>2022-07-14T07:50:24Z</time>
      </trkpt>
      <trkpt lat="47.18504" lon="-1.6019">
        <ele>53</ele>
        <time>2022-07-14T07:50:26Z</time>
      </trkpt>
      <trkpt lat="47.18497" lon="-1.60206">
        <ele>54</ele>
        <time>2022-07-14T07:50:28Z</time>
      </trkpt>
      <trkpt lat="47.18489" lon="-1.60222">
        <ele>54</ele>
        <time>2022-07-14T07:50:30Z</time>
      </trkpt>
      <trkpt lat="47.1848" lon="-1.60237">
        <ele>54</ele>
        <time>2022-07-14T07:50:32Z</time>
      </trkpt>
      <trkpt lat="47.18472" lon="-1.60252">
        <ele>54</ele>
        <time>2022-07-14T07:50:34Z</time>
      </trkpt>
      <trkpt lat="47.18464" lon="-1.60268">
        <ele>54</ele>
        <time>2022-07-14T07:50:36Z</time>
      </trkpt>
      <trkpt lat="47.18455" lon="-1.60284">
        <ele>54</ele>
        <time>2022-07-14T07:50:38Z</time>
      </trkpt>
      <trkpt lat="47.18446" lon="-1.60298">
        <ele>54</ele>
        <time>2022-07-14T07:50:40Z</time>
      </trkpt>
      <trkpt lat="47.18437" lon="-1.60313">
        <ele>54</ele>
        <time>2022-07-14T07:50:42Z</time>
      </trkpt>
      <trkpt lat="47.18428" lon="-1.60328">
        <ele>54</ele>
        <time>2022-07-14T07:50:44Z</time>
      </trkpt>
      <trkpt lat="47.18419" lon="-1.60343">
        <ele>54</ele>
        <time>2022-07-14T07:50:46Z</time>
      </trkpt>
      <trkpt lat="47.18409" lon="-1.60357">
        <ele>53</ele>
        <time>2022-07-14T07:50:48Z</time>
      </trkpt>
      <trkpt lat="47.18399" lon="-1.60371">
        <ele>53</ele>
        <time>2022-07-14T07:50:50Z</time>
      </trkpt>
      <trkpt lat="47.18389" lon="-1.60385">
        <ele>53</ele>
        <time>2022-07-14T07:50:52Z</time>
      </trkpt>
      <trkpt lat="47.18378" lon="-1.60398">
        <ele>52</ele>
        <time>2022-07-14T07:50:54Z</time>
      </trkpt>
      <trkpt lat="47.18368" lon="-1.60412">
        <ele>52</ele>
        <time>2022-07-14T07:50:56Z</time>
      </trkpt>
      <trkpt lat="47.18358" lon="-1.60425">
        <ele>52</ele>
        <time>2022-07-14T07:50:58Z</time>
      </trkpt>
      <trkpt lat="47.18348" lon="-1.60439">
        <ele>52</ele>
        <time>2022-07-14T07:51:00Z</time>
      </trkpt>
      <trkpt lat="47.18338" lon="-1.60452">
        <ele>52</ele>
        <time>2022-07-14T07:51:02Z</time>
      </trkpt>
      <trkpt lat="47.18327" lon="-1.60465">
        <ele>52</ele>
        <time>2022-07-14T07:51:04Z</time>
      </trkpt>
      <trkpt lat="47.18316" lon="-1.60478">
        <ele>52</ele>
        <time>2022-07-14T07:51:06Z</time>
      </trkpt>
      <trkpt lat="47.18305" lon="-1.60491">
        <ele>52</ele>
        <time>2022-07-14T07:51:08Z</time>
      </trkpt>
      <trkpt lat="47.18295" lon="-1.60503">
        <ele>53</ele>
        <time>2022-07-14T07:51:10Z</time>
      </trkpt>
      <trkpt lat="47.18283" lon="-1.60515">
        <ele>53</ele>
        <time>2022-07-14T07:51:12Z</time>
      </trkpt>
      <trkpt lat="47.18271" lon="-1.60526">
        <ele>54</ele>
        <time>2022-07-14T07:51:14Z</time>
      </trkpt>
      <trkpt lat="47.1826" lon="-1.60536">
        <ele>54</ele>
        <time>2022-07-14T07:51:16Z</time>
      </trkpt>
      <trkpt lat="47.18247" lon="-1.60546">
        <ele>54</ele>
        <time>2022-07-14T07:51:18Z</time>
      </trkpt>
      <trkpt lat="47.18235" lon="-1.60554">
        <ele>54</ele>
        <time>2022-07-14T07:51:20Z</time>
      </trkpt>
      <trkpt lat="47.18223" lon="-1.60562">
        <ele>55</ele>
        <time>2022-07-14T07:51:22Z</time>
      </trkpt>
      <trkpt lat="47.18212" lon="-1.60568">
        <ele>55</ele>
        <time>2022-07-14T07:51:24Z</time>
      </trkpt>
      <trkpt lat="47.18201" lon="-1.60573">
        <ele>55</ele>
        <time>2022-07-14T07:51:26Z</time>
      </trkpt>
      <trkpt lat="47.18191" lon="-1.60577">
        <ele>56</ele>
        <time>2022-07-14T07:51:28Z</time>
      </trkpt>
      <trkpt lat="47.18185" lon="-1.60591">
        <ele>56</ele>
        <time>2022-07-14T07:51:31Z</time>
      </trkpt>
      <trkpt lat="47.18178" lon="-1.60602">
        <ele>56</ele>
        <time>2022-07-14T07:51:33Z</time>
      </trkpt>
      <trkpt lat="47.18164" lon="-1.60603">
        <ele>56</ele>
        <time>2022-07-14T07:51:35Z</time>
      </trkpt>
      <trkpt lat="47.18151" lon="-1.60605">
        <ele>56</ele>
        <time>2022-07-14T07:51:37Z</time>
      </trkpt>
      <trkpt lat="47.18137" lon="-1.60603">
        <ele>57</ele>
        <time>2022-07-14T07:51:39Z</time>
      </trkpt>
      <trkpt lat="47.18123" lon="-1.60599">
        <ele>57</ele>
        <time>2022-07-14T07:51:41Z</time>
      </trkpt>
      <trkpt lat="47.1811" lon="-1.60594">
        <ele>57</ele>
        <time>2022-07-14T07:51:43Z</time>
      </trkpt>
      <trkpt lat="47.18097" lon="-1.60589">
        <ele>57</ele>
        <time>2022-07-14T07:51:45Z</time>
      </trkpt>
      <trkpt lat="47.18083" lon="-1.60583">
        <ele>57</ele>
        <time>2022-07-14T07:51:47Z</time>
      </trkpt>
      <trkpt lat="47.1807" lon="-1.60576">
        <ele>58</ele>
        <time>2022-07-14T07:51:49Z</time>
      </trkpt>
      <trkpt lat="47.18057" lon="-1.60569">
        <ele>58</ele>
        <time>2022-07-14T07:51:51Z</time>
      </trkpt>
      <trkpt lat="47.18044" lon="-1.60561">
        <ele>58</ele>
        <time>2022-07-14T07:51:53Z</time>
      </trkpt>
      <trkpt lat="47.18031" lon="-1.60555">
        <ele>58</ele>
        <time>2022-07-14T07:51:55Z</time>
      </trkpt>
      <trkpt lat="47.18016" lon="-1.60552">
        <ele>57</ele>
        <time>2022-07-14T07:51:57Z</time>
      </trkpt>
      <trkpt lat="47.18003" lon="-1.60554">
        <ele>56</ele>
        <time>2022-07-14T07:51:59Z</time>
      </trkpt>
      <trkpt lat="47.17989" lon="-1.60558">
        <ele>56</ele>
        <time>2022-07-14T07:52:01Z</time>
      </trkpt>
      <trkpt lat="47.17976" lon="-1.60563">
        <ele>56</ele>
        <time>2022-07-14T07:52:03Z</time>
      </trkpt>
      <trkpt lat="47.17964" lon="-1.60567">
        <ele>55</ele>
        <time>2022-07-14T07:52:05Z</time>
      </trkpt>
      <trkpt lat="47.17952" lon="-1.60571">
        <ele>55</ele>
        <time>2022-07-14T07:52:07Z</time>
      </trkpt>
      <trkpt lat="47.17938" lon="-1.60578">
        <ele>56</ele>
        <time>2022-07-14T07:52:09Z</time>
      </trkpt>
      <trkpt lat="47.17929" lon="-1.60583">
        <ele>56</ele>
        <time>2022-07-14T07:52:11Z</time>
      </trkpt>
      <trkpt lat="47.1792" lon="-1.60588">
        <ele>57</ele>
        <time>2022-07-14T07:52:14Z</time>
      </trkpt>
      <trkpt lat="47.17911" lon="-1.60586">
        <ele>58</ele>
        <time>2022-07-14T07:52:18Z</time>
      </trkpt>
      <trkpt lat="47.17903" lon="-1.60597">
        <ele>57</ele>
        <time>2022-07-14T07:52:21Z</time>
      </trkpt>
      <trkpt lat="47.179" lon="-1.60611">
        <ele>57</ele>
        <time>2022-07-14T07:52:23Z</time>
      </trkpt>
      <trkpt lat="47.17895" lon="-1.60625">
        <ele>56</ele>
        <time>2022-07-14T07:52:25Z</time>
      </trkpt>
      <trkpt lat="47.17891" lon="-1.60641">
        <ele>55</ele>
        <time>2022-07-14T07:52:27Z</time>
      </trkpt>
      <trkpt lat="47.17885" lon="-1.60657">
        <ele>55</ele>
        <time>2022-07-14T07:52:29Z</time>
      </trkpt>
      <trkpt lat="47.1788" lon="-1.60673">
        <ele>54</ele>
        <time>2022-07-14T07:52:31Z</time>
      </trkpt>
      <trkpt lat="47.17875" lon="-1.60691">
        <ele>53</ele>
        <time>2022-07-14T07:52:33Z</time>
      </trkpt>
      <trkpt lat="47.17871" lon="-1.60708">
        <ele>52</ele>
        <time>2022-07-14T07:52:35Z</time>
      </trkpt>
      <trkpt lat="47.17867" lon="-1.60725">
        <ele>52</ele>
        <time>2022-07-14T07:52:37Z</time>
      </trkpt>
      <trkpt lat="47.17863" lon="-1.60742">
        <ele>52</ele>
        <time>2022-07-14T07:52:39Z</time>
      </trkpt>
      <trkpt lat="47.17859" lon="-1.60759">
        <ele>52</ele>
        <time>2022-07-14T07:52:41Z</time>
      </trkpt>
      <trkpt lat="47.17855" lon="-1.60775">
        <ele>52</ele>
        <time>2022-07-14T07:52:43Z</time>
      </trkpt>
      <trkpt lat="47.17852" lon="-1.60791">
        <ele>52</ele>
        <time>2022-07-14T07:52:45Z</time>
      </trkpt>
      <trkpt lat="47.17848" lon="-1.60805">
        <ele>53</ele>
        <time>2022-07-14T07:52:47Z</time>
      </trkpt>
      <trkpt lat="47.17845" lon="-1.60821">
        <ele>53</ele>
        <time>2022-07-14T07:52:49Z</time>
      </trkpt>
      <trkpt lat="47.17841" lon="-1.60835">
        <ele>53</ele>
        <time>2022-07-14T07:52:51Z</time>
      </trkpt>
      <trkpt lat="47.17835" lon="-1.6085">
        <ele>53</ele>
        <time>2022-07-14T07:52:53Z</time>
      </trkpt>
      <trkpt lat="47.17829" lon="-1.60862">
        <ele>53</ele>
        <time>2022-07-14T07:52:55Z</time>
      </trkpt>
      <trkpt lat="47.17822" lon="-1.60873">
        <ele>53</ele>
        <time>2022-07-14T07:52:57Z</time>
      </trkpt>
      <trkpt lat="47.17813" lon="-1.60884">
        <ele>53</ele>
        <time>2022-07-14T07:52:59Z</time>
      </trkpt>
      <trkpt lat="47.17804" lon="-1.60894">
        <ele>53</ele>
        <time>2022-07-14T07:53:01Z</time>
      </trkpt>
      <trkpt lat="47.17794" lon="-1.60902">
        <ele>52</ele>
        <time>2022-07-14T07:53:03Z</time>
      </trkpt>
      <trkpt lat="47.17784" lon="-1.60909">
        <ele>52</ele>
        <time>2022-07-14T07:53:05Z</time>
      </trkpt>
      <trkpt lat="47.17774" lon="-1.60916">
        <ele>52</ele>
        <time>2022-07-14T07:53:07Z</time>
      </trkpt>
      <trkpt lat="47.17763" lon="-1.60923">
        <ele>52</ele>
        <time>2022-07-14T07:53:09Z</time>
      </trkpt>
      <trkpt lat="47.17754" lon="-1.60931">
        <ele>52</ele>
        <time>2022-07-14T07:53:11Z</time>
      </trkpt>
      <trkpt lat="47.17744" lon="-1.60939">
        <ele>52</ele>
        <time>2022-07-14T07:53:13Z</time>
      </trkpt>
      <trkpt lat="47.17732" lon="-1.60947">
        <ele>52</ele>
        <time>2022-07-14T07:53:15Z</time>
      </trkpt>
      <trkpt lat="47.1772" lon="-1.60956">
        <ele>52</ele>
        <time>2022-07-14T07:53:17Z</time>
      </trkpt>
      <trkpt lat="47.17706" lon="-1.60965">
        <ele>52</ele>
        <time>2022-07-14T07:53:19Z</time>
      </trkpt>
      <trkpt lat="47.17691" lon="-1.60972">
        <ele>52</ele>
        <time>2022-07-14T07:53:21Z</time>
      </trkpt>
      <trkpt lat="47.17674" lon="-1.60973">
        <ele>52</ele>
        <time>2022-07-14T07:53:23Z</time>
      </trkpt>
      <trkpt lat="47.17664" lon="-1.60973">
        <ele>52</ele>
        <time>2022-07-14T07:53:24Z</time>
      </trkpt>
      <trkpt lat="47.17653" lon="-1.60977">
        <ele>52</ele>
        <time>2022-07-14T07:53:25Z</time>
      </trkpt>
      <trkpt lat="47.17645" lon="-1.60983">
        <ele>52</ele>
        <time>2022-07-14T07:53:26Z</time>
      </trkpt>
      <trkpt lat="47.17637" lon="-1.60991">
        <ele>52</ele>
        <time>2022-07-14T07:53:27Z</time>
      </trkpt>
      <trkpt lat="47.17629" lon="-1.60998">
        <ele>51</ele>
        <time>2022-07-14T07:53:28Z</time>
      </trkpt>
      <trkpt lat="47.17621" lon="-1.61005">
        <ele>51</ele>
        <time>2022-07-14T07:53:29Z</time>
      </trkpt>
      <trkpt lat="47.17613" lon="-1.61012">
        <ele>51</ele>
        <time>2022-07-14T07:53:30Z</time>
      </trkpt>
      <trkpt lat="47.17605" lon="-1.61019">
        <ele>51</ele>
        <time>2022-07-14T07:53:31Z</time>
      </trkpt>
      <trkpt lat="47.17597" lon="-1.61026">
        <ele>51</ele>
        <time>2022-07-14T07:53:32Z</time>
      </trkpt>
      <trkpt lat="47.1759" lon="-1.61033">
        <ele>50</ele>
        <time>2022-07-14T07:53:33Z</time>
      </trkpt>
      <trkpt lat="47.17582" lon="-1.6104">
        <ele>50</ele>
        <time>2022-07-14T07:53:34Z</time>
      </trkpt>
      <trkpt lat="47.17574" lon="-1.61047">
        <ele>50</ele>
        <time>2022-07-14T07:53:35Z</time>
      </trkpt>
      <trkpt lat="47.17558" lon="-1.6106">
        <ele>50</ele>
        <time>2022-07-14T07:53:37Z</time>
      </trkpt>
      <trkpt lat="47.1755" lon="-1.61067">
        <ele>50</ele>
        <time>2022-07-14T07:53:38Z</time>
      </trkpt>
      <trkpt lat="47.17542" lon="-1.61073">
        <ele>50</ele>
        <time>2022-07-14T07:53:39Z</time>
      </trkpt>
      <trkpt lat="47.17534" lon="-1.6108">
        <ele>50</ele>
        <time>2022-07-14T07:53:40Z</time>
      </trkpt>
      <trkpt lat="47.17526" lon="-1.61087">
        <ele>50</ele>
        <time>2022-07-14T07:53:41Z</time>
      </trkpt>
      <trkpt lat="47.1751" lon="-1.611">
        <ele>51</ele>
        <time>2022-07-14T07:53:43Z</time>
      </trkpt>
      <trkpt lat="47.17494" lon="-1.61106">
        <ele>51</ele>
        <time>2022-07-14T07:53:45Z</time>
      </trkpt>
      <trkpt lat="47.17476" lon="-1.61104">
        <ele>52</ele>
        <time>2022-07-14T07:53:47Z</time>
      </trkpt>
      <trkpt lat="47.17461" lon="-1.61092">
        <ele>52</ele>
        <time>2022-07-14T07:53:49Z</time>
      </trkpt>
      <trkpt lat="47.17449" lon="-1.61077">
        <ele>52</ele>
        <time>2022-07-14T07:53:51Z</time>
      </trkpt>
      <trkpt lat="47.17439" lon="-1.61058">
        <ele>53</ele>
        <time>2022-07-14T07:53:53Z</time>
      </trkpt>
      <trkpt lat="47.17433" lon="-1.6104">
        <ele>54</ele>
        <time>2022-07-14T07:53:55Z</time>
      </trkpt>
      <trkpt lat="47.17428" lon="-1.61022">
        <ele>55</ele>
        <time>2022-07-14T07:53:57Z</time>
      </trkpt>
      <trkpt lat="47.1742" lon="-1.61016">
        <ele>54</ele>
        <time>2022-07-14T07:53:59Z</time>
      </trkpt>
      <trkpt lat="47.17415" lon="-1.61031">
        <ele>54</ele>
        <time>2022-07-14T07:54:01Z</time>
      </trkpt>
      <trkpt lat="47.1742" lon="-1.61047">
        <ele>54</ele>
        <time>2022-07-14T07:54:03Z</time>
      </trkpt>
      <trkpt lat="47.17427" lon="-1.61062">
        <ele>55</ele>
        <time>2022-07-14T07:54:05Z</time>
      </trkpt>
      <trkpt lat="47.17434" lon="-1.61078">
        <ele>56</ele>
        <time>2022-07-14T07:54:07Z</time>
      </trkpt>
      <trkpt lat="47.17441" lon="-1.61094">
        <ele>57</ele>
        <time>2022-07-14T07:54:09Z</time>
      </trkpt>
      <trkpt lat="47.17448" lon="-1.6111">
        <ele>57</ele>
        <time>2022-07-14T07:54:11Z</time>
      </trkpt>
      <trkpt lat="47.17454" lon="-1.61126">
        <ele>59</ele>
        <time>2022-07-14T07:54:13Z</time>
      </trkpt>
      <trkpt lat="47.1746" lon="-1.61142">
        <ele>59</ele>
        <time>2022-07-14T07:54:15Z</time>
      </trkpt>
      <trkpt lat="47.17467" lon="-1.61159">
        <ele>60</ele>
        <time>2022-07-14T07:54:17Z</time>
      </trkpt>
      <trkpt lat="47.17474" lon="-1.61175">
        <ele>59</ele>
        <time>2022-07-14T07:54:19Z</time>
      </trkpt>
      <trkpt lat="47.1748" lon="-1.61191">
        <ele>60</ele>
        <time>2022-07-14T07:54:21Z</time>
      </trkpt>
      <trkpt lat="47.17486" lon="-1.61206">
        <ele>60</ele>
        <time>2022-07-14T07:54:23Z</time>
      </trkpt>
      <trkpt lat="47.17492" lon="-1.61222">
        <ele>60</ele>
        <time>2022-07-14T07:54:25Z</time>
      </trkpt>
      <trkpt lat="47.17499" lon="-1.61237">
        <ele>60</ele>
        <time>2022-07-14T07:54:27Z</time>
      </trkpt>
      <trkpt lat="47.17507" lon="-1.61252">
        <ele>60</ele>
        <time>2022-07-14T07:54:29Z</time>
      </trkpt>
      <trkpt lat="47.17515" lon="-1.61265">
        <ele>60</ele>
        <time>2022-07-14T07:54:31Z</time>
      </trkpt>
      <trkpt lat="47.17524" lon="-1.61277">
        <ele>60</ele>
        <time>2022-07-14T07:54:33Z</time>
      </trkpt>
      <trkpt lat="47.17535" lon="-1.61287">
        <ele>60</ele>
        <time>2022-07-14T07:54:35Z</time>
      </trkpt>
      <trkpt lat="47.17547" lon="-1.61294">
        <ele>60</ele>
        <time>2022-07-14T07:54:37Z</time>
      </trkpt>
      <trkpt lat="47.17556" lon="-1.61305">
        <ele>60</ele>
        <time>2022-07-14T07:54:39Z</time>
      </trkpt>
      <trkpt lat="47.17558" lon="-1.61324">
        <ele>60</ele>
        <time>2022-07-14T07:54:41Z</time>
      </trkpt>
      <trkpt lat="47.17553" lon="-1.61341">
        <ele>60</ele>
        <time>2022-07-14T07:54:43Z</time>
      </trkpt>
      <trkpt lat="47.17542" lon="-1.61353">
        <ele>60</ele>
        <time>2022-07-14T07:54:45Z</time>
      </trkpt>
      <trkpt lat="47.17532" lon="-1.61365">
        <ele>60</ele>
        <time>2022-07-14T07:54:47Z</time>
      </trkpt>
      <trkpt lat="47.17525" lon="-1.61382">
        <ele>60</ele>
        <time>2022-07-14T07:54:49Z</time>
      </trkpt>
      <trkpt lat="47.17521" lon="-1.614">
        <ele>60</ele>
        <time>2022-07-14T07:54:51Z</time>
      </trkpt>
      <trkpt lat="47.17517" lon="-1.61417">
        <ele>60</ele>
        <time>2022-07-14T07:54:53Z</time>
      </trkpt>
      <trkpt lat="47.17514" lon="-1.61433">
        <ele>60</ele>
        <time>2022-07-14T07:54:55Z</time>
      </trkpt>
      <trkpt lat="47.17511" lon="-1.61448">
        <ele>61</ele>
        <time>2022-07-14T07:54:57Z</time>
      </trkpt>
      <trkpt lat="47.17503" lon="-1.61459">
        <ele>62</ele>
        <time>2022-07-14T07:54:59Z</time>
      </trkpt>
      <trkpt lat="47.17491" lon="-1.61466">
        <ele>62</ele>
        <time>2022-07-14T07:55:01Z</time>
      </trkpt>
      <trkpt lat="47.17479" lon="-1.61471">
        <ele>62</ele>
        <time>2022-07-14T07:55:03Z</time>
      </trkpt>
      <trkpt lat="47.17467" lon="-1.61477">
        <ele>63</ele>
        <time>2022-07-14T07:55:05Z</time>
      </trkpt>
      <trkpt lat="47.17454" lon="-1.61482">
        <ele>64</ele>
        <time>2022-07-14T07:55:07Z</time>
      </trkpt>
      <trkpt lat="47.17442" lon="-1.61487">
        <ele>64</ele>
        <time>2022-07-14T07:55:09Z</time>
      </trkpt>
      <trkpt lat="47.17432" lon="-1.61494">
        <ele>64</ele>
        <time>2022-07-14T07:55:11Z</time>
      </trkpt>
      <trkpt lat="47.17421" lon="-1.61501">
        <ele>65</ele>
        <time>2022-07-14T07:55:13Z</time>
      </trkpt>
      <trkpt lat="47.1741" lon="-1.61508">
        <ele>65</ele>
        <time>2022-07-14T07:55:15Z</time>
      </trkpt>
      <trkpt lat="47.174" lon="-1.61516">
        <ele>66</ele>
        <time>2022-07-14T07:55:17Z</time>
      </trkpt>
      <trkpt lat="47.1739" lon="-1.61524">
        <ele>66</ele>
        <time>2022-07-14T07:55:19Z</time>
      </trkpt>
      <trkpt lat="47.17381" lon="-1.61533">
        <ele>67</ele>
        <time>2022-07-14T07:55:21Z</time>
      </trkpt>
      <trkpt lat="47.17372" lon="-1.61543">
        <ele>68</ele>
        <time>2022-07-14T07:55:23Z</time>
      </trkpt>
      <trkpt lat="47.17363" lon="-1.61554">
        <ele>69</ele>
        <time>2022-07-14T07:55:25Z</time>
      </trkpt>
      <trkpt lat="47.17354" lon="-1.61564">
        <ele>69</ele>
        <time>2022-07-14T07:55:27Z</time>
      </trkpt>
      <trkpt lat="47.17345" lon="-1.61574">
        <ele>70</ele>
        <time>2022-07-14T07:55:29Z</time>
      </trkpt>
      <trkpt lat="47.17336" lon="-1.61584">
        <ele>70</ele>
        <time>2022-07-14T07:55:31Z</time>
      </trkpt>
      <trkpt lat="47.17328" lon="-1.61596">
        <ele>70</ele>
        <time>2022-07-14T07:55:33Z</time>
      </trkpt>
      <trkpt lat="47.17318" lon="-1.61608">
        <ele>69</ele>
        <time>2022-07-14T07:55:35Z</time>
      </trkpt>
      <trkpt lat="47.17309" lon="-1.6162">
        <ele>69</ele>
        <time>2022-07-14T07:55:37Z</time>
      </trkpt>
      <trkpt lat="47.173" lon="-1.61633">
        <ele>69</ele>
        <time>2022-07-14T07:55:39Z</time>
      </trkpt>
      <trkpt lat="47.17293" lon="-1.61646">
        <ele>69</ele>
        <time>2022-07-14T07:55:41Z</time>
      </trkpt>
      <trkpt lat="47.17286" lon="-1.61661">
        <ele>69</ele>
        <time>2022-07-14T07:55:43Z</time>
      </trkpt>
      <trkpt lat="47.17278" lon="-1.61675">
        <ele>69</ele>
        <time>2022-07-14T07:55:45Z</time>
      </trkpt>
      <trkpt lat="47.1727" lon="-1.6169">
        <ele>69</ele>
        <time>2022-07-14T07:55:47Z</time>
      </trkpt>
      <trkpt lat="47.17263" lon="-1.61705">
        <ele>68</ele>
        <time>2022-07-14T07:55:49Z</time>
      </trkpt>
      <trkpt lat="47.17255" lon="-1.6172">
        <ele>68</ele>
        <time>2022-07-14T07:55:51Z</time>
      </trkpt>
      <trkpt lat="47.17248" lon="-1.61735">
        <ele>69</ele>
        <time>2022-07-14T07:55:53Z</time>
      </trkpt>
      <trkpt lat="47.17243" lon="-1.61752">
        <ele>69</ele>
        <time>2022-07-14T07:55:55Z</time>
      </trkpt>
      <trkpt lat="47.17241" lon="-1.61769">
        <ele>68</ele>
        <time>2022-07-14T07:55:57Z</time>
      </trkpt>
      <trkpt lat="47.17234" lon="-1.6178">
        <ele>68</ele>
        <time>2022-07-14T07:55:59Z</time>
      </trkpt>
      <trkpt lat="47.17223" lon="-1.61789">
        <ele>68</ele>
        <time>2022-07-14T07:56:01Z</time>
      </trkpt>
      <trkpt lat="47.17213" lon="-1.618">
        <ele>68</ele>
        <time>2022-07-14T07:56:03Z</time>
      </trkpt>
      <trkpt lat="47.17202" lon="-1.61811">
        <ele>67</ele>
        <time>2022-07-14T07:56:05Z</time>
      </trkpt>
      <trkpt lat="47.17191" lon="-1.61821">
        <ele>68</ele>
        <time>2022-07-14T07:56:07Z</time>
      </trkpt>
      <trkpt lat="47.1718" lon="-1.61831">
        <ele>67</ele>
        <time>2022-07-14T07:56:09Z</time>
      </trkpt>
      <trkpt lat="47.17168" lon="-1.61842">
        <ele>67</ele>
        <time>2022-07-14T07:56:11Z</time>
      </trkpt>
      <trkpt lat="47.17157" lon="-1.61853">
        <ele>67</ele>
        <time>2022-07-14T07:56:13Z</time>
      </trkpt>
      <trkpt lat="47.17146" lon="-1.61863">
        <ele>67</ele>
        <time>2022-07-14T07:56:15Z</time>
      </trkpt>
      <trkpt lat="47.17135" lon="-1.61873">
        <ele>67</ele>
        <time>2022-07-14T07:56:17Z</time>
      </trkpt>
      <trkpt lat="47.17124" lon="-1.61883">
        <ele>67</ele>
        <time>2022-07-14T07:56:19Z</time>
      </trkpt>
      <trkpt lat="47.17114" lon="-1.61893">
        <ele>67</ele>
        <time>2022-07-14T07:56:21Z</time>
      </trkpt>
      <trkpt lat="47.17103" lon="-1.61905">
        <ele>67</ele>
        <time>2022-07-14T07:56:23Z</time>
      </trkpt>
      <trkpt lat="47.17092" lon="-1.61916">
        <ele>67</ele>
        <time>2022-07-14T07:56:25Z</time>
      </trkpt>
      <trkpt lat="47.17081" lon="-1.61926">
        <ele>67</ele>
        <time>2022-07-14T07:56:27Z</time>
      </trkpt>
      <trkpt lat="47.17072" lon="-1.61936">
        <ele>67</ele>
        <time>2022-07-14T07:56:29Z</time>
      </trkpt>
      <trkpt lat="47.17063" lon="-1.61947">
        <ele>67</ele>
        <time>2022-07-14T07:56:31Z</time>
      </trkpt>
      <trkpt lat="47.17053" lon="-1.61959">
        <ele>67</ele>
        <time>2022-07-14T07:56:33Z</time>
      </trkpt>
      <trkpt lat="47.17044" lon="-1.61972">
        <ele>68</ele>
        <time>2022-07-14T07:56:35Z</time>
      </trkpt>
      <trkpt lat="47.17035" lon="-1.61985">
        <ele>68</ele>
        <time>2022-07-14T07:56:37Z</time>
      </trkpt>
      <trkpt lat="47.17026" lon="-1.61998">
        <ele>67</ele>
        <time>2022-07-14T07:56:39Z</time>
      </trkpt>
      <trkpt lat="47.17016" lon="-1.62011">
        <ele>67</ele>
        <time>2022-07-14T07:56:41Z</time>
      </trkpt>
      <trkpt lat="47.17006" lon="-1.62025">
        <ele>67</ele>
        <time>2022-07-14T07:56:43Z</time>
      </trkpt>
      <trkpt lat="47.16998" lon="-1.6204">
        <ele>67</ele>
        <time>2022-07-14T07:56:45Z</time>
      </trkpt>
      <trkpt lat="47.1699" lon="-1.62055">
        <ele>67</ele>
        <time>2022-07-14T07:56:47Z</time>
      </trkpt>
      <trkpt lat="47.16982" lon="-1.62071">
        <ele>66</ele>
        <time>2022-07-14T07:56:49Z</time>
      </trkpt>
      <trkpt lat="47.16973" lon="-1.62086">
        <ele>67</ele>
        <time>2022-07-14T07:56:51Z</time>
      </trkpt>
      <trkpt lat="47.16965" lon="-1.621">
        <ele>67</ele>
        <time>2022-07-14T07:56:53Z</time>
      </trkpt>
      <trkpt lat="47.16957" lon="-1.62114">
        <ele>67</ele>
        <time>2022-07-14T07:56:55Z</time>
      </trkpt>
      <trkpt lat="47.1695" lon="-1.62129">
        <ele>67</ele>
        <time>2022-07-14T07:56:57Z</time>
      </trkpt>
      <trkpt lat="47.16942" lon="-1.62144">
        <ele>67</ele>
        <time>2022-07-14T07:56:59Z</time>
      </trkpt>
      <trkpt lat="47.16935" lon="-1.62159">
        <ele>67</ele>
        <time>2022-07-14T07:57:01Z</time>
      </trkpt>
      <trkpt lat="47.16928" lon="-1.62175">
        <ele>67</ele>
        <time>2022-07-14T07:57:03Z</time>
      </trkpt>
      <trkpt lat="47.16921" lon="-1.6219">
        <ele>68</ele>
        <time>2022-07-14T07:57:05Z</time>
      </trkpt>
      <trkpt lat="47.16912" lon="-1.62204">
        <ele>67</ele>
        <time>2022-07-14T07:57:07Z</time>
      </trkpt>
      <trkpt lat="47.16903" lon="-1.62218">
        <ele>68</ele>
        <time>2022-07-14T07:57:09Z</time>
      </trkpt>
      <trkpt lat="47.16894" lon="-1.6223">
        <ele>68</ele>
        <time>2022-07-14T07:57:11Z</time>
      </trkpt>
      <trkpt lat="47.16884" lon="-1.62242">
        <ele>68</ele>
        <time>2022-07-14T07:57:13Z</time>
      </trkpt>
      <trkpt lat="47.16874" lon="-1.62254">
        <ele>67</ele>
        <time>2022-07-14T07:57:15Z</time>
      </trkpt>
      <trkpt lat="47.16864" lon="-1.62266">
        <ele>67</ele>
        <time>2022-07-14T07:57:17Z</time>
      </trkpt>
      <trkpt lat="47.16854" lon="-1.62278">
        <ele>68</ele>
        <time>2022-07-14T07:57:19Z</time>
      </trkpt>
      <trkpt lat="47.16844" lon="-1.62291">
        <ele>68</ele>
        <time>2022-07-14T07:57:21Z</time>
      </trkpt>
      <trkpt lat="47.16834" lon="-1.62302">
        <ele>68</ele>
        <time>2022-07-14T07:57:23Z</time>
      </trkpt>
      <trkpt lat="47.16824" lon="-1.62312">
        <ele>68</ele>
        <time>2022-07-14T07:57:25Z</time>
      </trkpt>
      <trkpt lat="47.16813" lon="-1.62321">
        <ele>68</ele>
        <time>2022-07-14T07:57:27Z</time>
      </trkpt>
      <trkpt lat="47.16802" lon="-1.62329">
        <ele>68</ele>
        <time>2022-07-14T07:57:29Z</time>
      </trkpt>
      <trkpt lat="47.16789" lon="-1.62336">
        <ele>68</ele>
        <time>2022-07-14T07:57:31Z</time>
      </trkpt>
      <trkpt lat="47.16777" lon="-1.62341">
        <ele>68</ele>
        <time>2022-07-14T07:57:33Z</time>
      </trkpt>
      <trkpt lat="47.16765" lon="-1.62348">
        <ele>67</ele>
        <time>2022-07-14T07:57:35Z</time>
      </trkpt>
      <trkpt lat="47.16753" lon="-1.62357">
        <ele>67</ele>
        <time>2022-07-14T07:57:37Z</time>
      </trkpt>
      <trkpt lat="47.16742" lon="-1.62369">
        <ele>67</ele>
        <time>2022-07-14T07:57:39Z</time>
      </trkpt>
      <trkpt lat="47.16734" lon="-1.62384">
        <ele>67</ele>
        <time>2022-07-14T07:57:41Z</time>
      </trkpt>
      <trkpt lat="47.1673" lon="-1.62402">
        <ele>67</ele>
        <time>2022-07-14T07:57:43Z</time>
      </trkpt>
      <trkpt lat="47.16727" lon="-1.62417">
        <ele>67</ele>
        <time>2022-07-14T07:57:46Z</time>
      </trkpt>
      <trkpt lat="47.16724" lon="-1.62435">
        <ele>68</ele>
        <time>2022-07-14T07:57:50Z</time>
      </trkpt>
      <trkpt lat="47.1672" lon="-1.62449">
        <ele>68</ele>
        <time>2022-07-14T07:57:52Z</time>
      </trkpt>
      <trkpt lat="47.16716" lon="-1.62464">
        <ele>68</ele>
        <time>2022-07-14T07:57:54Z</time>
      </trkpt>
      <trkpt lat="47.16713" lon="-1.6248">
        <ele>68</ele>
        <time>2022-07-14T07:57:56Z</time>
      </trkpt>
      <trkpt lat="47.16717" lon="-1.62494">
        <ele>67</ele>
        <time>2022-07-14T07:57:58Z</time>
      </trkpt>
      <trkpt lat="47.16728" lon="-1.62499">
        <ele>67</ele>
        <time>2022-07-14T07:58:00Z</time>
      </trkpt>
      <trkpt lat="47.16739" lon="-1.62504">
        <ele>67</ele>
        <time>2022-07-14T07:58:02Z</time>
      </trkpt>
      <trkpt lat="47.16751" lon="-1.62511">
        <ele>68</ele>
        <time>2022-07-14T07:58:04Z</time>
      </trkpt>
      <trkpt lat="47.16762" lon="-1.62517">
        <ele>68</ele>
        <time>2022-07-14T07:58:06Z</time>
      </trkpt>
      <trkpt lat="47.16773" lon="-1.62524">
        <ele>69</ele>
        <time>2022-07-14T07:58:08Z</time>
      </trkpt>
      <trkpt lat="47.16784" lon="-1.62531">
        <ele>69</ele>
        <time>2022-07-14T07:58:10Z</time>
      </trkpt>
      <trkpt lat="47.16795" lon="-1.62537">
        <ele>69</ele>
        <time>2022-07-14T07:58:12Z</time>
      </trkpt>
      <trkpt lat="47.16806" lon="-1.62545">
        <ele>69</ele>
        <time>2022-07-14T07:58:14Z</time>
      </trkpt>
      <trkpt lat="47.16816" lon="-1.62554">
        <ele>69</ele>
        <time>2022-07-14T07:58:16Z</time>
      </trkpt>
      <trkpt lat="47.16825" lon="-1.62564">
        <ele>69</ele>
        <time>2022-07-14T07:58:18Z</time>
      </trkpt>
      <trkpt lat="47.1683" lon="-1.62579">
        <ele>69</ele>
        <time>2022-07-14T07:58:20Z</time>
      </trkpt>
      <trkpt lat="47.16826" lon="-1.62594">
        <ele>69</ele>
        <time>2022-07-14T07:58:22Z</time>
      </trkpt>
      <trkpt lat="47.16818" lon="-1.62606">
        <ele>70</ele>
        <time>2022-07-14T07:58:24Z</time>
      </trkpt>
      <trkpt lat="47.1681" lon="-1.62619">
        <ele>69</ele>
        <time>2022-07-14T07:58:26Z</time>
      </trkpt>
      <trkpt lat="47.16802" lon="-1.62631">
        <ele>69</ele>
        <time>2022-07-14T07:58:28Z</time>
      </trkpt>
      <trkpt lat="47.16796" lon="-1.62641">
        <ele>69</ele>
        <time>2022-07-14T07:58:30Z</time>
      </trkpt>
      <trkpt lat="47.16788" lon="-1.62655">
        <ele>68</ele>
        <time>2022-07-14T07:58:33Z</time>
      </trkpt>
      <trkpt lat="47.16781" lon="-1.62664">
        <ele>68</ele>
        <time>2022-07-14T07:58:36Z</time>
      </trkpt>
    </trkseg>
  </trk>
</gpx>